<?xml version='1.0' encoding='UTF-8'?><gpx version="1.1" creator="JPX - https://github.com/jenetics/jpx" xmlns="http://www.topografix.com/GPX/1/1"><trk><trkseg><trkpt lat="45.76660478168137" lon="8.06637308965173"><ele>718.9999999999999</ele><time>2026-04-06T10:08:11Z</time></trkpt><trkpt lat="45.76661893055194" lon="8.066281467292342"><ele>719.0</ele><time>2026-04-06T10:08:13Z</time></trkpt><trkpt lat="45.76665155874344" lon="8.06619949978656"><ele>719.0</ele><time>2026-04-06T10:08:15Z</time></trkpt><trkpt lat="45.766686976115025" lon="8.066095744353463"><ele>719.0</ele><time>2026-04-06T10:08:18Z</time></trkpt><trkpt lat="45.76670442328319" lon="8.066007299490616"><ele>719.0</ele><time>2026-04-06T10:08:21Z</time></trkpt><trkpt lat="45.766729672030685" lon="8.065897107657895"><ele>718.9999999999999</ele><time>2026-04-06T10:08:25Z</time></trkpt><trkpt lat="45.76675104678996" lon="8.065799383409962"><ele>719.0</ele><time>2026-04-06T10:08:27.999Z</time></trkpt><trkpt lat="45.7667822019213" lon="8.065690099372986"><ele>718.8333333333333</ele><time>2026-04-06T10:08:30.999Z</time></trkpt><trkpt lat="45.76680283183185" lon="8.065562592269497"><ele>718.6666666666666</ele><time>2026-04-06T10:08:33.999Z</time></trkpt><trkpt lat="45.766821756327715" lon="8.065469921958757"><ele>718.5</ele><time>2026-04-06T10:08:35.999Z</time></trkpt><trkpt lat="45.766839077364565" lon="8.065378929211887"><ele>718.3333333333334</ele><time>2026-04-06T10:08:37.999Z</time></trkpt><trkpt lat="45.766862525948625" lon="8.065283383194206"><ele>718.1666666666667</ele><time>2026-04-06T10:08:39.999Z</time></trkpt><trkpt lat="45.76687675210195" lon="8.065193103640208"><ele>718.0</ele><time>2026-04-06T10:08:41.999Z</time></trkpt><trkpt lat="45.76692322540107" lon="8.065053478172452"><ele>716.0</ele><time>2026-04-06T10:08:44.999Z</time></trkpt><trkpt lat="45.76689381400002" lon="8.064898308496913"><ele>714.0</ele><time>2026-04-06T10:08:46.999Z</time></trkpt><trkpt lat="45.76697558967237" lon="8.064812715114307"><ele>712.0</ele><time>2026-04-06T10:08:48.999Z</time></trkpt><trkpt lat="45.76702288826698" lon="8.064744707242317"><ele>710.0</ele><time>2026-04-06T10:08:49.999Z</time></trkpt><trkpt lat="45.76705665967942" lon="8.064607790190015"><ele>708.0</ele><time>2026-04-06T10:08:52.999Z</time></trkpt><trkpt lat="45.76707989178907" lon="8.064496997669409"><ele>708.0</ele><time>2026-04-06T10:08:54.999Z</time></trkpt><trkpt lat="45.767108519217935" lon="8.064389534000243"><ele>708.0</ele><time>2026-04-06T10:08:56.999Z</time></trkpt><trkpt lat="45.76715236429947" lon="8.06429037756623"><ele>708.0</ele><time>2026-04-06T10:08:58.999Z</time></trkpt><trkpt lat="45.76717632452471" lon="8.064179222776795"><ele>708.0</ele><time>2026-04-06T10:09:00.999Z</time></trkpt><trkpt lat="45.767195868739044" lon="8.064057950305422"><ele>708.0</ele><time>2026-04-06T10:09:02.999Z</time></trkpt><trkpt lat="45.767210333838435" lon="8.063938350552116"><ele>708.0</ele><time>2026-04-06T10:09:04.999Z</time></trkpt><trkpt lat="45.767219679256726" lon="8.063804143891117"><ele>709.0</ele><time>2026-04-06T10:09:06.999Z</time></trkpt><trkpt lat="45.767263095756974" lon="8.063681957582252"><ele>710.0</ele><time>2026-04-06T10:09:08.999Z</time></trkpt><trkpt lat="45.7672756860096" lon="8.063576455650043"><ele>711.0</ele><time>2026-04-06T10:09:10.999Z</time></trkpt><trkpt lat="45.76727744701121" lon="8.063483254456727"><ele>712.0</ele><time>2026-04-06T10:09:12.999Z</time></trkpt><trkpt lat="45.76728250323005" lon="8.063373847399355"><ele>713.0</ele><time>2026-04-06T10:09:14.999Z</time></trkpt><trkpt lat="45.76726676778356" lon="8.06328197644881"><ele>714.0</ele><time>2026-04-06T10:09:16.999Z</time></trkpt><trkpt lat="45.76722888761662" lon="8.06319090898443"><ele>714.4285714285714</ele><time>2026-04-06T10:09:18.999Z</time></trkpt><trkpt lat="45.767177015417104" lon="8.063122108374765"><ele>714.8571428571429</ele><time>2026-04-06T10:09:20.999Z</time></trkpt><trkpt lat="45.76709070444253" lon="8.063081114556669"><ele>715.2857142857142</ele><time>2026-04-06T10:09:23.999Z</time></trkpt><trkpt lat="45.76704854399965" lon="8.063004601941765"><ele>715.7142857142858</ele><time>2026-04-06T10:09:27.999Z</time></trkpt><trkpt lat="45.767008205635015" lon="8.0629272994125"><ele>716.1428571428571</ele><time>2026-04-06T10:09:31.999Z</time></trkpt><trkpt lat="45.76696491030143" lon="8.062835520958004"><ele>716.5714285714286</ele><time>2026-04-06T10:09:36Z</time></trkpt><trkpt lat="45.76693762013292" lon="8.06273555768096"><ele>717.0</ele><time>2026-04-06T10:09:40Z</time></trkpt><trkpt lat="45.766934177300115" lon="8.062627555594474"><ele>717.0</ele><time>2026-04-06T10:09:44Z</time></trkpt><trkpt lat="45.7669383766441" lon="8.06252887102253"><ele>717.0</ele><time>2026-04-06T10:09:47Z</time></trkpt><trkpt lat="45.76695076947766" lon="8.062410505673673"><ele>717.0</ele><time>2026-04-06T10:09:50Z</time></trkpt><trkpt lat="45.76695314306956" lon="8.06230538333674"><ele>717.0</ele><time>2026-04-06T10:09:52Z</time></trkpt><trkpt lat="45.766958247016056" lon="8.062210518557569"><ele>717.0</ele><time>2026-04-06T10:09:54Z</time></trkpt><trkpt lat="45.766977484913085" lon="8.062073289853023"><ele>717.0</ele><time>2026-04-06T10:09:57Z</time></trkpt><trkpt lat="45.766984465676586" lon="8.061960976134333"><ele>718.0</ele><time>2026-04-06T10:09:59Z</time></trkpt><trkpt lat="45.76700602558024" lon="8.061864289602129"><ele>719.0</ele><time>2026-04-06T10:10:01Z</time></trkpt><trkpt lat="45.767011762192745" lon="8.061732329005023"><ele>720.0</ele><time>2026-04-06T10:10:04Z</time></trkpt><trkpt lat="45.767029779348604" lon="8.061605316705235"><ele>721.0</ele><time>2026-04-06T10:10:07Z</time></trkpt><trkpt lat="45.7670230635441" lon="8.061472243960356"><ele>722.0</ele><time>2026-04-06T10:10:10Z</time></trkpt><trkpt lat="45.7670283635752" lon="8.061378250389954"><ele>723.0</ele><time>2026-04-06T10:10:12Z</time></trkpt><trkpt lat="45.767025705884755" lon="8.061280811157305"><ele>723.6666666666666</ele><time>2026-04-06T10:10:14Z</time></trkpt><trkpt lat="45.76702618113507" lon="8.061154304510517"><ele>724.3333333333334</ele><time>2026-04-06T10:10:17Z</time></trkpt><trkpt lat="45.76705515073855" lon="8.061058895438721"><ele>725.0</ele><time>2026-04-06T10:10:19Z</time></trkpt><trkpt lat="45.76706745092396" lon="8.060955966417104"><ele>725.6666666666667</ele><time>2026-04-06T10:10:22Z</time></trkpt><trkpt lat="45.76709624912866" lon="8.060871964163859"><ele>726.3333333333334</ele><time>2026-04-06T10:10:24Z</time></trkpt><trkpt lat="45.76711081846868" lon="8.060755185131"><ele>727.0</ele><time>2026-04-06T10:10:27Z</time></trkpt><trkpt lat="45.76709700573966" lon="8.060643632599344"><ele>728.8333333333334</ele><time>2026-04-06T10:10:29.999Z</time></trkpt><trkpt lat="45.767095399146015" lon="8.060540949857641"><ele>730.6666666666667</ele><time>2026-04-06T10:10:32.999Z</time></trkpt><trkpt lat="45.767128071748665" lon="8.060429523851974"><ele>732.5</ele><time>2026-04-06T10:10:35.999Z</time></trkpt><trkpt lat="45.767149380093464" lon="8.060312991330976"><ele>734.3333333333334</ele><time>2026-04-06T10:10:39.999Z</time></trkpt><trkpt lat="45.76716852479471" lon="8.06021387197522"><ele>736.1666666666666</ele><time>2026-04-06T10:10:43.999Z</time></trkpt><trkpt lat="45.767172329433976" lon="8.060115385649231"><ele>738.0</ele><time>2026-04-06T10:10:46.999Z</time></trkpt><trkpt lat="45.76718981461424" lon="8.060006530740612"><ele>738.5</ele><time>2026-04-06T10:10:51.999Z</time></trkpt><trkpt lat="45.76722765058178" lon="8.059924611654345"><ele>739.0</ele><time>2026-04-06T10:10:54.999Z</time></trkpt><trkpt lat="45.767259688385224" lon="8.059796626084749"><ele>739.5</ele><time>2026-04-06T10:10:57.999Z</time></trkpt><trkpt lat="45.767289866478116" lon="8.059702953633328"><ele>740.0</ele><time>2026-04-06T10:10:59.999Z</time></trkpt><trkpt lat="45.76731520136597" lon="8.059604076805739"><ele>740.5</ele><time>2026-04-06T10:11:01.999Z</time></trkpt><trkpt lat="45.76733303605492" lon="8.059484549745854"><ele>741.0</ele><time>2026-04-06T10:11:03.999Z</time></trkpt><trkpt lat="45.76735229007208" lon="8.059388822598887"><ele>741.0</ele><time>2026-04-06T10:11:05.999Z</time></trkpt><trkpt lat="45.76737540223315" lon="8.059278012884224"><ele>741.0</ele><time>2026-04-06T10:11:07.999Z</time></trkpt><trkpt lat="45.76740073540096" lon="8.059191529837307"><ele>741.0</ele><time>2026-04-06T10:11:09.999Z</time></trkpt><trkpt lat="45.767408806591" lon="8.059085199689427"><ele>741.0</ele><time>2026-04-06T10:11:11.999Z</time></trkpt><trkpt lat="45.76739594192929" lon="8.058972473108355"><ele>741.0</ele><time>2026-04-06T10:11:13.999Z</time></trkpt><trkpt lat="45.76740799774703" lon="8.058834370779703"><ele>741.0</ele><time>2026-04-06T10:11:15.999Z</time></trkpt><trkpt lat="45.76741534474695" lon="8.058736375402345"><ele>741.5</ele><time>2026-04-06T10:11:17.999Z</time></trkpt><trkpt lat="45.76742414254003" lon="8.058630086398958"><ele>742.0</ele><time>2026-04-06T10:11:19.999Z</time></trkpt><trkpt lat="45.767436674133506" lon="8.058517124413436"><ele>742.5</ele><time>2026-04-06T10:11:21.999Z</time></trkpt><trkpt lat="45.76745357731678" lon="8.058406371896897"><ele>743.0</ele><time>2026-04-06T10:11:23.999Z</time></trkpt><trkpt lat="45.7674661090468" lon="8.058311889036204"><ele>743.5</ele><time>2026-04-06T10:11:26.999Z</time></trkpt><trkpt lat="45.76749187969357" lon="8.058215782394551"><ele>744.0</ele><time>2026-04-06T10:11:29.999Z</time></trkpt><trkpt lat="45.7675347747338" lon="8.058123984162856"><ele>744.4000000000001</ele><time>2026-04-06T10:11:32.999Z</time></trkpt><trkpt lat="45.767540610651835" lon="8.058002974370682"><ele>744.8</ele><time>2026-04-06T10:11:37.999Z</time></trkpt><trkpt lat="45.767557327147216" lon="8.057895240539828"><ele>745.2</ele><time>2026-04-06T10:11:40.999Z</time></trkpt><trkpt lat="45.76760438578462" lon="8.057790595002599"><ele>745.5999999999999</ele><time>2026-04-06T10:11:43Z</time></trkpt><trkpt lat="45.767643060997784" lon="8.057666736664675"><ele>746.0</ele><time>2026-04-06T10:11:45Z</time></trkpt><trkpt lat="45.76768467514141" lon="8.057520826036217"><ele>745.5</ele><time>2026-04-06T10:11:47Z</time></trkpt><trkpt lat="45.767726254046785" lon="8.05740206014799"><ele>745.0</ele><time>2026-04-06T10:11:49Z</time></trkpt><trkpt lat="45.76775418325156" lon="8.057272974650477"><ele>744.5</ele><time>2026-04-06T10:11:51Z</time></trkpt><trkpt lat="45.767724875931115" lon="8.057141051317869"><ele>744.0</ele><time>2026-04-06T10:11:53Z</time></trkpt><trkpt lat="45.76770910897047" lon="8.05702406218736"><ele>743.5</ele><time>2026-04-06T10:11:55Z</time></trkpt><trkpt lat="45.76769578489594" lon="8.056923420185218"><ele>743.0</ele><time>2026-04-06T10:11:57Z</time></trkpt><trkpt lat="45.76768978037559" lon="8.056792516620561"><ele>742.5</ele><time>2026-04-06T10:11:59Z</time></trkpt><trkpt lat="45.76769706435099" lon="8.056692401456884"><ele>742.0</ele><time>2026-04-06T10:12:01Z</time></trkpt><trkpt lat="45.76767897905783" lon="8.056570795236947"><ele>741.5</ele><time>2026-04-06T10:12:04Z</time></trkpt><trkpt lat="45.76767260171366" lon="8.056475827010265"><ele>741.0</ele><time>2026-04-06T10:12:08Z</time></trkpt><trkpt lat="45.76769455751601" lon="8.056352839766875"><ele>740.5</ele><time>2026-04-06T10:12:13Z</time></trkpt><trkpt lat="45.76773350405036" lon="8.056276158191908"><ele>740.0</ele><time>2026-04-06T10:12:16Z</time></trkpt><trkpt lat="45.767762507458635" lon="8.05616752889739"><ele>736.5</ele><time>2026-04-06T10:12:19Z</time></trkpt><trkpt lat="45.76778542766736" lon="8.056080410330502"><ele>733.0</ele><time>2026-04-06T10:12:21Z</time></trkpt><trkpt lat="45.76781420288062" lon="8.055968218277407"><ele>729.5</ele><time>2026-04-06T10:12:24Z</time></trkpt><trkpt lat="45.76784190572323" lon="8.055824637230522"><ele>726.0</ele><time>2026-04-06T10:12:27Z</time></trkpt><trkpt lat="45.76784753956246" lon="8.05568867827584"><ele>722.5</ele><time>2026-04-06T10:12:29Z</time></trkpt><trkpt lat="45.767811634901676" lon="8.055580915888207"><ele>719.0</ele><time>2026-04-06T10:12:31Z</time></trkpt><trkpt lat="45.767803714021746" lon="8.055488430918563"><ele>719.0</ele><time>2026-04-06T10:12:33Z</time></trkpt><trkpt lat="45.76778629810892" lon="8.055364964441916"><ele>719.0</ele><time>2026-04-06T10:12:36Z</time></trkpt><trkpt lat="45.76777311662616" lon="8.055240145813185"><ele>719.0</ele><time>2026-04-06T10:12:39Z</time></trkpt><trkpt lat="45.767765762264105" lon="8.055103298631629"><ele>719.0</ele><time>2026-04-06T10:12:41.999Z</time></trkpt><trkpt lat="45.76778127410964" lon="8.055003483124672"><ele>719.0</ele><time>2026-04-06T10:12:43.999Z</time></trkpt><trkpt lat="45.76780273051662" lon="8.054892295920379"><ele>719.0</ele><time>2026-04-06T10:12:45.999Z</time></trkpt><trkpt lat="45.76782984501685" lon="8.054788955859484"><ele>719.7142857142857</ele><time>2026-04-06T10:12:47.999Z</time></trkpt><trkpt lat="45.76785707306418" lon="8.054682384093994"><ele>720.4285714285714</ele><time>2026-04-06T10:12:49.999Z</time></trkpt><trkpt lat="45.76787863076973" lon="8.054583412748714"><ele>721.1428571428571</ele><time>2026-04-06T10:12:51.999Z</time></trkpt><trkpt lat="45.76791604202309" lon="8.054490289578794"><ele>721.8571428571429</ele><time>2026-04-06T10:12:53.999Z</time></trkpt><trkpt lat="45.76795262861022" lon="8.054401733024326"><ele>722.5714285714286</ele><time>2026-04-06T10:12:55.999Z</time></trkpt><trkpt lat="45.76799141448201" lon="8.054315092683705"><ele>723.2857142857142</ele><time>2026-04-06T10:12:57.999Z</time></trkpt><trkpt lat="45.76803085434808" lon="8.054234792869732"><ele>724.0</ele><time>2026-04-06T10:12:59.999Z</time></trkpt><trkpt lat="45.76806480061651" lon="8.054113470290325"><ele>724.4285714285714</ele><time>2026-04-06T10:13:02.999Z</time></trkpt><trkpt lat="45.768100958456536" lon="8.054024127460355"><ele>724.8571428571429</ele><time>2026-04-06T10:13:04.999Z</time></trkpt><trkpt lat="45.768136116342" lon="8.053932209452885"><ele>725.2857142857142</ele><time>2026-04-06T10:13:06.999Z</time></trkpt><trkpt lat="45.76817552694194" lon="8.053840032763688"><ele>725.7142857142858</ele><time>2026-04-06T10:13:08.999Z</time></trkpt><trkpt lat="45.768210197511834" lon="8.053750469138834"><ele>726.1428571428572</ele><time>2026-04-06T10:13:10.999Z</time></trkpt><trkpt lat="45.768250652837665" lon="8.053663582819482"><ele>726.5714285714286</ele><time>2026-04-06T10:13:12.999Z</time></trkpt><trkpt lat="45.768304035706116" lon="8.053573083175452"><ele>727.0</ele><time>2026-04-06T10:13:14.999Z</time></trkpt><trkpt lat="45.76838156889064" lon="8.053481176058124"><ele>727.0</ele><time>2026-04-06T10:13:16.999Z</time></trkpt><trkpt lat="45.76844471580497" lon="8.053366951995848"><ele>727.0</ele><time>2026-04-06T10:13:18.999Z</time></trkpt><trkpt lat="45.768465863682785" lon="8.053202300294199"><ele>727.0</ele><time>2026-04-06T10:13:20.999Z</time></trkpt><trkpt lat="45.76845586820591" lon="8.053066390453903"><ele>727.0</ele><time>2026-04-06T10:13:22.999Z</time></trkpt><trkpt lat="45.768461956759495" lon="8.052932282574876"><ele>727.0</ele><time>2026-04-06T10:13:24.999Z</time></trkpt><trkpt lat="45.76845650396167" lon="8.052812288246228"><ele>726.1666666666667</ele><time>2026-04-06T10:13:26.999Z</time></trkpt><trkpt lat="45.768441087563346" lon="8.052676004338602"><ele>725.3333333333334</ele><time>2026-04-06T10:13:28.999Z</time></trkpt><trkpt lat="45.76845144744256" lon="8.052565979678695"><ele>724.5</ele><time>2026-04-06T10:13:30.999Z</time></trkpt><trkpt lat="45.768503352895685" lon="8.052508892211087"><ele>723.6666666666666</ele><time>2026-04-06T10:13:31.999Z</time></trkpt><trkpt lat="45.768575920943256" lon="8.052411892888886"><ele>722.8333333333333</ele><time>2026-04-06T10:13:33.999Z</time></trkpt><trkpt lat="45.768611457246976" lon="8.052299803680858"><ele>722.0</ele><time>2026-04-06T10:13:35.999Z</time></trkpt><trkpt lat="45.76866054881965" lon="8.05219554554752"><ele>722.0</ele><time>2026-04-06T10:13:38.999Z</time></trkpt><trkpt lat="45.76869196435562" lon="8.052101113395034"><ele>722.0</ele><time>2026-04-06T10:13:41.999Z</time></trkpt><trkpt lat="45.76870952153965" lon="8.052000328737005"><ele>722.0</ele><time>2026-04-06T10:13:44.999Z</time></trkpt><trkpt lat="45.76873115371645" lon="8.051892439266569"><ele>722.0</ele><time>2026-04-06T10:13:49Z</time></trkpt><trkpt lat="45.76873958463808" lon="8.05179063504815"><ele>722.0</ele><time>2026-04-06T10:13:52Z</time></trkpt><trkpt lat="45.76872977931023" lon="8.051683281267906"><ele>722.0</ele><time>2026-04-06T10:13:55Z</time></trkpt><trkpt lat="45.7687251143354" lon="8.051552857773325"><ele>722.6666666666666</ele><time>2026-04-06T10:13:58Z</time></trkpt><trkpt lat="45.76872013789267" lon="8.05144790578426"><ele>723.3333333333333</ele><time>2026-04-06T10:14:00Z</time></trkpt><trkpt lat="45.76872145620713" lon="8.051357245812396"><ele>724.0</ele><time>2026-04-06T10:14:02Z</time></trkpt><trkpt lat="45.7687284872547" lon="8.051232275161658"><ele>724.6666666666666</ele><time>2026-04-06T10:14:05Z</time></trkpt><trkpt lat="45.768738056503295" lon="8.05111927861529"><ele>725.3333333333334</ele><time>2026-04-06T10:14:08Z</time></trkpt><trkpt lat="45.76875649836508" lon="8.050987607962739"><ele>726.0</ele><time>2026-04-06T10:14:11Z</time></trkpt><trkpt lat="45.76886778612922" lon="8.050924337724053"><ele>726.0</ele><time>2026-04-06T10:14:13Z</time></trkpt><trkpt lat="45.7689386493734" lon="8.05093321851174"><ele>726.0</ele><time>2026-04-06T10:14:14Z</time></trkpt><trkpt lat="45.769010051724166" lon="8.050903958308217"><ele>726.0</ele><time>2026-04-06T10:14:15Z</time></trkpt><trkpt lat="45.76908518108828" lon="8.050849536458518"><ele>726.0</ele><time>2026-04-06T10:14:16Z</time></trkpt><trkpt lat="45.76915782366939" lon="8.050790544174443"><ele>726.0</ele><time>2026-04-06T10:14:17Z</time></trkpt><trkpt lat="45.76923201695049" lon="8.050721780068391"><ele>726.0</ele><time>2026-04-06T10:14:18Z</time></trkpt><trkpt lat="45.76930965290456" lon="8.050655828481176"><ele>727.5</ele><time>2026-04-06T10:14:19Z</time></trkpt><trkpt lat="45.769379436983456" lon="8.050595260696545"><ele>729.0</ele><time>2026-04-06T10:14:20Z</time></trkpt><trkpt lat="45.76944859712829" lon="8.050541197342847"><ele>730.5</ele><time>2026-04-06T10:14:21Z</time></trkpt><trkpt lat="45.76951216898022" lon="8.050489111343591"><ele>732.0</ele><time>2026-04-06T10:14:22Z</time></trkpt><trkpt lat="45.76956381569472" lon="8.050428858611985"><ele>733.5</ele><time>2026-04-06T10:14:23Z</time></trkpt><trkpt lat="45.76966039009108" lon="8.050330823161763"><ele>735.0</ele><time>2026-04-06T10:14:25Z</time></trkpt><trkpt lat="45.7697476794657" lon="8.050249518489682"><ele>735.0</ele><time>2026-04-06T10:14:27Z</time></trkpt><trkpt lat="45.76982343373687" lon="8.05018295223409"><ele>735.0</ele><time>2026-04-06T10:14:29Z</time></trkpt><trkpt lat="45.769894164129106" lon="8.050121342401448"><ele>735.0</ele><time>2026-04-06T10:14:31Z</time></trkpt><trkpt lat="45.76996875150904" lon="8.050055943324303"><ele>735.0</ele><time>2026-04-06T10:14:33Z</time></trkpt><trkpt lat="45.770046478468295" lon="8.049991352539813"><ele>735.0</ele><time>2026-04-06T10:14:35Z</time></trkpt><trkpt lat="45.770126385464806" lon="8.049947799950292"><ele>735.0</ele><time>2026-04-06T10:14:37Z</time></trkpt><trkpt lat="45.77020829938523" lon="8.049924625078505"><ele>735.0</ele><time>2026-04-06T10:14:39Z</time></trkpt><trkpt lat="45.77029514827414" lon="8.04992400068998"><ele>735.0</ele><time>2026-04-06T10:14:41Z</time></trkpt><trkpt lat="45.770381257473986" lon="8.04995015006173"><ele>735.0</ele><time>2026-04-06T10:14:43Z</time></trkpt><trkpt lat="45.7704563817794" lon="8.049992562330322"><ele>735.0</ele><time>2026-04-06T10:14:45Z</time></trkpt><trkpt lat="45.770527123553485" lon="8.050041912096553"><ele>735.0</ele><time>2026-04-06T10:14:47Z</time></trkpt><trkpt lat="45.770602785093644" lon="8.05008637589654"><ele>735.0</ele><time>2026-04-06T10:14:48.999Z</time></trkpt><trkpt lat="45.770679570321214" lon="8.050045695740188"><ele>735.0</ele><time>2026-04-06T10:14:50.999Z</time></trkpt><trkpt lat="45.770757208524635" lon="8.050032625462839"><ele>735.0</ele><time>2026-04-06T10:14:52.999Z</time></trkpt><trkpt lat="45.77081617909941" lon="8.049989550973892"><ele>735.0</ele><time>2026-04-06T10:14:54.999Z</time></trkpt><trkpt lat="45.7708896004291" lon="8.049976178687666"><ele>735.0</ele><time>2026-04-06T10:14:56.999Z</time></trkpt><trkpt lat="45.77096666858983" lon="8.049987861034689"><ele>735.0</ele><time>2026-04-06T10:14:58.999Z</time></trkpt><trkpt lat="45.77101595420953" lon="8.05005459473835"><ele>735.0</ele><time>2026-04-06T10:15:00.999Z</time></trkpt><trkpt lat="45.771069816598335" lon="8.050105359417323"><ele>735.0</ele><time>2026-04-06T10:15:02.999Z</time></trkpt><trkpt lat="45.77113090965253" lon="8.04999195024443"><ele>737.8</ele><time>2026-04-06T10:15:05.999Z</time></trkpt><trkpt lat="45.77122969697553" lon="8.049920615387927"><ele>740.6</ele><time>2026-04-06T10:15:07.999Z</time></trkpt><trkpt lat="45.771308948236374" lon="8.049859475540117"><ele>743.4000000000001</ele><time>2026-04-06T10:15:09.999Z</time></trkpt><trkpt lat="45.77138871066319" lon="8.049792109374339"><ele>746.2</ele><time>2026-04-06T10:15:11.999Z</time></trkpt><trkpt lat="45.77146140177262" lon="8.049710849380235"><ele>749.0</ele><time>2026-04-06T10:15:13.999Z</time></trkpt><trkpt lat="45.77151982613935" lon="8.049627338814208"><ele>749.0</ele><time>2026-04-06T10:15:15.999Z</time></trkpt><trkpt lat="45.77156688254204" lon="8.049544265090553"><ele>749.0</ele><time>2026-04-06T10:15:17.999Z</time></trkpt><trkpt lat="45.77160750911593" lon="8.04944491626734"><ele>749.0</ele><time>2026-04-06T10:15:19.999Z</time></trkpt><trkpt lat="45.77165508699966" lon="8.04937088211812"><ele>749.0</ele><time>2026-04-06T10:15:21.999Z</time></trkpt><trkpt lat="45.771697736275094" lon="8.049250815144148"><ele>749.0</ele><time>2026-04-06T10:15:24.999Z</time></trkpt><trkpt lat="45.771751495598835" lon="8.049130118729737"><ele>749.0</ele><time>2026-04-06T10:15:27.999Z</time></trkpt><trkpt lat="45.771802557857065" lon="8.04905588463696"><ele>745.8333333333333</ele><time>2026-04-06T10:15:29.999Z</time></trkpt><trkpt lat="45.77184490322648" lon="8.048973587097072"><ele>742.6666666666666</ele><time>2026-04-06T10:15:31.999Z</time></trkpt><trkpt lat="45.77188029364387" lon="8.04887011574512"><ele>739.5</ele><time>2026-04-06T10:15:33.999Z</time></trkpt><trkpt lat="45.771900637965224" lon="8.048767301590214"><ele>736.3333333333334</ele><time>2026-04-06T10:15:35.999Z</time></trkpt><trkpt lat="45.77190817464144" lon="8.048654470898843"><ele>733.1666666666667</ele><time>2026-04-06T10:15:37.999Z</time></trkpt><trkpt lat="45.7719364528381" lon="8.048544812393729"><ele>730.0</ele><time>2026-04-06T10:15:39.999Z</time></trkpt><trkpt lat="45.77197312674823" lon="8.048438159285826"><ele>730.0</ele><time>2026-04-06T10:15:41.999Z</time></trkpt><trkpt lat="45.772007973168385" lon="8.048325477829813"><ele>730.0</ele><time>2026-04-06T10:15:43.999Z</time></trkpt><trkpt lat="45.77205329993051" lon="8.04821723100711"><ele>730.0</ele><time>2026-04-06T10:15:45.999Z</time></trkpt><trkpt lat="45.77209192222184" lon="8.048113310650152"><ele>730.0</ele><time>2026-04-06T10:15:47.999Z</time></trkpt><trkpt lat="45.7721278236854" lon="8.047997910311066"><ele>730.0</ele><time>2026-04-06T10:15:49.999Z</time></trkpt><trkpt lat="45.77218835866454" lon="8.047882165866685"><ele>730.0</ele><time>2026-04-06T10:15:51.999Z</time></trkpt><trkpt lat="45.772236710479795" lon="8.04775673271504"><ele>731.3333333333334</ele><time>2026-04-06T10:15:54Z</time></trkpt><trkpt lat="45.77227405756084" lon="8.047632505505579"><ele>732.6666666666667</ele><time>2026-04-06T10:15:56Z</time></trkpt><trkpt lat="45.77231336576519" lon="8.047509837122261"><ele>734.0</ele><time>2026-04-06T10:15:58Z</time></trkpt><trkpt lat="45.77235030698964" lon="8.047397978591846"><ele>735.3333333333334</ele><time>2026-04-06T10:16:00Z</time></trkpt><trkpt lat="45.772383467865914" lon="8.047288064435199"><ele>736.6666666666666</ele><time>2026-04-06T10:16:02Z</time></trkpt><trkpt lat="45.77242512755436" lon="8.047200828742234"><ele>738.0</ele><time>2026-04-06T10:16:04Z</time></trkpt><trkpt lat="45.77246708083048" lon="8.0470973063211"><ele>739.0</ele><time>2026-04-06T10:16:07Z</time></trkpt><trkpt lat="45.772508593666515" lon="8.046992499230212"><ele>740.0</ele><time>2026-04-06T10:16:10Z</time></trkpt><trkpt lat="45.772544938027565" lon="8.046886171199727"><ele>741.0</ele><time>2026-04-06T10:16:13Z</time></trkpt><trkpt lat="45.77257259280228" lon="8.046751633795067"><ele>742.0</ele><time>2026-04-06T10:16:16Z</time></trkpt><trkpt lat="45.77260266267861" lon="8.046662918799846"><ele>743.0</ele><time>2026-04-06T10:16:18Z</time></trkpt><trkpt lat="45.77264165043277" lon="8.04658165932366"><ele>744.0</ele><time>2026-04-06T10:16:20Z</time></trkpt><trkpt lat="45.772695121572085" lon="8.046475531778729"><ele>744.0</ele><time>2026-04-06T10:16:23Z</time></trkpt><trkpt lat="45.7727289779607" lon="8.046345819116668"><ele>744.0</ele><time>2026-04-06T10:16:26Z</time></trkpt><trkpt lat="45.77278024300415" lon="8.046231916278623"><ele>744.0</ele><time>2026-04-06T10:16:29Z</time></trkpt><trkpt lat="45.77282528366977" lon="8.046114693510273"><ele>744.0</ele><time>2026-04-06T10:16:32Z</time></trkpt><trkpt lat="45.77287095661642" lon="8.045997615629298"><ele>744.0</ele><time>2026-04-06T10:16:35Z</time></trkpt><trkpt lat="45.77289824833061" lon="8.045910958505536"><ele>744.0</ele><time>2026-04-06T10:16:37Z</time></trkpt><trkpt lat="45.77292470047619" lon="8.045822958320782"><ele>746.1428571428572</ele><time>2026-04-06T10:16:39Z</time></trkpt><trkpt lat="45.77294710472146" lon="8.045733802635223"><ele>748.2857142857143</ele><time>2026-04-06T10:16:41Z</time></trkpt><trkpt lat="45.772966969349774" lon="8.04564614740011"><ele>750.4285714285714</ele><time>2026-04-06T10:16:43Z</time></trkpt><trkpt lat="45.77298474509378" lon="8.045520370102102"><ele>752.5714285714287</ele><time>2026-04-06T10:16:46Z</time></trkpt><trkpt lat="45.77299199799603" lon="8.045426209022102"><ele>754.7142857142857</ele><time>2026-04-06T10:16:48Z</time></trkpt><trkpt lat="45.772997120292466" lon="8.04533556610939"><ele>756.8571428571429</ele><time>2026-04-06T10:16:49.999Z</time></trkpt><trkpt lat="45.7730187362405" lon="8.045243271073575"><ele>759.0</ele><time>2026-04-06T10:16:51.999Z</time></trkpt><trkpt lat="45.77305905660577" lon="8.045165549823736"><ele>759.0</ele><time>2026-04-06T10:16:53.999Z</time></trkpt><trkpt lat="45.773117475448366" lon="8.045119720427842"><ele>759.0</ele><time>2026-04-06T10:16:55.999Z</time></trkpt><trkpt lat="45.773185937488" lon="8.045091604221678"><ele>759.0</ele><time>2026-04-06T10:16:57.999Z</time></trkpt><trkpt lat="45.7732675923964" lon="8.045072181841597"><ele>759.0</ele><time>2026-04-06T10:17:00.999Z</time></trkpt><trkpt lat="45.77333861998888" lon="8.045054750319094"><ele>759.0</ele><time>2026-04-06T10:17:03.999Z</time></trkpt><trkpt lat="45.77342096311422" lon="8.04510515955003"><ele>759.0</ele><time>2026-04-06T10:17:06.999Z</time></trkpt><trkpt lat="45.77347326729608" lon="8.045185148640533"><ele>759.0</ele><time>2026-04-06T10:17:08.999Z</time></trkpt><trkpt lat="45.77350339623729" lon="8.045278719068069"><ele>759.0</ele><time>2026-04-06T10:17:10.999Z</time></trkpt><trkpt lat="45.773545015821846" lon="8.04536467339983"><ele>759.0</ele><time>2026-04-06T10:17:12.999Z</time></trkpt><trkpt lat="45.77359162060091" lon="8.045447633485363"><ele>759.0</ele><time>2026-04-06T10:17:14.999Z</time></trkpt><trkpt lat="45.77364340029215" lon="8.045517880170934"><ele>759.0</ele><time>2026-04-06T10:17:16.999Z</time></trkpt><trkpt lat="45.773715710399834" lon="8.045588320502054"><ele>759.0</ele><time>2026-04-06T10:17:19.999Z</time></trkpt><trkpt lat="45.77378197758718" lon="8.045605822455448"><ele>759.0</ele><time>2026-04-06T10:17:26.999Z</time></trkpt><trkpt lat="45.77386292647422" lon="8.045642078980356"><ele>758.3333333333334</ele><time>2026-04-06T10:17:30.999Z</time></trkpt><trkpt lat="45.77393268759811" lon="8.04567218228202"><ele>757.6666666666666</ele><time>2026-04-06T10:17:33.999Z</time></trkpt><trkpt lat="45.773999152691864" lon="8.045703434252992"><ele>757.0</ele><time>2026-04-06T10:17:35.999Z</time></trkpt><trkpt lat="45.77409167550371" lon="8.045740473624447"><ele>756.3333333333333</ele><time>2026-04-06T10:17:38.999Z</time></trkpt><trkpt lat="45.77416985035945" lon="8.045769217357668"><ele>755.6666666666666</ele><time>2026-04-06T10:17:40.999Z</time></trkpt><trkpt lat="45.774274279890776" lon="8.04581004208279"><ele>755.0</ele><time>2026-04-06T10:17:42.999Z</time></trkpt><trkpt lat="45.77439037539003" lon="8.04583867326689"><ele>756.2857142857142</ele><time>2026-04-06T10:17:44.999Z</time></trkpt><trkpt lat="45.77445373682465" lon="8.045885300606187"><ele>757.5714285714287</ele><time>2026-04-06T10:17:45.999Z</time></trkpt><trkpt lat="45.774523551938415" lon="8.045899264646666"><ele>758.8571428571429</ele><time>2026-04-06T10:17:46.999Z</time></trkpt><trkpt lat="45.7745917298735" lon="8.045912227047038"><ele>760.1428571428571</ele><time>2026-04-06T10:17:47.999Z</time></trkpt><trkpt lat="45.774669608595566" lon="8.045925765900881"><ele>761.4285714285713</ele><time>2026-04-06T10:17:48.999Z</time></trkpt><trkpt lat="45.77474746641199" lon="8.045939301106374"><ele>762.7142857142858</ele><time>2026-04-06T10:17:49.999Z</time></trkpt><trkpt lat="45.774821720799196" lon="8.045954431582231"><ele>764.0</ele><time>2026-04-06T10:17:50.999Z</time></trkpt><trkpt lat="45.77489057602331" lon="8.045969278953384"><ele>764.0</ele><time>2026-04-06T10:17:51.999Z</time></trkpt><trkpt lat="45.775015684796784" lon="8.04597696292312"><ele>764.0</ele><time>2026-04-06T10:17:53.999Z</time></trkpt><trkpt lat="45.77511883257279" lon="8.046001406424756"><ele>764.0</ele><time>2026-04-06T10:17:55.999Z</time></trkpt><trkpt lat="45.775206408348645" lon="8.046016172850553"><ele>764.0</ele><time>2026-04-06T10:17:57.999Z</time></trkpt><trkpt lat="45.77530075807552" lon="8.046023305711769"><ele>764.0</ele><time>2026-04-06T10:18:00Z</time></trkpt><trkpt lat="45.775390427605664" lon="8.045998992298294"><ele>762.2</ele><time>2026-04-06T10:18:02Z</time></trkpt><trkpt lat="45.7754842001307" lon="8.045987365724393"><ele>760.4000000000001</ele><time>2026-04-06T10:18:04Z</time></trkpt><trkpt lat="45.77557022857906" lon="8.04594931940936"><ele>758.6</ele><time>2026-04-06T10:18:06Z</time></trkpt><trkpt lat="45.77565605274737" lon="8.045970693499202"><ele>756.8</ele><time>2026-04-06T10:18:08Z</time></trkpt><trkpt lat="45.77574239426128" lon="8.04598534300498"><ele>755.0</ele><time>2026-04-06T10:18:10Z</time></trkpt><trkpt lat="45.775832659518464" lon="8.046005262433297"><ele>755.0</ele><time>2026-04-06T10:18:12Z</time></trkpt><trkpt lat="45.77590475266344" lon="8.046011003575645"><ele>755.0</ele><time>2026-04-06T10:18:14Z</time></trkpt><trkpt lat="45.77598468762547" lon="8.04602100299762"><ele>755.0</ele><time>2026-04-06T10:18:17Z</time></trkpt><trkpt lat="45.776056300524445" lon="8.046036592312259"><ele>755.0</ele><time>2026-04-06T10:18:19Z</time></trkpt><trkpt lat="45.77611931012574" lon="8.046095177183968"><ele>755.0</ele><time>2026-04-06T10:18:21Z</time></trkpt><trkpt lat="45.77618484515849" lon="8.046128666958564"><ele>755.0</ele><time>2026-04-06T10:18:23Z</time></trkpt><trkpt lat="45.77625279725034" lon="8.046154851189415"><ele>755.0</ele><time>2026-04-06T10:18:25Z</time></trkpt><trkpt lat="45.776319922807176" lon="8.046165826658669"><ele>754.5</ele><time>2026-04-06T10:18:27Z</time></trkpt><trkpt lat="45.77640065197515" lon="8.046163489045405"><ele>754.0</ele><time>2026-04-06T10:18:29Z</time></trkpt><trkpt lat="45.77648183814573" lon="8.046180755065448"><ele>753.5</ele><time>2026-04-06T10:18:31Z</time></trkpt><trkpt lat="45.776560391099906" lon="8.046177636780492"><ele>753.0</ele><time>2026-04-06T10:18:33Z</time></trkpt><trkpt lat="45.77664038524386" lon="8.046205157196349"><ele>752.5</ele><time>2026-04-06T10:18:35Z</time></trkpt><trkpt lat="45.77672508855348" lon="8.046191888483742"><ele>752.0</ele><time>2026-04-06T10:18:37Z</time></trkpt><trkpt lat="45.77680382550965" lon="8.04615016999916"><ele>751.1666666666666</ele><time>2026-04-06T10:18:39Z</time></trkpt><trkpt lat="45.7768694314981" lon="8.046099889377661"><ele>750.3333333333333</ele><time>2026-04-06T10:18:41Z</time></trkpt><trkpt lat="45.77694072975613" lon="8.046024525925139"><ele>749.5</ele><time>2026-04-06T10:18:44Z</time></trkpt><trkpt lat="45.77701484674559" lon="8.046050315283512"><ele>748.6666666666666</ele><time>2026-04-06T10:18:47Z</time></trkpt><trkpt lat="45.777110089152124" lon="8.046061234815165"><ele>747.8333333333334</ele><time>2026-04-06T10:18:51Z</time></trkpt><trkpt lat="45.77717729549608" lon="8.046039819970744"><ele>747.0</ele><time>2026-04-06T10:18:54Z</time></trkpt><trkpt lat="45.77724140636692" lon="8.046062161821602"><ele>746.9999999999999</ele><time>2026-04-06T10:18:56.999Z</time></trkpt><trkpt lat="45.77727735275156" lon="8.04596528147971"><ele>747.0</ele><time>2026-04-06T10:18:58.999Z</time></trkpt><trkpt lat="45.77731743220193" lon="8.045864710730383"><ele>747.0</ele><time>2026-04-06T10:19:01.999Z</time></trkpt><trkpt lat="45.7773926448196" lon="8.045829914915302"><ele>747.0</ele><time>2026-04-06T10:19:04.999Z</time></trkpt><trkpt lat="45.777459941925336" lon="8.045803582599605"><ele>747.0</ele><time>2026-04-06T10:19:07.999Z</time></trkpt><trkpt lat="45.77752313472405" lon="8.045771914150302"><ele>746.9999999999999</ele><time>2026-04-06T10:19:10.999Z</time></trkpt><trkpt lat="45.777587172750295" lon="8.04572799531881"><ele>747.0</ele><time>2026-04-06T10:19:13.999Z</time></trkpt><trkpt lat="45.777660324073864" lon="8.045690937203457"><ele>751.5</ele><time>2026-04-06T10:19:16.999Z</time></trkpt><trkpt lat="45.7777367240129" lon="8.045653709029997"><ele>756.0</ele><time>2026-04-06T10:19:19.999Z</time></trkpt><trkpt lat="45.77782218367082" lon="8.04562744558247"><ele>760.5</ele><time>2026-04-06T10:19:22.999Z</time></trkpt><trkpt lat="45.77789839323183" lon="8.045627003766814"><ele>765.0</ele><time>2026-04-06T10:19:25.999Z</time></trkpt><trkpt lat="45.777985681486854" lon="8.045596128120106"><ele>769.5</ele><time>2026-04-06T10:19:28.999Z</time></trkpt><trkpt lat="45.778066276407564" lon="8.045571709455578"><ele>774.0</ele><time>2026-04-06T10:19:31.999Z</time></trkpt><trkpt lat="45.77814301798768" lon="8.04552997953117"><ele>774.0</ele><time>2026-04-06T10:19:34.999Z</time></trkpt><trkpt lat="45.778217892088776" lon="8.045481871542504"><ele>774.0</ele><time>2026-04-06T10:19:36.999Z</time></trkpt><trkpt lat="45.77830122688053" lon="8.045456379364811"><ele>774.0</ele><time>2026-04-06T10:19:38.999Z</time></trkpt><trkpt lat="45.778381641466694" lon="8.045407422337046"><ele>774.0</ele><time>2026-04-06T10:19:40.999Z</time></trkpt><trkpt lat="45.77845666968763" lon="8.045374833471138"><ele>774.0</ele><time>2026-04-06T10:19:42.999Z</time></trkpt><trkpt lat="45.77854743917562" lon="8.045368720188913"><ele>774.0</ele><time>2026-04-06T10:19:45.999Z</time></trkpt><trkpt lat="45.778636086891034" lon="8.045363912912245"><ele>773.1666666666666</ele><time>2026-04-06T10:19:48.999Z</time></trkpt><trkpt lat="45.77871582989255" lon="8.045362047649464"><ele>772.3333333333333</ele><time>2026-04-06T10:19:51.999Z</time></trkpt><trkpt lat="45.77880489643495" lon="8.04537206621462"><ele>771.5</ele><time>2026-04-06T10:19:54.999Z</time></trkpt><trkpt lat="45.778877647687196" lon="8.04539378117083"><ele>770.6666666666666</ele><time>2026-04-06T10:19:56.999Z</time></trkpt><trkpt lat="45.77894196931654" lon="8.045397690074573"><ele>769.8333333333333</ele><time>2026-04-06T10:19:58.999Z</time></trkpt><trkpt lat="45.77901651134515" lon="8.045406358972153"><ele>769.0</ele><time>2026-04-06T10:20:02.999Z</time></trkpt><trkpt lat="45.779099947103816" lon="8.045357872960421"><ele>768.9999999999999</ele><time>2026-04-06T10:20:04.999Z</time></trkpt><trkpt lat="45.77916838632246" lon="8.045315071140214"><ele>769.0</ele><time>2026-04-06T10:20:07Z</time></trkpt><trkpt lat="45.77922483898785" lon="8.045267767710682"><ele>769.0</ele><time>2026-04-06T10:20:10Z</time></trkpt><trkpt lat="45.77927867426806" lon="8.045165615135762"><ele>769.0</ele><time>2026-04-06T10:20:19Z</time></trkpt><trkpt lat="45.77933163313759" lon="8.045070802135003"><ele>768.9999999999999</ele><time>2026-04-06T10:20:22Z</time></trkpt><trkpt lat="45.779382189345306" lon="8.04500478840114"><ele>769.0</ele><time>2026-04-06T10:20:24Z</time></trkpt><trkpt lat="45.77944838597521" lon="8.04490354453401"><ele>768.4999999999999</ele><time>2026-04-06T10:20:27Z</time></trkpt><trkpt lat="45.779495113481275" lon="8.044835299781637"><ele>768.0</ele><time>2026-04-06T10:20:29Z</time></trkpt><trkpt lat="45.7795338202944" lon="8.044745169918707"><ele>767.5</ele><time>2026-04-06T10:20:31Z</time></trkpt><trkpt lat="45.77956512440725" lon="8.044658016054473"><ele>767.0</ele><time>2026-04-06T10:20:33Z</time></trkpt><trkpt lat="45.77961924009846" lon="8.044539622784537"><ele>766.5</ele><time>2026-04-06T10:20:36Z</time></trkpt><trkpt lat="45.77963568069812" lon="8.044447741251615"><ele>766.0</ele><time>2026-04-06T10:20:38Z</time></trkpt><trkpt lat="45.77968933898502" lon="8.044361477596006"><ele>766.0</ele><time>2026-04-06T10:20:41Z</time></trkpt><trkpt lat="45.779758151122834" lon="8.044368509247144"><ele>766.0</ele><time>2026-04-06T10:20:45Z</time></trkpt><trkpt lat="45.779829387875566" lon="8.044326530958315"><ele>766.0</ele><time>2026-04-06T10:20:55.999Z</time></trkpt><trkpt lat="45.77987826783172" lon="8.044254032257847"><ele>766.0</ele><time>2026-04-06T10:20:57.999Z</time></trkpt><trkpt lat="45.77989820826967" lon="8.044153935349861"><ele>766.0</ele><time>2026-04-06T10:20:59.999Z</time></trkpt><trkpt lat="45.77988975697755" lon="8.044053596071164"><ele>766.0</ele><time>2026-04-06T10:21:01.999Z</time></trkpt><trkpt lat="45.779906886269856" lon="8.043962755506781"><ele>766.0</ele><time>2026-04-06T10:21:03.999Z</time></trkpt><trkpt lat="45.77995171775239" lon="8.043877881569026"><ele>767.0</ele><time>2026-04-06T10:21:07.999Z</time></trkpt><trkpt lat="45.780002188818926" lon="8.043816093829898"><ele>768.0</ele><time>2026-04-06T10:21:09.999Z</time></trkpt><trkpt lat="45.78007039858358" lon="8.043738414010154"><ele>769.0</ele><time>2026-04-06T10:21:12.999Z</time></trkpt><trkpt lat="45.78014117328838" lon="8.043697207171014"><ele>770.0</ele><time>2026-04-06T10:21:15.999Z</time></trkpt><trkpt lat="45.78020142597178" lon="8.043659831415969"><ele>771.0</ele><time>2026-04-06T10:21:18.999Z</time></trkpt><trkpt lat="45.78027065613227" lon="8.043615568631814"><ele>772.0</ele><time>2026-04-06T10:21:21.999Z</time></trkpt><trkpt lat="45.78034249199369" lon="8.043601258668994"><ele>773.0</ele><time>2026-04-06T10:21:25.999Z</time></trkpt><trkpt lat="45.780405388951024" lon="8.043593946795436"><ele>770.5000000000001</ele><time>2026-04-06T10:21:29.999Z</time></trkpt><trkpt lat="45.78048391224559" lon="8.043627104183035"><ele>768.0</ele><time>2026-04-06T10:21:33.999Z</time></trkpt><trkpt lat="45.7804772434095" lon="8.043517462225019"><ele>765.5</ele><time>2026-04-06T10:21:40.999Z</time></trkpt><trkpt lat="45.78047416252078" lon="8.043424824932831"><ele>763.0</ele><time>2026-04-06T10:21:45.999Z</time></trkpt><trkpt lat="45.78048262545596" lon="8.04332929451519"><ele>760.5</ele><time>2026-04-06T10:21:50.999Z</time></trkpt><trkpt lat="45.780552709555316" lon="8.043374373506996"><ele>758.0</ele><time>2026-04-06T10:22:16Z</time></trkpt><trkpt lat="45.78068227347616" lon="8.043395378949137"><ele>758.0</ele><time>2026-04-06T10:22:18Z</time></trkpt><trkpt lat="45.780728602711825" lon="8.04348396249386"><ele>758.0</ele><time>2026-04-06T10:22:20Z</time></trkpt><trkpt lat="45.78077867275243" lon="8.043573701354806"><ele>758.0</ele><time>2026-04-06T10:22:22Z</time></trkpt><trkpt lat="45.78074707585469" lon="8.043472883928697"><ele>758.0</ele><time>2026-04-06T10:22:51Z</time></trkpt><trkpt lat="45.7807103494172" lon="8.04338321821139"><ele>758.0</ele><time>2026-04-06T10:22:56Z</time></trkpt><trkpt lat="45.780669032537666" lon="8.043300515501034"><ele>758.0</ele><time>2026-04-06T10:23:00Z</time></trkpt><trkpt lat="45.78063012130263" lon="8.043197167213997"><ele>758.4285714285714</ele><time>2026-04-06T10:23:03.999Z</time></trkpt><trkpt lat="45.78060751851514" lon="8.043106773291367"><ele>758.8571428571429</ele><time>2026-04-06T10:23:06.999Z</time></trkpt><trkpt lat="45.78057716351506" lon="8.043011429999355"><ele>759.2857142857142</ele><time>2026-04-06T10:23:09.999Z</time></trkpt><trkpt lat="45.780584978289475" lon="8.042902176530351"><ele>759.7142857142858</ele><time>2026-04-06T10:23:12.999Z</time></trkpt><trkpt lat="45.78058495096912" lon="8.042799933461916"><ele>760.1428571428571</ele><time>2026-04-06T10:23:15.999Z</time></trkpt><trkpt lat="45.78056928116719" lon="8.042695102042632"><ele>760.5714285714286</ele><time>2026-04-06T10:23:18.999Z</time></trkpt><trkpt lat="45.78056362049422" lon="8.042576994447513"><ele>761.0</ele><time>2026-04-06T10:23:21.999Z</time></trkpt><trkpt lat="45.78054490881512" lon="8.0424662944793"><ele>761.5</ele><time>2026-04-06T10:23:24.999Z</time></trkpt><trkpt lat="45.78051118181781" lon="8.042358120188664"><ele>762.0</ele><time>2026-04-06T10:23:27.999Z</time></trkpt><trkpt lat="45.78047922599592" lon="8.042261049461306"><ele>762.5</ele><time>2026-04-06T10:23:30.999Z</time></trkpt><trkpt lat="45.780448023766986" lon="8.0421662678993"><ele>763.0</ele><time>2026-04-06T10:23:33.999Z</time></trkpt><trkpt lat="45.78041295689988" lon="8.042054976050558"><ele>763.5</ele><time>2026-04-06T10:23:35.999Z</time></trkpt><trkpt lat="45.7803712897061" lon="8.04196166925154"><ele>764.0</ele><time>2026-04-06T10:23:36.999Z</time></trkpt><trkpt lat="45.78033827179139" lon="8.04180948843906"><ele>764.0</ele><time>2026-04-06T10:23:37.999Z</time></trkpt><trkpt lat="45.78029998044881" lon="8.041716563585556"><ele>764.0</ele><time>2026-04-06T10:23:38.999Z</time></trkpt><trkpt lat="45.78036450319016" lon="8.04156706668303"><ele>764.0</ele><time>2026-04-06T10:23:39.999Z</time></trkpt><trkpt lat="45.78042122527032" lon="8.041458870371763"><ele>764.0</ele><time>2026-04-06T10:23:40.999Z</time></trkpt><trkpt lat="45.78050800610455" lon="8.04137824005599"><ele>764.0</ele><time>2026-04-06T10:23:41.999Z</time></trkpt><trkpt lat="45.78059667655566" lon="8.041320838566369"><ele>764.8000000000001</ele><time>2026-04-06T10:23:42.999Z</time></trkpt><trkpt lat="45.780663815278366" lon="8.041224619598916"><ele>765.6</ele><time>2026-04-06T10:23:43.999Z</time></trkpt><trkpt lat="45.780703203602386" lon="8.04109848987511"><ele>766.4</ele><time>2026-04-06T10:23:44.999Z</time></trkpt><trkpt lat="45.78074414025145" lon="8.040975871954037"><ele>767.2</ele><time>2026-04-06T10:23:45.999Z</time></trkpt><trkpt lat="45.78081973612591" lon="8.040901678941262"><ele>768.0</ele><time>2026-04-06T10:23:46.999Z</time></trkpt><trkpt lat="45.780866607557854" lon="8.040808911883849"><ele>768.2857142857142</ele><time>2026-04-06T10:23:47.999Z</time></trkpt><trkpt lat="45.78090530058861" lon="8.04070923137078"><ele>768.5714285714286</ele><time>2026-04-06T10:23:48.999Z</time></trkpt><trkpt lat="45.78095457857125" lon="8.04062301382896"><ele>768.8571428571429</ele><time>2026-04-06T10:23:49.999Z</time></trkpt><trkpt lat="45.78100467620177" lon="8.040542458317914"><ele>769.1428571428571</ele><time>2026-04-06T10:23:50.999Z</time></trkpt><trkpt lat="45.78106046844953" lon="8.040471171439453"><ele>769.4285714285714</ele><time>2026-04-06T10:23:51.999Z</time></trkpt><trkpt lat="45.78111174813117" lon="8.04040423452616"><ele>769.7142857142857</ele><time>2026-04-06T10:23:52.999Z</time></trkpt><trkpt lat="45.7811677461427" lon="8.040343198656153"><ele>770.0</ele><time>2026-04-06T10:23:53.999Z</time></trkpt><trkpt lat="45.781239058975736" lon="8.040327173785453"><ele>770.0</ele><time>2026-04-06T10:23:54.999Z</time></trkpt><trkpt lat="45.781298443561944" lon="8.04029133928996"><ele>770.0</ele><time>2026-04-06T10:23:55.999Z</time></trkpt><trkpt lat="45.78135521175725" lon="8.040241800939102"><ele>770.0</ele><time>2026-04-06T10:23:56.999Z</time></trkpt><trkpt lat="45.781457699513055" lon="8.040150643574794"><ele>770.0</ele><time>2026-04-06T10:23:58.999Z</time></trkpt><trkpt lat="45.78154691172275" lon="8.040069981448646"><ele>770.0</ele><time>2026-04-06T10:24:00.999Z</time></trkpt><trkpt lat="45.78162689138987" lon="8.039978021062737"><ele>772.0</ele><time>2026-04-06T10:24:02.999Z</time></trkpt><trkpt lat="45.781705989023536" lon="8.03991185166694"><ele>774.0</ele><time>2026-04-06T10:24:04.999Z</time></trkpt><trkpt lat="45.781797320416025" lon="8.039875165724302"><ele>776.0</ele><time>2026-04-06T10:24:06.999Z</time></trkpt><trkpt lat="45.78189026745782" lon="8.039828184236665"><ele>778.0</ele><time>2026-04-06T10:24:08.999Z</time></trkpt><trkpt lat="45.78198542173915" lon="8.03977926296444"><ele>780.0</ele><time>2026-04-06T10:24:10.999Z</time></trkpt><trkpt lat="45.782083515874746" lon="8.039735439685801"><ele>780.0</ele><time>2026-04-06T10:24:12.999Z</time></trkpt><trkpt lat="45.78218422329123" lon="8.039693842720387"><ele>780.0</ele><time>2026-04-06T10:24:14.999Z</time></trkpt><trkpt lat="45.782287388878586" lon="8.039659725310063"><ele>780.0</ele><time>2026-04-06T10:24:16.999Z</time></trkpt><trkpt lat="45.78239189057348" lon="8.039635469192454"><ele>780.0</ele><time>2026-04-06T10:24:19Z</time></trkpt><trkpt lat="45.78249412642937" lon="8.03960571452292"><ele>780.0</ele><time>2026-04-06T10:24:21Z</time></trkpt><trkpt lat="45.78259500895443" lon="8.03958213686837"><ele>778.8</ele><time>2026-04-06T10:24:23Z</time></trkpt><trkpt lat="45.782693499933444" lon="8.039552810533726"><ele>777.6</ele><time>2026-04-06T10:24:25Z</time></trkpt><trkpt lat="45.78279565909401" lon="8.03953040470485"><ele>776.4000000000001</ele><time>2026-04-06T10:24:27Z</time></trkpt><trkpt lat="45.782897222365776" lon="8.039507180186167"><ele>775.2</ele><time>2026-04-06T10:24:29Z</time></trkpt><trkpt lat="45.78299763024801" lon="8.03948977264133"><ele>774.0</ele><time>2026-04-06T10:24:31Z</time></trkpt><trkpt lat="45.78310131164612" lon="8.039486374430297"><ele>774.0</ele><time>2026-04-06T10:24:33Z</time></trkpt><trkpt lat="45.783195601187714" lon="8.039464789723942"><ele>774.0</ele><time>2026-04-06T10:24:35Z</time></trkpt><trkpt lat="45.78329053880862" lon="8.039470371629243"><ele>774.0</ele><time>2026-04-06T10:24:37Z</time></trkpt><trkpt lat="45.78337691209889" lon="8.039488496638723"><ele>774.0</ele><time>2026-04-06T10:24:39Z</time></trkpt><trkpt lat="45.78347028377229" lon="8.039493454451147"><ele>774.0</ele><time>2026-04-06T10:24:41Z</time></trkpt><trkpt lat="45.78356759325708" lon="8.039516249516726"><ele>773.4000000000001</ele><time>2026-04-06T10:24:43Z</time></trkpt><trkpt lat="45.78366920302094" lon="8.039504564980033"><ele>772.8</ele><time>2026-04-06T10:24:45Z</time></trkpt><trkpt lat="45.78376214981967" lon="8.039507758443012"><ele>772.2</ele><time>2026-04-06T10:24:47Z</time></trkpt><trkpt lat="45.78386037151018" lon="8.039495922664207"><ele>771.5999999999999</ele><time>2026-04-06T10:24:49Z</time></trkpt><trkpt lat="45.78395471335982" lon="8.039450392423024"><ele>771.0</ele><time>2026-04-06T10:24:51Z</time></trkpt><trkpt lat="45.78404785425741" lon="8.03940008659526"><ele>771.0</ele><time>2026-04-06T10:24:53Z</time></trkpt><trkpt lat="45.78413927853029" lon="8.039347643928952"><ele>771.0</ele><time>2026-04-06T10:24:55Z</time></trkpt><trkpt lat="45.78423141829282" lon="8.039292243863839"><ele>771.0</ele><time>2026-04-06T10:24:57Z</time></trkpt><trkpt lat="45.784324616197615" lon="8.03924060020659"><ele>771.0</ele><time>2026-04-06T10:24:59Z</time></trkpt><trkpt lat="45.78440345591216" lon="8.039178681800665"><ele>771.0</ele><time>2026-04-06T10:25:01Z</time></trkpt><trkpt lat="45.78448061774398" lon="8.039113664920094"><ele>771.5999999999999</ele><time>2026-04-06T10:25:03Z</time></trkpt><trkpt lat="45.78456231053536" lon="8.039061814819531"><ele>772.2</ele><time>2026-04-06T10:25:05Z</time></trkpt><trkpt lat="45.784632049472755" lon="8.038973911031796"><ele>772.8</ele><time>2026-04-06T10:25:07Z</time></trkpt><trkpt lat="45.78468119886812" lon="8.038866866539841"><ele>773.4000000000001</ele><time>2026-04-06T10:25:09Z</time></trkpt><trkpt lat="45.78475153833566" lon="8.03878014096148"><ele>774.0</ele><time>2026-04-06T10:25:11Z</time></trkpt><trkpt lat="45.784800252077105" lon="8.038676811524823"><ele>774.0</ele><time>2026-04-06T10:25:12.999Z</time></trkpt><trkpt lat="45.78485969725557" lon="8.038580088914363"><ele>774.0</ele><time>2026-04-06T10:25:14.999Z</time></trkpt><trkpt lat="45.78491804609736" lon="8.038491010410059"><ele>774.0</ele><time>2026-04-06T10:25:16.999Z</time></trkpt><trkpt lat="45.7849823383722" lon="8.03840879775859"><ele>774.0</ele><time>2026-04-06T10:25:18.999Z</time></trkpt><trkpt lat="45.78505879439527" lon="8.03834134729924"><ele>774.0</ele><time>2026-04-06T10:25:20.999Z</time></trkpt><trkpt lat="45.78512505758691" lon="8.03825109322457"><ele>774.0</ele><time>2026-04-06T10:25:22.999Z</time></trkpt><trkpt lat="45.78520759211474" lon="8.038174879798573"><ele>774.6</ele><time>2026-04-06T10:25:24.999Z</time></trkpt><trkpt lat="45.785301246417006" lon="8.03813487308619"><ele>775.2</ele><time>2026-04-06T10:25:26.999Z</time></trkpt><trkpt lat="45.78538955179134" lon="8.038075010890898"><ele>775.8000000000001</ele><time>2026-04-06T10:25:28.999Z</time></trkpt><trkpt lat="45.78546526218715" lon="8.037996004573289"><ele>776.4000000000001</ele><time>2026-04-06T10:25:30.999Z</time></trkpt><trkpt lat="45.785559669854244" lon="8.037951739185992"><ele>777.0</ele><time>2026-04-06T10:25:32.999Z</time></trkpt><trkpt lat="45.785652317312554" lon="8.037922753009418"><ele>777.0</ele><time>2026-04-06T10:25:34.999Z</time></trkpt><trkpt lat="45.78573463509364" lon="8.037901907977881"><ele>777.0</ele><time>2026-04-06T10:25:36.999Z</time></trkpt><trkpt lat="45.785809785004815" lon="8.037889595817813"><ele>777.0</ele><time>2026-04-06T10:25:38.999Z</time></trkpt><trkpt lat="45.78590276711372" lon="8.037861509073755"><ele>777.0</ele><time>2026-04-06T10:25:40.999Z</time></trkpt><trkpt lat="45.7859994478527" lon="8.037863062975708"><ele>777.0</ele><time>2026-04-06T10:25:42.999Z</time></trkpt><trkpt lat="45.7860793076463" lon="8.037819039465658"><ele>777.0</ele><time>2026-04-06T10:25:44.999Z</time></trkpt><trkpt lat="45.78618177719915" lon="8.037813251370352"><ele>776.8</ele><time>2026-04-06T10:25:46.999Z</time></trkpt><trkpt lat="45.78628532514646" lon="8.037774475820246"><ele>776.6</ele><time>2026-04-06T10:25:48.999Z</time></trkpt><trkpt lat="45.786382336231064" lon="8.037726725864735"><ele>776.4</ele><time>2026-04-06T10:25:50.999Z</time></trkpt><trkpt lat="45.78647560922944" lon="8.037657401172826"><ele>776.1999999999999</ele><time>2026-04-06T10:25:52.999Z</time></trkpt><trkpt lat="45.78654998374463" lon="8.037538047561622"><ele>776.0</ele><time>2026-04-06T10:25:54.999Z</time></trkpt><trkpt lat="45.78663805425697" lon="8.037452858546278"><ele>777.0</ele><time>2026-04-06T10:25:56.999Z</time></trkpt><trkpt lat="45.78670470800694" lon="8.037330536085065"><ele>778.0</ele><time>2026-04-06T10:25:58.999Z</time></trkpt><trkpt lat="45.78678893869764" lon="8.037232046788095"><ele>779.0</ele><time>2026-04-06T10:26:00.999Z</time></trkpt><trkpt lat="45.78685483608924" lon="8.03710987714864"><ele>780.0</ele><time>2026-04-06T10:26:02.999Z</time></trkpt><trkpt lat="45.78694185275201" lon="8.037024416809789"><ele>781.0</ele><time>2026-04-06T10:26:04.999Z</time></trkpt><trkpt lat="45.787015019735385" lon="8.036928400890789"><ele>781.0</ele><time>2026-04-06T10:26:06.999Z</time></trkpt><trkpt lat="45.78709005961863" lon="8.036830523089264"><ele>781.0</ele><time>2026-04-06T10:26:08.999Z</time></trkpt><trkpt lat="45.78716456387692" lon="8.036733742632519"><ele>781.0</ele><time>2026-04-06T10:26:10.999Z</time></trkpt><trkpt lat="45.787228497701086" lon="8.036632626512537"><ele>781.0</ele><time>2026-04-06T10:26:12.999Z</time></trkpt><trkpt lat="45.78730902388515" lon="8.036537318156594"><ele>781.0</ele><time>2026-04-06T10:26:14.999Z</time></trkpt><trkpt lat="45.78738168433742" lon="8.036415692791895"><ele>782.1999999999999</ele><time>2026-04-06T10:26:16.999Z</time></trkpt><trkpt lat="45.78743510954504" lon="8.036305137713864"><ele>783.4</ele><time>2026-04-06T10:26:18.999Z</time></trkpt><trkpt lat="45.78748629553348" lon="8.036194182864099"><ele>784.6</ele><time>2026-04-06T10:26:20.999Z</time></trkpt><trkpt lat="45.787529207591604" lon="8.036083542905907"><ele>785.8</ele><time>2026-04-06T10:26:22.999Z</time></trkpt><trkpt lat="45.7875860531842" lon="8.035980456030261"><ele>787.0</ele><time>2026-04-06T10:26:25Z</time></trkpt><trkpt lat="45.78764747837735" lon="8.035879474920373"><ele>787.8333333333333</ele><time>2026-04-06T10:26:27Z</time></trkpt><trkpt lat="45.787722022147875" lon="8.03580352748407"><ele>788.6666666666666</ele><time>2026-04-06T10:26:29Z</time></trkpt><trkpt lat="45.78777905365845" lon="8.035693625349467"><ele>789.5</ele><time>2026-04-06T10:26:31Z</time></trkpt><trkpt lat="45.78784026251118" lon="8.035600096868919"><ele>790.3333333333333</ele><time>2026-04-06T10:26:33Z</time></trkpt><trkpt lat="45.78786342233752" lon="8.035481465563935"><ele>791.1666666666666</ele><time>2026-04-06T10:26:35Z</time></trkpt><trkpt lat="45.78793029971529" lon="8.035408811784373"><ele>792.0</ele><time>2026-04-06T10:26:37Z</time></trkpt><trkpt lat="45.78800442167389" lon="8.035341958927896"><ele>792.0</ele><time>2026-04-06T10:26:39Z</time></trkpt><trkpt lat="45.78808621851426" lon="8.03527403197304"><ele>792.0</ele><time>2026-04-06T10:26:41Z</time></trkpt><trkpt lat="45.788163160932896" lon="8.035220274068786"><ele>792.0</ele><time>2026-04-06T10:26:43Z</time></trkpt><trkpt lat="45.78824492052396" lon="8.035145518672199"><ele>792.0</ele><time>2026-04-06T10:26:45Z</time></trkpt><trkpt lat="45.78833139953555" lon="8.035114221293057"><ele>792.0</ele><time>2026-04-06T10:26:47Z</time></trkpt><trkpt lat="45.78842317018368" lon="8.035070204425136"><ele>791.0</ele><time>2026-04-06T10:26:49Z</time></trkpt><trkpt lat="45.78851260259259" lon="8.03503887803611"><ele>790.0</ele><time>2026-04-06T10:26:51Z</time></trkpt><trkpt lat="45.788593264817315" lon="8.035004109844234"><ele>789.0</ele><time>2026-04-06T10:26:53Z</time></trkpt><trkpt lat="45.78867969943319" lon="8.034982644100403"><ele>788.0</ele><time>2026-04-06T10:26:55Z</time></trkpt><trkpt lat="45.788764928875466" lon="8.034937637766355"><ele>787.0</ele><time>2026-04-06T10:26:57Z</time></trkpt><trkpt lat="45.7888512386394" lon="8.034883227407548"><ele>786.0</ele><time>2026-04-06T10:26:59Z</time></trkpt><trkpt lat="45.78894983696382" lon="8.03485650035197"><ele>790.1999999999999</ele><time>2026-04-06T10:27:01Z</time></trkpt><trkpt lat="45.789040965142014" lon="8.034809741046992"><ele>794.4</ele><time>2026-04-06T10:27:03Z</time></trkpt><trkpt lat="45.7891357389158" lon="8.034763099361484"><ele>798.6</ele><time>2026-04-06T10:27:05Z</time></trkpt><trkpt lat="45.78922294836881" lon="8.03470043708265"><ele>802.8</ele><time>2026-04-06T10:27:07Z</time></trkpt><trkpt lat="45.78931590725776" lon="8.034655262505286"><ele>807.0</ele><time>2026-04-06T10:27:09Z</time></trkpt><trkpt lat="45.789407102174856" lon="8.034622769672032"><ele>807.0</ele><time>2026-04-06T10:27:11Z</time></trkpt><trkpt lat="45.78949586697235" lon="8.03458295927891"><ele>807.0</ele><time>2026-04-06T10:27:13Z</time></trkpt><trkpt lat="45.78958724145026" lon="8.034573124048578"><ele>807.0</ele><time>2026-04-06T10:27:15Z</time></trkpt><trkpt lat="45.78966617422816" lon="8.034536954326542"><ele>807.0</ele><time>2026-04-06T10:27:17Z</time></trkpt><trkpt lat="45.78974108710168" lon="8.03451846890899"><ele>807.0</ele><time>2026-04-06T10:27:19Z</time></trkpt><trkpt lat="45.78983362802265" lon="8.034504963542572"><ele>807.0</ele><time>2026-04-06T10:27:21Z</time></trkpt><trkpt lat="45.78994001056606" lon="8.034490601346645"><ele>807.0</ele><time>2026-04-06T10:27:23Z</time></trkpt><trkpt lat="45.79004423656768" lon="8.034475201593944"><ele>807.0</ele><time>2026-04-06T10:27:25Z</time></trkpt><trkpt lat="45.790152071678605" lon="8.03444557478972"><ele>807.0</ele><time>2026-04-06T10:27:26.999Z</time></trkpt><trkpt lat="45.79025541556985" lon="8.03442034285289"><ele>807.0</ele><time>2026-04-06T10:27:28.999Z</time></trkpt><trkpt lat="45.79036065357956" lon="8.034398227993378"><ele>807.0</ele><time>2026-04-06T10:27:30.999Z</time></trkpt><trkpt lat="45.790461950804435" lon="8.034373317199195"><ele>804.8</ele><time>2026-04-06T10:27:32.999Z</time></trkpt><trkpt lat="45.79056319043706" lon="8.03435728320766"><ele>802.6</ele><time>2026-04-06T10:27:34.999Z</time></trkpt><trkpt lat="45.79066087292064" lon="8.03433785462553"><ele>800.4</ele><time>2026-04-06T10:27:36.999Z</time></trkpt><trkpt lat="45.79075065941411" lon="8.03432980984215"><ele>798.1999999999999</ele><time>2026-04-06T10:27:38.999Z</time></trkpt><trkpt lat="45.790838591440064" lon="8.034324743292974"><ele>796.0</ele><time>2026-04-06T10:27:40.999Z</time></trkpt><trkpt lat="45.790924642863736" lon="8.03433349747779"><ele>795.9999999999999</ele><time>2026-04-06T10:27:42.999Z</time></trkpt><trkpt lat="45.79100642636559" lon="8.034344211823981"><ele>796.0</ele><time>2026-04-06T10:27:44.999Z</time></trkpt><trkpt lat="45.791090170881894" lon="8.03435673548038"><ele>796.0</ele><time>2026-04-06T10:27:46.999Z</time></trkpt><trkpt lat="45.79117489059886" lon="8.03433726198235"><ele>796.0</ele><time>2026-04-06T10:27:48.999Z</time></trkpt><trkpt lat="45.79126664686385" lon="8.034291989736664"><ele>795.9999999999999</ele><time>2026-04-06T10:27:50.999Z</time></trkpt><trkpt lat="45.791347452048946" lon="8.034222643293681"><ele>796.0</ele><time>2026-04-06T10:27:52.999Z</time></trkpt><trkpt lat="45.7914341698591" lon="8.034168805575591"><ele>797.5999999999999</ele><time>2026-04-06T10:27:54.999Z</time></trkpt><trkpt lat="45.79149625342906" lon="8.034066745946644"><ele>799.2</ele><time>2026-04-06T10:27:56.999Z</time></trkpt><trkpt lat="45.79157806986616" lon="8.033999552528373"><ele>800.8</ele><time>2026-04-06T10:27:58.999Z</time></trkpt><trkpt lat="45.791649554778935" lon="8.033923696352453"><ele>802.4000000000001</ele><time>2026-04-06T10:28:00.999Z</time></trkpt><trkpt lat="45.79174130646254" lon="8.03386721567125"><ele>804.0</ele><time>2026-04-06T10:28:02.999Z</time></trkpt><trkpt lat="45.79182992648817" lon="8.033808450479016"><ele>802.2</ele><time>2026-04-06T10:28:04.999Z</time></trkpt><trkpt lat="45.79191831905218" lon="8.033745411597234"><ele>800.4000000000001</ele><time>2026-04-06T10:28:06.999Z</time></trkpt><trkpt lat="45.79200508516009" lon="8.033678570726188"><ele>798.6</ele><time>2026-04-06T10:28:08.999Z</time></trkpt><trkpt lat="45.79209055805872" lon="8.03361152681657"><ele>796.8</ele><time>2026-04-06T10:28:10.999Z</time></trkpt><trkpt lat="45.79218434868584" lon="8.033549302448037"><ele>795.0</ele><time>2026-04-06T10:28:12.999Z</time></trkpt><trkpt lat="45.792277025860415" lon="8.033474420816281"><ele>795.0</ele><time>2026-04-06T10:28:14.999Z</time></trkpt><trkpt lat="45.7923728392215" lon="8.033408829314878"><ele>795.0</ele><time>2026-04-06T10:28:16.999Z</time></trkpt><trkpt lat="45.79244682021141" lon="8.033346312592323"><ele>795.0</ele><time>2026-04-06T10:28:18.999Z</time></trkpt><trkpt lat="45.792522948635764" lon="8.033281316258748"><ele>795.0</ele><time>2026-04-06T10:28:20.999Z</time></trkpt><trkpt lat="45.792604643035986" lon="8.033203459153883"><ele>795.0</ele><time>2026-04-06T10:28:22.999Z</time></trkpt><trkpt lat="45.79268827814476" lon="8.033154868863072"><ele>796.8333333333334</ele><time>2026-04-06T10:28:24.999Z</time></trkpt><trkpt lat="45.79274576131639" lon="8.033102501114465"><ele>798.6666666666667</ele><time>2026-04-06T10:28:26.999Z</time></trkpt><trkpt lat="45.792823290375125" lon="8.033041093719147"><ele>800.5</ele><time>2026-04-06T10:28:30Z</time></trkpt><trkpt lat="45.79287788598526" lon="8.032975211078506"><ele>802.3333333333334</ele><time>2026-04-06T10:28:32Z</time></trkpt><trkpt lat="45.792959845616146" lon="8.03294611111583"><ele>804.1666666666667</ele><time>2026-04-06T10:28:34Z</time></trkpt><trkpt lat="45.79304188913172" lon="8.032894928622689"><ele>806.0</ele><time>2026-04-06T10:28:36Z</time></trkpt><trkpt lat="45.793115467553704" lon="8.032827598572252"><ele>806.0000000000001</ele><time>2026-04-06T10:28:38Z</time></trkpt><trkpt lat="45.79318701224218" lon="8.032788255352857"><ele>806.0</ele><time>2026-04-06T10:28:40Z</time></trkpt><trkpt lat="45.79326049653256" lon="8.032748203280198"><ele>806.0</ele><time>2026-04-06T10:28:42Z</time></trkpt><trkpt lat="45.79332661365698" lon="8.032721176796432"><ele>806.0</ele><time>2026-04-06T10:28:44Z</time></trkpt><trkpt lat="45.793424170568166" lon="8.032680136697138"><ele>806.0000000000001</ele><time>2026-04-06T10:28:47Z</time></trkpt><trkpt lat="45.793492105615194" lon="8.03263291495383"><ele>806.0</ele><time>2026-04-06T10:28:49Z</time></trkpt><trkpt lat="45.7935397071952" lon="8.03253530328515"><ele>807.1666666666667</ele><time>2026-04-06T10:28:51Z</time></trkpt><trkpt lat="45.79359469747145" lon="8.032442662421028"><ele>808.3333333333334</ele><time>2026-04-06T10:28:53Z</time></trkpt><trkpt lat="45.793620960477966" lon="8.032357729323673"><ele>809.5</ele><time>2026-04-06T10:28:55Z</time></trkpt><trkpt lat="45.793660043336175" lon="8.032275683927484"><ele>810.6666666666667</ele><time>2026-04-06T10:28:57Z</time></trkpt><trkpt lat="45.79370628687589" lon="8.032173672596159"><ele>811.8333333333334</ele><time>2026-04-06T10:28:59Z</time></trkpt><trkpt lat="45.793776371561975" lon="8.03209237565791"><ele>813.0</ele><time>2026-04-06T10:29:01Z</time></trkpt><trkpt lat="45.79385762651334" lon="8.03203984226737"><ele>813.0</ele><time>2026-04-06T10:29:03Z</time></trkpt><trkpt lat="45.793929607225756" lon="8.031994189455144"><ele>813.0</ele><time>2026-04-06T10:29:05Z</time></trkpt><trkpt lat="45.794004495012864" lon="8.03194937540314"><ele>813.0</ele><time>2026-04-06T10:29:07Z</time></trkpt><trkpt lat="45.79407857371028" lon="8.031892885639168"><ele>813.0</ele><time>2026-04-06T10:29:09Z</time></trkpt><trkpt lat="45.794166698791116" lon="8.031849362348757"><ele>813.0</ele><time>2026-04-06T10:29:11Z</time></trkpt><trkpt lat="45.794248476997275" lon="8.0317870087271"><ele>813.0</ele><time>2026-04-06T10:29:13Z</time></trkpt><trkpt lat="45.79432838868233" lon="8.031741081028091"><ele>811.6666666666666</ele><time>2026-04-06T10:29:15Z</time></trkpt><trkpt lat="45.794411979433164" lon="8.031710073449283"><ele>810.3333333333333</ele><time>2026-04-06T10:29:17Z</time></trkpt><trkpt lat="45.79448865417352" lon="8.031657647418443"><ele>809.0</ele><time>2026-04-06T10:29:19Z</time></trkpt><trkpt lat="45.79456095516728" lon="8.031642661708977"><ele>807.6666666666666</ele><time>2026-04-06T10:29:21Z</time></trkpt><trkpt lat="45.79464207351954" lon="8.031620011927886"><ele>806.3333333333333</ele><time>2026-04-06T10:29:23Z</time></trkpt><trkpt lat="45.79471970162493" lon="8.031577585796956"><ele>805.0</ele><time>2026-04-06T10:29:25Z</time></trkpt><trkpt lat="45.79480064034647" lon="8.031521382467412"><ele>804.8333333333333</ele><time>2026-04-06T10:29:27Z</time></trkpt><trkpt lat="45.79486630955866" lon="8.031452739526872"><ele>804.6666666666666</ele><time>2026-04-06T10:29:29Z</time></trkpt><trkpt lat="45.79494334828454" lon="8.031437970414027"><ele>804.5</ele><time>2026-04-06T10:29:31Z</time></trkpt><trkpt lat="45.79501662222927" lon="8.031421875489155"><ele>804.3333333333333</ele><time>2026-04-06T10:29:32.999Z</time></trkpt><trkpt lat="45.79508820539975" lon="8.031416586586554"><ele>804.1666666666666</ele><time>2026-04-06T10:29:34.999Z</time></trkpt><trkpt lat="45.795161372694785" lon="8.031396964950765"><ele>804.0</ele><time>2026-04-06T10:29:37.999Z</time></trkpt><trkpt lat="45.79518602894547" lon="8.031159370959465"><ele>804.0</ele><time>2026-04-06T10:29:39.999Z</time></trkpt><trkpt lat="45.79522763742537" lon="8.031081096650574"><ele>804.0</ele><time>2026-04-06T10:29:41.999Z</time></trkpt><trkpt lat="45.7952962528331" lon="8.031024536024361"><ele>804.0</ele><time>2026-04-06T10:29:43.999Z</time></trkpt><trkpt lat="45.79536174591384" lon="8.03096464795113"><ele>804.0</ele><time>2026-04-06T10:29:45.999Z</time></trkpt><trkpt lat="45.795423372707226" lon="8.03090634510838"><ele>804.0</ele><time>2026-04-06T10:29:47.999Z</time></trkpt><trkpt lat="45.79548515754761" lon="8.030835735745908"><ele>804.0</ele><time>2026-04-06T10:29:49.999Z</time></trkpt><trkpt lat="45.795537725477246" lon="8.030756686580403"><ele>807.1666666666666</ele><time>2026-04-06T10:29:51.999Z</time></trkpt><trkpt lat="45.795580907790765" lon="8.030658476453313"><ele>810.3333333333333</ele><time>2026-04-06T10:29:53.999Z</time></trkpt><trkpt lat="45.795598996027465" lon="8.030563306403817"><ele>813.5</ele><time>2026-04-06T10:29:55.999Z</time></trkpt><trkpt lat="45.79555542635311" lon="8.030450329655247"><ele>816.6666666666666</ele><time>2026-04-06T10:29:58.999Z</time></trkpt><trkpt lat="45.79561161704051" lon="8.03038950066501"><ele>819.8333333333333</ele><time>2026-04-06T10:30:02.999Z</time></trkpt><trkpt lat="45.795677065458506" lon="8.030353434637796"><ele>823.0</ele><time>2026-04-06T10:30:09.999Z</time></trkpt><trkpt lat="45.79574341422512" lon="8.030306439516838"><ele>823.0</ele><time>2026-04-06T10:30:14.999Z</time></trkpt><trkpt lat="45.79582603855677" lon="8.030321560130632"><ele>823.0</ele><time>2026-04-06T10:30:18.999Z</time></trkpt><trkpt lat="45.79590088422129" lon="8.030356484083342"><ele>823.0</ele><time>2026-04-06T10:30:21.999Z</time></trkpt><trkpt lat="45.79597554624439" lon="8.030395321688014"><ele>823.0</ele><time>2026-04-06T10:30:24.999Z</time></trkpt><trkpt lat="45.796044672889515" lon="8.030402009773072"><ele>823.0</ele><time>2026-04-06T10:30:26.999Z</time></trkpt><trkpt lat="45.796111310587285" lon="8.030383817264351"><ele>823.0</ele><time>2026-04-06T10:30:28.999Z</time></trkpt><trkpt lat="45.796174855358146" lon="8.030368024413354"><ele>823.0</ele><time>2026-04-06T10:30:30.999Z</time></trkpt><trkpt lat="45.79624431385882" lon="8.030354593347962"><ele>824.1666666666666</ele><time>2026-04-06T10:30:32.999Z</time></trkpt><trkpt lat="45.79633268767677" lon="8.03035746766226"><ele>825.3333333333333</ele><time>2026-04-06T10:30:34.999Z</time></trkpt><trkpt lat="45.7964041021136" lon="8.030351272895368"><ele>826.5</ele><time>2026-04-06T10:30:37Z</time></trkpt><trkpt lat="45.796473211956574" lon="8.030364733498686"><ele>827.6666666666667</ele><time>2026-04-06T10:30:40Z</time></trkpt><trkpt lat="45.79654599611509" lon="8.03038945523485"><ele>828.8333333333334</ele><time>2026-04-06T10:30:42Z</time></trkpt><trkpt lat="45.7966281861537" lon="8.03040190574253"><ele>830.0</ele><time>2026-04-06T10:30:44Z</time></trkpt><trkpt lat="45.79671195540954" lon="8.030442402485253"><ele>830.0000000000001</ele><time>2026-04-06T10:30:46Z</time></trkpt><trkpt lat="45.79680099264043" lon="8.030471345677793"><ele>830.0</ele><time>2026-04-06T10:30:48Z</time></trkpt><trkpt lat="45.796885844127395" lon="8.030510021809457"><ele>830.0</ele><time>2026-04-06T10:30:50Z</time></trkpt><trkpt lat="45.79697249905121" lon="8.030553541086729"><ele>830.0</ele><time>2026-04-06T10:30:52Z</time></trkpt><trkpt lat="45.7970467090347" lon="8.030597456448714"><ele>830.0000000000001</ele><time>2026-04-06T10:30:54Z</time></trkpt><trkpt lat="45.79711902152255" lon="8.030642915994608"><ele>830.0</ele><time>2026-04-06T10:30:56Z</time></trkpt><trkpt lat="45.797185294380505" lon="8.030708021141784"><ele>830.0000000000001</ele><time>2026-04-06T10:30:58Z</time></trkpt><trkpt lat="45.79724806864983" lon="8.030777780221307"><ele>830.0</ele><time>2026-04-06T10:31:00Z</time></trkpt><trkpt lat="45.79732672406525" lon="8.030835918542017"><ele>830.0</ele><time>2026-04-06T10:31:02Z</time></trkpt><trkpt lat="45.7973843462478" lon="8.030908302040055"><ele>830.0</ele><time>2026-04-06T10:31:04Z</time></trkpt><trkpt lat="45.79745473131492" lon="8.03099058789622"><ele>830.0000000000001</ele><time>2026-04-06T10:31:06Z</time></trkpt><trkpt lat="45.79753890419567" lon="8.0310528216162"><ele>830.0</ele><time>2026-04-06T10:31:08Z</time></trkpt><trkpt lat="45.797616787563435" lon="8.03112717298123"><ele>830.1666666666667</ele><time>2026-04-06T10:31:10Z</time></trkpt><trkpt lat="45.79770390849056" lon="8.031192056976325"><ele>830.3333333333334</ele><time>2026-04-06T10:31:12Z</time></trkpt><trkpt lat="45.79778226638032" lon="8.031255048233097"><ele>830.5</ele><time>2026-04-06T10:31:14Z</time></trkpt><trkpt lat="45.797845197068035" lon="8.031332994492939"><ele>830.6666666666667</ele><time>2026-04-06T10:31:16Z</time></trkpt><trkpt lat="45.79789864672325" lon="8.031392947307852"><ele>830.8333333333334</ele><time>2026-04-06T10:31:18Z</time></trkpt><trkpt lat="45.797956090334445" lon="8.031451261297665"><ele>831.0</ele><time>2026-04-06T10:31:20Z</time></trkpt><trkpt lat="45.79801386251223" lon="8.03148940856814"><ele>831.0</ele><time>2026-04-06T10:31:22Z</time></trkpt><trkpt lat="45.798088701085" lon="8.031514749520072"><ele>831.0</ele><time>2026-04-06T10:31:24Z</time></trkpt><trkpt lat="45.79819077283468" lon="8.03152494819249"><ele>831.0</ele><time>2026-04-06T10:31:26Z</time></trkpt><trkpt lat="45.79827278228748" lon="8.03155102344456"><ele>831.0</ele><time>2026-04-06T10:31:28Z</time></trkpt><trkpt lat="45.79834831344077" lon="8.031596672165445"><ele>831.0</ele><time>2026-04-06T10:31:30Z</time></trkpt><trkpt lat="45.79841745785162" lon="8.03162015727477"><ele>831.0</ele><time>2026-04-06T10:31:32Z</time></trkpt><trkpt lat="45.79848261431652" lon="8.031657510800732"><ele>831.1428571428571</ele><time>2026-04-06T10:31:36Z</time></trkpt><trkpt lat="45.79855430524565" lon="8.031709211386044"><ele>831.2857142857142</ele><time>2026-04-06T10:31:40Z</time></trkpt><trkpt lat="45.79862283116388" lon="8.031725751699419"><ele>831.4285714285713</ele><time>2026-04-06T10:31:43Z</time></trkpt><trkpt lat="45.798683413819" lon="8.031698661167448"><ele>831.5714285714286</ele><time>2026-04-06T10:31:46Z</time></trkpt><trkpt lat="45.798753140186356" lon="8.031655266592256"><ele>831.7142857142858</ele><time>2026-04-06T10:31:48.999Z</time></trkpt><trkpt lat="45.79881316054171" lon="8.03161471596103"><ele>831.8571428571428</ele><time>2026-04-06T10:31:51.999Z</time></trkpt><trkpt lat="45.79888162732227" lon="8.031563060857927"><ele>832.0</ele><time>2026-04-06T10:31:54.999Z</time></trkpt><trkpt lat="45.79896122680633" lon="8.031505879685572"><ele>832.0</ele><time>2026-04-06T10:31:57.999Z</time></trkpt><trkpt lat="45.799027225573376" lon="8.031457608461848"><ele>832.0</ele><time>2026-04-06T10:31:59.999Z</time></trkpt><trkpt lat="45.79911057209464" lon="8.03142082863077"><ele>832.0</ele><time>2026-04-06T10:32:01.999Z</time></trkpt><trkpt lat="45.79920708967168" lon="8.031393706024424"><ele>832.0</ele><time>2026-04-06T10:32:03.999Z</time></trkpt><trkpt lat="45.79930015793845" lon="8.031351621756773"><ele>832.0</ele><time>2026-04-06T10:32:05.999Z</time></trkpt><trkpt lat="45.79938798171736" lon="8.031309027447493"><ele>830.8333333333333</ele><time>2026-04-06T10:32:07.999Z</time></trkpt><trkpt lat="45.799463577049266" lon="8.031279360716278"><ele>829.6666666666666</ele><time>2026-04-06T10:32:09.999Z</time></trkpt><trkpt lat="45.799538449543135" lon="8.031261793467737"><ele>828.5</ele><time>2026-04-06T10:32:11.999Z</time></trkpt><trkpt lat="45.7996110586176" lon="8.031230304209895"><ele>827.3333333333333</ele><time>2026-04-06T10:32:13.999Z</time></trkpt><trkpt lat="45.79968571022358" lon="8.03120731986363"><ele>826.1666666666666</ele><time>2026-04-06T10:32:15.999Z</time></trkpt><trkpt lat="45.799756765638406" lon="8.03117024464448"><ele>825.0</ele><time>2026-04-06T10:32:17.999Z</time></trkpt><trkpt lat="45.79982299475597" lon="8.03111246461098"><ele>825.0</ele><time>2026-04-06T10:32:19.999Z</time></trkpt><trkpt lat="45.79989877125326" lon="8.03106453834812"><ele>825.0</ele><time>2026-04-06T10:32:21.999Z</time></trkpt><trkpt lat="45.79995495412389" lon="8.030966237219276"><ele>825.0</ele><time>2026-04-06T10:32:23.999Z</time></trkpt><trkpt lat="45.80002264374031" lon="8.030877484700872"><ele>825.0</ele><time>2026-04-06T10:32:25.999Z</time></trkpt><trkpt lat="45.80010009370177" lon="8.030801552960279"><ele>825.0</ele><time>2026-04-06T10:32:27.999Z</time></trkpt><trkpt lat="45.80018690543578" lon="8.030740050750081"><ele>825.3333333333334</ele><time>2026-04-06T10:32:29.999Z</time></trkpt><trkpt lat="45.80027249999907" lon="8.030694785231058"><ele>825.6666666666667</ele><time>2026-04-06T10:32:31.999Z</time></trkpt><trkpt lat="45.80034628667615" lon="8.030617302661105"><ele>826.0</ele><time>2026-04-06T10:32:33.999Z</time></trkpt><trkpt lat="45.80039447673419" lon="8.030508196063792"><ele>826.3333333333334</ele><time>2026-04-06T10:32:35.999Z</time></trkpt><trkpt lat="45.80042743147166" lon="8.030398475844787"><ele>826.6666666666667</ele><time>2026-04-06T10:32:37.999Z</time></trkpt><trkpt lat="45.80047290811849" lon="8.030300780797125"><ele>827.0</ele><time>2026-04-06T10:32:39.999Z</time></trkpt><trkpt lat="45.800514896821305" lon="8.03019471487679"><ele>827.0000000000001</ele><time>2026-04-06T10:32:42Z</time></trkpt><trkpt lat="45.800547734293" lon="8.030086838363768"><ele>827.0</ele><time>2026-04-06T10:32:44Z</time></trkpt><trkpt lat="45.80057128600805" lon="8.029970038676131"><ele>827.0</ele><time>2026-04-06T10:32:46Z</time></trkpt><trkpt lat="45.800590322589116" lon="8.029862434287228"><ele>827.0</ele><time>2026-04-06T10:32:48Z</time></trkpt><trkpt lat="45.800631464832705" lon="8.029760301516204"><ele>827.0000000000001</ele><time>2026-04-06T10:32:50Z</time></trkpt><trkpt lat="45.800681355111614" lon="8.029671655253756"><ele>827.0</ele><time>2026-04-06T10:32:52Z</time></trkpt><trkpt lat="45.80074808855823" lon="8.02960922387953"><ele>830.5000000000001</ele><time>2026-04-06T10:32:54Z</time></trkpt><trkpt lat="45.800829698551446" lon="8.02955995529955"><ele>834.0</ele><time>2026-04-06T10:32:56Z</time></trkpt><trkpt lat="45.800924195898425" lon="8.029573520211931"><ele>837.5</ele><time>2026-04-06T10:32:58Z</time></trkpt><trkpt lat="45.80100411851921" lon="8.029567432105996"><ele>841.0</ele><time>2026-04-06T10:33:00Z</time></trkpt><trkpt lat="45.80108396509013" lon="8.02958673469011"><ele>844.5000000000001</ele><time>2026-04-06T10:33:02Z</time></trkpt><trkpt lat="45.80116354877743" lon="8.029591958165312"><ele>848.0</ele><time>2026-04-06T10:33:04Z</time></trkpt><trkpt lat="45.80124007455785" lon="8.029589460378967"><ele>848.6666666666667</ele><time>2026-04-06T10:33:06Z</time></trkpt><trkpt lat="45.801323681992265" lon="8.02959155952334"><ele>849.3333333333334</ele><time>2026-04-06T10:33:08Z</time></trkpt><trkpt lat="45.801412873510095" lon="8.029599659038523"><ele>850.0</ele><time>2026-04-06T10:33:10Z</time></trkpt><trkpt lat="45.80150143756467" lon="8.02960765867726"><ele>850.6666666666667</ele><time>2026-04-06T10:33:12Z</time></trkpt><trkpt lat="45.80159055982632" lon="8.029600031149092"><ele>851.3333333333334</ele><time>2026-04-06T10:33:14Z</time></trkpt><trkpt lat="45.80168178567609" lon="8.029604103603656"><ele>852.0</ele><time>2026-04-06T10:33:16Z</time></trkpt><trkpt lat="45.80177689716229" lon="8.029609425037016"><ele>851.0</ele><time>2026-04-06T10:33:18Z</time></trkpt><trkpt lat="45.80186126805014" lon="8.029598663544167"><ele>850.0</ele><time>2026-04-06T10:33:20Z</time></trkpt><trkpt lat="45.80195606458982" lon="8.029587012482224"><ele>849.0</ele><time>2026-04-06T10:33:22Z</time></trkpt><trkpt lat="45.80204836806724" lon="8.029567092831659"><ele>848.0</ele><time>2026-04-06T10:33:24Z</time></trkpt><trkpt lat="45.80214151910278" lon="8.029538991677812"><ele>847.0</ele><time>2026-04-06T10:33:26Z</time></trkpt><trkpt lat="45.80222690556799" lon="8.029501719081795"><ele>847.0</ele><time>2026-04-06T10:33:28Z</time></trkpt><trkpt lat="45.80231533223113" lon="8.0294559231396"><ele>847.0</ele><time>2026-04-06T10:33:30Z</time></trkpt><trkpt lat="45.80240110730766" lon="8.029409220739941"><ele>847.0</ele><time>2026-04-06T10:33:32Z</time></trkpt><trkpt lat="45.802489839702346" lon="8.029357122076405"><ele>847.0</ele><time>2026-04-06T10:33:34Z</time></trkpt><trkpt lat="45.802566816535446" lon="8.029284477129096"><ele>847.0</ele><time>2026-04-06T10:33:36Z</time></trkpt><trkpt lat="45.802648074310355" lon="8.029203818459504"><ele>851.4000000000001</ele><time>2026-04-06T10:33:38Z</time></trkpt><trkpt lat="45.80273014805494" lon="8.029136520690983"><ele>855.8000000000001</ele><time>2026-04-06T10:33:40Z</time></trkpt><trkpt lat="45.80282332705203" lon="8.029107610516743"><ele>860.2</ele><time>2026-04-06T10:33:42Z</time></trkpt><trkpt lat="45.802917997088805" lon="8.029093359021168"><ele>864.6</ele><time>2026-04-06T10:33:44Z</time></trkpt><trkpt lat="45.80300957532899" lon="8.029079267926711"><ele>869.0</ele><time>2026-04-06T10:33:46Z</time></trkpt><trkpt lat="45.80310949545615" lon="8.029073446185674"><ele>869.0</ele><time>2026-04-06T10:33:48Z</time></trkpt><trkpt lat="45.80320853155973" lon="8.029066210216772"><ele>869.0000000000001</ele><time>2026-04-06T10:33:50Z</time></trkpt><trkpt lat="45.803305963657095" lon="8.02906843434066"><ele>869.0000000000001</ele><time>2026-04-06T10:33:52Z</time></trkpt><trkpt lat="45.803402796677766" lon="8.029090381315552"><ele>869.0</ele><time>2026-04-06T10:33:54Z</time></trkpt><trkpt lat="45.80349313198705" lon="8.029110519476209"><ele>869.0</ele><time>2026-04-06T10:33:55.999Z</time></trkpt><trkpt lat="45.80357779591718" lon="8.029121346739093"><ele>868.8333333333334</ele><time>2026-04-06T10:33:57.999Z</time></trkpt><trkpt lat="45.80366018042962" lon="8.029143655826527"><ele>868.6666666666667</ele><time>2026-04-06T10:33:59.999Z</time></trkpt><trkpt lat="45.80374148612857" lon="8.029162958250945"><ele>868.5</ele><time>2026-04-06T10:34:01.999Z</time></trkpt><trkpt lat="45.803817181632255" lon="8.029171905808504"><ele>868.3333333333333</ele><time>2026-04-06T10:34:03.999Z</time></trkpt><trkpt lat="45.80389776912731" lon="8.029156685321707"><ele>868.1666666666666</ele><time>2026-04-06T10:34:05.999Z</time></trkpt><trkpt lat="45.803968538795914" lon="8.02907364714602"><ele>868.0</ele><time>2026-04-06T10:34:07.999Z</time></trkpt><trkpt lat="45.803951153132125" lon="8.028925778339108"><ele>867.9999999999999</ele><time>2026-04-06T10:34:09.999Z</time></trkpt><trkpt lat="45.803857317870666" lon="8.028864229149512"><ele>868.0</ele><time>2026-04-06T10:34:11.999Z</time></trkpt><trkpt lat="45.803787226760655" lon="8.028789776276371"><ele>868.0</ele><time>2026-04-06T10:34:13.999Z</time></trkpt><trkpt lat="45.80370346562736" lon="8.02875860101318"><ele>868.0</ele><time>2026-04-06T10:34:15.999Z</time></trkpt><trkpt lat="45.8036315595325" lon="8.028701805942843"><ele>867.9999999999999</ele><time>2026-04-06T10:34:17.999Z</time></trkpt><trkpt lat="45.803557300584814" lon="8.028650979989076"><ele>868.0</ele><time>2026-04-06T10:34:19.999Z</time></trkpt><trkpt lat="45.8034839828131" lon="8.02860174003217"><ele>868.1428571428571</ele><time>2026-04-06T10:34:21.999Z</time></trkpt><trkpt lat="45.803421818270394" lon="8.028586113397354"><ele>868.2857142857142</ele><time>2026-04-06T10:34:23.999Z</time></trkpt><trkpt lat="45.803357008536175" lon="8.028572201191226"><ele>868.4285714285714</ele><time>2026-04-06T10:34:26.999Z</time></trkpt><trkpt lat="45.80339299268899" lon="8.028481856252952"><ele>868.5714285714286</ele><time>2026-04-06T10:41:28Z</time></trkpt><trkpt lat="45.803332593908195" lon="8.028448841387762"><ele>868.7142857142857</ele><time>2026-04-06T10:41:31Z</time></trkpt><trkpt lat="45.80327280556624" lon="8.028417643610664"><ele>868.8571428571429</ele><time>2026-04-06T10:41:34Z</time></trkpt><trkpt lat="45.80322834225309" lon="8.028347606514934"><ele>869.0</ele><time>2026-04-06T10:41:37Z</time></trkpt><trkpt lat="45.803208977883855" lon="8.028261050348263"><ele>872.2857142857143</ele><time>2026-04-06T10:41:40Z</time></trkpt><trkpt lat="45.803245878097094" lon="8.028178745169432"><ele>875.5714285714286</ele><time>2026-04-06T10:41:43Z</time></trkpt><trkpt lat="45.8033045705112" lon="8.028129556004487"><ele>878.8571428571429</ele><time>2026-04-06T10:41:46Z</time></trkpt><trkpt lat="45.80338218556359" lon="8.02813042165152"><ele>882.1428571428571</ele><time>2026-04-06T10:41:49Z</time></trkpt><trkpt lat="45.803467805307825" lon="8.028163021663426"><ele>885.4285714285713</ele><time>2026-04-06T10:41:52Z</time></trkpt><trkpt lat="45.80353698623512" lon="8.028183041985898"><ele>888.7142857142857</ele><time>2026-04-06T10:41:54Z</time></trkpt><trkpt lat="45.803599477704026" lon="8.028210196357687"><ele>892.0</ele><time>2026-04-06T10:41:56Z</time></trkpt><trkpt lat="45.80366192031185" lon="8.028226076781904"><ele>891.9999999999999</ele><time>2026-04-06T10:41:58Z</time></trkpt><trkpt lat="45.80373497300178" lon="8.02826051156748"><ele>892.0</ele><time>2026-04-06T10:42:00Z</time></trkpt><trkpt lat="45.803832062964645" lon="8.028296172548414"><ele>892.0</ele><time>2026-04-06T10:42:03Z</time></trkpt><trkpt lat="45.80389795484267" lon="8.02830930068685"><ele>892.0</ele><time>2026-04-06T10:42:05Z</time></trkpt><trkpt lat="45.80397221979108" lon="8.028328816321416"><ele>891.9999999999999</ele><time>2026-04-06T10:42:07Z</time></trkpt><trkpt lat="45.80403948716219" lon="8.028351028279445"><ele>892.0</ele><time>2026-04-06T10:42:09Z</time></trkpt><trkpt lat="45.804112503353736" lon="8.028376854739056"><ele>889.5714285714286</ele><time>2026-04-06T10:42:11Z</time></trkpt><trkpt lat="45.804183943388026" lon="8.028401330952228"><ele>887.1428571428571</ele><time>2026-04-06T10:42:13Z</time></trkpt><trkpt lat="45.80425065610512" lon="8.028427132441381"><ele>884.7142857142858</ele><time>2026-04-06T10:42:15Z</time></trkpt><trkpt lat="45.8043216745098" lon="8.028447495198652"><ele>882.2857142857142</ele><time>2026-04-06T10:42:17Z</time></trkpt><trkpt lat="45.80439542317387" lon="8.02847174361007"><ele>879.8571428571429</ele><time>2026-04-06T10:42:19Z</time></trkpt><trkpt lat="45.804463325442626" lon="8.028488097336073"><ele>877.4285714285714</ele><time>2026-04-06T10:42:20.999Z</time></trkpt><trkpt lat="45.80453254077939" lon="8.02850563334173"><ele>875.0</ele><time>2026-04-06T10:42:22.999Z</time></trkpt><trkpt lat="45.80460108001072" lon="8.028528150988013"><ele>875.0</ele><time>2026-04-06T10:42:24.999Z</time></trkpt><trkpt lat="45.804669610649604" lon="8.028547539289528"><ele>875.0</ele><time>2026-04-06T10:42:26.999Z</time></trkpt><trkpt lat="45.804736700622314" lon="8.028568373060395"><ele>875.0</ele><time>2026-04-06T10:42:28.999Z</time></trkpt><trkpt lat="45.80480870418409" lon="8.028591312468205"><ele>875.0</ele><time>2026-04-06T10:42:30.999Z</time></trkpt><trkpt lat="45.80487697763939" lon="8.028613656629409"><ele>875.0</ele><time>2026-04-06T10:42:32.999Z</time></trkpt><trkpt lat="45.804943577580794" lon="8.028631571766349"><ele>875.0</ele><time>2026-04-06T10:42:34.999Z</time></trkpt><trkpt lat="45.80501124236837" lon="8.028663660285552"><ele>875.0</ele><time>2026-04-06T10:42:36.999Z</time></trkpt><trkpt lat="45.805079201424064" lon="8.028708819225486"><ele>875.0</ele><time>2026-04-06T10:42:38.999Z</time></trkpt><trkpt lat="45.80515019257868" lon="8.0287372435625"><ele>875.0</ele><time>2026-04-06T10:42:40.999Z</time></trkpt><trkpt lat="45.80521822540981" lon="8.0287761472198"><ele>875.0</ele><time>2026-04-06T10:42:42.999Z</time></trkpt><trkpt lat="45.8052825857113" lon="8.028829352670087"><ele>875.0</ele><time>2026-04-06T10:42:44.999Z</time></trkpt><trkpt lat="45.80534540422701" lon="8.028878237203104"><ele>875.0</ele><time>2026-04-06T10:42:46.999Z</time></trkpt><trkpt lat="45.80540707475884" lon="8.028935387603928"><ele>875.0</ele><time>2026-04-06T10:42:48.999Z</time></trkpt><trkpt lat="45.805466281637884" lon="8.028999111729473"><ele>875.0</ele><time>2026-04-06T10:42:50.999Z</time></trkpt><trkpt lat="45.80552210051487" lon="8.02906640323277"><ele>875.5714285714286</ele><time>2026-04-06T10:42:52.999Z</time></trkpt><trkpt lat="45.80558278411993" lon="8.02911425287105"><ele>876.1428571428571</ele><time>2026-04-06T10:42:54.999Z</time></trkpt><trkpt lat="45.805644765242675" lon="8.029166327708289"><ele>876.7142857142858</ele><time>2026-04-06T10:42:56.999Z</time></trkpt><trkpt lat="45.80571127463387" lon="8.02920910286115"><ele>877.2857142857142</ele><time>2026-04-06T10:42:58.999Z</time></trkpt><trkpt lat="45.80577734184705" lon="8.029252142192224"><ele>877.8571428571429</ele><time>2026-04-06T10:43:00.999Z</time></trkpt><trkpt lat="45.80584705414902" lon="8.029280049853943"><ele>878.4285714285714</ele><time>2026-04-06T10:43:02.999Z</time></trkpt><trkpt lat="45.80591512479848" lon="8.02929486206466"><ele>879.0</ele><time>2026-04-06T10:43:04.999Z</time></trkpt><trkpt lat="45.80599152269646" lon="8.02929808179606"><ele>879.7142857142858</ele><time>2026-04-06T10:43:06.999Z</time></trkpt><trkpt lat="45.806064615390696" lon="8.029302337053691"><ele>880.4285714285714</ele><time>2026-04-06T10:43:08.999Z</time></trkpt><trkpt lat="45.80613739580678" lon="8.029287787076782"><ele>881.1428571428571</ele><time>2026-04-06T10:43:10.999Z</time></trkpt><trkpt lat="45.80620723227929" lon="8.029277705113968"><ele>881.8571428571429</ele><time>2026-04-06T10:43:13Z</time></trkpt><trkpt lat="45.80628085965069" lon="8.0292703315928"><ele>882.5714285714286</ele><time>2026-04-06T10:43:15Z</time></trkpt><trkpt lat="45.806350901005914" lon="8.029262113635546"><ele>883.2857142857143</ele><time>2026-04-06T10:43:17Z</time></trkpt><trkpt lat="45.80641577212987" lon="8.029251049894624"><ele>884.0</ele><time>2026-04-06T10:43:19Z</time></trkpt><trkpt lat="45.80649226871489" lon="8.029224831648785"><ele>884.0000000000001</ele><time>2026-04-06T10:43:22Z</time></trkpt><trkpt lat="45.80656966430554" lon="8.029192927967243"><ele>884.0</ele><time>2026-04-06T10:43:26Z</time></trkpt><trkpt lat="45.80662871149285" lon="8.029149751005484"><ele>884.0</ele><time>2026-04-06T10:43:29Z</time></trkpt><trkpt lat="45.80672850462714" lon="8.029123160148986"><ele>884.0</ele><time>2026-04-06T10:43:32Z</time></trkpt><trkpt lat="45.80679825030296" lon="8.029120847168167"><ele>884.0000000000001</ele><time>2026-04-06T10:43:34Z</time></trkpt><trkpt lat="45.806872129153696" lon="8.029096275727213"><ele>884.0</ele><time>2026-04-06T10:43:36Z</time></trkpt><trkpt lat="45.80693178860212" lon="8.02903750141566"><ele>884.5000000000001</ele><time>2026-04-06T10:43:38Z</time></trkpt><trkpt lat="45.806995495152236" lon="8.028969716030238"><ele>885.0</ele><time>2026-04-06T10:43:40Z</time></trkpt><trkpt lat="45.80706028984595" lon="8.028905888234817"><ele>885.5</ele><time>2026-04-06T10:43:42Z</time></trkpt><trkpt lat="45.807115174035" lon="8.02884801124647"><ele>886.0</ele><time>2026-04-06T10:43:44Z</time></trkpt><trkpt lat="45.807178890282465" lon="8.02879248341962"><ele>886.5000000000001</ele><time>2026-04-06T10:43:46Z</time></trkpt><trkpt lat="45.807239065549275" lon="8.028731892989489"><ele>887.0</ele><time>2026-04-06T10:43:48Z</time></trkpt><trkpt lat="45.807310375074486" lon="8.028658524234007"><ele>887.0000000000001</ele><time>2026-04-06T10:43:50Z</time></trkpt><trkpt lat="45.8073765757345" lon="8.028593118335753"><ele>887.0</ele><time>2026-04-06T10:43:52Z</time></trkpt><trkpt lat="45.807437462705245" lon="8.028527809435845"><ele>887.0</ele><time>2026-04-06T10:43:54Z</time></trkpt><trkpt lat="45.80751242191992" lon="8.028440973514787"><ele>887.0</ele><time>2026-04-06T10:43:56Z</time></trkpt><trkpt lat="45.80754961152807" lon="8.02833260042153"><ele>887.0000000000001</ele><time>2026-04-06T10:43:58Z</time></trkpt><trkpt lat="45.807594101593615" lon="8.028236634617688"><ele>887.0</ele><time>2026-04-06T10:44:00Z</time></trkpt><trkpt lat="45.80763121689163" lon="8.028152955677113"><ele>902.0</ele><time>2026-04-06T10:44:02Z</time></trkpt><trkpt lat="45.80769059954046" lon="8.028110819866477"><ele>917.0</ele><time>2026-04-06T10:44:04Z</time></trkpt><trkpt lat="45.807757674716534" lon="8.028103541797044"><ele>917.0</ele><time>2026-04-06T10:44:06Z</time></trkpt><trkpt lat="45.80783547751307" lon="8.028081841408843"><ele>917.0</ele><time>2026-04-06T10:44:09Z</time></trkpt><trkpt lat="45.8079042005485" lon="8.028015884589507"><ele>917.0</ele><time>2026-04-06T10:44:13Z</time></trkpt><trkpt lat="45.80796576137684" lon="8.028036744285012"><ele>917.0</ele><time>2026-04-06T10:45:08.999Z</time></trkpt></trkseg><trkseg><trkpt lat="45.80889143578883" lon="8.029339869141204"><ele>882.0</ele><time>2026-04-06T11:29:21.998Z</time></trkpt><trkpt lat="45.80895409932991" lon="8.029318638666687"><ele>882.0</ele><time>2026-04-06T11:29:29.999Z</time></trkpt><trkpt lat="45.809017881767325" lon="8.029355648289803"><ele>882.0</ele><time>2026-04-06T11:29:35.999Z</time></trkpt><trkpt lat="45.8090706680157" lon="8.029275893767524"><ele>882.0</ele><time>2026-04-06T11:29:41.999Z</time></trkpt><trkpt lat="45.809133795792334" lon="8.029322831816284"><ele>882.0</ele><time>2026-04-06T11:30:10Z</time></trkpt><trkpt lat="45.80919658573137" lon="8.029416231633686"><ele>882.0</ele><time>2026-04-06T11:30:12Z</time></trkpt><trkpt lat="45.809245165519904" lon="8.029479667111218"><ele>882.0</ele><time>2026-04-06T11:30:13Z</time></trkpt><trkpt lat="45.80930728235368" lon="8.029513150971484"><ele>883.3333333333334</ele><time>2026-04-06T11:30:14Z</time></trkpt><trkpt lat="45.80937857531008" lon="8.029543900345507"><ele>884.6666666666667</ele><time>2026-04-06T11:30:15Z</time></trkpt><trkpt lat="45.809434479044796" lon="8.029637914259256"><ele>886.0</ele><time>2026-04-06T11:30:16Z</time></trkpt><trkpt lat="45.80950963219986" lon="8.029691100221678"><ele>887.3333333333334</ele><time>2026-04-06T11:30:17Z</time></trkpt><trkpt lat="45.80958970190278" lon="8.029747983872875"><ele>888.6666666666667</ele><time>2026-04-06T11:30:18Z</time></trkpt><trkpt lat="45.809671603746075" lon="8.02980616884249"><ele>890.0</ele><time>2026-04-06T11:30:19Z</time></trkpt><trkpt lat="45.80975552084632" lon="8.029869460807847"><ele>890.0</ele><time>2026-04-06T11:30:20Z</time></trkpt><trkpt lat="45.80984477936125" lon="8.029923365165672"><ele>890.0</ele><time>2026-04-06T11:30:21Z</time></trkpt><trkpt lat="45.80992660499956" lon="8.030005595093542"><ele>890.0</ele><time>2026-04-06T11:30:22Z</time></trkpt><trkpt lat="45.81000383673235" lon="8.030096610774669"><ele>890.0</ele><time>2026-04-06T11:30:23Z</time></trkpt><trkpt lat="45.810078904763245" lon="8.030191087351195"><ele>890.0</ele><time>2026-04-06T11:30:24Z</time></trkpt><trkpt lat="45.81014836160504" lon="8.03028954996963"><ele>890.0000000000001</ele><time>2026-04-06T11:30:25Z</time></trkpt><trkpt lat="45.81022242135438" lon="8.030380084072599"><ele>890.0</ele><time>2026-04-06T11:30:26Z</time></trkpt><trkpt lat="45.81028044608072" lon="8.030486778802237"><ele>890.0</ele><time>2026-04-06T11:30:27Z</time></trkpt><trkpt lat="45.81032737745982" lon="8.030593852689341"><ele>890.0</ele><time>2026-04-06T11:30:28Z</time></trkpt><trkpt lat="45.81037368560021" lon="8.030690619406926"><ele>890.0000000000001</ele><time>2026-04-06T11:30:29Z</time></trkpt><trkpt lat="45.81041853847455" lon="8.030780701862975"><ele>890.0</ele><time>2026-04-06T11:30:30Z</time></trkpt><trkpt lat="45.810454891677445" lon="8.030866506086067"><ele>888.3333333333334</ele><time>2026-04-06T11:30:31Z</time></trkpt><trkpt lat="45.810492155929204" lon="8.03094216771773"><ele>886.6666666666667</ele><time>2026-04-06T11:30:32Z</time></trkpt><trkpt lat="45.8105450960726" lon="8.031076433234045"><ele>885.0</ele><time>2026-04-06T11:30:34Z</time></trkpt><trkpt lat="45.810587725030665" lon="8.03117960497279"><ele>883.3333333333333</ele><time>2026-04-06T11:30:36Z</time></trkpt><trkpt lat="45.81062624726015" lon="8.031256574716814"><ele>881.6666666666666</ele><time>2026-04-06T11:30:38Z</time></trkpt><trkpt lat="45.81065944883122" lon="8.031344138906654"><ele>880.0</ele><time>2026-04-06T11:30:41Z</time></trkpt><trkpt lat="45.810696273165455" lon="8.031431830725898"><ele>879.9999999999999</ele><time>2026-04-06T11:30:44Z</time></trkpt><trkpt lat="45.81074888326399" lon="8.031520840342234"><ele>880.0</ele><time>2026-04-06T11:30:47Z</time></trkpt><trkpt lat="45.810810455896" lon="8.03162456497727"><ele>880.0</ele><time>2026-04-06T11:30:50Z</time></trkpt><trkpt lat="45.81087367600757" lon="8.031691338393838"><ele>880.0</ele><time>2026-04-06T11:30:53Z</time></trkpt><trkpt lat="45.81094126383371" lon="8.031739253201472"><ele>879.9999999999999</ele><time>2026-04-06T11:30:56Z</time></trkpt><trkpt lat="45.81100461592413" lon="8.03177651027351"><ele>880.0</ele><time>2026-04-06T11:30:58Z</time></trkpt><trkpt lat="45.811074803298986" lon="8.031782785427986"><ele>879.6666666666666</ele><time>2026-04-06T11:31:00Z</time></trkpt><trkpt lat="45.81115826546702" lon="8.031779817649399"><ele>879.3333333333333</ele><time>2026-04-06T11:31:02Z</time></trkpt><trkpt lat="45.81126928616795" lon="8.031729290220776"><ele>879.0</ele><time>2026-04-06T11:31:03.999Z</time></trkpt><trkpt lat="45.81132834104559" lon="8.031696434817857"><ele>878.6666666666667</ele><time>2026-04-06T11:31:04.999Z</time></trkpt><trkpt lat="45.81139749394486" lon="8.031665323260443"><ele>878.3333333333334</ele><time>2026-04-06T11:31:05.999Z</time></trkpt><trkpt lat="45.81146196365731" lon="8.031629825374377"><ele>878.0</ele><time>2026-04-06T11:31:06.999Z</time></trkpt><trkpt lat="45.81152300246761" lon="8.031607582706274"><ele>878.0000000000001</ele><time>2026-04-06T11:31:07.999Z</time></trkpt><trkpt lat="45.81162078417806" lon="8.03161668188854"><ele>878.0</ele><time>2026-04-06T11:31:09.999Z</time></trkpt><trkpt lat="45.81168667367479" lon="8.031628379527707"><ele>878.0</ele><time>2026-04-06T11:31:11.999Z</time></trkpt><trkpt lat="45.8117684013122" lon="8.031643519882108"><ele>878.0</ele><time>2026-04-06T11:31:15.999Z</time></trkpt><trkpt lat="45.811832966810165" lon="8.031658869951128"><ele>878.0000000000001</ele><time>2026-04-06T11:31:18.999Z</time></trkpt><trkpt lat="45.811906352392484" lon="8.031672296410727"><ele>878.0</ele><time>2026-04-06T11:31:21.999Z</time></trkpt><trkpt lat="45.81193428506495" lon="8.031767985379885"><ele>877.5000000000001</ele><time>2026-04-06T11:31:23.999Z</time></trkpt><trkpt lat="45.81195556331479" lon="8.0318635405824"><ele>877.0</ele><time>2026-04-06T11:31:26.999Z</time></trkpt><trkpt lat="45.81199716213902" lon="8.031967571355962"><ele>876.5</ele><time>2026-04-06T11:31:48Z</time></trkpt><trkpt lat="45.812098124453264" lon="8.032042298263525"><ele>876.0</ele><time>2026-04-06T11:31:51Z</time></trkpt><trkpt lat="45.81216397565556" lon="8.03204604618353"><ele>875.5000000000001</ele><time>2026-04-06T11:31:53Z</time></trkpt><trkpt lat="45.81224104547464" lon="8.032057134800398"><ele>875.0</ele><time>2026-04-06T11:31:55Z</time></trkpt><trkpt lat="45.81231135810698" lon="8.032054383092163"><ele>875.0</ele><time>2026-04-06T11:31:57Z</time></trkpt><trkpt lat="45.81238410740897" lon="8.032037832640611"><ele>875.0</ele><time>2026-04-06T11:31:59Z</time></trkpt><trkpt lat="45.81245778816747" lon="8.032008767884212"><ele>875.0</ele><time>2026-04-06T11:32:01Z</time></trkpt><trkpt lat="45.81252765933372" lon="8.03197210457417"><ele>875.0</ele><time>2026-04-06T11:32:03Z</time></trkpt><trkpt lat="45.81259247824259" lon="8.03193666877041"><ele>875.0</ele><time>2026-04-06T11:32:05Z</time></trkpt><trkpt lat="45.812656281079136" lon="8.031908583335985"><ele>875.0</ele><time>2026-04-06T11:32:07Z</time></trkpt><trkpt lat="45.81271942251859" lon="8.031886147939707"><ele>875.0</ele><time>2026-04-06T11:32:09Z</time></trkpt><trkpt lat="45.812786812693375" lon="8.031877191034985"><ele>874.5714285714286</ele><time>2026-04-06T11:32:12Z</time></trkpt><trkpt lat="45.812861420700244" lon="8.031885955288182"><ele>874.1428571428571</ele><time>2026-04-06T11:32:18Z</time></trkpt><trkpt lat="45.81293642171328" lon="8.031902112699825"><ele>873.7142857142858</ele><time>2026-04-06T11:32:21Z</time></trkpt><trkpt lat="45.81300579569343" lon="8.031930649905691"><ele>873.2857142857142</ele><time>2026-04-06T11:32:24Z</time></trkpt><trkpt lat="45.813087346670905" lon="8.031986773875005"><ele>872.8571428571429</ele><time>2026-04-06T11:32:27Z</time></trkpt><trkpt lat="45.813139801319394" lon="8.032037969508005"><ele>872.4285714285714</ele><time>2026-04-06T11:32:29Z</time></trkpt><trkpt lat="45.81319727002523" lon="8.032097904138409"><ele>872.0</ele><time>2026-04-06T11:32:31Z</time></trkpt><trkpt lat="45.813251719649315" lon="8.032145129864048"><ele>872.0000000000001</ele><time>2026-04-06T11:32:33Z</time></trkpt><trkpt lat="45.813345693722624" lon="8.032175907656079"><ele>872.0</ele><time>2026-04-06T11:32:36Z</time></trkpt><trkpt lat="45.813421807084566" lon="8.032177613036463"><ele>872.0</ele><time>2026-04-06T11:32:40Z</time></trkpt><trkpt lat="45.81351073203041" lon="8.032152436204587"><ele>872.0</ele><time>2026-04-06T11:32:43Z</time></trkpt><trkpt lat="45.813575018392775" lon="8.032116117792254"><ele>872.0000000000001</ele><time>2026-04-06T11:32:45Z</time></trkpt><trkpt lat="45.81365288332787" lon="8.032063024034159"><ele>872.0</ele><time>2026-04-06T11:32:48Z</time></trkpt><trkpt lat="45.813732593535775" lon="8.0320071299345"><ele>872.5000000000001</ele><time>2026-04-06T11:32:51Z</time></trkpt><trkpt lat="45.81379212082036" lon="8.031965388471232"><ele>873.0</ele><time>2026-04-06T11:32:52.999Z</time></trkpt><trkpt lat="45.81385004395329" lon="8.031924771851756"><ele>873.5</ele><time>2026-04-06T11:32:54.999Z</time></trkpt><trkpt lat="45.81390803266049" lon="8.031884109230337"><ele>874.0</ele><time>2026-04-06T11:32:56.999Z</time></trkpt><trkpt lat="45.813990709340175" lon="8.03182730644848"><ele>874.5000000000001</ele><time>2026-04-06T11:32:59.999Z</time></trkpt><trkpt lat="45.814070596362946" lon="8.031773809831286"><ele>875.0</ele><time>2026-04-06T11:33:02.999Z</time></trkpt><trkpt lat="45.81415060738918" lon="8.031720581923143"><ele>875.0</ele><time>2026-04-06T11:33:05.999Z</time></trkpt><trkpt lat="45.81422756678666" lon="8.031669257630112"><ele>875.0</ele><time>2026-04-06T11:33:08.999Z</time></trkpt><trkpt lat="45.814293634009886" lon="8.031623932462134"><ele>875.0</ele><time>2026-04-06T11:33:11.999Z</time></trkpt><trkpt lat="45.8143624650925" lon="8.031575411226775"><ele>875.0</ele><time>2026-04-06T11:33:14.999Z</time></trkpt><trkpt lat="45.81442590916941" lon="8.031530286211723"><ele>875.0</ele><time>2026-04-06T11:33:17.999Z</time></trkpt><trkpt lat="45.814485416616705" lon="8.03148796113845"><ele>875.0</ele><time>2026-04-06T11:33:20.999Z</time></trkpt><trkpt lat="45.81455211213543" lon="8.03144226516664"><ele>875.0</ele><time>2026-04-06T11:33:23.999Z</time></trkpt><trkpt lat="45.814637412806555" lon="8.031388692854657"><ele>875.4285714285714</ele><time>2026-04-06T11:33:27Z</time></trkpt><trkpt lat="45.814696659604834" lon="8.031351484730067"><ele>875.8571428571429</ele><time>2026-04-06T11:33:29Z</time></trkpt><trkpt lat="45.814758670890505" lon="8.031293920395807"><ele>876.2857142857142</ele><time>2026-04-06T11:33:31Z</time></trkpt><trkpt lat="45.814823388988074" lon="8.031233300104345"><ele>876.7142857142858</ele><time>2026-04-06T11:33:33Z</time></trkpt><trkpt lat="45.81488739698904" lon="8.03117871143277"><ele>877.1428571428571</ele><time>2026-04-06T11:33:35Z</time></trkpt><trkpt lat="45.81495260887686" lon="8.031125708467298"><ele>877.5714285714286</ele><time>2026-04-06T11:33:37Z</time></trkpt><trkpt lat="45.81501329325488" lon="8.03108008300897"><ele>878.0</ele><time>2026-04-06T11:33:39Z</time></trkpt><trkpt lat="45.81508798666006" lon="8.031029595780145"><ele>878.0000000000001</ele><time>2026-04-06T11:33:41Z</time></trkpt><trkpt lat="45.81514946677208" lon="8.03099093057589"><ele>878.0</ele><time>2026-04-06T11:33:43Z</time></trkpt><trkpt lat="45.81521762842681" lon="8.030949362579848"><ele>878.0</ele><time>2026-04-06T11:33:46Z</time></trkpt><trkpt lat="45.815278232882214" lon="8.030918559724286"><ele>878.0</ele><time>2026-04-06T11:33:50Z</time></trkpt><trkpt lat="45.81534479337542" lon="8.030865202369188"><ele>878.0000000000001</ele><time>2026-04-06T11:34:00Z</time></trkpt><trkpt lat="45.81543835412893" lon="8.03081542085758"><ele>878.0</ele><time>2026-04-06T11:34:03Z</time></trkpt><trkpt lat="45.81551576078379" lon="8.030758671710975"><ele>878.3333333333334</ele><time>2026-04-06T11:34:05Z</time></trkpt><trkpt lat="45.81559611244437" lon="8.030699763393777"><ele>878.6666666666667</ele><time>2026-04-06T11:34:07Z</time></trkpt><trkpt lat="45.815667149013684" lon="8.030647603996378"><ele>879.0</ele><time>2026-04-06T11:34:09Z</time></trkpt><trkpt lat="45.81572950604703" lon="8.030601307930773"><ele>879.3333333333333</ele><time>2026-04-06T11:34:11Z</time></trkpt><trkpt lat="45.815793757999515" lon="8.03055360494764"><ele>879.6666666666666</ele><time>2026-04-06T11:34:14Z</time></trkpt><trkpt lat="45.815770529302185" lon="8.03042729564584"><ele>880.0</ele><time>2026-04-06T11:34:15Z</time></trkpt><trkpt lat="45.81573237971596" lon="8.03033700340819"><ele>879.9999999999999</ele><time>2026-04-06T11:34:17Z</time></trkpt><trkpt lat="45.81569315086798" lon="8.030242615434469"><ele>880.0</ele><time>2026-04-06T11:34:19Z</time></trkpt><trkpt lat="45.815641821897074" lon="8.030163658105506"><ele>880.0</ele><time>2026-04-06T11:34:21Z</time></trkpt><trkpt lat="45.81561291483728" lon="8.030081807547264"><ele>880.0</ele><time>2026-04-06T11:34:23Z</time></trkpt><trkpt lat="45.81560077721422" lon="8.029990553966753"><ele>880.0</ele><time>2026-04-06T11:34:25Z</time></trkpt><trkpt lat="45.815585291548494" lon="8.029885109713646"><ele>879.9999999999999</ele><time>2026-04-06T11:34:28Z</time></trkpt><trkpt lat="45.815591318222054" lon="8.029795001202537"><ele>880.0</ele><time>2026-04-06T11:34:32Z</time></trkpt><trkpt lat="45.81557368469075" lon="8.02970812372589"><ele>881.2</ele><time>2026-04-06T11:34:58Z</time></trkpt><trkpt lat="45.81554787650277" lon="8.029544359834667"><ele>882.4</ele><time>2026-04-06T11:35:00Z</time></trkpt><trkpt lat="45.815538073907646" lon="8.029455084756075"><ele>883.5999999999999</ele><time>2026-04-06T11:35:02Z</time></trkpt><trkpt lat="45.815518785914755" lon="8.02935017499339"><ele>884.8</ele><time>2026-04-06T11:35:05Z</time></trkpt><trkpt lat="45.81561713177906" lon="8.029517130265672"><ele>886.0</ele><time>2026-04-06T11:35:06Z</time></trkpt><trkpt lat="45.81521564925289" lon="8.029312163685074"><ele>886.0</ele><time>2026-04-06T11:35:07Z</time></trkpt><trkpt lat="45.81528751662437" lon="8.02925172519178"><ele>885.9999999999999</ele><time>2026-04-06T11:35:09Z</time></trkpt><trkpt lat="45.815370136959366" lon="8.029226852768026"><ele>885.9999999999999</ele><time>2026-04-06T11:35:22Z</time></trkpt><trkpt lat="45.81547563357467" lon="8.029200063385941"><ele>886.0</ele><time>2026-04-06T11:35:24Z</time></trkpt><trkpt lat="45.81558299400535" lon="8.0291198362559"><ele>886.0</ele><time>2026-04-06T11:35:26Z</time></trkpt><trkpt lat="45.815684510233275" lon="8.029038459306914"><ele>886.3333333333333</ele><time>2026-04-06T11:35:28Z</time></trkpt><trkpt lat="45.81574316927637" lon="8.029005153108262"><ele>886.6666666666666</ele><time>2026-04-06T11:35:29Z</time></trkpt><trkpt lat="45.81583222662823" lon="8.028927759139837"><ele>887.0</ele><time>2026-04-06T11:35:31Z</time></trkpt><trkpt lat="45.81589318392238" lon="8.028896540935147"><ele>887.3333333333333</ele><time>2026-04-06T11:35:33Z</time></trkpt><trkpt lat="45.81596407396804" lon="8.02882247062633"><ele>887.6666666666666</ele><time>2026-04-06T11:35:36Z</time></trkpt><trkpt lat="45.81604729790209" lon="8.028775974835359"><ele>888.0</ele><time>2026-04-06T11:35:38Z</time></trkpt><trkpt lat="45.816122664205686" lon="8.028760241246713"><ele>888.0</ele><time>2026-04-06T11:35:40Z</time></trkpt><trkpt lat="45.81619381519718" lon="8.02871506383635"><ele>888.0</ele><time>2026-04-06T11:35:42Z</time></trkpt><trkpt lat="45.816268735076804" lon="8.028675308546367"><ele>888.0</ele><time>2026-04-06T11:35:44Z</time></trkpt><trkpt lat="45.81634159132309" lon="8.028630342459765"><ele>888.0</ele><time>2026-04-06T11:35:46Z</time></trkpt><trkpt lat="45.8163986831731" lon="8.028556213108207"><ele>888.0</ele><time>2026-04-06T11:35:48Z</time></trkpt><trkpt lat="45.81644396661809" lon="8.02844903699841"><ele>888.0</ele><time>2026-04-06T11:35:50Z</time></trkpt><trkpt lat="45.81648944682536" lon="8.028362485581528"><ele>889.5</ele><time>2026-04-06T11:35:52Z</time></trkpt><trkpt lat="45.81655794220337" lon="8.028288471172914"><ele>891.0</ele><time>2026-04-06T11:35:54Z</time></trkpt><trkpt lat="45.81662632072105" lon="8.02823107925736"><ele>892.5</ele><time>2026-04-06T11:35:56Z</time></trkpt><trkpt lat="45.81669742936123" lon="8.028178624396604"><ele>894.0</ele><time>2026-04-06T11:35:58Z</time></trkpt><trkpt lat="45.81678009652827" lon="8.028134043698824"><ele>895.5</ele><time>2026-04-06T11:36:00Z</time></trkpt><trkpt lat="45.81685121067684" lon="8.028069227936427"><ele>897.0</ele><time>2026-04-06T11:36:02Z</time></trkpt><trkpt lat="45.816911807403905" lon="8.028008979414382"><ele>897.0</ele><time>2026-04-06T11:36:04Z</time></trkpt><trkpt lat="45.81698117692756" lon="8.027924077082853"><ele>897.0</ele><time>2026-04-06T11:36:06Z</time></trkpt><trkpt lat="45.81704350105304" lon="8.027809306884588"><ele>897.0</ele><time>2026-04-06T11:36:08Z</time></trkpt><trkpt lat="45.81710747751128" lon="8.027746640983526"><ele>897.0</ele><time>2026-04-06T11:36:10Z</time></trkpt><trkpt lat="45.817165368260255" lon="8.02767647154962"><ele>897.0</ele><time>2026-04-06T11:36:12Z</time></trkpt><trkpt lat="45.817231058156615" lon="8.027606793073087"><ele>897.0</ele><time>2026-04-06T11:36:14Z</time></trkpt><trkpt lat="45.817296284752416" lon="8.027538980008647"><ele>896.8333333333334</ele><time>2026-04-06T11:36:16Z</time></trkpt><trkpt lat="45.81735443953549" lon="8.02746831249824"><ele>896.6666666666667</ele><time>2026-04-06T11:36:18Z</time></trkpt><trkpt lat="45.817413750527564" lon="8.027398143833599"><ele>896.5</ele><time>2026-04-06T11:36:20Z</time></trkpt><trkpt lat="45.8174680390207" lon="8.027332529917174"><ele>896.3333333333334</ele><time>2026-04-06T11:36:22Z</time></trkpt><trkpt lat="45.81753881838395" lon="8.027292790796738"><ele>896.1666666666667</ele><time>2026-04-06T11:36:24Z</time></trkpt><trkpt lat="45.81761743914425" lon="8.027257402269989"><ele>896.0</ele><time>2026-04-06T11:36:26Z</time></trkpt><trkpt lat="45.81768568227892" lon="8.027203660706185"><ele>896.0000000000001</ele><time>2026-04-06T11:36:28Z</time></trkpt><trkpt lat="45.8177576329743" lon="8.027163989391543"><ele>896.0</ele><time>2026-04-06T11:36:30Z</time></trkpt><trkpt lat="45.8178316012162" lon="8.027115411345951"><ele>896.0</ele><time>2026-04-06T11:36:32Z</time></trkpt><trkpt lat="45.817895277802975" lon="8.027046814063251"><ele>896.0</ele><time>2026-04-06T11:36:34Z</time></trkpt><trkpt lat="45.81795826756388" lon="8.026974325586057"><ele>896.0000000000001</ele><time>2026-04-06T11:36:36Z</time></trkpt><trkpt lat="45.81801077467731" lon="8.026905858302955"><ele>896.0</ele><time>2026-04-06T11:36:38Z</time></trkpt><trkpt lat="45.818082182914935" lon="8.026842997202301"><ele>896.0000000000001</ele><time>2026-04-06T11:36:40Z</time></trkpt><trkpt lat="45.818137648338215" lon="8.026775151615425"><ele>896.0</ele><time>2026-04-06T11:36:42Z</time></trkpt><trkpt lat="45.818207075056705" lon="8.026700433284228"><ele>896.0</ele><time>2026-04-06T11:36:44Z</time></trkpt><trkpt lat="45.8182800463333" lon="8.02661729545916"><ele>896.0</ele><time>2026-04-06T11:36:46Z</time></trkpt><trkpt lat="45.8183195960281" lon="8.026508812274812"><ele>896.0000000000001</ele><time>2026-04-06T11:36:48Z</time></trkpt><trkpt lat="45.81835927508501" lon="8.026383904090928"><ele>896.0</ele><time>2026-04-06T11:36:50Z</time></trkpt><trkpt lat="45.8184274864741" lon="8.026306708056836"><ele>896.0000000000001</ele><time>2026-04-06T11:36:53Z</time></trkpt><trkpt lat="45.81848952980259" lon="8.026203019883312"><ele>896.0</ele><time>2026-04-06T11:36:55Z</time></trkpt><trkpt lat="45.81858007493197" lon="8.026067098407111"><ele>896.0</ele><time>2026-04-06T11:36:57Z</time></trkpt><trkpt lat="45.818624661437404" lon="8.025996140393135"><ele>896.0</ele><time>2026-04-06T11:36:58Z</time></trkpt><trkpt lat="45.81867122869644" lon="8.02592355101265"><ele>896.0000000000001</ele><time>2026-04-06T11:36:59Z</time></trkpt><trkpt lat="45.81870734664275" lon="8.025808915326705"><ele>896.0</ele><time>2026-04-06T11:37:01Z</time></trkpt><trkpt lat="45.81875205223946" lon="8.025703400206092"><ele>896.6666666666667</ele><time>2026-04-06T11:37:03Z</time></trkpt><trkpt lat="45.81879478937094" lon="8.025609958309898"><ele>897.3333333333334</ele><time>2026-04-06T11:37:05Z</time></trkpt><trkpt lat="45.81883537800396" lon="8.025504468815"><ele>898.0</ele><time>2026-04-06T11:37:07Z</time></trkpt><trkpt lat="45.81887208735461" lon="8.025423899572015"><ele>898.6666666666667</ele><time>2026-04-06T11:37:09Z</time></trkpt><trkpt lat="45.81890708666238" lon="8.025339031771495"><ele>899.3333333333334</ele><time>2026-04-06T11:37:11Z</time></trkpt><trkpt lat="45.81895957832493" lon="8.025230780149181"><ele>900.0</ele><time>2026-04-06T11:37:13Z</time></trkpt><trkpt lat="45.81902332233755" lon="8.025094507896437"><ele>904.8333333333334</ele><time>2026-04-06T11:37:15Z</time></trkpt><trkpt lat="45.819054580490885" lon="8.024972282433216"><ele>909.6666666666667</ele><time>2026-04-06T11:37:17Z</time></trkpt><trkpt lat="45.81909435784185" lon="8.024877456351453"><ele>914.5</ele><time>2026-04-06T11:37:19Z</time></trkpt><trkpt lat="45.819140049137765" lon="8.024785517765382"><ele>919.3333333333334</ele><time>2026-04-06T11:37:21Z</time></trkpt><trkpt lat="45.81917983156785" lon="8.024708350698944"><ele>924.1666666666667</ele><time>2026-04-06T11:37:23Z</time></trkpt><trkpt lat="45.81920818088793" lon="8.024600658666753"><ele>929.0</ele><time>2026-04-06T11:37:26Z</time></trkpt><trkpt lat="45.8192706967508" lon="8.02450101774515"><ele>926.6666666666667</ele><time>2026-04-06T11:37:29Z</time></trkpt><trkpt lat="45.81933351185273" lon="8.024436919928526"><ele>924.3333333333334</ele><time>2026-04-06T11:37:31Z</time></trkpt><trkpt lat="45.81939418502722" lon="8.024369557519565"><ele>922.0</ele><time>2026-04-06T11:37:33Z</time></trkpt><trkpt lat="45.81944731776172" lon="8.024303929645795"><ele>919.6666666666667</ele><time>2026-04-06T11:37:35Z</time></trkpt><trkpt lat="45.81950402529539" lon="8.024235443496007"><ele>917.3333333333334</ele><time>2026-04-06T11:37:37Z</time></trkpt><trkpt lat="45.819577892089626" lon="8.024156757646125"><ele>915.0</ele><time>2026-04-06T11:37:40Z</time></trkpt><trkpt lat="45.81964878943255" lon="8.024082557419833"><ele>915.0</ele><time>2026-04-06T11:37:43Z</time></trkpt><trkpt lat="45.81971119311208" lon="8.024006825324825"><ele>915.0</ele><time>2026-04-06T11:37:46Z</time></trkpt><trkpt lat="45.8197838147636" lon="8.023969704528742"><ele>915.0</ele><time>2026-04-06T11:37:48Z</time></trkpt><trkpt lat="45.81984632957909" lon="8.02393689999672"><ele>915.0</ele><time>2026-04-06T11:37:51Z</time></trkpt><trkpt lat="45.81992802157358" lon="8.023900108200102"><ele>915.0</ele><time>2026-04-06T11:37:54Z</time></trkpt><trkpt lat="45.820002886843454" lon="8.0238506201016"><ele>915.0</ele><time>2026-04-06T11:37:57Z</time></trkpt><trkpt lat="45.82008328708205" lon="8.023796604176532"><ele>912.6</ele><time>2026-04-06T11:38:00Z</time></trkpt><trkpt lat="45.820161301476055" lon="8.023744298410843"><ele>910.2</ele><time>2026-04-06T11:38:03Z</time></trkpt><trkpt lat="45.82023623134779" lon="8.023688826047726"><ele>907.8</ele><time>2026-04-06T11:38:06Z</time></trkpt><trkpt lat="45.82034154095275" lon="8.023661997668407"><ele>905.4</ele><time>2026-04-06T11:38:09Z</time></trkpt><trkpt lat="45.8204153151845" lon="8.023569310861507"><ele>903.0</ele><time>2026-04-06T11:38:11Z</time></trkpt><trkpt lat="45.82041446684467" lon="8.023453919154994"><ele>903.0</ele><time>2026-04-06T11:38:13Z</time></trkpt><trkpt lat="45.820428085302034" lon="8.023330789672489"><ele>903.0</ele><time>2026-04-06T11:38:16Z</time></trkpt><trkpt lat="45.82046480156266" lon="8.023219443254026"><ele>903.0</ele><time>2026-04-06T11:38:19Z</time></trkpt><trkpt lat="45.82049194900676" lon="8.023092315809293"><ele>903.0</ele><time>2026-04-06T11:38:22Z</time></trkpt><trkpt lat="45.82050537305618" lon="8.022962541590038"><ele>903.0</ele><time>2026-04-06T11:38:25Z</time></trkpt><trkpt lat="45.82050905657436" lon="8.022863133768674"><ele>903.0</ele><time>2026-04-06T11:38:28Z</time></trkpt><trkpt lat="45.820510225092626" lon="8.022766163355852"><ele>904.0</ele><time>2026-04-06T11:38:31Z</time></trkpt><trkpt lat="45.82056126411263" lon="8.022668148408414"><ele>905.0</ele><time>2026-04-06T11:38:34Z</time></trkpt><trkpt lat="45.82059150309504" lon="8.022552053732339"><ele>906.0</ele><time>2026-04-06T11:38:37Z</time></trkpt><trkpt lat="45.82062045488898" lon="8.022461943185093"><ele>907.0</ele><time>2026-04-06T11:38:39Z</time></trkpt><trkpt lat="45.82066259565033" lon="8.022343492342797"><ele>908.0</ele><time>2026-04-06T11:38:42Z</time></trkpt><trkpt lat="45.82071491652021" lon="8.022223946696434"><ele>909.0</ele><time>2026-04-06T11:38:45Z</time></trkpt><trkpt lat="45.820746264892826" lon="8.022141080521298"><ele>909.8571428571429</ele><time>2026-04-06T11:38:47Z</time></trkpt><trkpt lat="45.82078114303235" lon="8.02203819778266"><ele>910.7142857142858</ele><time>2026-04-06T11:38:50Z</time></trkpt><trkpt lat="45.82082741051041" lon="8.02196330714025"><ele>911.5714285714287</ele><time>2026-04-06T11:38:52Z</time></trkpt><trkpt lat="45.8208655834506" lon="8.021883904886524"><ele>912.4285714285714</ele><time>2026-04-06T11:38:54Z</time></trkpt><trkpt lat="45.82088316587729" lon="8.021795133594287"><ele>913.2857142857144</ele><time>2026-04-06T11:38:56Z</time></trkpt><trkpt lat="45.82088547086218" lon="8.021701689191108"><ele>914.1428571428572</ele><time>2026-04-06T11:38:59Z</time></trkpt><trkpt lat="45.82087521559101" lon="8.021602991475483"><ele>915.0</ele><time>2026-04-06T11:39:04Z</time></trkpt><trkpt lat="45.82084200513022" lon="8.021509328185022"><ele>915.8571428571429</ele><time>2026-04-06T11:39:34Z</time></trkpt><trkpt lat="45.82087308859786" lon="8.021421834167485"><ele>916.7142857142858</ele><time>2026-04-06T11:39:44Z</time></trkpt><trkpt lat="45.82088448550257" lon="8.021332152881135"><ele>917.5714285714287</ele><time>2026-04-06T11:39:55.001Z</time></trkpt><trkpt lat="45.82090207857544" lon="8.021240382889438"><ele>918.4285714285716</ele><time>2026-04-06T11:40:08Z</time></trkpt><trkpt lat="45.82089633910349" lon="8.021139237666114"><ele>919.2857142857143</ele><time>2026-04-06T11:40:17Z</time></trkpt><trkpt lat="45.820891315001475" lon="8.021047588098943"><ele>920.1428571428573</ele><time>2026-04-06T11:40:26Z</time></trkpt><trkpt lat="45.820891512869956" lon="8.020952715394825"><ele>921.0000000000001</ele><time>2026-04-06T11:40:37Z</time></trkpt><trkpt lat="45.8208791012851" lon="8.020853300491527"><ele>921.1428571428573</ele><time>2026-04-06T11:40:53Z</time></trkpt><trkpt lat="45.82087637024187" lon="8.020760992383577"><ele>921.2857142857143</ele><time>2026-04-06T11:41:04Z</time></trkpt><trkpt lat="45.82085495055784" lon="8.020670155478953"><ele>921.4285714285716</ele><time>2026-04-06T11:41:15Z</time></trkpt><trkpt lat="45.820843725178406" lon="8.020568989031718"><ele>921.5714285714287</ele><time>2026-04-06T11:41:26Z</time></trkpt><trkpt lat="45.82085293070783" lon="8.020473145532492"><ele>921.7142857142858</ele><time>2026-04-06T11:41:35Z</time></trkpt><trkpt lat="45.820836114336835" lon="8.020380555392919"><ele>921.8571428571429</ele><time>2026-04-06T11:41:43Z</time></trkpt><trkpt lat="45.82084897574279" lon="8.020286535494668"><ele>922.0</ele><time>2026-04-06T11:41:48Z</time></trkpt><trkpt lat="45.820861162475424" lon="8.020184280326745"><ele>921.9999999999999</ele><time>2026-04-06T11:41:54.001Z</time></trkpt><trkpt lat="45.82084450664053" lon="8.020075728211276"><ele>922.0</ele><time>2026-04-06T11:42:00.001Z</time></trkpt><trkpt lat="45.820842040931055" lon="8.019979180153845"><ele>922.0</ele><time>2026-04-06T11:42:03.001Z</time></trkpt><trkpt lat="45.82085477581843" lon="8.019855504347385"><ele>922.0</ele><time>2026-04-06T11:42:07Z</time></trkpt><trkpt lat="45.820861903711595" lon="8.019758005583384"><ele>921.9999999999999</ele><time>2026-04-06T11:42:10Z</time></trkpt><trkpt lat="45.82088539008343" lon="8.019651183786227"><ele>922.0</ele><time>2026-04-06T11:42:13Z</time></trkpt><trkpt lat="45.82091212705207" lon="8.019548889983422"><ele>921.6666666666666</ele><time>2026-04-06T11:42:16Z</time></trkpt><trkpt lat="45.82094203677858" lon="8.019450448474947"><ele>921.3333333333333</ele><time>2026-04-06T11:42:19Z</time></trkpt><trkpt lat="45.8209651741985" lon="8.019344713477134"><ele>921.0</ele><time>2026-04-06T11:42:22Z</time></trkpt><trkpt lat="45.82097743559692" lon="8.019227622082127"><ele>920.6666666666667</ele><time>2026-04-06T11:42:25Z</time></trkpt><trkpt lat="45.82097407374281" lon="8.019113214459077"><ele>920.3333333333334</ele><time>2026-04-06T11:42:28Z</time></trkpt><trkpt lat="45.820970570201375" lon="8.018984578567634"><ele>920.0</ele><time>2026-04-06T11:42:31Z</time></trkpt><trkpt lat="45.82096383488865" lon="8.018865261930667"><ele>920.0000000000001</ele><time>2026-04-06T11:42:34Z</time></trkpt><trkpt lat="45.82096563723068" lon="8.018733881780635"><ele>920.0</ele><time>2026-04-06T11:42:37Z</time></trkpt><trkpt lat="45.82095798534171" lon="8.018612198720827"><ele>920.0</ele><time>2026-04-06T11:42:40Z</time></trkpt><trkpt lat="45.820923046589705" lon="8.018533195796795"><ele>920.0</ele><time>2026-04-06T11:42:42Z</time></trkpt><trkpt lat="45.820891096796664" lon="8.018424661142282"><ele>920.0000000000001</ele><time>2026-04-06T11:42:45Z</time></trkpt><trkpt lat="45.82086514547317" lon="8.018320056231408"><ele>920.0</ele><time>2026-04-06T11:42:48Z</time></trkpt><trkpt lat="45.82084023101782" lon="8.01823271595333"><ele>921.2857142857142</ele><time>2026-04-06T11:42:50Z</time></trkpt><trkpt lat="45.820821144377724" lon="8.018144219137838"><ele>922.5714285714286</ele><time>2026-04-06T11:42:52Z</time></trkpt><trkpt lat="45.82079307820121" lon="8.018036555687813"><ele>923.8571428571429</ele><time>2026-04-06T11:42:55Z</time></trkpt><trkpt lat="45.820768372252225" lon="8.017948013538073"><ele>925.1428571428571</ele><time>2026-04-06T11:42:57Z</time></trkpt><trkpt lat="45.820728313450076" lon="8.01783377880813"><ele>926.4285714285716</ele><time>2026-04-06T11:43:00Z</time></trkpt><trkpt lat="45.82071818003017" lon="8.01773495996402"><ele>927.7142857142858</ele><time>2026-04-06T11:43:02Z</time></trkpt><trkpt lat="45.8207164960289" lon="8.017643041338046"><ele>929.0</ele><time>2026-04-06T11:43:04Z</time></trkpt><trkpt lat="45.82067858350256" lon="8.017518916606392"><ele>929.1666666666667</ele><time>2026-04-06T11:43:07Z</time></trkpt><trkpt lat="45.82064827256912" lon="8.017408120206658"><ele>929.3333333333334</ele><time>2026-04-06T11:43:10Z</time></trkpt><trkpt lat="45.820621679304274" lon="8.017282855517784"><ele>929.5</ele><time>2026-04-06T11:43:13Z</time></trkpt><trkpt lat="45.8206018230956" lon="8.017161469556564"><ele>929.6666666666667</ele><time>2026-04-06T11:43:16Z</time></trkpt><trkpt lat="45.82059204129495" lon="8.017031620499367"><ele>929.8333333333334</ele><time>2026-04-06T11:43:19Z</time></trkpt><trkpt lat="45.82057688469736" lon="8.016932065334808"><ele>930.0</ele><time>2026-04-06T11:43:22Z</time></trkpt><trkpt lat="45.82054631727325" lon="8.016815703988746"><ele>930.0</ele><time>2026-04-06T11:43:26Z</time></trkpt><trkpt lat="45.8205513710758" lon="8.016693426003718"><ele>930.0</ele><time>2026-04-06T11:43:29Z</time></trkpt><trkpt lat="45.82054178634455" lon="8.0166007894049"><ele>930.0</ele><time>2026-04-06T11:43:40Z</time></trkpt><trkpt lat="45.82050867326492" lon="8.01651824196931"><ele>930.0</ele><time>2026-04-06T11:43:48.999Z</time></trkpt><trkpt lat="45.82046393817093" lon="8.01645194993157"><ele>930.0</ele><time>2026-04-06T11:43:58.001Z</time></trkpt><trkpt lat="45.82044853829363" lon="8.016358865798876"><ele>930.0</ele><time>2026-04-06T11:44:13Z</time></trkpt><trkpt lat="45.82043544276429" lon="8.016263785350429"><ele>930.0</ele><time>2026-04-06T11:44:16Z</time></trkpt><trkpt lat="45.820392490005176" lon="8.016178606820578"><ele>930.8571428571429</ele><time>2026-04-06T11:44:21Z</time></trkpt><trkpt lat="45.82037014548811" lon="8.01607857280534"><ele>931.7142857142858</ele><time>2026-04-06T11:44:25Z</time></trkpt><trkpt lat="45.8203423003554" lon="8.015995005909383"><ele>932.5714285714287</ele><time>2026-04-06T11:44:29Z</time></trkpt><trkpt lat="45.82032508665199" lon="8.015887262441916"><ele>933.4285714285714</ele><time>2026-04-06T11:44:33Z</time></trkpt><trkpt lat="45.82031311144674" lon="8.015790597479292"><ele>934.2857142857144</ele><time>2026-04-06T11:44:37Z</time></trkpt><trkpt lat="45.82030609493416" lon="8.0156972482204"><ele>935.1428571428572</ele><time>2026-04-06T11:44:41Z</time></trkpt><trkpt lat="45.82028201975387" lon="8.01560847287086"><ele>936.0</ele><time>2026-04-06T11:44:46Z</time></trkpt><trkpt lat="45.820263163966175" lon="8.015517461477524"><ele>936.7142857142858</ele><time>2026-04-06T11:45:05Z</time></trkpt><trkpt lat="45.820223677799866" lon="8.01542813404024"><ele>937.4285714285716</ele><time>2026-04-06T11:45:16Z</time></trkpt><trkpt lat="45.82018115585013" lon="8.01535629336131"><ele>938.1428571428571</ele><time>2026-04-06T11:45:24Z</time></trkpt><trkpt lat="45.82014885164844" lon="8.015272699424981"><ele>938.8571428571429</ele><time>2026-04-06T11:45:33.999Z</time></trkpt><trkpt lat="45.82010239792569" lon="8.015206131280943"><ele>939.5714285714286</ele><time>2026-04-06T11:45:41.999Z</time></trkpt><trkpt lat="45.820070578058086" lon="8.015116560787279"><ele>940.2857142857142</ele><time>2026-04-06T11:45:51.999Z</time></trkpt><trkpt lat="45.82003000407729" lon="8.01503172481949"><ele>940.9999999999999</ele><time>2026-04-06T11:46:01.999Z</time></trkpt><trkpt lat="45.81999599641758" lon="8.01495321130757"><ele>940.9999999999999</ele><time>2026-04-06T11:46:11Z</time></trkpt><trkpt lat="45.8199513698938" lon="8.014888442496288"><ele>941.0</ele><time>2026-04-06T11:46:19Z</time></trkpt><trkpt lat="45.81991527690625" lon="8.014803249568802"><ele>940.9999999999999</ele><time>2026-04-06T11:46:29Z</time></trkpt><trkpt lat="45.81989458320867" lon="8.014716371190541"><ele>940.9999999999999</ele><time>2026-04-06T11:46:39Z</time></trkpt><trkpt lat="45.81989214519933" lon="8.01461782366276"><ele>941.0</ele><time>2026-04-06T11:47:14Z</time></trkpt><trkpt lat="45.819864987602955" lon="8.014527116185995"><ele>940.9999999999999</ele><time>2026-04-06T11:47:25.999Z</time></trkpt><trkpt lat="45.81984513301185" lon="8.01444046669054"><ele>940.9999999999999</ele><time>2026-04-06T11:47:36.999Z</time></trkpt><trkpt lat="45.81982346069297" lon="8.014351666798815"><ele>940.9999999999999</ele><time>2026-04-06T11:47:44.999Z</time></trkpt><trkpt lat="45.819803912232494" lon="8.014258895195175"><ele>941.0</ele><time>2026-04-06T11:47:54.999Z</time></trkpt><trkpt lat="45.81979437885222" lon="8.01416035554018"><ele>940.9999999999999</ele><time>2026-04-06T11:48:03.999Z</time></trkpt><trkpt lat="45.819781479295536" lon="8.014070971998768"><ele>940.9999999999999</ele><time>2026-04-06T11:48:12Z</time></trkpt><trkpt lat="45.8197888420644" lon="8.013981060180148"><ele>941.0</ele><time>2026-04-06T11:48:20Z</time></trkpt><trkpt lat="45.81979546057992" lon="8.013881048294307"><ele>940.9999999999999</ele><time>2026-04-06T11:48:28Z</time></trkpt><trkpt lat="45.819796441289206" lon="8.013783211507528"><ele>940.9999999999999</ele><time>2026-04-06T11:48:37Z</time></trkpt><trkpt lat="45.81980677983531" lon="8.013684345514674"><ele>940.9999999999999</ele><time>2026-04-06T11:48:46Z</time></trkpt><trkpt lat="45.81982364498033" lon="8.01358583486803"><ele>941.0</ele><time>2026-04-06T11:48:56Z</time></trkpt><trkpt lat="45.81983545560206" lon="8.013492016455537"><ele>940.9999999999999</ele><time>2026-04-06T11:49:05Z</time></trkpt><trkpt lat="45.819843669320235" lon="8.01339322257022"><ele>940.9999999999999</ele><time>2026-04-06T11:49:13Z</time></trkpt><trkpt lat="45.81985066811429" lon="8.013286587645977"><ele>941.0</ele><time>2026-04-06T11:49:21.999Z</time></trkpt><trkpt lat="45.819868457562684" lon="8.013192257464652"><ele>940.9999999999999</ele><time>2026-04-06T11:49:29.999Z</time></trkpt><trkpt lat="45.81983604081809" lon="8.013275013055802"><ele>940.9999999999999</ele><time>2026-04-06T11:54:14.999Z</time></trkpt><trkpt lat="45.819818900833454" lon="8.013370828505145"><ele>940.9999999999999</ele><time>2026-04-06T11:54:25.999Z</time></trkpt><trkpt lat="45.81979972271781" lon="8.013461389251555"><ele>941.0</ele><time>2026-04-06T11:54:34Z</time></trkpt><trkpt lat="45.81978589571813" lon="8.013553297306611"><ele>940.9999999999999</ele><time>2026-04-06T11:54:42Z</time></trkpt><trkpt lat="45.81977831474868" lon="8.01364747576129"><ele>940.9999999999999</ele><time>2026-04-06T11:54:51Z</time></trkpt><trkpt lat="45.81977966953501" lon="8.01374860529899"><ele>941.0</ele><time>2026-04-06T11:54:59Z</time></trkpt><trkpt lat="45.819764263499096" lon="8.013846081795577"><ele>940.9999999999999</ele><time>2026-04-06T11:55:06Z</time></trkpt><trkpt lat="45.81975177024343" lon="8.013948604140438"><ele>940.9999999999999</ele><time>2026-04-06T11:55:13Z</time></trkpt><trkpt lat="45.81974666667333" lon="8.014048649160719"><ele>940.9999999999999</ele><time>2026-04-06T11:55:20Z</time></trkpt><trkpt lat="45.819746029130584" lon="8.014154980448597"><ele>941.0</ele><time>2026-04-06T11:55:27.999Z</time></trkpt><trkpt lat="45.81978254152853" lon="8.014229355511544"><ele>940.9999999999999</ele><time>2026-04-06T11:55:57.999Z</time></trkpt><trkpt lat="45.81980615827647" lon="8.014332628171319"><ele>940.9999999999999</ele><time>2026-04-06T11:56:03.999Z</time></trkpt><trkpt lat="45.81981907523791" lon="8.014435884507211"><ele>941.0</ele><time>2026-04-06T11:56:09.999Z</time></trkpt><trkpt lat="45.81984210040252" lon="8.01452039111161"><ele>940.9999999999999</ele><time>2026-04-06T11:56:13.999Z</time></trkpt><trkpt lat="45.819849866851804" lon="8.014617727794294"><ele>940.9999999999999</ele><time>2026-04-06T11:56:20.999Z</time></trkpt><trkpt lat="45.81986772459533" lon="8.014720634848366"><ele>940.9999999999999</ele><time>2026-04-06T11:56:27.999Z</time></trkpt><trkpt lat="45.8198848414393" lon="8.01480990601424"><ele>941.0</ele><time>2026-04-06T11:56:39Z</time></trkpt><trkpt lat="45.81990774037396" lon="8.014902474815884"><ele>940.9999999999999</ele><time>2026-04-06T11:56:48Z</time></trkpt><trkpt lat="45.81994552885617" lon="8.014980955793328"><ele>940.9999999999999</ele><time>2026-04-06T11:56:56Z</time></trkpt><trkpt lat="45.81997085461168" lon="8.015067845495052"><ele>941.0</ele><time>2026-04-06T11:57:04Z</time></trkpt><trkpt lat="45.81999045363321" lon="8.01516980991287"><ele>940.9999999999999</ele><time>2026-04-06T11:57:11Z</time></trkpt><trkpt lat="45.82001926212685" lon="8.015255268670227"><ele>940.9999999999999</ele><time>2026-04-06T11:57:16Z</time></trkpt><trkpt lat="45.82004448007577" lon="8.015348930744112"><ele>941.4285714285713</ele><time>2026-04-06T11:57:22Z</time></trkpt><trkpt lat="45.82007554775275" lon="8.015437057914244"><ele>941.8571428571429</ele><time>2026-04-06T11:57:30.999Z</time></trkpt><trkpt lat="45.82011674372663" lon="8.015513661412838"><ele>942.2857142857142</ele><time>2026-04-06T11:57:38.999Z</time></trkpt><trkpt lat="45.82012708557208" lon="8.015604157500022"><ele>942.7142857142857</ele><time>2026-04-06T11:57:46.999Z</time></trkpt><trkpt lat="45.82013602670112" lon="8.015705005277418"><ele>943.1428571428571</ele><time>2026-04-06T11:57:57.999Z</time></trkpt><trkpt lat="45.820156156012594" lon="8.015792390205752"><ele>943.5714285714286</ele><time>2026-04-06T11:58:04.999Z</time></trkpt><trkpt lat="45.82019120626154" lon="8.015874767709567"><ele>944.0</ele><time>2026-04-06T11:58:12.999Z</time></trkpt><trkpt lat="45.82022507253694" lon="8.015961082554531"><ele>942.8571428571429</ele><time>2026-04-06T11:58:18.999Z</time></trkpt><trkpt lat="45.820224541064945" lon="8.01605375396402"><ele>941.7142857142858</ele><time>2026-04-06T11:58:23.999Z</time></trkpt><trkpt lat="45.82025791222053" lon="8.01614645398544"><ele>940.5714285714287</ele><time>2026-04-06T11:58:29.999Z</time></trkpt><trkpt lat="45.82030228531641" lon="8.016226195742982"><ele>939.4285714285714</ele><time>2026-04-06T11:58:35.999Z</time></trkpt><trkpt lat="45.82036023699736" lon="8.016278942497381"><ele>938.2857142857144</ele><time>2026-04-06T11:58:42Z</time></trkpt><trkpt lat="45.820398968888725" lon="8.01636847832358"><ele>937.1428571428572</ele><time>2026-04-06T11:58:48Z</time></trkpt><trkpt lat="45.82045705022227" lon="8.016440527555318"><ele>936.0</ele><time>2026-04-06T11:58:54Z</time></trkpt><trkpt lat="45.82049595167118" lon="8.016518146487067"><ele>936.0</ele><time>2026-04-06T11:59:00Z</time></trkpt><trkpt lat="45.82053277322333" lon="8.01660032360234"><ele>936.0000000000001</ele><time>2026-04-06T11:59:06Z</time></trkpt><trkpt lat="45.82053390260734" lon="8.01670091576174"><ele>936.0</ele><time>2026-04-06T11:59:13Z</time></trkpt><trkpt lat="45.82053673908845" lon="8.01680290359386"><ele>936.0</ele><time>2026-04-06T11:59:23Z</time></trkpt><trkpt lat="45.820580573065776" lon="8.016870079403313"><ele>936.0000000000001</ele><time>2026-04-06T11:59:34Z</time></trkpt><trkpt lat="45.82060443573159" lon="8.016958988920697"><ele>936.0</ele><time>2026-04-06T11:59:41.999Z</time></trkpt><trkpt lat="45.82062190357912" lon="8.017055619574645"><ele>936.0</ele><time>2026-04-06T11:59:46.999Z</time></trkpt><trkpt lat="45.82062684027571" lon="8.017169349889775"><ele>935.0</ele><time>2026-04-06T11:59:51.999Z</time></trkpt><trkpt lat="45.82065055237252" lon="8.01728114033023"><ele>934.0</ele><time>2026-04-06T11:59:57.999Z</time></trkpt><trkpt lat="45.82065187752315" lon="8.017390955156001"><ele>933.0</ele><time>2026-04-06T12:00:02.999Z</time></trkpt><trkpt lat="45.82067546735498" lon="8.017493301146759"><ele>932.0</ele><time>2026-04-06T12:00:06.999Z</time></trkpt><trkpt lat="45.82072455667378" lon="8.017588295651901"><ele>931.0</ele><time>2026-04-06T12:00:09.999Z</time></trkpt><trkpt lat="45.82074660082502" lon="8.017690770377865"><ele>930.0</ele><time>2026-04-06T12:00:12.999Z</time></trkpt><trkpt lat="45.82077030724287" lon="8.01781228095456"><ele>929.8333333333334</ele><time>2026-04-06T12:00:15.999Z</time></trkpt><trkpt lat="45.82078838600778" lon="8.017906865348117"><ele>929.6666666666667</ele><time>2026-04-06T12:00:17.999Z</time></trkpt><trkpt lat="45.82080690837006" lon="8.018036519734812"><ele>929.5</ele><time>2026-04-06T12:00:20.999Z</time></trkpt><trkpt lat="45.820839205714435" lon="8.018161415203847"><ele>929.3333333333334</ele><time>2026-04-06T12:00:23.999Z</time></trkpt><trkpt lat="45.8208626450037" lon="8.018268377327137"><ele>929.1666666666667</ele><time>2026-04-06T12:00:26.999Z</time></trkpt><trkpt lat="45.82088880742642" lon="8.018370124022937"><ele>929.0</ele><time>2026-04-06T12:00:28.999Z</time></trkpt><trkpt lat="45.820915499376085" lon="8.018480493156773"><ele>927.2</ele><time>2026-04-06T12:00:30.999Z</time></trkpt><trkpt lat="45.82096029384504" lon="8.01861541923376"><ele>925.4000000000001</ele><time>2026-04-06T12:00:33.999Z</time></trkpt><trkpt lat="45.820979063162405" lon="8.018801915088883"><ele>923.6</ele><time>2026-04-06T12:00:35.999Z</time></trkpt><trkpt lat="45.820980019530985" lon="8.018895084916677"><ele>921.8</ele><time>2026-04-06T12:00:36.999Z</time></trkpt><trkpt lat="45.82097940416551" lon="8.019075269261252"><ele>920.0</ele><time>2026-04-06T12:00:38.999Z</time></trkpt><trkpt lat="45.820980907444856" lon="8.019241945126666"><ele>920.0</ele><time>2026-04-06T12:00:40.999Z</time></trkpt><trkpt lat="45.820965373857476" lon="8.019332977205526"><ele>920.0</ele><time>2026-04-06T12:00:41.999Z</time></trkpt><trkpt lat="45.820933114063685" lon="8.019472301811593"><ele>920.0</ele><time>2026-04-06T12:00:43.999Z</time></trkpt><trkpt lat="45.82089722570223" lon="8.0196006404123"><ele>920.0</ele><time>2026-04-06T12:00:46Z</time></trkpt><trkpt lat="45.82085004921756" lon="8.01970898532094"><ele>920.0</ele><time>2026-04-06T12:00:48Z</time></trkpt><trkpt lat="45.82083062445485" lon="8.019846676929822"><ele>920.0000000000001</ele><time>2026-04-06T12:00:50Z</time></trkpt><trkpt lat="45.82082808218261" lon="8.019973310100914"><ele>920.0</ele><time>2026-04-06T12:00:52Z</time></trkpt><trkpt lat="45.82083953076883" lon="8.020087037172708"><ele>920.0</ele><time>2026-04-06T12:00:54Z</time></trkpt><trkpt lat="45.8208499135489" lon="8.020208015371578"><ele>920.0</ele><time>2026-04-06T12:00:56Z</time></trkpt><trkpt lat="45.82085516880631" lon="8.02031388764428"><ele>920.0000000000001</ele><time>2026-04-06T12:01:02Z</time></trkpt><trkpt lat="45.82083697392128" lon="8.020409085049058"><ele>920.0</ele><time>2026-04-06T12:01:06Z</time></trkpt><trkpt lat="45.82083658919114" lon="8.020517987949148"><ele>920.142857142857</ele><time>2026-04-06T12:01:11Z</time></trkpt><trkpt lat="45.8208075311964" lon="8.020627756561131"><ele>920.2857142857142</ele><time>2026-04-06T12:01:15Z</time></trkpt><trkpt lat="45.82077175575884" lon="8.020705947701254"><ele>920.4285714285714</ele><time>2026-04-06T12:01:19Z</time></trkpt><trkpt lat="45.82075457569998" lon="8.02079495001826"><ele>920.5714285714286</ele><time>2026-04-06T12:01:22Z</time></trkpt><trkpt lat="45.82076376437683" lon="8.020887968553671"><ele>920.7142857142858</ele><time>2026-04-06T12:01:26Z</time></trkpt><trkpt lat="45.82075888341606" lon="8.020984369992506"><ele>920.857142857143</ele><time>2026-04-06T12:01:40Z</time></trkpt><trkpt lat="45.8207867787616" lon="8.021070218592593"><ele>921.0000000000001</ele><time>2026-04-06T12:01:45Z</time></trkpt><trkpt lat="45.820785431896915" lon="8.02116104457015"><ele>921.0000000000001</ele><time>2026-04-06T12:01:59.999Z</time></trkpt><trkpt lat="45.82078886726877" lon="8.02126137215473"><ele>921.0</ele><time>2026-04-06T12:02:09.999Z</time></trkpt><trkpt lat="45.82080894036428" lon="8.021355504951455"><ele>921.0000000000001</ele><time>2026-04-06T12:02:16.999Z</time></trkpt><trkpt lat="45.82083059475243" lon="8.02145532460469"><ele>921.0000000000001</ele><time>2026-04-06T12:02:22.999Z</time></trkpt><trkpt lat="45.82085439166852" lon="8.021549064229136"><ele>921.0</ele><time>2026-04-06T12:02:30.999Z</time></trkpt><trkpt lat="45.82086183001856" lon="8.021640650780864"><ele>921.0000000000001</ele><time>2026-04-06T12:02:36.999Z</time></trkpt><trkpt lat="45.82086773695661" lon="8.021738657478746"><ele>921.0000000000001</ele><time>2026-04-06T12:02:43.999Z</time></trkpt><trkpt lat="45.820850545634336" lon="8.021854090886501"><ele>920.0</ele><time>2026-04-06T12:02:49.999Z</time></trkpt><trkpt lat="45.8208273521993" lon="8.021957143354374"><ele>919.0</ele><time>2026-04-06T12:02:53Z</time></trkpt><trkpt lat="45.82080737007721" lon="8.022050409800622"><ele>918.0</ele><time>2026-04-06T12:02:56Z</time></trkpt><trkpt lat="45.82077368394084" lon="8.022134002856454"><ele>917.0</ele><time>2026-04-06T12:02:59Z</time></trkpt><trkpt lat="45.82074820967423" lon="8.022222703149769"><ele>916.0</ele><time>2026-04-06T12:03:01Z</time></trkpt><trkpt lat="45.820700752920004" lon="8.02233278877126"><ele>915.0</ele><time>2026-04-06T12:03:04Z</time></trkpt><trkpt lat="45.82067471378263" lon="8.022454584570243"><ele>914.1428571428572</ele><time>2026-04-06T12:03:07Z</time></trkpt><trkpt lat="45.82064650363448" lon="8.022540243042053"><ele>913.2857142857144</ele><time>2026-04-06T12:03:09Z</time></trkpt><trkpt lat="45.82062712180802" lon="8.022626828231807"><ele>912.4285714285714</ele><time>2026-04-06T12:03:11Z</time></trkpt><trkpt lat="45.820590540502785" lon="8.022722511514106"><ele>911.5714285714287</ele><time>2026-04-06T12:03:14Z</time></trkpt><trkpt lat="45.82056204005468" lon="8.02282235666844"><ele>910.7142857142858</ele><time>2026-04-06T12:03:17Z</time></trkpt><trkpt lat="45.820536236116325" lon="8.022919668199863"><ele>909.8571428571429</ele><time>2026-04-06T12:03:21Z</time></trkpt><trkpt lat="45.8205265433645" lon="8.023024688241215"><ele>909.0</ele><time>2026-04-06T12:03:25Z</time></trkpt><trkpt lat="45.82050416291134" lon="8.023130925678455"><ele>909.0</ele><time>2026-04-06T12:03:28Z</time></trkpt><trkpt lat="45.82048350901409" lon="8.023223591045982"><ele>909.0</ele><time>2026-04-06T12:03:31Z</time></trkpt><trkpt lat="45.82045218980056" lon="8.023323942842213"><ele>909.0</ele><time>2026-04-06T12:03:34Z</time></trkpt><trkpt lat="45.82041001760138" lon="8.02339816387745"><ele>909.0</ele><time>2026-04-06T12:03:37Z</time></trkpt><trkpt lat="45.820370281267074" lon="8.023481192690847"><ele>909.0</ele><time>2026-04-06T12:03:40Z</time></trkpt><trkpt lat="45.82030988360258" lon="8.023581943302318"><ele>909.0</ele><time>2026-04-06T12:03:43Z</time></trkpt><trkpt lat="45.82025289654628" lon="8.023650091383152"><ele>909.0</ele><time>2026-04-06T12:03:45Z</time></trkpt><trkpt lat="45.820185060965834" lon="8.023713542392535"><ele>909.8571428571429</ele><time>2026-04-06T12:03:46.999Z</time></trkpt><trkpt lat="45.820117227344745" lon="8.023763708289618"><ele>910.7142857142858</ele><time>2026-04-06T12:03:48.999Z</time></trkpt><trkpt lat="45.820053029161656" lon="8.023810269722773"><ele>911.5714285714287</ele><time>2026-04-06T12:03:50.999Z</time></trkpt><trkpt lat="45.819983726567855" lon="8.02385425888686"><ele>912.4285714285714</ele><time>2026-04-06T12:03:52.999Z</time></trkpt><trkpt lat="45.819921806282544" lon="8.023894589637269"><ele>913.2857142857144</ele><time>2026-04-06T12:03:54.999Z</time></trkpt><trkpt lat="45.81986136298683" lon="8.02392852762916"><ele>914.1428571428572</ele><time>2026-04-06T12:03:56.999Z</time></trkpt><trkpt lat="45.81979346771294" lon="8.023944834712207"><ele>915.0</ele><time>2026-04-06T12:03:58.999Z</time></trkpt><trkpt lat="45.81971619966368" lon="8.023974432210894"><ele>915.0</ele><time>2026-04-06T12:04:00.999Z</time></trkpt><trkpt lat="45.819628379813814" lon="8.02406191686178"><ele>915.0</ele><time>2026-04-06T12:04:02.999Z</time></trkpt><trkpt lat="45.81955815670375" lon="8.024149306816016"><ele>915.0</ele><time>2026-04-06T12:04:04.999Z</time></trkpt><trkpt lat="45.81949283327056" lon="8.024264058467061"><ele>915.0</ele><time>2026-04-06T12:04:06.999Z</time></trkpt><trkpt lat="45.819409494026615" lon="8.024372313911362"><ele>915.0</ele><time>2026-04-06T12:04:08.999Z</time></trkpt><trkpt lat="45.81933500930793" lon="8.024468739131848"><ele>917.3333333333334</ele><time>2026-04-06T12:04:10.999Z</time></trkpt><trkpt lat="45.819277686773994" lon="8.024573723687052"><ele>919.6666666666667</ele><time>2026-04-06T12:04:12.999Z</time></trkpt><trkpt lat="45.819217235679154" lon="8.024672984907491"><ele>922.0</ele><time>2026-04-06T12:04:14.999Z</time></trkpt><trkpt lat="45.81915503479665" lon="8.024770408833762"><ele>924.3333333333334</ele><time>2026-04-06T12:04:16.999Z</time></trkpt><trkpt lat="45.81911525225969" lon="8.024873767614139"><ele>926.6666666666667</ele><time>2026-04-06T12:04:18.999Z</time></trkpt><trkpt lat="45.81907507170015" lon="8.02498326811744"><ele>929.0</ele><time>2026-04-06T12:04:20.999Z</time></trkpt><trkpt lat="45.81903431526373" lon="8.025104020431032"><ele>923.2</ele><time>2026-04-06T12:04:22.999Z</time></trkpt><trkpt lat="45.81898956902593" lon="8.025228753488435"><ele>917.4000000000001</ele><time>2026-04-06T12:04:24.999Z</time></trkpt><trkpt lat="45.81893473117649" lon="8.025329476574958"><ele>911.6</ele><time>2026-04-06T12:04:26.999Z</time></trkpt><trkpt lat="45.818886799094294" lon="8.025430994828604"><ele>905.8</ele><time>2026-04-06T12:04:28.999Z</time></trkpt><trkpt lat="45.818837176891705" lon="8.025554174947048"><ele>900.0</ele><time>2026-04-06T12:04:30.999Z</time></trkpt><trkpt lat="45.81876663142205" lon="8.025699614345235"><ele>900.0</ele><time>2026-04-06T12:04:32.999Z</time></trkpt><trkpt lat="45.81873625390004" lon="8.025779475927617"><ele>900.0</ele><time>2026-04-06T12:04:33.999Z</time></trkpt><trkpt lat="45.81868853186311" lon="8.025945756143438"><ele>900.0</ele><time>2026-04-06T12:04:35.999Z</time></trkpt><trkpt lat="45.81861294577349" lon="8.026083388119682"><ele>900.0</ele><time>2026-04-06T12:04:37.999Z</time></trkpt><trkpt lat="45.81856495545471" lon="8.026149649749014"><ele>900.0</ele><time>2026-04-06T12:04:38.999Z</time></trkpt><trkpt lat="45.81849193479887" lon="8.02623925131831"><ele>899.3333333333334</ele><time>2026-04-06T12:04:40.999Z</time></trkpt><trkpt lat="45.818428147274766" lon="8.026322370903468"><ele>898.6666666666667</ele><time>2026-04-06T12:04:42.999Z</time></trkpt><trkpt lat="45.818366297925664" lon="8.02637936280205"><ele>898.0</ele><time>2026-04-06T12:04:44.999Z</time></trkpt><trkpt lat="45.81832624224585" lon="8.026522652962269"><ele>897.3333333333334</ele><time>2026-04-06T12:04:46.999Z</time></trkpt><trkpt lat="45.81829555224188" lon="8.026626405568333"><ele>896.6666666666667</ele><time>2026-04-06T12:04:47.999Z</time></trkpt><trkpt lat="45.81823823063637" lon="8.026705568416453"><ele>896.0</ele><time>2026-04-06T12:04:48.999Z</time></trkpt><trkpt lat="45.81818415721065" lon="8.026768427808634"><ele>896.0</ele><time>2026-04-06T12:04:49.999Z</time></trkpt><trkpt lat="45.818127939127166" lon="8.02681381539316"><ele>895.9999999999999</ele><time>2026-04-06T12:04:50.999Z</time></trkpt><trkpt lat="45.8180336312596" lon="8.026910882885682"><ele>895.9999999999999</ele><time>2026-04-06T12:04:52.999Z</time></trkpt><trkpt lat="45.81793840712963" lon="8.027023885022082"><ele>896.0</ele><time>2026-04-06T12:04:54.999Z</time></trkpt><trkpt lat="45.81784139640663" lon="8.027127908322676"><ele>896.0</ele><time>2026-04-06T12:04:57Z</time></trkpt><trkpt lat="45.81773705631716" lon="8.027211529860898"><ele>896.1999999999999</ele><time>2026-04-06T12:04:59Z</time></trkpt><trkpt lat="45.817614971829556" lon="8.027272966567981"><ele>896.3999999999999</ele><time>2026-04-06T12:05:01Z</time></trkpt><trkpt lat="45.817553770858716" lon="8.027297881021083"><ele>896.6</ele><time>2026-04-06T12:05:02Z</time></trkpt><trkpt lat="45.81744232621965" lon="8.027359327618546"><ele>896.8</ele><time>2026-04-06T12:05:04Z</time></trkpt><trkpt lat="45.81741141200613" lon="8.027448138687543"><ele>897.0</ele><time>2026-04-06T12:05:05Z</time></trkpt><trkpt lat="45.81731572436252" lon="8.027574216353967"><ele>897.0</ele><time>2026-04-06T12:05:07Z</time></trkpt><trkpt lat="45.81726050583872" lon="8.027638342246652"><ele>897.0</ele><time>2026-04-06T12:05:08Z</time></trkpt><trkpt lat="45.81720941367345" lon="8.027703254036973"><ele>897.0</ele><time>2026-04-06T12:05:09Z</time></trkpt><trkpt lat="45.817095750852076" lon="8.02778878297514"><ele>897.0</ele><time>2026-04-06T12:05:11Z</time></trkpt><trkpt lat="45.8170193345263" lon="8.027921622093858"><ele>897.0</ele><time>2026-04-06T12:05:13Z</time></trkpt><trkpt lat="45.81696864984867" lon="8.02798569337908"><ele>897.0</ele><time>2026-04-06T12:05:14Z</time></trkpt><trkpt lat="45.81692505870524" lon="8.028050879673229"><ele>897.0</ele><time>2026-04-06T12:05:15Z</time></trkpt><trkpt lat="45.81687621501868" lon="8.02810832086632"><ele>897.0</ele><time>2026-04-06T12:05:16Z</time></trkpt><trkpt lat="45.816757671804915" lon="8.028184578640657"><ele>897.0</ele><time>2026-04-06T12:05:18Z</time></trkpt><trkpt lat="45.81662285306961" lon="8.028250401322245"><ele>897.0</ele><time>2026-04-06T12:05:20Z</time></trkpt><trkpt lat="45.81652244888722" lon="8.028366659428448"><ele>895.5</ele><time>2026-04-06T12:05:22Z</time></trkpt><trkpt lat="45.81646830050798" lon="8.028420319468308"><ele>894.0</ele><time>2026-04-06T12:05:23Z</time></trkpt><trkpt lat="45.816427887615035" lon="8.02855582316904"><ele>892.5</ele><time>2026-04-06T12:05:25Z</time></trkpt><trkpt lat="45.816403737901595" lon="8.028652360788662"><ele>891.0</ele><time>2026-04-06T12:05:29Z</time></trkpt><trkpt lat="45.816331549909" lon="8.028644206249794"><ele>889.5</ele><time>2026-04-06T12:05:33Z</time></trkpt><trkpt lat="45.81626465388466" lon="8.02871097640377"><ele>888.0</ele><time>2026-04-06T12:05:38Z</time></trkpt><trkpt lat="45.816197305493475" lon="8.028745339327921"><ele>888.0</ele><time>2026-04-06T12:05:41Z</time></trkpt><trkpt lat="45.8161123913712" lon="8.028770610232472"><ele>888.0</ele><time>2026-04-06T12:05:44Z</time></trkpt><trkpt lat="45.81602967750456" lon="8.028810162286092"><ele>888.0</ele><time>2026-04-06T12:05:47Z</time></trkpt><trkpt lat="45.81597049912878" lon="8.028847140093394"><ele>888.0</ele><time>2026-04-06T12:05:49Z</time></trkpt><trkpt lat="45.81590556448877" lon="8.028892369267972"><ele>888.0</ele><time>2026-04-06T12:05:51Z</time></trkpt><trkpt lat="45.81584407237644" lon="8.028939143019963"><ele>888.0</ele><time>2026-04-06T12:05:53Z</time></trkpt><trkpt lat="45.81578369756625" lon="8.028991473214461"><ele>887.6666666666666</ele><time>2026-04-06T12:05:54.999Z</time></trkpt><trkpt lat="45.8157228602905" lon="8.029031781121459"><ele>887.3333333333333</ele><time>2026-04-06T12:05:57.999Z</time></trkpt><trkpt lat="45.815670072355964" lon="8.029105438698545"><ele>887.0</ele><time>2026-04-06T12:08:16.999Z</time></trkpt><trkpt lat="45.81559606754998" lon="8.029170391806737"><ele>886.6666666666666</ele><time>2026-04-06T12:08:19.999Z</time></trkpt><trkpt lat="45.815517672894785" lon="8.029225911955354"><ele>886.3333333333333</ele><time>2026-04-06T12:08:21.999Z</time></trkpt><trkpt lat="45.81543362786853" lon="8.029266371084617"><ele>886.0</ele><time>2026-04-06T12:08:23.999Z</time></trkpt><trkpt lat="45.81536361774798" lon="8.029294710736858"><ele>885.9999999999999</ele><time>2026-04-06T12:08:25.999Z</time></trkpt><trkpt lat="45.81529448887512" lon="8.029323018111992"><ele>886.0</ele><time>2026-04-06T12:08:28.999Z</time></trkpt><trkpt lat="45.815215587313226" lon="8.029373813502154"><ele>886.0</ele><time>2026-04-06T12:08:30.999Z</time></trkpt><trkpt lat="45.815226652613724" lon="8.029483905964613"><ele>886.0</ele><time>2026-04-06T12:08:32.999Z</time></trkpt><trkpt lat="45.815294656619095" lon="8.029550814026168"><ele>885.9999999999999</ele><time>2026-04-06T12:08:35.999Z</time></trkpt><trkpt lat="45.8153624025039" lon="8.029647666232744"><ele>886.0</ele><time>2026-04-06T12:08:38.999Z</time></trkpt><trkpt lat="45.81541251458364" lon="8.029723028374132"><ele>885.9999999999999</ele><time>2026-04-06T12:08:40.999Z</time></trkpt><trkpt lat="45.81545778292263" lon="8.029799053429603"><ele>886.0</ele><time>2026-04-06T12:08:42.999Z</time></trkpt><trkpt lat="45.81550843469752" lon="8.029856562920198"><ele>886.0</ele><time>2026-04-06T12:08:44.999Z</time></trkpt><trkpt lat="45.8155542712692" lon="8.029945793993152"><ele>886.0</ele><time>2026-04-06T12:08:47.999Z</time></trkpt><trkpt lat="45.81559625408959" lon="8.030046665058723"><ele>885.9999999999999</ele><time>2026-04-06T12:08:50.999Z</time></trkpt><trkpt lat="45.81563261894033" lon="8.030165948693622"><ele>886.0</ele><time>2026-04-06T12:08:53.999Z</time></trkpt><trkpt lat="45.815670764182414" lon="8.030252954951546"><ele>885.1428571428571</ele><time>2026-04-06T12:08:55.999Z</time></trkpt><trkpt lat="45.81570802773118" lon="8.030339986754191"><ele>884.2857142857143</ele><time>2026-04-06T12:08:57.999Z</time></trkpt><trkpt lat="45.81575468759065" lon="8.030427643716658"><ele>883.4285714285713</ele><time>2026-04-06T12:09:01.999Z</time></trkpt><trkpt lat="45.81576731067937" lon="8.030520435423103"><ele>882.5714285714286</ele><time>2026-04-06T12:09:07.999Z</time></trkpt><trkpt lat="45.81570409958665" lon="8.030586473182444"><ele>881.7142857142857</ele><time>2026-04-06T12:09:12Z</time></trkpt><trkpt lat="45.815630132041605" lon="8.030610028807939"><ele>880.8571428571428</ele><time>2026-04-06T12:09:15Z</time></trkpt><trkpt lat="45.81555693182658" lon="8.030647322790758"><ele>880.0</ele><time>2026-04-06T12:09:18Z</time></trkpt><trkpt lat="45.81549218318546" lon="8.030683813698198"><ele>879.9999999999999</ele><time>2026-04-06T12:09:22Z</time></trkpt><trkpt lat="45.815533491258456" lon="8.03075276521876"><ele>880.0</ele><time>2026-04-06T12:25:13.999Z</time></trkpt><trkpt lat="45.81559710269613" lon="8.030704613179338"><ele>880.0</ele><time>2026-04-06T12:25:16.999Z</time></trkpt><trkpt lat="45.81570433050585" lon="8.030676898394013"><ele>880.0</ele><time>2026-04-06T12:25:19.999Z</time></trkpt><trkpt lat="45.815781250077755" lon="8.03061141326608"><ele>879.9999999999999</ele><time>2026-04-06T12:25:21.999Z</time></trkpt><trkpt lat="45.81586455107187" lon="8.03055460360506"><ele>880.0</ele><time>2026-04-06T12:25:23.999Z</time></trkpt><trkpt lat="45.815937238188766" lon="8.030487609732091"><ele>881.1666666666666</ele><time>2026-04-06T12:25:25.999Z</time></trkpt><trkpt lat="45.8160133757961" lon="8.03042749651158"><ele>882.3333333333333</ele><time>2026-04-06T12:25:27.999Z</time></trkpt><trkpt lat="45.81608697467564" lon="8.030366494581271"><ele>883.5</ele><time>2026-04-06T12:25:29.999Z</time></trkpt><trkpt lat="45.816165337641536" lon="8.030314147159862"><ele>884.6666666666667</ele><time>2026-04-06T12:25:31.999Z</time></trkpt><trkpt lat="45.816240062882926" lon="8.030252889687882"><ele>885.8333333333334</ele><time>2026-04-06T12:25:33.999Z</time></trkpt><trkpt lat="45.816320938619" lon="8.030196863356755"><ele>887.0</ele><time>2026-04-06T12:25:35.999Z</time></trkpt><trkpt lat="45.816395702126094" lon="8.03013293036596"><ele>887.0000000000001</ele><time>2026-04-06T12:25:37.999Z</time></trkpt><trkpt lat="45.81647144073503" lon="8.030069260744812"><ele>887.0</ele><time>2026-04-06T12:25:39.999Z</time></trkpt><trkpt lat="45.81654589317989" lon="8.030001366084692"><ele>887.0</ele><time>2026-04-06T12:25:41.999Z</time></trkpt><trkpt lat="45.81661790713556" lon="8.02992531906772"><ele>887.0</ele><time>2026-04-06T12:25:43.999Z</time></trkpt><trkpt lat="45.816686892011965" lon="8.02984227557762"><ele>887.0000000000001</ele><time>2026-04-06T12:25:45.999Z</time></trkpt><trkpt lat="45.81675827464283" lon="8.029766297897554"><ele>887.0</ele><time>2026-04-06T12:25:47.999Z</time></trkpt><trkpt lat="45.81683202661898" lon="8.029694891274904"><ele>887.5000000000001</ele><time>2026-04-06T12:25:49.999Z</time></trkpt><trkpt lat="45.816902655856026" lon="8.029614534009069"><ele>888.0</ele><time>2026-04-06T12:25:51.999Z</time></trkpt><trkpt lat="45.81697401954372" lon="8.029537816208688"><ele>888.5</ele><time>2026-04-06T12:25:53.999Z</time></trkpt><trkpt lat="45.81704760197318" lon="8.02945714316949"><ele>889.0</ele><time>2026-04-06T12:25:55.999Z</time></trkpt><trkpt lat="45.81711143440526" lon="8.029369337432684"><ele>889.5000000000001</ele><time>2026-04-06T12:25:58Z</time></trkpt><trkpt lat="45.817179477554646" lon="8.029291111743904"><ele>890.0</ele><time>2026-04-06T12:26:00Z</time></trkpt><trkpt lat="45.81725487185585" lon="8.029223836289242"><ele>890.0</ele><time>2026-04-06T12:26:02Z</time></trkpt><trkpt lat="45.81732533668145" lon="8.0291490072163"><ele>890.0</ele><time>2026-04-06T12:26:04Z</time></trkpt><trkpt lat="45.81739880475549" lon="8.029072528748447"><ele>890.0</ele><time>2026-04-06T12:26:06Z</time></trkpt><trkpt lat="45.81747084647962" lon="8.028997755541322"><ele>890.0</ele><time>2026-04-06T12:26:08Z</time></trkpt><trkpt lat="45.81754410107869" lon="8.028927559217495"><ele>890.0</ele><time>2026-04-06T12:26:10Z</time></trkpt><trkpt lat="45.81762852604441" lon="8.02886682505601"><ele>891.2</ele><time>2026-04-06T12:26:12Z</time></trkpt><trkpt lat="45.81771209443713" lon="8.028806381968087"><ele>892.4</ele><time>2026-04-06T12:26:14Z</time></trkpt><trkpt lat="45.81779190904777" lon="8.02874050064458"><ele>893.5999999999999</ele><time>2026-04-06T12:26:16Z</time></trkpt><trkpt lat="45.81787211492957" lon="8.028679869584408"><ele>894.8</ele><time>2026-04-06T12:26:18Z</time></trkpt><trkpt lat="45.817950782686154" lon="8.028622117244643"><ele>896.0</ele><time>2026-04-06T12:26:20Z</time></trkpt><trkpt lat="45.81802790226457" lon="8.028566134516865"><ele>896.0000000000001</ele><time>2026-04-06T12:26:22Z</time></trkpt><trkpt lat="45.81810486192246" lon="8.028503965594977"><ele>896.0</ele><time>2026-04-06T12:26:24Z</time></trkpt><trkpt lat="45.81817873442974" lon="8.02843974431822"><ele>896.0</ele><time>2026-04-06T12:26:26Z</time></trkpt><trkpt lat="45.81825281407883" lon="8.028374195920374"><ele>896.0</ele><time>2026-04-06T12:26:28Z</time></trkpt><trkpt lat="45.81831753596492" lon="8.028293280367762"><ele>896.0000000000001</ele><time>2026-04-06T12:26:30Z</time></trkpt><trkpt lat="45.81838247079243" lon="8.028210599693734"><ele>896.0</ele><time>2026-04-06T12:26:32Z</time></trkpt><trkpt lat="45.81844060840252" lon="8.028109561645598"><ele>899.5999999999999</ele><time>2026-04-06T12:26:34Z</time></trkpt><trkpt lat="45.81849178004525" lon="8.027999161453934"><ele>903.1999999999999</ele><time>2026-04-06T12:26:36Z</time></trkpt><trkpt lat="45.81854550850247" lon="8.02788523220403"><ele>906.8000000000001</ele><time>2026-04-06T12:26:38Z</time></trkpt><trkpt lat="45.818598753671125" lon="8.027777564282356"><ele>910.4000000000001</ele><time>2026-04-06T12:26:40Z</time></trkpt><trkpt lat="45.81865271346065" lon="8.02766694855462"><ele>914.0</ele><time>2026-04-06T12:26:42Z</time></trkpt><trkpt lat="45.81870133568937" lon="8.027570708677203"><ele>914.0000000000001</ele><time>2026-04-06T12:26:44Z</time></trkpt><trkpt lat="45.81874629692594" lon="8.027478213077341"><ele>914.0</ele><time>2026-04-06T12:26:46Z</time></trkpt><trkpt lat="45.81879471945683" lon="8.02737593607646"><ele>914.0</ele><time>2026-04-06T12:26:47.999Z</time></trkpt><trkpt lat="45.81884665059209" lon="8.027272557291136"><ele>914.0</ele><time>2026-04-06T12:26:49.999Z</time></trkpt><trkpt lat="45.81890079081217" lon="8.02716263176486"><ele>914.0000000000001</ele><time>2026-04-06T12:26:51.999Z</time></trkpt><trkpt lat="45.81895956153829" lon="8.027060610917687"><ele>914.0</ele><time>2026-04-06T12:26:53.999Z</time></trkpt><trkpt lat="45.81901475912431" lon="8.026952501768701"><ele>911.6</ele><time>2026-04-06T12:26:55.999Z</time></trkpt><trkpt lat="45.819066001611105" lon="8.026835929430336"><ele>909.2</ele><time>2026-04-06T12:26:57.999Z</time></trkpt><trkpt lat="45.819118534344526" lon="8.02672302335263"><ele>906.8000000000001</ele><time>2026-04-06T12:26:59.999Z</time></trkpt><trkpt lat="45.819170575605405" lon="8.026616566119129"><ele>904.4000000000001</ele><time>2026-04-06T12:27:01.999Z</time></trkpt><trkpt lat="45.81923084951981" lon="8.026510770147517"><ele>902.0</ele><time>2026-04-06T12:27:03.999Z</time></trkpt><trkpt lat="45.81929810821032" lon="8.02641920697037"><ele>904.0</ele><time>2026-04-06T12:27:05.999Z</time></trkpt><trkpt lat="45.81936927460948" lon="8.026335417560986"><ele>906.0</ele><time>2026-04-06T12:27:07.999Z</time></trkpt><trkpt lat="45.81944231805934" lon="8.026245072520606"><ele>908.0</ele><time>2026-04-06T12:27:09.999Z</time></trkpt><trkpt lat="45.819517238515495" lon="8.02615209346887"><ele>910.0</ele><time>2026-04-06T12:27:11.999Z</time></trkpt><trkpt lat="45.819591814882195" lon="8.026056449473895"><ele>912.0</ele><time>2026-04-06T12:27:13.999Z</time></trkpt><trkpt lat="45.81966534920307" lon="8.025947970730506"><ele>912.0</ele><time>2026-04-06T12:27:15.999Z</time></trkpt><trkpt lat="45.81973718385442" lon="8.025835701679533"><ele>912.0</ele><time>2026-04-06T12:27:17.999Z</time></trkpt><trkpt lat="45.81981139041377" lon="8.025725066328585"><ele>912.0</ele><time>2026-04-06T12:27:19.999Z</time></trkpt><trkpt lat="45.81988938671896" lon="8.025626456255612"><ele>912.0</ele><time>2026-04-06T12:27:21.999Z</time></trkpt><trkpt lat="45.819965626730145" lon="8.025519473003072"><ele>912.0</ele><time>2026-04-06T12:27:23.999Z</time></trkpt><trkpt lat="45.820040323345786" lon="8.025416712474778"><ele>912.2</ele><time>2026-04-06T12:27:25.999Z</time></trkpt><trkpt lat="45.82011520954232" lon="8.02531310390516"><ele>912.4000000000001</ele><time>2026-04-06T12:27:27.999Z</time></trkpt><trkpt lat="45.820195149925944" lon="8.02521812175733"><ele>912.5999999999999</ele><time>2026-04-06T12:27:29.999Z</time></trkpt><trkpt lat="45.820268487215245" lon="8.025115381261802"><ele>912.8</ele><time>2026-04-06T12:27:31.999Z</time></trkpt><trkpt lat="45.820341714948334" lon="8.025014828501279"><ele>913.0</ele><time>2026-04-06T12:27:33.999Z</time></trkpt><trkpt lat="45.82041721912081" lon="8.024920561912657"><ele>910.2</ele><time>2026-04-06T12:27:35.999Z</time></trkpt><trkpt lat="45.820495155680966" lon="8.024817699521853"><ele>907.4</ele><time>2026-04-06T12:27:37.999Z</time></trkpt><trkpt lat="45.82057056726286" lon="8.024715709673803"><ele>904.6000000000001</ele><time>2026-04-06T12:27:39.999Z</time></trkpt><trkpt lat="45.82064263224425" lon="8.024615023958884"><ele>901.8000000000001</ele><time>2026-04-06T12:27:41.999Z</time></trkpt><trkpt lat="45.82071871415941" lon="8.024513387157436"><ele>899.0</ele><time>2026-04-06T12:27:43.999Z</time></trkpt><trkpt lat="45.820792667341884" lon="8.024414108095042"><ele>899.0</ele><time>2026-04-06T12:27:45.999Z</time></trkpt><trkpt lat="45.82086466613859" lon="8.024313104650743"><ele>899.0000000000001</ele><time>2026-04-06T12:27:47.999Z</time></trkpt><trkpt lat="45.8209358652074" lon="8.024215123609961"><ele>899.0000000000001</ele><time>2026-04-06T12:27:49.999Z</time></trkpt><trkpt lat="45.82100434841402" lon="8.024107952957207"><ele>899.0</ele><time>2026-04-06T12:27:51.999Z</time></trkpt><trkpt lat="45.82106908871317" lon="8.023995061922273"><ele>899.0</ele><time>2026-04-06T12:27:53.999Z</time></trkpt><trkpt lat="45.82112608884093" lon="8.023873965276326"><ele>903.0</ele><time>2026-04-06T12:27:55.999Z</time></trkpt><trkpt lat="45.8211773198618" lon="8.023740608902994"><ele>907.0000000000001</ele><time>2026-04-06T12:27:57.999Z</time></trkpt><trkpt lat="45.821226595855805" lon="8.023608078551513"><ele>911.0000000000001</ele><time>2026-04-06T12:27:59.999Z</time></trkpt><trkpt lat="45.8212725199276" lon="8.0234737774959"><ele>915.0</ele><time>2026-04-06T12:28:01.999Z</time></trkpt><trkpt lat="45.821316722279" lon="8.023336007127915"><ele>919.0</ele><time>2026-04-06T12:28:04Z</time></trkpt><trkpt lat="45.82135845038336" lon="8.023193493193217"><ele>919.0</ele><time>2026-04-06T12:28:06Z</time></trkpt><trkpt lat="45.82140184786356" lon="8.023052401685389"><ele>919.0000000000001</ele><time>2026-04-06T12:28:08Z</time></trkpt><trkpt lat="45.821444067256145" lon="8.02291470956137"><ele>919.0000000000001</ele><time>2026-04-06T12:28:10Z</time></trkpt><trkpt lat="45.821482708510885" lon="8.022776710598077"><ele>919.0</ele><time>2026-04-06T12:28:12Z</time></trkpt><trkpt lat="45.821520562511964" lon="8.022642549483004"><ele>919.0</ele><time>2026-04-06T12:28:14Z</time></trkpt><trkpt lat="45.82155775909304" lon="8.022510181212576"><ele>919.4000000000001</ele><time>2026-04-06T12:28:16Z</time></trkpt><trkpt lat="45.82159007909094" lon="8.022375515214474"><ele>919.8000000000001</ele><time>2026-04-06T12:28:18Z</time></trkpt><trkpt lat="45.82161819838001" lon="8.022241719347639"><ele>920.1999999999999</ele><time>2026-04-06T12:28:20Z</time></trkpt><trkpt lat="45.821642290877634" lon="8.022097738091027"><ele>920.5999999999999</ele><time>2026-04-06T12:28:22Z</time></trkpt><trkpt lat="45.82165423517766" lon="8.021950486771589"><ele>921.0</ele><time>2026-04-06T12:28:24Z</time></trkpt><trkpt lat="45.82165712423279" lon="8.02180761840527"><ele>921.0</ele><time>2026-04-06T12:28:26Z</time></trkpt><trkpt lat="45.821653220897026" lon="8.021665387416009"><ele>920.9999999999999</ele><time>2026-04-06T12:28:28Z</time></trkpt><trkpt lat="45.82164305449002" lon="8.021526795860801"><ele>920.9999999999999</ele><time>2026-04-06T12:28:30Z</time></trkpt><trkpt lat="45.82163356258613" lon="8.021384058116892"><ele>921.0</ele><time>2026-04-06T12:28:32Z</time></trkpt><trkpt lat="45.82162435580646" lon="8.021238106860249"><ele>921.0</ele><time>2026-04-06T12:28:34Z</time></trkpt><trkpt lat="45.821620886946626" lon="8.021093076663393"><ele>921.0</ele><time>2026-04-06T12:28:36Z</time></trkpt><trkpt lat="45.821620942845556" lon="8.020947286250307"><ele>920.9999999999999</ele><time>2026-04-06T12:28:38Z</time></trkpt><trkpt lat="45.82163222279309" lon="8.020798575305676"><ele>920.9999999999999</ele><time>2026-04-06T12:28:40Z</time></trkpt><trkpt lat="45.82164471261005" lon="8.020649718647691"><ele>921.0</ele><time>2026-04-06T12:28:42Z</time></trkpt><trkpt lat="45.821661248927704" lon="8.020504413857493"><ele>921.0</ele><time>2026-04-06T12:28:44Z</time></trkpt><trkpt lat="45.82167439346981" lon="8.020358578759575"><ele>921.1999999999999</ele><time>2026-04-06T12:28:46Z</time></trkpt><trkpt lat="45.82168176907938" lon="8.020212525425368"><ele>921.3999999999999</ele><time>2026-04-06T12:28:48Z</time></trkpt><trkpt lat="45.821687794661756" lon="8.020071030612796"><ele>921.6</ele><time>2026-04-06T12:28:49.999Z</time></trkpt><trkpt lat="45.82169299219801" lon="8.019929274795652"><ele>921.8</ele><time>2026-04-06T12:28:51.999Z</time></trkpt><trkpt lat="45.82169286573472" lon="8.019786477993136"><ele>922.0</ele><time>2026-04-06T12:28:53.999Z</time></trkpt><trkpt lat="45.82168374576144" lon="8.019638699878527"><ele>923.6</ele><time>2026-04-06T12:28:55.999Z</time></trkpt><trkpt lat="45.82167767230556" lon="8.019491078469246"><ele>925.2</ele><time>2026-04-06T12:28:57.999Z</time></trkpt><trkpt lat="45.82166915009494" lon="8.019347529296535"><ele>926.8</ele><time>2026-04-06T12:28:59.999Z</time></trkpt><trkpt lat="45.82166198230547" lon="8.019203591002157"><ele>928.4</ele><time>2026-04-06T12:29:01.999Z</time></trkpt><trkpt lat="45.82165492985979" lon="8.019062894115628"><ele>930.0</ele><time>2026-04-06T12:29:03.999Z</time></trkpt><trkpt lat="45.82163621701759" lon="8.018920907325365"><ele>932.2</ele><time>2026-04-06T12:29:05.999Z</time></trkpt><trkpt lat="45.8216102360769" lon="8.018780727435809"><ele>934.4</ele><time>2026-04-06T12:29:07.999Z</time></trkpt><trkpt lat="45.82159033513757" lon="8.018640345845482"><ele>936.5999999999999</ele><time>2026-04-06T12:29:09.999Z</time></trkpt><trkpt lat="45.821562916833976" lon="8.01850048717013"><ele>938.8</ele><time>2026-04-06T12:29:11.999Z</time></trkpt><trkpt lat="45.821534573038925" lon="8.018359361596426"><ele>941.0</ele><time>2026-04-06T12:29:13.999Z</time></trkpt><trkpt lat="45.82150177721647" lon="8.018219178859114"><ele>943.0</ele><time>2026-04-06T12:29:15.999Z</time></trkpt><trkpt lat="45.821467142938175" lon="8.018088905954192"><ele>944.9999999999999</ele><time>2026-04-06T12:29:17.999Z</time></trkpt><trkpt lat="45.82143702478421" lon="8.01794994709976"><ele>946.9999999999999</ele><time>2026-04-06T12:29:19.999Z</time></trkpt><trkpt lat="45.82140508760391" lon="8.017812640663106"><ele>949.0</ele><time>2026-04-06T12:29:21.999Z</time></trkpt><trkpt lat="45.821371836510565" lon="8.017677658958766"><ele>951.0</ele><time>2026-04-06T12:29:23.999Z</time></trkpt><trkpt lat="45.82133975456578" lon="8.017541580283416"><ele>952.5999999999999</ele><time>2026-04-06T12:29:25.999Z</time></trkpt><trkpt lat="45.82130958949024" lon="8.017400527890201"><ele>954.1999999999999</ele><time>2026-04-06T12:29:27.999Z</time></trkpt><trkpt lat="45.82128038909624" lon="8.017261525731346"><ele>955.8000000000001</ele><time>2026-04-06T12:29:29.999Z</time></trkpt><trkpt lat="45.8212526127195" lon="8.017126267757332"><ele>957.4000000000001</ele><time>2026-04-06T12:29:31.999Z</time></trkpt><trkpt lat="45.82123297285624" lon="8.017001719441824"><ele>959.0</ele><time>2026-04-06T12:29:33.999Z</time></trkpt><trkpt lat="45.821210024005865" lon="8.016880766637282"><ele>959.0000000000001</ele><time>2026-04-06T12:29:35.999Z</time></trkpt><trkpt lat="45.82118519780386" lon="8.016760623533989"><ele>959.0</ele><time>2026-04-06T12:29:37.999Z</time></trkpt><trkpt lat="45.8211663523274" lon="8.016645918432232"><ele>959.0</ele><time>2026-04-06T12:29:39.999Z</time></trkpt><trkpt lat="45.82114405106831" lon="8.016533378869415"><ele>959.0</ele><time>2026-04-06T12:29:41.999Z</time></trkpt><trkpt lat="45.82112623920572" lon="8.016417788156868"><ele>959.0000000000001</ele><time>2026-04-06T12:29:43.999Z</time></trkpt><trkpt lat="45.82110799100548" lon="8.016303274837409"><ele>959.0</ele><time>2026-04-06T12:29:45.999Z</time></trkpt><trkpt lat="45.82108806838392" lon="8.016194654597257"><ele>956.5000000000001</ele><time>2026-04-06T12:29:47.999Z</time></trkpt><trkpt lat="45.82106772317413" lon="8.01608377620324"><ele>954.0</ele><time>2026-04-06T12:29:49.999Z</time></trkpt><trkpt lat="45.82104406825536" lon="8.015974737115522"><ele>951.5</ele><time>2026-04-06T12:29:51.999Z</time></trkpt><trkpt lat="45.82102153953166" lon="8.015871180201966"><ele>949.0</ele><time>2026-04-06T12:29:53.999Z</time></trkpt><trkpt lat="45.82099428217108" lon="8.015770630279205"><ele>946.5000000000001</ele><time>2026-04-06T12:29:55.999Z</time></trkpt><trkpt lat="45.82097725959198" lon="8.015668129871983"><ele>944.0</ele><time>2026-04-06T12:29:57.999Z</time></trkpt><trkpt lat="45.8209478793046" lon="8.015565676952567"><ele>944.0000000000001</ele><time>2026-04-06T12:29:59.999Z</time></trkpt><trkpt lat="45.82091934639857" lon="8.015465635915662"><ele>944.0</ele><time>2026-04-06T12:30:01.999Z</time></trkpt><trkpt lat="45.82088874331551" lon="8.015361805274708"><ele>944.0</ele><time>2026-04-06T12:30:03.999Z</time></trkpt><trkpt lat="45.82086098295052" lon="8.015260219669589"><ele>944.0</ele><time>2026-04-06T12:30:05.999Z</time></trkpt><trkpt lat="45.82083385869217" lon="8.015158603951607"><ele>944.0000000000001</ele><time>2026-04-06T12:30:07.999Z</time></trkpt><trkpt lat="45.82080387210608" lon="8.01505145682338"><ele>944.0</ele><time>2026-04-06T12:30:10Z</time></trkpt><trkpt lat="45.8207762345261" lon="8.014945479709285"><ele>946.0000000000001</ele><time>2026-04-06T12:30:12Z</time></trkpt><trkpt lat="45.82075675220785" lon="8.014835610298311"><ele>948.0</ele><time>2026-04-06T12:30:14Z</time></trkpt><trkpt lat="45.82073650805188" lon="8.014722248113808"><ele>950.0</ele><time>2026-04-06T12:30:16Z</time></trkpt><trkpt lat="45.82071759484662" lon="8.014604806703234"><ele>952.0</ele><time>2026-04-06T12:30:18Z</time></trkpt><trkpt lat="45.82070472057932" lon="8.014487917072065"><ele>954.0000000000001</ele><time>2026-04-06T12:30:20Z</time></trkpt><trkpt lat="45.82068933849871" lon="8.014372741645035"><ele>956.0</ele><time>2026-04-06T12:30:22Z</time></trkpt><trkpt lat="45.82067092888758" lon="8.014255756199443"><ele>956.8333333333334</ele><time>2026-04-06T12:30:24Z</time></trkpt><trkpt lat="45.82065332594066" lon="8.014143686740152"><ele>957.6666666666667</ele><time>2026-04-06T12:30:26Z</time></trkpt><trkpt lat="45.82063763447121" lon="8.014033766658471"><ele>958.5</ele><time>2026-04-06T12:30:28Z</time></trkpt><trkpt lat="45.820628669627546" lon="8.013923903751841"><ele>959.3333333333333</ele><time>2026-04-06T12:30:30Z</time></trkpt><trkpt lat="45.820609892121766" lon="8.013800411927125"><ele>960.1666666666666</ele><time>2026-04-06T12:30:32Z</time></trkpt><trkpt lat="45.820592110652086" lon="8.013669740405948"><ele>961.0</ele><time>2026-04-06T12:30:34Z</time></trkpt><trkpt lat="45.82057692067072" lon="8.013537729275566"><ele>961.0</ele><time>2026-04-06T12:30:36Z</time></trkpt><trkpt lat="45.82056192877213" lon="8.013406571680814"><ele>960.9999999999999</ele><time>2026-04-06T12:30:38Z</time></trkpt><trkpt lat="45.820545356785246" lon="8.013272523572452"><ele>960.9999999999999</ele><time>2026-04-06T12:30:40Z</time></trkpt><trkpt lat="45.82052934155017" lon="8.01313645989429"><ele>961.0</ele><time>2026-04-06T12:30:42Z</time></trkpt><trkpt lat="45.820510017236515" lon="8.012989933207523"><ele>961.0</ele><time>2026-04-06T12:30:44Z</time></trkpt><trkpt lat="45.820494927638094" lon="8.012850096910503"><ele>961.0</ele><time>2026-04-06T12:30:46Z</time></trkpt><trkpt lat="45.82047982329562" lon="8.012709680983471"><ele>960.9999999999999</ele><time>2026-04-06T12:30:48Z</time></trkpt><trkpt lat="45.82046118296273" lon="8.012570138305543"><ele>960.9999999999999</ele><time>2026-04-06T12:30:50Z</time></trkpt><trkpt lat="45.820446559791286" lon="8.012430809806"><ele>961.0</ele><time>2026-04-06T12:30:51.999Z</time></trkpt><trkpt lat="45.82043063070298" lon="8.01228708159802"><ele>961.0</ele><time>2026-04-06T12:30:53.999Z</time></trkpt><trkpt lat="45.82040795935212" lon="8.012148885243086"><ele>961.0</ele><time>2026-04-06T12:30:55.999Z</time></trkpt><trkpt lat="45.820389415996964" lon="8.012006157453076"><ele>960.9999999999999</ele><time>2026-04-06T12:30:57.999Z</time></trkpt><trkpt lat="45.82037194505041" lon="8.011859995624654"><ele>960.9999999999999</ele><time>2026-04-06T12:30:59.999Z</time></trkpt><trkpt lat="45.82036619916504" lon="8.011710115593033"><ele>961.0</ele><time>2026-04-06T12:31:01.999Z</time></trkpt><trkpt lat="45.82036219216598" lon="8.011563287455987"><ele>961.0</ele><time>2026-04-06T12:31:03.999Z</time></trkpt><trkpt lat="45.82035716992583" lon="8.011418342059432"><ele>962.1999999999999</ele><time>2026-04-06T12:31:05.999Z</time></trkpt><trkpt lat="45.82034356404803" lon="8.011273169145422"><ele>963.3999999999999</ele><time>2026-04-06T12:31:07.999Z</time></trkpt><trkpt lat="45.8203493527506" lon="8.011125359383879"><ele>964.6</ele><time>2026-04-06T12:31:09.999Z</time></trkpt><trkpt lat="45.820360188795334" lon="8.01098142033399"><ele>965.8</ele><time>2026-04-06T12:31:11.999Z</time></trkpt><trkpt lat="45.820363013991425" lon="8.010833321850749"><ele>967.0</ele><time>2026-04-06T12:31:13.999Z</time></trkpt><trkpt lat="45.82037094373023" lon="8.010682805942523"><ele>967.2</ele><time>2026-04-06T12:31:15.999Z</time></trkpt><trkpt lat="45.82036502797906" lon="8.010534978877494"><ele>967.4000000000001</ele><time>2026-04-06T12:31:17.999Z</time></trkpt><trkpt lat="45.820354931551215" lon="8.010395136717417"><ele>967.5999999999999</ele><time>2026-04-06T12:31:19.999Z</time></trkpt><trkpt lat="45.82033494817169" lon="8.01025839438098"><ele>967.8</ele><time>2026-04-06T12:31:21.999Z</time></trkpt><trkpt lat="45.82030617104763" lon="8.010125686814165"><ele>968.0</ele><time>2026-04-06T12:31:23.999Z</time></trkpt><trkpt lat="45.82027663885635" lon="8.009988260469335"><ele>968.0</ele><time>2026-04-06T12:31:25.999Z</time></trkpt><trkpt lat="45.8202428068353" lon="8.009853995284793"><ele>968.0</ele><time>2026-04-06T12:31:27.999Z</time></trkpt><trkpt lat="45.82020714006289" lon="8.009722085150738"><ele>968.0</ele><time>2026-04-06T12:31:29.999Z</time></trkpt><trkpt lat="45.82018657412004" lon="8.009586200705812"><ele>968.0</ele><time>2026-04-06T12:31:31.999Z</time></trkpt><trkpt lat="45.820177029314024" lon="8.009452879308734"><ele>968.0</ele><time>2026-04-06T12:31:33.999Z</time></trkpt><trkpt lat="45.82018015855335" lon="8.009313308660362"><ele>968.0</ele><time>2026-04-06T12:31:35.999Z</time></trkpt><trkpt lat="45.820182779750695" lon="8.009172944264618"><ele>968.0</ele><time>2026-04-06T12:31:37.999Z</time></trkpt><trkpt lat="45.82019172805511" lon="8.009036590138361"><ele>968.0</ele><time>2026-04-06T12:31:39.999Z</time></trkpt><trkpt lat="45.82019601313548" lon="8.00889872413233"><ele>968.0</ele><time>2026-04-06T12:31:41.999Z</time></trkpt><trkpt lat="45.82020502481686" lon="8.008762225083535"><ele>968.0</ele><time>2026-04-06T12:31:43.999Z</time></trkpt><trkpt lat="45.82020992247591" lon="8.008619070306086"><ele>968.5999999999999</ele><time>2026-04-06T12:31:45.999Z</time></trkpt><trkpt lat="45.8202206777997" lon="8.008475981075597"><ele>969.1999999999999</ele><time>2026-04-06T12:31:47.999Z</time></trkpt><trkpt lat="45.82022988691351" lon="8.008335153952542"><ele>969.8</ele><time>2026-04-06T12:31:49.999Z</time></trkpt><trkpt lat="45.82023589263371" lon="8.008191943912255"><ele>970.4</ele><time>2026-04-06T12:31:51.999Z</time></trkpt><trkpt lat="45.820241195850095" lon="8.008050853711167"><ele>971.0</ele><time>2026-04-06T12:31:53.999Z</time></trkpt><trkpt lat="45.82024890275728" lon="8.007907982327984"><ele>973.0</ele><time>2026-04-06T12:31:55.999Z</time></trkpt><trkpt lat="45.82025181245363" lon="8.007767192788995"><ele>974.9999999999999</ele><time>2026-04-06T12:31:57.999Z</time></trkpt><trkpt lat="45.82025523795264" lon="8.007622876415864"><ele>976.9999999999999</ele><time>2026-04-06T12:31:59.999Z</time></trkpt><trkpt lat="45.820260394117525" lon="8.007480810632297"><ele>979.0</ele><time>2026-04-06T12:32:01.999Z</time></trkpt><trkpt lat="45.820260029932534" lon="8.007340368867425"><ele>981.0</ele><time>2026-04-06T12:32:03.999Z</time></trkpt><trkpt lat="45.82025403382946" lon="8.007199940037347"><ele>982.4</ele><time>2026-04-06T12:32:05.999Z</time></trkpt><trkpt lat="45.8202462450562" lon="8.007056596287573"><ele>983.8</ele><time>2026-04-06T12:32:07.999Z</time></trkpt><trkpt lat="45.82023713518253" lon="8.006915484912522"><ele>985.1999999999999</ele><time>2026-04-06T12:32:09.999Z</time></trkpt><trkpt lat="45.82022846885963" lon="8.006771954984702"><ele>986.5999999999999</ele><time>2026-04-06T12:32:11.999Z</time></trkpt><trkpt lat="45.82022003261641" lon="8.00663009716699"><ele>988.0</ele><time>2026-04-06T12:32:13.999Z</time></trkpt><trkpt lat="45.820213289205704" lon="8.006488583402623"><ele>989.4</ele><time>2026-04-06T12:32:15.999Z</time></trkpt><trkpt lat="45.820205598432395" lon="8.006348174822705"><ele>990.8</ele><time>2026-04-06T12:32:17.999Z</time></trkpt><trkpt lat="45.82019458995484" lon="8.006207898358072"><ele>992.2</ele><time>2026-04-06T12:32:19.999Z</time></trkpt><trkpt lat="45.8201846033685" lon="8.006066558007769"><ele>993.6</ele><time>2026-04-06T12:32:21.999Z</time></trkpt><trkpt lat="45.820174953045196" lon="8.005925248549858"><ele>995.0</ele><time>2026-04-06T12:32:23.999Z</time></trkpt><trkpt lat="45.82016409971999" lon="8.00578360720363"><ele>995.4</ele><time>2026-04-06T12:32:26Z</time></trkpt><trkpt lat="45.82015644529682" lon="8.005640861560414"><ele>995.8</ele><time>2026-04-06T12:32:28Z</time></trkpt><trkpt lat="45.82014322290451" lon="8.005499031992425"><ele>996.2</ele><time>2026-04-06T12:32:30Z</time></trkpt><trkpt lat="45.82013122924353" lon="8.005354410212497"><ele>996.6</ele><time>2026-04-06T12:32:32Z</time></trkpt><trkpt lat="45.82012036072451" lon="8.00521215425522"><ele>997.0</ele><time>2026-04-06T12:32:34Z</time></trkpt><trkpt lat="45.82010764058732" lon="8.005071985307548"><ele>990.0</ele><time>2026-04-06T12:32:36Z</time></trkpt><trkpt lat="45.82009902215646" lon="8.004928543374014"><ele>983.0</ele><time>2026-04-06T12:32:38Z</time></trkpt><trkpt lat="45.82008772430117" lon="8.004786183423427"><ele>976.0</ele><time>2026-04-06T12:32:40Z</time></trkpt><trkpt lat="45.820077139370206" lon="8.004645238293964"><ele>969.0</ele><time>2026-04-06T12:32:42Z</time></trkpt><trkpt lat="45.82006787963757" lon="8.00449771784867"><ele>962.0</ele><time>2026-04-06T12:32:44Z</time></trkpt><trkpt lat="45.82005736508566" lon="8.004357578980416"><ele>962.0</ele><time>2026-04-06T12:32:46Z</time></trkpt><trkpt lat="45.820051243367445" lon="8.00421688306945"><ele>962.0</ele><time>2026-04-06T12:32:48Z</time></trkpt><trkpt lat="45.82004075746915" lon="8.004082130882455"><ele>962.0</ele><time>2026-04-06T12:32:49.999Z</time></trkpt><trkpt lat="45.820032876599534" lon="8.003942782452642"><ele>962.0</ele><time>2026-04-06T12:32:51.999Z</time></trkpt><trkpt lat="45.82002268218673" lon="8.003800670975343"><ele>962.0</ele><time>2026-04-06T12:32:53.999Z</time></trkpt><trkpt lat="45.82001156909387" lon="8.003656077821555"><ele>964.0</ele><time>2026-04-06T12:32:55.999Z</time></trkpt><trkpt lat="45.82000450103118" lon="8.00351436312586"><ele>966.0</ele><time>2026-04-06T12:32:57.999Z</time></trkpt><trkpt lat="45.819995018158416" lon="8.00337924727442"><ele>968.0</ele><time>2026-04-06T12:32:59.999Z</time></trkpt><trkpt lat="45.81998495123826" lon="8.003241798937871"><ele>970.0</ele><time>2026-04-06T12:33:01.999Z</time></trkpt><trkpt lat="45.819966877280265" lon="8.0031112214477"><ele>972.0</ele><time>2026-04-06T12:33:03.999Z</time></trkpt><trkpt lat="45.81994618260447" lon="8.00297757656231"><ele>973.2</ele><time>2026-04-06T12:33:05.999Z</time></trkpt><trkpt lat="45.81992050140915" lon="8.002845509302654"><ele>974.4000000000001</ele><time>2026-04-06T12:33:07.999Z</time></trkpt><trkpt lat="45.81990039143225" lon="8.002716572531192"><ele>975.5999999999999</ele><time>2026-04-06T12:33:09.999Z</time></trkpt><trkpt lat="45.81987140894305" lon="8.00258661759113"><ele>976.8</ele><time>2026-04-06T12:33:11.999Z</time></trkpt><trkpt lat="45.81984771583616" lon="8.00245455439787"><ele>978.0</ele><time>2026-04-06T12:33:13.999Z</time></trkpt><trkpt lat="45.819812817289524" lon="8.002329061694205"><ele>980.4</ele><time>2026-04-06T12:33:15.999Z</time></trkpt><trkpt lat="45.81978529307486" lon="8.002204786742336"><ele>982.8</ele><time>2026-04-06T12:33:17.999Z</time></trkpt><trkpt lat="45.8197527843719" lon="8.002078933142919"><ele>985.2</ele><time>2026-04-06T12:33:19.999Z</time></trkpt><trkpt lat="45.81971635858459" lon="8.001960666400569"><ele>987.6</ele><time>2026-04-06T12:33:21.999Z</time></trkpt><trkpt lat="45.81966760821888" lon="8.001844362221266"><ele>990.0</ele><time>2026-04-06T12:33:23.999Z</time></trkpt><trkpt lat="45.81961448934993" lon="8.001734166999897"><ele>993.4</ele><time>2026-04-06T12:33:25.999Z</time></trkpt><trkpt lat="45.819562950482165" lon="8.001615623312029"><ele>996.8</ele><time>2026-04-06T12:33:27.999Z</time></trkpt><trkpt lat="45.81952594360655" lon="8.00148675307676"><ele>1000.2</ele><time>2026-04-06T12:33:29.999Z</time></trkpt><trkpt lat="45.81950197926141" lon="8.001356334713451"><ele>1003.6</ele><time>2026-04-06T12:33:31.999Z</time></trkpt><trkpt lat="45.81947551019621" lon="8.001232682185206"><ele>1007.0</ele><time>2026-04-06T12:33:33.999Z</time></trkpt><trkpt lat="45.819454174214684" lon="8.001103154154663"><ele>1007.0</ele><time>2026-04-06T12:33:35.999Z</time></trkpt><trkpt lat="45.81943129333778" lon="8.000971511658896"><ele>1007.0</ele><time>2026-04-06T12:33:37.999Z</time></trkpt><trkpt lat="45.819410818193155" lon="8.000839902323472"><ele>1007.0</ele><time>2026-04-06T12:33:39.999Z</time></trkpt><trkpt lat="45.81938506956031" lon="8.000711900719615"><ele>1007.0</ele><time>2026-04-06T12:33:41.999Z</time></trkpt><trkpt lat="45.81936514851729" lon="8.00058119626912"><ele>1007.0</ele><time>2026-04-06T12:33:43.999Z</time></trkpt><trkpt lat="45.81934298074563" lon="8.000454998474106"><ele>1001.6666666666667</ele><time>2026-04-06T12:33:45.999Z</time></trkpt><trkpt lat="45.81931466492838" lon="8.000332409505548"><ele>996.3333333333334</ele><time>2026-04-06T12:33:47.999Z</time></trkpt><trkpt lat="45.81929101325125" lon="8.000216681076148"><ele>991.0</ele><time>2026-04-06T12:33:49.999Z</time></trkpt><trkpt lat="45.81926384721142" lon="8.000103688049204"><ele>985.6666666666667</ele><time>2026-04-06T12:33:51.999Z</time></trkpt><trkpt lat="45.81923315310694" lon="7.999999837441228"><ele>980.3333333333334</ele><time>2026-04-06T12:33:53.999Z</time></trkpt><trkpt lat="45.819203166080236" lon="7.999891953156496"><ele>975.0</ele><time>2026-04-06T12:33:55.999Z</time></trkpt><trkpt lat="45.81917336760904" lon="7.9997916816637495"><ele>975.0</ele><time>2026-04-06T12:33:57.999Z</time></trkpt><trkpt lat="45.819144651359814" lon="7.9996925369423835"><ele>975.0</ele><time>2026-04-06T12:33:59.999Z</time></trkpt><trkpt lat="45.81911807197297" lon="7.999595485582359"><ele>975.0</ele><time>2026-04-06T12:34:01.999Z</time></trkpt><trkpt lat="45.81908364984428" lon="7.99949126215737"><ele>975.0</ele><time>2026-04-06T12:34:03.999Z</time></trkpt><trkpt lat="45.81903893000173" lon="7.999400170587802"><ele>975.0</ele><time>2026-04-06T12:34:05.999Z</time></trkpt><trkpt lat="45.8190009456109" lon="7.999301628650251"><ele>975.0</ele><time>2026-04-06T12:34:07.999Z</time></trkpt><trkpt lat="45.818958765148906" lon="7.999197373731061"><ele>977.3333333333334</ele><time>2026-04-06T12:34:09.999Z</time></trkpt><trkpt lat="45.818923496296414" lon="7.999098035901484"><ele>979.6666666666667</ele><time>2026-04-06T12:34:11.999Z</time></trkpt><trkpt lat="45.81889048534806" lon="7.998992769868142"><ele>982.0</ele><time>2026-04-06T12:34:13.999Z</time></trkpt><trkpt lat="45.818856997330535" lon="7.99888246904685"><ele>984.3333333333334</ele><time>2026-04-06T12:34:15.999Z</time></trkpt><trkpt lat="45.81882688491374" lon="7.998777450410002"><ele>986.6666666666667</ele><time>2026-04-06T12:34:17.999Z</time></trkpt><trkpt lat="45.81879405812741" lon="7.99867006345323"><ele>989.0</ele><time>2026-04-06T12:34:19.999Z</time></trkpt><trkpt lat="45.81876159531337" lon="7.998573688999013"><ele>989.0000000000001</ele><time>2026-04-06T12:34:21.999Z</time></trkpt><trkpt lat="45.81873703401979" lon="7.998462802994687"><ele>989.0</ele><time>2026-04-06T12:34:23.999Z</time></trkpt><trkpt lat="45.81869989293493" lon="7.998345685521838"><ele>989.0</ele><time>2026-04-06T12:34:25.999Z</time></trkpt><trkpt lat="45.818679967233315" lon="7.99823182163145"><ele>989.0</ele><time>2026-04-06T12:34:28Z</time></trkpt><trkpt lat="45.81865929343755" lon="7.998120313970147"><ele>989.0000000000001</ele><time>2026-04-06T12:34:30Z</time></trkpt><trkpt lat="45.81863560988161" lon="7.9980032109985935"><ele>989.0</ele><time>2026-04-06T12:34:32Z</time></trkpt><trkpt lat="45.8186153365131" lon="7.9978869706113525"><ele>990.8333333333334</ele><time>2026-04-06T12:34:34Z</time></trkpt><trkpt lat="45.818587678092165" lon="7.997773392890043"><ele>992.6666666666667</ele><time>2026-04-06T12:34:36Z</time></trkpt><trkpt lat="45.8185683774102" lon="7.997666813245798"><ele>994.5</ele><time>2026-04-06T12:34:38Z</time></trkpt><trkpt lat="45.81854326432294" lon="7.997552167777105"><ele>996.3333333333333</ele><time>2026-04-06T12:34:40Z</time></trkpt><trkpt lat="45.81852774854244" lon="7.997432460656739"><ele>998.1666666666666</ele><time>2026-04-06T12:34:42Z</time></trkpt><trkpt lat="45.81851750490807" lon="7.997317166310015"><ele>1000.0</ele><time>2026-04-06T12:34:44Z</time></trkpt><trkpt lat="45.81850281247013" lon="7.997195732296832"><ele>1001.8333333333333</ele><time>2026-04-06T12:34:46Z</time></trkpt><trkpt lat="45.818487477078186" lon="7.9970775540204295"><ele>1003.6666666666666</ele><time>2026-04-06T12:34:48Z</time></trkpt><trkpt lat="45.818481750377416" lon="7.996960408285763"><ele>1005.5</ele><time>2026-04-06T12:34:50Z</time></trkpt><trkpt lat="45.81847129757349" lon="7.996847396117332"><ele>1007.3333333333333</ele><time>2026-04-06T12:34:52Z</time></trkpt><trkpt lat="45.81849302326791" lon="7.996731546373587"><ele>1009.1666666666666</ele><time>2026-04-06T12:34:54Z</time></trkpt><trkpt lat="45.81853196783621" lon="7.996616012495825"><ele>1011.0</ele><time>2026-04-06T12:34:56Z</time></trkpt><trkpt lat="45.81858151164502" lon="7.996516641343778"><ele>1011.6666666666666</ele><time>2026-04-06T12:34:58Z</time></trkpt><trkpt lat="45.818625769313435" lon="7.996421772637414"><ele>1012.3333333333333</ele><time>2026-04-06T12:35:00Z</time></trkpt><trkpt lat="45.818672847759736" lon="7.9963287360289765"><ele>1013.0</ele><time>2026-04-06T12:35:02Z</time></trkpt><trkpt lat="45.818718794424655" lon="7.996237338209983"><ele>1013.6666666666666</ele><time>2026-04-06T12:35:04Z</time></trkpt><trkpt lat="45.818755910096634" lon="7.996143022378867"><ele>1014.3333333333333</ele><time>2026-04-06T12:35:06Z</time></trkpt><trkpt lat="45.81879326253062" lon="7.996041872462496"><ele>1015.0</ele><time>2026-04-06T12:35:08Z</time></trkpt><trkpt lat="45.818825265531395" lon="7.9959462997937765"><ele>1014.9999999999999</ele><time>2026-04-06T12:35:10Z</time></trkpt><trkpt lat="45.81885437256924" lon="7.995840539156753"><ele>1015.0</ele><time>2026-04-06T12:35:12Z</time></trkpt><trkpt lat="45.818875445296314" lon="7.995722629915957"><ele>1015.0</ele><time>2026-04-06T12:35:14Z</time></trkpt><trkpt lat="45.81889798660964" lon="7.995611609298043"><ele>1015.0</ele><time>2026-04-06T12:35:15.999Z</time></trkpt><trkpt lat="45.81891718500271" lon="7.99549570670418"><ele>1014.9999999999999</ele><time>2026-04-06T12:35:17.999Z</time></trkpt><trkpt lat="45.81893650968098" lon="7.995375762928437"><ele>1015.0</ele><time>2026-04-06T12:35:19.999Z</time></trkpt><trkpt lat="45.81895666895043" lon="7.995256074445532"><ele>1013.9999999999999</ele><time>2026-04-06T12:35:21.999Z</time></trkpt><trkpt lat="45.81897698483205" lon="7.995140020635352"><ele>1013.0</ele><time>2026-04-06T12:35:23.999Z</time></trkpt><trkpt lat="45.81900064190975" lon="7.995029137928248"><ele>1012.0</ele><time>2026-04-06T12:35:25.999Z</time></trkpt><trkpt lat="45.819024264160575" lon="7.994909394287782"><ele>1011.0</ele><time>2026-04-06T12:35:27.999Z</time></trkpt><trkpt lat="45.81904643676039" lon="7.994795863997379"><ele>1009.9999999999999</ele><time>2026-04-06T12:35:29.999Z</time></trkpt><trkpt lat="45.81907035032063" lon="7.994669361575558"><ele>1009.0</ele><time>2026-04-06T12:35:31.999Z</time></trkpt><trkpt lat="45.81909320790565" lon="7.99454960941785"><ele>1007.3333333333333</ele><time>2026-04-06T12:35:33.999Z</time></trkpt><trkpt lat="45.81911594264799" lon="7.994430522188453"><ele>1005.6666666666666</ele><time>2026-04-06T12:35:35.999Z</time></trkpt><trkpt lat="45.819134008401534" lon="7.994315036269644"><ele>1004.0</ele><time>2026-04-06T12:35:37.999Z</time></trkpt><trkpt lat="45.81915874417824" lon="7.9942026802811155"><ele>1002.3333333333333</ele><time>2026-04-06T12:35:39.999Z</time></trkpt><trkpt lat="45.819193181819784" lon="7.994084897485721"><ele>1000.6666666666666</ele><time>2026-04-06T12:35:41.999Z</time></trkpt><trkpt lat="45.819228040574494" lon="7.993978444570334"><ele>999.0</ele><time>2026-04-06T12:35:43.999Z</time></trkpt><trkpt lat="45.819268569134614" lon="7.993865275134064"><ele>998.5</ele><time>2026-04-06T12:35:45.999Z</time></trkpt><trkpt lat="45.819312726880376" lon="7.993752745846541"><ele>998.0</ele><time>2026-04-06T12:35:47.999Z</time></trkpt><trkpt lat="45.81936052862107" lon="7.99364962128514"><ele>997.5</ele><time>2026-04-06T12:35:49.999Z</time></trkpt><trkpt lat="45.81941060015722" lon="7.993541967994472"><ele>997.0</ele><time>2026-04-06T12:35:51.999Z</time></trkpt><trkpt lat="45.81945782715205" lon="7.993431058910842"><ele>996.5</ele><time>2026-04-06T12:35:53.999Z</time></trkpt><trkpt lat="45.819503557729305" lon="7.99332462420644"><ele>996.0</ele><time>2026-04-06T12:35:55.999Z</time></trkpt><trkpt lat="45.81954496866556" lon="7.993207332965014"><ele>1002.1999999999999</ele><time>2026-04-06T12:35:57.999Z</time></trkpt><trkpt lat="45.81956570797102" lon="7.99308675568853"><ele>1008.3999999999999</ele><time>2026-04-06T12:35:59.999Z</time></trkpt><trkpt lat="45.81957155586435" lon="7.992958066159622"><ele>1014.6</ele><time>2026-04-06T12:36:01.999Z</time></trkpt><trkpt lat="45.819565550263775" lon="7.992825082933648"><ele>1020.8</ele><time>2026-04-06T12:36:03.999Z</time></trkpt><trkpt lat="45.81957449299681" lon="7.992687981975956"><ele>1027.0</ele><time>2026-04-06T12:36:05.999Z</time></trkpt><trkpt lat="45.819581244776906" lon="7.992553141157244"><ele>1024.0</ele><time>2026-04-06T12:36:07.999Z</time></trkpt><trkpt lat="45.81960028083" lon="7.992424586167915"><ele>1021.0</ele><time>2026-04-06T12:36:09.999Z</time></trkpt><trkpt lat="45.81962132061933" lon="7.99228738995585"><ele>1018.0</ele><time>2026-04-06T12:36:11.999Z</time></trkpt><trkpt lat="45.819631824122965" lon="7.9921528289260415"><ele>1015.0</ele><time>2026-04-06T12:36:13.999Z</time></trkpt><trkpt lat="45.81964080049951" lon="7.992019033587434"><ele>1012.0</ele><time>2026-04-06T12:36:15.999Z</time></trkpt><trkpt lat="45.8196577122113" lon="7.991885329532654"><ele>1012.0</ele><time>2026-04-06T12:36:17.999Z</time></trkpt><trkpt lat="45.8196767454801" lon="7.991753837028678"><ele>1012.0</ele><time>2026-04-06T12:36:19.999Z</time></trkpt><trkpt lat="45.81970111592865" lon="7.99161840909073"><ele>1012.0</ele><time>2026-04-06T12:36:21.999Z</time></trkpt><trkpt lat="45.81973357163485" lon="7.991484739362762"><ele>1012.0</ele><time>2026-04-06T12:36:23.999Z</time></trkpt><trkpt lat="45.8197800997395" lon="7.991367674503924"><ele>1012.0</ele><time>2026-04-06T12:36:25.999Z</time></trkpt><trkpt lat="45.81982519251936" lon="7.991258086319117"><ele>1011.4000000000001</ele><time>2026-04-06T12:36:28Z</time></trkpt><trkpt lat="45.81986283073876" lon="7.9911389709189775"><ele>1010.8000000000001</ele><time>2026-04-06T12:36:30Z</time></trkpt><trkpt lat="45.81988159981556" lon="7.991007575830994"><ele>1010.2</ele><time>2026-04-06T12:36:32Z</time></trkpt><trkpt lat="45.81989063777463" lon="7.990872966542931"><ele>1009.6</ele><time>2026-04-06T12:36:34Z</time></trkpt><trkpt lat="45.819893967397" lon="7.9907384241562"><ele>1009.0</ele><time>2026-04-06T12:36:36Z</time></trkpt><trkpt lat="45.81988297966453" lon="7.990602986177543"><ele>1008.6</ele><time>2026-04-06T12:36:38Z</time></trkpt><trkpt lat="45.819872421337166" lon="7.990463443707421"><ele>1008.2</ele><time>2026-04-06T12:36:40Z</time></trkpt><trkpt lat="45.819872120959644" lon="7.990320543481349"><ele>1007.8000000000001</ele><time>2026-04-06T12:36:42Z</time></trkpt><trkpt lat="45.81988042654762" lon="7.99018214398639"><ele>1007.4000000000001</ele><time>2026-04-06T12:36:44Z</time></trkpt><trkpt lat="45.819906216231956" lon="7.9900465833395655"><ele>1007.0</ele><time>2026-04-06T12:36:46Z</time></trkpt><trkpt lat="45.81994691345175" lon="7.989924077523555"><ele>1005.8</ele><time>2026-04-06T12:36:48Z</time></trkpt><trkpt lat="45.820000260449945" lon="7.989813830494283"><ele>1004.6</ele><time>2026-04-06T12:36:50Z</time></trkpt><trkpt lat="45.82005522790577" lon="7.989707095632068"><ele>1003.3999999999999</ele><time>2026-04-06T12:36:52Z</time></trkpt><trkpt lat="45.820108710109444" lon="7.9895968635279715"><ele>1002.1999999999999</ele><time>2026-04-06T12:36:54Z</time></trkpt><trkpt lat="45.820159203068556" lon="7.989484920566383"><ele>1001.0</ele><time>2026-04-06T12:36:56Z</time></trkpt><trkpt lat="45.82019652674099" lon="7.989367718817636"><ele>1005.4</ele><time>2026-04-06T12:36:58Z</time></trkpt><trkpt lat="45.82022917785012" lon="7.989249355893217"><ele>1009.8</ele><time>2026-04-06T12:37:00Z</time></trkpt><trkpt lat="45.82024184442272" lon="7.989121087108677"><ele>1014.1999999999999</ele><time>2026-04-06T12:37:02Z</time></trkpt><trkpt lat="45.82025168612607" lon="7.988991363886397"><ele>1018.5999999999999</ele><time>2026-04-06T12:37:04Z</time></trkpt><trkpt lat="45.82026134552088" lon="7.9888637951831845"><ele>1023.0</ele><time>2026-04-06T12:37:06Z</time></trkpt><trkpt lat="45.820263794101116" lon="7.988733834897414"><ele>1023.0</ele><time>2026-04-06T12:37:07.999Z</time></trkpt><trkpt lat="45.820269658205376" lon="7.988605926392887"><ele>1023.0</ele><time>2026-04-06T12:37:09.999Z</time></trkpt><trkpt lat="45.82027746015866" lon="7.988474507583573"><ele>1023.0</ele><time>2026-04-06T12:37:11.999Z</time></trkpt><trkpt lat="45.82028240191855" lon="7.988345672282974"><ele>1023.0</ele><time>2026-04-06T12:37:13.999Z</time></trkpt><trkpt lat="45.82029158786502" lon="7.988209051044996"><ele>1023.0</ele><time>2026-04-06T12:37:15.999Z</time></trkpt><trkpt lat="45.82030090472481" lon="7.988067000472196"><ele>1021.8</ele><time>2026-04-06T12:37:17.999Z</time></trkpt><trkpt lat="45.82030569097941" lon="7.9879194081110985"><ele>1020.5999999999999</ele><time>2026-04-06T12:37:19.999Z</time></trkpt><trkpt lat="45.82031207313508" lon="7.987766566508102"><ele>1019.4000000000001</ele><time>2026-04-06T12:37:21.999Z</time></trkpt><trkpt lat="45.820318716428694" lon="7.987612169618394"><ele>1018.2</ele><time>2026-04-06T12:37:23.999Z</time></trkpt><trkpt lat="45.82033007270064" lon="7.987458994051119"><ele>1017.0</ele><time>2026-04-06T12:37:25.999Z</time></trkpt><trkpt lat="45.820351937173704" lon="7.987306823400445"><ele>1016.6</ele><time>2026-04-06T12:37:27.999Z</time></trkpt><trkpt lat="45.8203825603668" lon="7.987177211007176"><ele>1016.2</ele><time>2026-04-06T12:37:29.999Z</time></trkpt><trkpt lat="45.820415751655545" lon="7.987061864262594"><ele>1015.8</ele><time>2026-04-06T12:37:31.999Z</time></trkpt><trkpt lat="45.82046282347271" lon="7.986935677273269"><ele>1015.4</ele><time>2026-04-06T12:37:33.999Z</time></trkpt><trkpt lat="45.82050978871184" lon="7.986801757915851"><ele>1015.0</ele><time>2026-04-06T12:37:35.999Z</time></trkpt><trkpt lat="45.8205627488092" lon="7.986670711877995"><ele>1014.4</ele><time>2026-04-06T12:37:37.999Z</time></trkpt><trkpt lat="45.82061229632809" lon="7.986533265192301"><ele>1013.8</ele><time>2026-04-06T12:37:39.999Z</time></trkpt><trkpt lat="45.82066074797422" lon="7.986398135055915"><ele>1013.2</ele><time>2026-04-06T12:37:41.999Z</time></trkpt><trkpt lat="45.820712390072565" lon="7.9862642614121215"><ele>1012.6</ele><time>2026-04-06T12:37:43.999Z</time></trkpt><trkpt lat="45.82076087991631" lon="7.986133701903442"><ele>1012.0</ele><time>2026-04-06T12:37:45.999Z</time></trkpt><trkpt lat="45.82081151063768" lon="7.98600976313982"><ele>1012.0</ele><time>2026-04-06T12:37:47.999Z</time></trkpt><trkpt lat="45.820857007584266" lon="7.985883608935192"><ele>1012.0</ele><time>2026-04-06T12:37:49.999Z</time></trkpt><trkpt lat="45.82090061006206" lon="7.9857547473155295"><ele>1012.0</ele><time>2026-04-06T12:37:51.999Z</time></trkpt><trkpt lat="45.82093759404114" lon="7.98562744360772"><ele>1012.0</ele><time>2026-04-06T12:37:53.999Z</time></trkpt><trkpt lat="45.820965632171685" lon="7.985497373581835"><ele>1012.0</ele><time>2026-04-06T12:37:55.999Z</time></trkpt><trkpt lat="45.82099304034029" lon="7.985365049846186"><ele>1018.2</ele><time>2026-04-06T12:37:57.999Z</time></trkpt><trkpt lat="45.82101299939229" lon="7.985230682751677"><ele>1024.4</ele><time>2026-04-06T12:37:59.999Z</time></trkpt><trkpt lat="45.82103053376074" lon="7.985094691117345"><ele>1030.6</ele><time>2026-04-06T12:38:01.999Z</time></trkpt><trkpt lat="45.82105113079344" lon="7.984958401007724"><ele>1036.8</ele><time>2026-04-06T12:38:03.999Z</time></trkpt><trkpt lat="45.82107128424005" lon="7.984826965921948"><ele>1043.0</ele><time>2026-04-06T12:38:05.999Z</time></trkpt><trkpt lat="45.82109416250213" lon="7.984693027277284"><ele>1043.0</ele><time>2026-04-06T12:38:07.999Z</time></trkpt><trkpt lat="45.82111253690911" lon="7.984555742777428"><ele>1043.0</ele><time>2026-04-06T12:38:09.999Z</time></trkpt><trkpt lat="45.82112942560485" lon="7.984428690033784"><ele>1043.0</ele><time>2026-04-06T12:38:11.999Z</time></trkpt><trkpt lat="45.82115526051614" lon="7.984293063642048"><ele>1043.0</ele><time>2026-04-06T12:38:13.999Z</time></trkpt><trkpt lat="45.82118194894891" lon="7.984164059533674"><ele>1043.0</ele><time>2026-04-06T12:38:15.999Z</time></trkpt><trkpt lat="45.821199425812814" lon="7.984047500868213"><ele>1042.1666666666667</ele><time>2026-04-06T12:38:17.999Z</time></trkpt><trkpt lat="45.821204005456764" lon="7.983938547748407"><ele>1041.3333333333335</ele><time>2026-04-06T12:38:19.999Z</time></trkpt><trkpt lat="45.82123923626466" lon="7.983810772433166"><ele>1040.5</ele><time>2026-04-06T12:38:22.999Z</time></trkpt><trkpt lat="45.82126194549324" lon="7.98371061967253"><ele>1039.6666666666667</ele><time>2026-04-06T12:38:24.999Z</time></trkpt><trkpt lat="45.82128551366844" lon="7.983606678715004"><ele>1038.8333333333333</ele><time>2026-04-06T12:38:26.999Z</time></trkpt><trkpt lat="45.8213099290313" lon="7.983499001515307"><ele>1038.0</ele><time>2026-04-06T12:38:28.999Z</time></trkpt><trkpt lat="45.82133447660527" lon="7.983390741192833"><ele>1036.5714285714284</ele><time>2026-04-06T12:38:30.999Z</time></trkpt><trkpt lat="45.8213560099709" lon="7.983295774229467"><ele>1035.142857142857</ele><time>2026-04-06T12:38:32.999Z</time></trkpt><trkpt lat="45.821392997186955" lon="7.983211014529573"><ele>1033.7142857142858</ele><time>2026-04-06T12:39:44.999Z</time></trkpt><trkpt lat="45.821418066191995" lon="7.983102599328772"><ele>1032.2857142857142</ele><time>2026-04-06T12:39:47.999Z</time></trkpt><trkpt lat="45.8214398637406" lon="7.982996685406296"><ele>1030.857142857143</ele><time>2026-04-06T12:39:51.999Z</time></trkpt><trkpt lat="45.821466165523304" lon="7.982890395512843"><ele>1029.4285714285713</ele><time>2026-04-06T12:39:56.999Z</time></trkpt><trkpt lat="45.82148703269959" lon="7.982792611270023"><ele>1028.0</ele><time>2026-04-06T12:40:01.999Z</time></trkpt><trkpt lat="45.82150933257086" lon="7.982689643068943"><ele>1028.0</ele><time>2026-04-06T12:40:06.999Z</time></trkpt><trkpt lat="45.82152853233749" lon="7.982597206550682"><ele>1028.0</ele><time>2026-04-06T12:40:12.999Z</time></trkpt><trkpt lat="45.8215613112833" lon="7.982512221653738"><ele>1028.0</ele><time>2026-04-06T12:40:21.999Z</time></trkpt><trkpt lat="45.82159067867493" lon="7.982427968464768"><ele>1028.0</ele><time>2026-04-06T12:40:29.999Z</time></trkpt><trkpt lat="45.82247886136959" lon="7.980603146129997"><ele>1080.0</ele><time>2026-04-06T12:40:46.558Z</time></trkpt><trkpt lat="45.82288346614891" lon="7.98022605950633"><ele>1080.0</ele><time>2026-04-06T12:41:32Z</time></trkpt><trkpt lat="45.82289066429405" lon="7.980134845493469"><ele>1080.0</ele><time>2026-04-06T12:43:08Z</time></trkpt><trkpt lat="45.822935489342605" lon="7.980056509728811"><ele>1080.0</ele><time>2026-04-06T12:43:11Z</time></trkpt><trkpt lat="45.822992396719705" lon="7.9799708223531916"><ele>1080.0</ele><time>2026-04-06T12:43:13Z</time></trkpt><trkpt lat="45.823042318673714" lon="7.979866640276692"><ele>1080.0</ele><time>2026-04-06T12:43:15Z</time></trkpt><trkpt lat="45.82309416402705" lon="7.979751608318946"><ele>1080.0</ele><time>2026-04-06T12:43:17Z</time></trkpt><trkpt lat="45.82313993451668" lon="7.979631401025953"><ele>1073.6</ele><time>2026-04-06T12:43:19Z</time></trkpt><trkpt lat="45.82317795382875" lon="7.979506276659373"><ele>1067.2</ele><time>2026-04-06T12:43:21Z</time></trkpt><trkpt lat="45.82320564600497" lon="7.9793797333917755"><ele>1060.8</ele><time>2026-04-06T12:43:23Z</time></trkpt><trkpt lat="45.823232656744956" lon="7.9792569861332"><ele>1054.4</ele><time>2026-04-06T12:43:25Z</time></trkpt><trkpt lat="45.82324899139493" lon="7.979129735767444"><ele>1048.0</ele><time>2026-04-06T12:43:27Z</time></trkpt><trkpt lat="45.8232641509069" lon="7.979007843062053"><ele>1043.8333333333333</ele><time>2026-04-06T12:43:29Z</time></trkpt><trkpt lat="45.82327167248697" lon="7.978887916715"><ele>1039.6666666666665</ele><time>2026-04-06T12:43:31Z</time></trkpt><trkpt lat="45.82327595228643" lon="7.978773155787039"><ele>1035.5</ele><time>2026-04-06T12:43:33Z</time></trkpt><trkpt lat="45.82327873800952" lon="7.978652952301086"><ele>1031.3333333333333</ele><time>2026-04-06T12:43:35Z</time></trkpt><trkpt lat="45.82328669713099" lon="7.978529189512825"><ele>1027.1666666666667</ele><time>2026-04-06T12:43:37Z</time></trkpt><trkpt lat="45.823304731614684" lon="7.978412737885552"><ele>1023.0</ele><time>2026-04-06T12:43:39Z</time></trkpt><trkpt lat="45.82331996186306" lon="7.978313261292587"><ele>1023.0</ele><time>2026-04-06T12:43:41Z</time></trkpt><trkpt lat="45.82334437205618" lon="7.9781975241407235"><ele>1023.0</ele><time>2026-04-06T12:43:44Z</time></trkpt><trkpt lat="45.82336987766469" lon="7.978109609651317"><ele>1023.0</ele><time>2026-04-06T12:43:48Z</time></trkpt><trkpt lat="45.82340195338286" lon="7.978193870996289"><ele>1023.0</ele><time>2026-04-06T12:44:23Z</time></trkpt><trkpt lat="45.82337655652154" lon="7.978314188585646"><ele>1023.0</ele><time>2026-04-06T12:44:28.999Z</time></trkpt><trkpt lat="45.823356483918865" lon="7.978432595329856"><ele>1023.0</ele><time>2026-04-06T12:44:32.999Z</time></trkpt><trkpt lat="45.82334718789719" lon="7.978523833469641"><ele>1023.0</ele><time>2026-04-06T12:44:33.999Z</time></trkpt><trkpt lat="45.82333792588465" lon="7.9786678845443255"><ele>1023.0</ele><time>2026-04-06T12:44:35.999Z</time></trkpt><trkpt lat="45.82332887297437" lon="7.978824771321666"><ele>1023.0</ele><time>2026-04-06T12:44:37.999Z</time></trkpt><trkpt lat="45.823321895756315" lon="7.978966641619059"><ele>1023.0</ele><time>2026-04-06T12:44:39.999Z</time></trkpt><trkpt lat="45.82331501876555" lon="7.979069616221171"><ele>1023.0</ele><time>2026-04-06T12:44:41.999Z</time></trkpt><trkpt lat="45.823774334021756" lon="7.979131475218173"><ele>1028.8333333333333</ele><time>2026-04-06T12:44:42.999Z</time></trkpt><trkpt lat="45.82383783952912" lon="7.979087330563502"><ele>1034.6666666666667</ele><time>2026-04-06T12:44:44.999Z</time></trkpt><trkpt lat="45.82389006809779" lon="7.978978789345548"><ele>1040.5</ele><time>2026-04-06T12:44:46.999Z</time></trkpt><trkpt lat="45.82391180949064" lon="7.978855191052613"><ele>1046.3333333333335</ele><time>2026-04-06T12:44:48.999Z</time></trkpt><trkpt lat="45.823938511627695" lon="7.978744755581073"><ele>1052.1666666666667</ele><time>2026-04-06T12:44:50.999Z</time></trkpt><trkpt lat="45.82397907382081" lon="7.978632089590525"><ele>1058.0</ele><time>2026-04-06T12:44:52.999Z</time></trkpt><trkpt lat="45.82403280828913" lon="7.978500661547855"><ele>1058.0</ele><time>2026-04-06T12:44:54.999Z</time></trkpt><trkpt lat="45.82408473448908" lon="7.978385599658239"><ele>1058.0</ele><time>2026-04-06T12:44:56.999Z</time></trkpt><trkpt lat="45.824128126835184" lon="7.9782761120425585"><ele>1058.0</ele><time>2026-04-06T12:44:58.999Z</time></trkpt><trkpt lat="45.82415092891945" lon="7.978148375530593"><ele>1058.0</ele><time>2026-04-06T12:45:00.999Z</time></trkpt><trkpt lat="45.824152490853294" lon="7.97804129499313"><ele>1058.0</ele><time>2026-04-06T12:45:02.999Z</time></trkpt><trkpt lat="45.82418786744855" lon="7.9779183127433955"><ele>1058.0</ele><time>2026-04-06T12:45:05Z</time></trkpt><trkpt lat="45.824223282233724" lon="7.977826097225251"><ele>1057.3333333333335</ele><time>2026-04-06T12:45:07Z</time></trkpt><trkpt lat="45.82426472782266" lon="7.9777132195995115"><ele>1056.6666666666667</ele><time>2026-04-06T12:45:10Z</time></trkpt><trkpt lat="45.824307826726574" lon="7.977612206858271"><ele>1056.0</ele><time>2026-04-06T12:45:13Z</time></trkpt><trkpt lat="45.82435410158134" lon="7.977508010821899"><ele>1055.3333333333333</ele><time>2026-04-06T12:45:16Z</time></trkpt><trkpt lat="45.82440364187912" lon="7.9774219523576"><ele>1054.6666666666665</ele><time>2026-04-06T12:45:19Z</time></trkpt><trkpt lat="45.82446977940491" lon="7.97742081122125"><ele>1054.0</ele><time>2026-04-06T12:45:22Z</time></trkpt><trkpt lat="45.82450285722848" lon="7.97734270818545"><ele>1054.0</ele><time>2026-04-06T12:45:24Z</time></trkpt><trkpt lat="45.824518178920805" lon="7.977236574754309"><ele>1054.0</ele><time>2026-04-06T12:45:26Z</time></trkpt><trkpt lat="45.82456192323253" lon="7.977127152424472"><ele>1054.0</ele><time>2026-04-06T12:45:29Z</time></trkpt><trkpt lat="45.82459529824725" lon="7.977009170890485"><ele>1054.0</ele><time>2026-04-06T12:45:32Z</time></trkpt><trkpt lat="45.82463858399646" lon="7.976893190284646"><ele>1054.0</ele><time>2026-04-06T12:45:35Z</time></trkpt><trkpt lat="45.82466047806057" lon="7.9767783214641685"><ele>1054.0</ele><time>2026-04-06T12:45:38Z</time></trkpt><trkpt lat="45.82468556197752" lon="7.976692876954138"><ele>1053.0</ele><time>2026-04-06T12:45:40Z</time></trkpt><trkpt lat="45.8247132176538" lon="7.9765749984753676"><ele>1052.0</ele><time>2026-04-06T12:45:43Z</time></trkpt><trkpt lat="45.824727242141655" lon="7.97647407999738"><ele>1051.0</ele><time>2026-04-06T12:45:45Z</time></trkpt><trkpt lat="45.82474548447798" lon="7.976359141379251"><ele>1050.0</ele><time>2026-04-06T12:45:48Z</time></trkpt><trkpt lat="45.82476965620223" lon="7.976257492969049"><ele>1049.0</ele><time>2026-04-06T12:45:51Z</time></trkpt><trkpt lat="45.8247873453036" lon="7.976143730663735"><ele>1048.0</ele><time>2026-04-06T12:45:54Z</time></trkpt><trkpt lat="45.82480612217764" lon="7.976028504669845"><ele>1048.0</ele><time>2026-04-06T12:45:57Z</time></trkpt><trkpt lat="45.82482032422827" lon="7.975922243148478"><ele>1048.0</ele><time>2026-04-06T12:46:00Z</time></trkpt><trkpt lat="45.824837886784465" lon="7.975813543700662"><ele>1048.0</ele><time>2026-04-06T12:46:03Z</time></trkpt><trkpt lat="45.824849558213096" lon="7.975716422181212"><ele>1048.0</ele><time>2026-04-06T12:46:06Z</time></trkpt><trkpt lat="45.82486412335952" lon="7.975574267342825"><ele>1048.0</ele><time>2026-04-06T12:46:09Z</time></trkpt><trkpt lat="45.82487925177631" lon="7.975443894594322"><ele>1048.0</ele><time>2026-04-06T12:46:11Z</time></trkpt><trkpt lat="45.82489941817149" lon="7.975317577567801"><ele>1046.857142857143</ele><time>2026-04-06T12:46:13Z</time></trkpt><trkpt lat="45.824920075058216" lon="7.975203266288979"><ele>1045.7142857142858</ele><time>2026-04-06T12:46:15Z</time></trkpt><trkpt lat="45.82493536073442" lon="7.975110663163299"><ele>1044.5714285714287</ele><time>2026-04-06T12:46:17Z</time></trkpt><trkpt lat="45.824954338494585" lon="7.975005651425637"><ele>1043.4285714285716</ele><time>2026-04-06T12:46:19Z</time></trkpt><trkpt lat="45.82497371285516" lon="7.974913269018296"><ele>1042.2857142857142</ele><time>2026-04-06T12:46:21Z</time></trkpt><trkpt lat="45.825028464403154" lon="7.974857499870532"><ele>1041.1428571428573</ele><time>2026-04-06T12:46:24Z</time></trkpt><trkpt lat="45.82506021228189" lon="7.974737267193782"><ele>1040.0</ele><time>2026-04-06T12:46:27Z</time></trkpt><trkpt lat="45.82508396505982" lon="7.974615537875992"><ele>1039.5</ele><time>2026-04-06T12:46:30Z</time></trkpt><trkpt lat="45.82505076792851" lon="7.9745254349632235"><ele>1039.0</ele><time>2026-04-06T12:46:32Z</time></trkpt><trkpt lat="45.82505629311566" lon="7.974415850194663"><ele>1038.5</ele><time>2026-04-06T12:46:34Z</time></trkpt><trkpt lat="45.82505055133722" lon="7.974280674559637"><ele>1038.0</ele><time>2026-04-06T12:46:36Z</time></trkpt><trkpt lat="45.82506332191828" lon="7.97413812950994"><ele>1037.5</ele><time>2026-04-06T12:46:38Z</time></trkpt><trkpt lat="45.825139920957966" lon="7.974069821751822"><ele>1037.0</ele><time>2026-04-06T12:46:40Z</time></trkpt><trkpt lat="45.82519911428637" lon="7.9740086812731805"><ele>1038.8333333333335</ele><time>2026-04-06T12:46:42Z</time></trkpt><trkpt lat="45.825281547159776" lon="7.973962074483098"><ele>1040.6666666666667</ele><time>2026-04-06T12:46:45Z</time></trkpt><trkpt lat="45.825363337376416" lon="7.973936274432974"><ele>1042.5</ele><time>2026-04-06T12:46:48Z</time></trkpt><trkpt lat="45.82542984388327" lon="7.973858054295821"><ele>1044.3333333333333</ele><time>2026-04-06T12:46:51Z</time></trkpt><trkpt lat="45.82549848581218" lon="7.973795921282912"><ele>1046.1666666666665</ele><time>2026-04-06T12:46:54Z</time></trkpt><trkpt lat="45.82556484715242" lon="7.973702991410189"><ele>1048.0</ele><time>2026-04-06T12:46:57Z</time></trkpt><trkpt lat="45.82560753104534" lon="7.973635077679422"><ele>1048.0</ele><time>2026-04-06T12:46:59Z</time></trkpt><trkpt lat="45.82566247090999" lon="7.973548777934005"><ele>1048.0</ele><time>2026-04-06T12:47:01Z</time></trkpt><trkpt lat="45.82570788007238" lon="7.973466266818111"><ele>1048.0</ele><time>2026-04-06T12:47:03Z</time></trkpt><trkpt lat="45.825735493783775" lon="7.9733763409540614"><ele>1048.0</ele><time>2026-04-06T12:47:05Z</time></trkpt><trkpt lat="45.82576839653508" lon="7.973288445072954"><ele>1048.0</ele><time>2026-04-06T12:47:07Z</time></trkpt><trkpt lat="45.825798633982544" lon="7.973194618540896"><ele>1048.0</ele><time>2026-04-06T12:47:09Z</time></trkpt><trkpt lat="45.82583667505752" lon="7.973098167077599"><ele>1048.0</ele><time>2026-04-06T12:47:11Z</time></trkpt><trkpt lat="45.82588111541244" lon="7.973006579878067"><ele>1047.5</ele><time>2026-04-06T12:47:13Z</time></trkpt><trkpt lat="45.82594704385107" lon="7.972930663958675"><ele>1047.0</ele><time>2026-04-06T12:47:15Z</time></trkpt><trkpt lat="45.826009722396364" lon="7.972840268986764"><ele>1046.5</ele><time>2026-04-06T12:47:17Z</time></trkpt><trkpt lat="45.82606687480814" lon="7.9727381597430025"><ele>1046.0</ele><time>2026-04-06T12:47:19Z</time></trkpt><trkpt lat="45.8261046206594" lon="7.972636948209906"><ele>1045.5</ele><time>2026-04-06T12:47:21Z</time></trkpt><trkpt lat="45.82607257796302" lon="7.972507031266218"><ele>1045.0</ele><time>2026-04-06T12:47:23Z</time></trkpt><trkpt lat="45.826001214639085" lon="7.972516463524139"><ele>1044.3333333333333</ele><time>2026-04-06T12:47:24Z</time></trkpt><trkpt lat="45.82597056935305" lon="7.972428221682648"><ele>1043.6666666666667</ele><time>2026-04-06T12:47:27Z</time></trkpt><trkpt lat="45.826227835099466" lon="7.972192845044403"><ele>1043.0</ele><time>2026-04-06T12:47:30Z</time></trkpt><trkpt lat="45.82631367503717" lon="7.9721384671992945"><ele>1046.142857142857</ele><time>2026-04-06T12:47:33Z</time></trkpt><trkpt lat="45.8263799557149" lon="7.9721506606151635"><ele>1049.2857142857142</ele><time>2026-04-06T12:47:35Z</time></trkpt><trkpt lat="45.82642163262841" lon="7.972225831922952"><ele>1052.4285714285716</ele><time>2026-04-06T12:47:37Z</time></trkpt><trkpt lat="45.826484092457235" lon="7.972290447943242"><ele>1055.5714285714284</ele><time>2026-04-06T12:47:40Z</time></trkpt><trkpt lat="45.82655875075908" lon="7.97225473032358"><ele>1058.7142857142858</ele><time>2026-04-06T12:47:43Z</time></trkpt><trkpt lat="45.826628563851045" lon="7.972187695196773"><ele>1061.857142857143</ele><time>2026-04-06T12:47:46Z</time></trkpt><trkpt lat="45.826682556528056" lon="7.9721254363787315"><ele>1065.0</ele><time>2026-04-06T12:47:49Z</time></trkpt><trkpt lat="45.826716402439416" lon="7.972043537376033"><ele>1065.0</ele><time>2026-04-06T12:47:52Z</time></trkpt><trkpt lat="45.826762168524766" lon="7.97197532197375"><ele>1065.0</ele><time>2026-04-06T12:47:55Z</time></trkpt><trkpt lat="45.82681292779881" lon="7.971896006202946"><ele>1065.0</ele><time>2026-04-06T12:47:58Z</time></trkpt><trkpt lat="45.82686620132032" lon="7.971819389801308"><ele>1065.0</ele><time>2026-04-06T12:48:01Z</time></trkpt><trkpt lat="45.82690994151758" lon="7.971748169912445"><ele>1065.0</ele><time>2026-04-06T12:48:04Z</time></trkpt><trkpt lat="45.8269784922932" lon="7.97170685545976"><ele>1065.0</ele><time>2026-04-06T12:48:07Z</time></trkpt><trkpt lat="45.82705549751351" lon="7.971661194290825"><ele>1065.0</ele><time>2026-04-06T12:48:11Z</time></trkpt><trkpt lat="45.82711586886723" lon="7.9715763561644355"><ele>1066.3333333333333</ele><time>2026-04-06T12:48:15Z</time></trkpt><trkpt lat="45.82714216732842" lon="7.971480131480711"><ele>1067.6666666666667</ele><time>2026-04-06T12:48:18Z</time></trkpt><trkpt lat="45.827161480307325" lon="7.971379934201098"><ele>1069.0</ele><time>2026-04-06T12:48:21Z</time></trkpt><trkpt lat="45.82718662378959" lon="7.971272166266002"><ele>1070.3333333333335</ele><time>2026-04-06T12:48:26Z</time></trkpt><trkpt lat="45.82721249066258" lon="7.971170244104927"><ele>1071.6666666666667</ele><time>2026-04-06T12:48:28Z</time></trkpt><trkpt lat="45.827258483753035" lon="7.9710026086963195"><ele>1073.0</ele><time>2026-04-06T12:48:30Z</time></trkpt><trkpt lat="45.827294844112345" lon="7.970828158079943"><ele>1073.0</ele><time>2026-04-06T12:48:32Z</time></trkpt><trkpt lat="45.82731487340211" lon="7.970670080141718"><ele>1073.0</ele><time>2026-04-06T12:48:34Z</time></trkpt><trkpt lat="45.8273214127525" lon="7.970571653532406"><ele>1073.0</ele><time>2026-04-06T12:48:35Z</time></trkpt><trkpt lat="45.82735395509568" lon="7.970478534920474"><ele>1073.0</ele><time>2026-04-06T12:48:36Z</time></trkpt><trkpt lat="45.82737553850742" lon="7.970330678234226"><ele>1073.0</ele><time>2026-04-06T12:48:38Z</time></trkpt><trkpt lat="45.8274029043037" lon="7.970246051035355"><ele>1073.0</ele><time>2026-04-06T12:48:39Z</time></trkpt><trkpt lat="45.82744797442618" lon="7.970078940428778"><ele>1070.0</ele><time>2026-04-06T12:48:41Z</time></trkpt><trkpt lat="45.82751817752165" lon="7.9699535060735816"><ele>1067.0</ele><time>2026-04-06T12:48:43Z</time></trkpt><trkpt lat="45.82755779938101" lon="7.9698740489104525"><ele>1064.0</ele><time>2026-04-06T12:48:44Z</time></trkpt><trkpt lat="45.82762215492514" lon="7.969779820201956"><ele>1061.0</ele><time>2026-04-06T12:48:46Z</time></trkpt><trkpt lat="45.82767297412255" lon="7.969681991873417"><ele>1058.0</ele><time>2026-04-06T12:48:49Z</time></trkpt><trkpt lat="45.82771722927682" lon="7.969616890072335"><ele>1055.0</ele><time>2026-04-06T12:48:51Z</time></trkpt><trkpt lat="45.827756856450414" lon="7.969536123854629"><ele>1058.8333333333335</ele><time>2026-04-06T12:48:53Z</time></trkpt><trkpt lat="45.827803900832436" lon="7.969471585747521"><ele>1062.6666666666667</ele><time>2026-04-06T12:48:56Z</time></trkpt><trkpt lat="45.82784261445882" lon="7.969391473696893"><ele>1066.5</ele><time>2026-04-06T12:48:58Z</time></trkpt><trkpt lat="45.827901895302865" lon="7.969316928898505"><ele>1070.3333333333333</ele><time>2026-04-06T12:49:01Z</time></trkpt><trkpt lat="45.82795862280157" lon="7.969206901287162"><ele>1074.1666666666665</ele><time>2026-04-06T12:49:04Z</time></trkpt><trkpt lat="45.82801859032617" lon="7.969096084630441"><ele>1078.0</ele><time>2026-04-06T12:49:07Z</time></trkpt><trkpt lat="45.82806320153978" lon="7.969017070916943"><ele>1078.0</ele><time>2026-04-06T12:49:09Z</time></trkpt><trkpt lat="45.82811150981232" lon="7.968941508240414"><ele>1078.0</ele><time>2026-04-06T12:49:12Z</time></trkpt><trkpt lat="45.82816448498949" lon="7.968832782928819"><ele>1078.0</ele><time>2026-04-06T12:49:16Z</time></trkpt><trkpt lat="45.828210024829126" lon="7.968723104819782"><ele>1078.0</ele><time>2026-04-06T12:49:19Z</time></trkpt><trkpt lat="45.828258512515525" lon="7.968637354918768"><ele>1078.0</ele><time>2026-04-06T12:49:21Z</time></trkpt><trkpt lat="45.828329181798544" lon="7.968496606081576"><ele>1078.0</ele><time>2026-04-06T12:49:23Z</time></trkpt><trkpt lat="45.828374116657265" lon="7.968431070913417"><ele>1078.0</ele><time>2026-04-06T12:49:24Z</time></trkpt><trkpt lat="45.82843856706076" lon="7.968337730764728"><ele>1078.0</ele><time>2026-04-06T12:49:26Z</time></trkpt><trkpt lat="45.82849685276883" lon="7.96826564741345"><ele>1078.0</ele><time>2026-04-06T12:49:29Z</time></trkpt><trkpt lat="45.82854704735525" lon="7.968189158928388"><ele>1078.0</ele><time>2026-04-06T12:49:32Z</time></trkpt><trkpt lat="45.828587954047364" lon="7.968115153734409"><ele>1078.0</ele><time>2026-04-06T12:49:35Z</time></trkpt><trkpt lat="45.82863083604974" lon="7.968027448650744"><ele>1078.0</ele><time>2026-04-06T12:49:39Z</time></trkpt><trkpt lat="45.82866230472344" lon="7.967944084164573"><ele>1075.8333333333333</ele><time>2026-04-06T12:50:09Z</time></trkpt><trkpt lat="45.82870632711675" lon="7.967853738348086"><ele>1073.6666666666665</ele><time>2026-04-06T12:50:20Z</time></trkpt><trkpt lat="45.828762388369306" lon="7.967771601148271"><ele>1071.5</ele><time>2026-04-06T12:50:24Z</time></trkpt><trkpt lat="45.828809494855754" lon="7.967678435929205"><ele>1069.3333333333333</ele><time>2026-04-06T12:50:28Z</time></trkpt><trkpt lat="45.8288587047953" lon="7.967608121727723"><ele>1067.1666666666667</ele><time>2026-04-06T12:50:31Z</time></trkpt><trkpt lat="45.82889607893775" lon="7.967503042047971"><ele>1065.0</ele><time>2026-04-06T12:50:34Z</time></trkpt><trkpt lat="45.82895984966827" lon="7.967422423918035"><ele>1065.0</ele><time>2026-04-06T12:50:37Z</time></trkpt><trkpt lat="45.829009150279106" lon="7.967342639612588"><ele>1065.0</ele><time>2026-04-06T12:50:40Z</time></trkpt><trkpt lat="45.82905706062732" lon="7.967253986686161"><ele>1065.0</ele><time>2026-04-06T12:50:43Z</time></trkpt><trkpt lat="45.82910918519054" lon="7.967171988529902"><ele>1065.0</ele><time>2026-04-06T12:50:46Z</time></trkpt><trkpt lat="45.829163971804576" lon="7.9670979592882984"><ele>1065.0</ele><time>2026-04-06T12:50:49Z</time></trkpt><trkpt lat="45.829216966102734" lon="7.967030296628829"><ele>1065.0</ele><time>2026-04-06T12:50:51Z</time></trkpt><trkpt lat="45.82926801977964" lon="7.966957112127444"><ele>1065.0</ele><time>2026-04-06T12:50:53Z</time></trkpt><trkpt lat="45.82933107271367" lon="7.966891908935226"><ele>1066.3333333333333</ele><time>2026-04-06T12:50:55Z</time></trkpt><trkpt lat="45.82938893320312" lon="7.966842806703273"><ele>1067.6666666666667</ele><time>2026-04-06T12:50:57Z</time></trkpt><trkpt lat="45.82945926141007" lon="7.966810673693452"><ele>1069.0</ele><time>2026-04-06T12:50:59Z</time></trkpt><trkpt lat="45.82951970199311" lon="7.966767409989433"><ele>1070.3333333333335</ele><time>2026-04-06T12:51:01Z</time></trkpt><trkpt lat="45.82956673209274" lon="7.966700260284454"><ele>1071.6666666666667</ele><time>2026-04-06T12:51:03Z</time></trkpt><trkpt lat="45.82963812630543" lon="7.966610478287938"><ele>1073.0</ele><time>2026-04-06T12:51:05Z</time></trkpt><trkpt lat="45.829711761519505" lon="7.966535663971244"><ele>1073.0</ele><time>2026-04-06T12:51:07Z</time></trkpt><trkpt lat="45.82978163956487" lon="7.96648436654394"><ele>1073.0</ele><time>2026-04-06T12:51:09.001Z</time></trkpt><trkpt lat="45.82985864414848" lon="7.96640749734057"><ele>1073.0</ele><time>2026-04-06T12:51:11.001Z</time></trkpt><trkpt lat="45.82992383265983" lon="7.966317641291985"><ele>1073.0</ele><time>2026-04-06T12:51:13.001Z</time></trkpt><trkpt lat="45.829971948253046" lon="7.966255099557147"><ele>1073.0</ele><time>2026-04-06T12:51:15.001Z</time></trkpt><trkpt lat="45.83006020125296" lon="7.96618426303169"><ele>1073.0</ele><time>2026-04-06T12:51:17Z</time></trkpt><trkpt lat="45.83013908425812" lon="7.966122676115915"><ele>1074.2</ele><time>2026-04-06T12:51:19Z</time></trkpt><trkpt lat="45.83021704229031" lon="7.966038962005683"><ele>1075.4</ele><time>2026-04-06T12:51:21Z</time></trkpt><trkpt lat="45.8302686065184" lon="7.965912802215554"><ele>1076.6000000000001</ele><time>2026-04-06T12:51:23Z</time></trkpt><trkpt lat="45.83030587952851" lon="7.96578295263531"><ele>1077.8</ele><time>2026-04-06T12:51:25Z</time></trkpt><trkpt lat="45.83035391001527" lon="7.965627873933506"><ele>1079.0</ele><time>2026-04-06T12:51:27Z</time></trkpt><trkpt lat="45.830443191447756" lon="7.965563253053005"><ele>1079.0</ele><time>2026-04-06T12:51:29Z</time></trkpt><trkpt lat="45.83050481960081" lon="7.965510813262035"><ele>1079.0</ele><time>2026-04-06T12:51:31Z</time></trkpt><trkpt lat="45.83056622590852" lon="7.965451461214034"><ele>1079.0</ele><time>2026-04-06T12:51:40Z</time></trkpt><trkpt lat="45.8306339107221" lon="7.965351168133799"><ele>1079.0</ele><time>2026-04-06T12:51:43Z</time></trkpt><trkpt lat="45.83069109626264" lon="7.9652558443460695"><ele>1079.0</ele><time>2026-04-06T12:51:45Z</time></trkpt><trkpt lat="45.83074931986067" lon="7.965157610047674"><ele>1079.0</ele><time>2026-04-06T12:51:47Z</time></trkpt><trkpt lat="45.830809558035725" lon="7.965051775255756"><ele>1076.8333333333335</ele><time>2026-04-06T12:51:49Z</time></trkpt><trkpt lat="45.830871950804166" lon="7.964962033932951"><ele>1074.6666666666667</ele><time>2026-04-06T12:51:51Z</time></trkpt><trkpt lat="45.83092681433552" lon="7.964857067362793"><ele>1072.5</ele><time>2026-04-06T12:51:53Z</time></trkpt><trkpt lat="45.83094214948833" lon="7.964727117201617"><ele>1070.3333333333333</ele><time>2026-04-06T12:51:55Z</time></trkpt><trkpt lat="45.8309393262444" lon="7.964605017689941"><ele>1068.1666666666665</ele><time>2026-04-06T12:51:57Z</time></trkpt><trkpt lat="45.83094281646569" lon="7.964480981979154"><ele>1066.0</ele><time>2026-04-06T12:51:59Z</time></trkpt><trkpt lat="45.830987815478444" lon="7.9643631720932975"><ele>1068.2</ele><time>2026-04-06T12:52:01Z</time></trkpt><trkpt lat="45.831030024759286" lon="7.964242208934166"><ele>1070.3999999999999</ele><time>2026-04-06T12:52:03Z</time></trkpt><trkpt lat="45.83106370305573" lon="7.964120508415749"><ele>1072.6</ele><time>2026-04-06T12:52:05Z</time></trkpt><trkpt lat="45.83109034369045" lon="7.963994075135333"><ele>1074.8</ele><time>2026-04-06T12:52:07Z</time></trkpt><trkpt lat="45.831120383339275" lon="7.963837737351956"><ele>1077.0</ele><time>2026-04-06T12:52:09Z</time></trkpt><trkpt lat="45.83115054906706" lon="7.963721619665934"><ele>1077.0</ele><time>2026-04-06T12:52:11Z</time></trkpt><trkpt lat="45.83119682385268" lon="7.9636284363169105"><ele>1077.0</ele><time>2026-04-06T12:52:13Z</time></trkpt><trkpt lat="45.83126842998376" lon="7.9635603040145675"><ele>1077.0</ele><time>2026-04-06T12:52:15Z</time></trkpt><trkpt lat="45.83131894909131" lon="7.963489325168279"><ele>1077.0</ele><time>2026-04-06T12:52:17Z</time></trkpt><trkpt lat="45.83138138018782" lon="7.963399779229566"><ele>1077.0</ele><time>2026-04-06T12:52:20Z</time></trkpt><trkpt lat="45.831431056913516" lon="7.963338721769149"><ele>1077.0</ele><time>2026-04-06T12:52:23Z</time></trkpt><trkpt lat="45.83146927808679" lon="7.963266744215549"><ele>1075.6666666666667</ele><time>2026-04-06T12:52:28Z</time></trkpt><trkpt lat="45.831507325952074" lon="7.9631683849712385"><ele>1074.3333333333333</ele><time>2026-04-06T12:52:31Z</time></trkpt><trkpt lat="45.83154252693806" lon="7.963080190392699"><ele>1073.0</ele><time>2026-04-06T12:52:34Z</time></trkpt><trkpt lat="45.83154794655063" lon="7.962967687719383"><ele>1071.6666666666665</ele><time>2026-04-06T12:52:37Z</time></trkpt><trkpt lat="45.831576646102945" lon="7.962877565123731"><ele>1070.3333333333333</ele><time>2026-04-06T12:52:39Z</time></trkpt><trkpt lat="45.831635419836466" lon="7.962775726717224"><ele>1069.0</ele><time>2026-04-06T12:52:42Z</time></trkpt><trkpt lat="45.831669731937936" lon="7.962658887051711"><ele>1069.0</ele><time>2026-04-06T12:52:45Z</time></trkpt><trkpt lat="45.831703536901685" lon="7.962578424931257"><ele>1069.0</ele><time>2026-04-06T12:52:47Z</time></trkpt><trkpt lat="45.83174887159927" lon="7.962503387464831"><ele>1069.0</ele><time>2026-04-06T12:52:49Z</time></trkpt><trkpt lat="45.83178885081759" lon="7.9624235745979375"><ele>1069.0</ele><time>2026-04-06T12:52:51Z</time></trkpt><trkpt lat="45.83182793546423" lon="7.962339402460704"><ele>1069.0</ele><time>2026-04-06T12:52:53Z</time></trkpt><trkpt lat="45.83189339609079" lon="7.962232949459752"><ele>1069.0</ele><time>2026-04-06T12:52:56Z</time></trkpt><trkpt lat="45.83192656353433" lon="7.962153448428796"><ele>1069.0</ele><time>2026-04-06T12:52:58Z</time></trkpt><trkpt lat="45.83196647679048" lon="7.962072354995448"><ele>1068.857142857143</ele><time>2026-04-06T12:53:00Z</time></trkpt><trkpt lat="45.83201216050112" lon="7.961998122580074"><ele>1068.7142857142858</ele><time>2026-04-06T12:53:02Z</time></trkpt><trkpt lat="45.83205781951657" lon="7.961911389928438"><ele>1068.5714285714287</ele><time>2026-04-06T12:53:04Z</time></trkpt><trkpt lat="45.83210422547782" lon="7.961828113553507"><ele>1068.4285714285716</ele><time>2026-04-06T12:53:06Z</time></trkpt><trkpt lat="45.83215053936613" lon="7.9617391066684"><ele>1068.2857142857142</ele><time>2026-04-06T12:53:08Z</time></trkpt><trkpt lat="45.83218053676536" lon="7.961650663342957"><ele>1068.1428571428573</ele><time>2026-04-06T12:53:10Z</time></trkpt><trkpt lat="45.832193462778115" lon="7.961552942413414"><ele>1068.0</ele><time>2026-04-06T12:53:12Z</time></trkpt><trkpt lat="45.83222243895715" lon="7.961465967083533"><ele>1068.0000000000002</ele><time>2026-04-06T12:53:14Z</time></trkpt><trkpt lat="45.83225568948123" lon="7.961361160428861"><ele>1068.0</ele><time>2026-04-06T12:53:16.001Z</time></trkpt><trkpt lat="45.83229196870478" lon="7.961282560788872"><ele>1068.0</ele><time>2026-04-06T12:53:18.001Z</time></trkpt><trkpt lat="45.832329849990394" lon="7.961185115329448"><ele>1068.0</ele><time>2026-04-06T12:53:20.001Z</time></trkpt><trkpt lat="45.832372730518" lon="7.9611044465521"><ele>1068.0</ele><time>2026-04-06T12:53:22.001Z</time></trkpt><trkpt lat="45.83241928961507" lon="7.961017563682665"><ele>1068.0000000000002</ele><time>2026-04-06T12:53:24.001Z</time></trkpt><trkpt lat="45.83246601592727" lon="7.9609311801551295"><ele>1068.0</ele><time>2026-04-06T12:53:26Z</time></trkpt><trkpt lat="45.83249901371925" lon="7.960833671931612"><ele>1067.8333333333333</ele><time>2026-04-06T12:53:28Z</time></trkpt><trkpt lat="45.83254025813837" lon="7.9607409670997304"><ele>1067.6666666666667</ele><time>2026-04-06T12:53:30Z</time></trkpt><trkpt lat="45.83258194312711" lon="7.960651884606549"><ele>1067.5</ele><time>2026-04-06T12:53:32Z</time></trkpt><trkpt lat="45.832633856411626" lon="7.960574966340726"><ele>1067.3333333333335</ele><time>2026-04-06T12:53:34Z</time></trkpt><trkpt lat="45.83267845172611" lon="7.9604905291266315"><ele>1067.1666666666667</ele><time>2026-04-06T12:53:37Z</time></trkpt><trkpt lat="45.832736706751824" lon="7.96040061564033"><ele>1067.0</ele><time>2026-04-06T12:53:40Z</time></trkpt><trkpt lat="45.832812225992214" lon="7.960354172785856"><ele>1068.8333333333335</ele><time>2026-04-06T12:53:42Z</time></trkpt><trkpt lat="45.83289237760183" lon="7.960290450260009"><ele>1070.6666666666667</ele><time>2026-04-06T12:53:45Z</time></trkpt><trkpt lat="45.832934132912435" lon="7.960207292836812"><ele>1072.5</ele><time>2026-04-06T12:53:48Z</time></trkpt><trkpt lat="45.83299981847881" lon="7.9601367630955275"><ele>1074.3333333333333</ele><time>2026-04-06T12:53:51Z</time></trkpt><trkpt lat="45.83306616273049" lon="7.960117459034851"><ele>1076.1666666666665</ele><time>2026-04-06T12:53:55Z</time></trkpt><trkpt lat="45.83315787025346" lon="7.960093024254395"><ele>1078.0</ele><time>2026-04-06T12:54:04Z</time></trkpt><trkpt lat="45.83323589235208" lon="7.960077963188625"><ele>1077.0</ele><time>2026-04-06T12:54:07Z</time></trkpt><trkpt lat="45.83332340422204" lon="7.960028399092795"><ele>1076.0</ele><time>2026-04-06T12:54:10Z</time></trkpt><trkpt lat="45.83338907060483" lon="7.9600130653104015"><ele>1075.0</ele><time>2026-04-06T12:54:12Z</time></trkpt><trkpt lat="45.8334555110011" lon="7.959985496432017"><ele>1074.0</ele><time>2026-04-06T12:54:14Z</time></trkpt><trkpt lat="45.83354390200683" lon="7.95993311920125"><ele>1073.0</ele><time>2026-04-06T12:54:17Z</time></trkpt><trkpt lat="45.8336192380989" lon="7.959873564449446"><ele>1072.0</ele><time>2026-04-06T12:54:20Z</time></trkpt><trkpt lat="45.83371904393362" lon="7.959806978630743"><ele>1076.0</ele><time>2026-04-06T12:54:23Z</time></trkpt><trkpt lat="45.83378353176416" lon="7.959741014671931"><ele>1080.0</ele><time>2026-04-06T12:54:25Z</time></trkpt><trkpt lat="45.83383300067762" lon="7.959660366123808"><ele>1084.0</ele><time>2026-04-06T12:54:27Z</time></trkpt><trkpt lat="45.833879644764636" lon="7.959575507778406"><ele>1088.0</ele><time>2026-04-06T12:54:29Z</time></trkpt><trkpt lat="45.8339396380855" lon="7.959465126168071"><ele>1092.0</ele><time>2026-04-06T12:54:31Z</time></trkpt><trkpt lat="45.834006269655795" lon="7.959334751327358"><ele>1096.0</ele><time>2026-04-06T12:54:33Z</time></trkpt><trkpt lat="45.83406832162264" lon="7.9592122349749355"><ele>1094.3333333333333</ele><time>2026-04-06T12:54:35Z</time></trkpt><trkpt lat="45.83412650869424" lon="7.95909312827006"><ele>1092.6666666666665</ele><time>2026-04-06T12:54:37Z</time></trkpt><trkpt lat="45.83417973789712" lon="7.9590031087073525"><ele>1091.0</ele><time>2026-04-06T12:54:39Z</time></trkpt><trkpt lat="45.834229321786914" lon="7.958924097113224"><ele>1089.3333333333333</ele><time>2026-04-06T12:54:41Z</time></trkpt><trkpt lat="45.83427213416444" lon="7.9588462860164615"><ele>1087.6666666666667</ele><time>2026-04-06T12:54:43Z</time></trkpt><trkpt lat="45.83431381426454" lon="7.95876919412757"><ele>1086.0</ele><time>2026-04-06T12:54:45Z</time></trkpt><trkpt lat="45.83435420581867" lon="7.958681860687314"><ele>1088.7142857142858</ele><time>2026-04-06T12:54:47Z</time></trkpt><trkpt lat="45.83439478857426" lon="7.958592826884437"><ele>1091.4285714285713</ele><time>2026-04-06T12:54:49Z</time></trkpt><trkpt lat="45.8344347427129" lon="7.958504011951232"><ele>1094.142857142857</ele><time>2026-04-06T12:54:51Z</time></trkpt><trkpt lat="45.83448955077596" lon="7.9584214569154685"><ele>1096.857142857143</ele><time>2026-04-06T12:54:53Z</time></trkpt><trkpt lat="45.83453691198895" lon="7.958335150152561"><ele>1099.5714285714287</ele><time>2026-04-06T12:54:55Z</time></trkpt><trkpt lat="45.83457545759346" lon="7.9582432276732025"><ele>1102.2857142857142</ele><time>2026-04-06T12:54:57Z</time></trkpt><trkpt lat="45.83461335025768" lon="7.958163222734378"><ele>1105.0</ele><time>2026-04-06T12:54:59Z</time></trkpt><trkpt lat="45.83466131834996" lon="7.958078039328798"><ele>1105.0</ele><time>2026-04-06T12:55:01Z</time></trkpt><trkpt lat="45.83469624321457" lon="7.957996741667153"><ele>1105.0</ele><time>2026-04-06T12:55:03Z</time></trkpt><trkpt lat="45.83473273622324" lon="7.957901598966966"><ele>1105.0</ele><time>2026-04-06T12:55:05Z</time></trkpt><trkpt lat="45.83478049780057" lon="7.957823090822011"><ele>1105.0</ele><time>2026-04-06T12:55:07Z</time></trkpt><trkpt lat="45.83481245154274" lon="7.957740791675008"><ele>1105.0</ele><time>2026-04-06T12:55:09Z</time></trkpt><trkpt lat="45.83484389430947" lon="7.957647826167347"><ele>1105.0</ele><time>2026-04-06T12:55:11Z</time></trkpt><trkpt lat="45.83487738775673" lon="7.957557721524038"><ele>1105.0</ele><time>2026-04-06T12:55:13Z</time></trkpt><trkpt lat="45.83491145028534" lon="7.957466852450629"><ele>1102.4285714285713</ele><time>2026-04-06T12:55:15Z</time></trkpt><trkpt lat="45.834936669270725" lon="7.957369405608144"><ele>1099.857142857143</ele><time>2026-04-06T12:55:17Z</time></trkpt><trkpt lat="45.83496463048811" lon="7.957268361959049"><ele>1097.2857142857142</ele><time>2026-04-06T12:55:19Z</time></trkpt><trkpt lat="45.83498784123842" lon="7.957179758124321"><ele>1094.7142857142858</ele><time>2026-04-06T12:55:21Z</time></trkpt><trkpt lat="45.83501758610557" lon="7.9570850875337085"><ele>1092.142857142857</ele><time>2026-04-06T12:55:23Z</time></trkpt><trkpt lat="45.83501782221234" lon="7.956992076532874"><ele>1089.5714285714284</ele><time>2026-04-06T12:55:25Z</time></trkpt><trkpt lat="45.83496940276059" lon="7.956901828301187"><ele>1087.0</ele><time>2026-04-06T12:55:28Z</time></trkpt><trkpt lat="45.83491286695122" lon="7.956848514096765"><ele>1087.0</ele><time>2026-04-06T12:55:30Z</time></trkpt><trkpt lat="45.834855510262116" lon="7.956808934043369"><ele>1087.0</ele><time>2026-04-06T12:55:32Z</time></trkpt><trkpt lat="45.83478905255095" lon="7.956731120223906"><ele>1087.0</ele><time>2026-04-06T12:55:35Z</time></trkpt><trkpt lat="45.834722199393504" lon="7.956668526752201"><ele>1087.0</ele><time>2026-04-06T12:55:38Z</time></trkpt><trkpt lat="45.83465352369599" lon="7.956606476393678"><ele>1087.0</ele><time>2026-04-06T12:55:41Z</time></trkpt><trkpt lat="45.83460291726212" lon="7.956534808575768"><ele>1087.0</ele><time>2026-04-06T12:55:44Z</time></trkpt><trkpt lat="45.83453614028395" lon="7.956464694772302"><ele>1085.6666666666665</ele><time>2026-04-06T12:55:47Z</time></trkpt><trkpt lat="45.83451560303536" lon="7.9563497879179526"><ele>1084.3333333333333</ele><time>2026-04-06T12:55:50Z</time></trkpt><trkpt lat="45.83452618384925" lon="7.956238191920999"><ele>1083.0</ele><time>2026-04-06T12:55:53Z</time></trkpt><trkpt lat="45.834568392078246" lon="7.956129412843595"><ele>1081.6666666666667</ele><time>2026-04-06T12:55:56Z</time></trkpt><trkpt lat="45.83459817671045" lon="7.956020467514131"><ele>1080.3333333333335</ele><time>2026-04-06T12:55:59Z</time></trkpt><trkpt lat="45.83462301591139" lon="7.955919025443042"><ele>1079.0</ele><time>2026-04-06T12:56:02Z</time></trkpt><trkpt lat="45.834636048325905" lon="7.955816937961338"><ele>1079.0</ele><time>2026-04-06T12:56:06Z</time></trkpt><trkpt lat="45.83464685024738" lon="7.955710872103929"><ele>1079.0</ele><time>2026-04-06T12:56:09Z</time></trkpt><trkpt lat="45.83467038541687" lon="7.955601031562804"><ele>1079.0</ele><time>2026-04-06T12:56:12Z</time></trkpt><trkpt lat="45.83464233534944" lon="7.9555040798664765"><ele>1079.0</ele><time>2026-04-06T12:56:16Z</time></trkpt><trkpt lat="45.83461979372177" lon="7.955405193763649"><ele>1079.0</ele><time>2026-04-06T12:56:22Z</time></trkpt><trkpt lat="45.83460060759361" lon="7.955283419180879"><ele>1079.0</ele><time>2026-04-06T12:56:26Z</time></trkpt><trkpt lat="45.83456468786083" lon="7.955179492184132"><ele>1079.0</ele><time>2026-04-06T12:56:28Z</time></trkpt><trkpt lat="45.83457725578377" lon="7.95509070556794"><ele>1079.0</ele><time>2026-04-06T12:56:30Z</time></trkpt><trkpt lat="45.834590333830974" lon="7.954996091523838"><ele>1079.0</ele><time>2026-04-06T12:56:32Z</time></trkpt><trkpt lat="45.834609673600525" lon="7.954890383701112"><ele>1079.0</ele><time>2026-04-06T12:56:35Z</time></trkpt><trkpt lat="45.83464635778855" lon="7.954773782156682"><ele>1079.0</ele><time>2026-04-06T12:56:38Z</time></trkpt><trkpt lat="45.83469638443348" lon="7.954683546137387"><ele>1079.0</ele><time>2026-04-06T12:56:41Z</time></trkpt><trkpt lat="45.83463752711615" lon="7.95451251145331"><ele>1079.1666666666667</ele><time>2026-04-06T12:56:46Z</time></trkpt><trkpt lat="45.8345904217924" lon="7.954429761447363"><ele>1079.3333333333335</ele><time>2026-04-06T12:56:49Z</time></trkpt><trkpt lat="45.83456371837582" lon="7.954344312182119"><ele>1079.5</ele><time>2026-04-06T12:56:52Z</time></trkpt><trkpt lat="45.83455139122179" lon="7.95444119774521"><ele>1079.6666666666667</ele><time>2026-04-06T12:57:20Z</time></trkpt><trkpt lat="45.83468938753164" lon="7.954560962130749"><ele>1079.8333333333333</ele><time>2026-04-06T12:57:27Z</time></trkpt><trkpt lat="45.83474069685032" lon="7.954634627339746"><ele>1080.0</ele><time>2026-04-06T12:57:30Z</time></trkpt><trkpt lat="45.834804574304385" lon="7.954726336478669"><ele>1080.0</ele><time>2026-04-06T12:57:33Z</time></trkpt><trkpt lat="45.83484633558088" lon="7.95480610981503"><ele>1080.0</ele><time>2026-04-06T12:57:35Z</time></trkpt><trkpt lat="45.83490184296769" lon="7.9548788187643895"><ele>1080.0</ele><time>2026-04-06T12:57:38Z</time></trkpt><trkpt lat="45.83495206468545" lon="7.954965775917414"><ele>1080.0</ele><time>2026-04-06T12:57:42Z</time></trkpt><trkpt lat="45.83469726975937" lon="7.954748881417066"><ele>1085.0</ele><time>2026-04-06T12:57:46Z</time></trkpt><trkpt lat="45.835411442740906" lon="7.955688604631889"><ele>1085.0</ele><time>2026-04-06T12:58:22Z</time></trkpt><trkpt lat="45.8354680025703" lon="7.955773144283797"><ele>1085.0</ele><time>2026-04-06T12:58:25Z</time></trkpt><trkpt lat="45.83551752807467" lon="7.955853653395568"><ele>1085.0</ele><time>2026-04-06T12:58:28Z</time></trkpt><trkpt lat="45.83559720796681" lon="7.9557643348319695"><ele>1085.0</ele><time>2026-04-06T12:58:32Z</time></trkpt><trkpt lat="45.83563013460373" lon="7.955683383701201"><ele>1085.0</ele><time>2026-04-06T12:58:34Z</time></trkpt><trkpt lat="45.83566389836005" lon="7.955589425564771"><ele>1085.0</ele><time>2026-04-06T12:58:36Z</time></trkpt><trkpt lat="45.8356917136468" lon="7.955478302116863"><ele>1085.0</ele><time>2026-04-06T12:58:38Z</time></trkpt><trkpt lat="45.835733574583806" lon="7.95535278545117"><ele>1085.0</ele><time>2026-04-06T12:58:40Z</time></trkpt><trkpt lat="45.83578721379111" lon="7.9552343913293475"><ele>1085.0</ele><time>2026-04-06T12:58:42Z</time></trkpt><trkpt lat="45.83582180272843" lon="7.955121701241628"><ele>1085.0</ele><time>2026-04-06T12:58:44Z</time></trkpt><trkpt lat="45.835855856993774" lon="7.955018247728845"><ele>1085.0</ele><time>2026-04-06T12:58:46Z</time></trkpt><trkpt lat="45.83589025412678" lon="7.954926011303227"><ele>1085.0</ele><time>2026-04-06T12:58:48Z</time></trkpt><trkpt lat="45.835931915965965" lon="7.9548436563440355"><ele>1085.857142857143</ele><time>2026-04-06T12:58:50Z</time></trkpt><trkpt lat="45.835972730892465" lon="7.954771620770918"><ele>1086.7142857142858</ele><time>2026-04-06T12:58:52Z</time></trkpt><trkpt lat="45.836022186099065" lon="7.954693132716651"><ele>1087.5714285714284</ele><time>2026-04-06T12:58:54Z</time></trkpt><trkpt lat="45.83606721153598" lon="7.95461947239993"><ele>1088.4285714285716</ele><time>2026-04-06T12:58:56Z</time></trkpt><trkpt lat="45.836128883511535" lon="7.954511409809937"><ele>1089.2857142857142</ele><time>2026-04-06T12:58:58.999Z</time></trkpt><trkpt lat="45.8361591950964" lon="7.954425562886259"><ele>1090.142857142857</ele><time>2026-04-06T12:59:00.999Z</time></trkpt><trkpt lat="45.836191178889315" lon="7.954340810298641"><ele>1091.0</ele><time>2026-04-06T12:59:02.999Z</time></trkpt><trkpt lat="45.836226643683695" lon="7.954232764991093"><ele>1090.5</ele><time>2026-04-06T12:59:05.999Z</time></trkpt><trkpt lat="45.83626714535643" lon="7.954158399181888"><ele>1090.0</ele><time>2026-04-06T12:59:08.999Z</time></trkpt><trkpt lat="45.83629937489357" lon="7.9540606725720036"><ele>1089.5</ele><time>2026-04-06T12:59:11.999Z</time></trkpt><trkpt lat="45.8363339672801" lon="7.953955473653927"><ele>1089.0</ele><time>2026-04-06T12:59:14.999Z</time></trkpt><trkpt lat="45.83637800597453" lon="7.953853724811999"><ele>1088.5</ele><time>2026-04-06T12:59:17.999Z</time></trkpt><trkpt lat="45.836417290321684" lon="7.953736102891283"><ele>1088.0</ele><time>2026-04-06T12:59:20.999Z</time></trkpt><trkpt lat="45.83644820522489" lon="7.9536214671655046"><ele>1088.0</ele><time>2026-04-06T12:59:23.999Z</time></trkpt><trkpt lat="45.83646966179499" lon="7.953531223827691"><ele>1088.0</ele><time>2026-04-06T12:59:25.999Z</time></trkpt><trkpt lat="45.836491974531185" lon="7.953421120549762"><ele>1088.0</ele><time>2026-04-06T12:59:28.999Z</time></trkpt><trkpt lat="45.836540832858205" lon="7.953312407037091"><ele>1088.0</ele><time>2026-04-06T12:59:31.999Z</time></trkpt><trkpt lat="45.83659156162731" lon="7.953204443103796"><ele>1088.0</ele><time>2026-04-06T12:59:34.999Z</time></trkpt><trkpt lat="45.83665817877291" lon="7.953108340389529"><ele>1088.0</ele><time>2026-04-06T12:59:37.999Z</time></trkpt><trkpt lat="45.83669525793344" lon="7.95303489151923"><ele>1087.9999999999998</ele><time>2026-04-06T12:59:39.999Z</time></trkpt><trkpt lat="45.83672950972045" lon="7.952952619794645"><ele>1088.0</ele><time>2026-04-06T12:59:41.999Z</time></trkpt><trkpt lat="45.83675847915458" lon="7.952871712085057"><ele>1088.0</ele><time>2026-04-06T12:59:43.999Z</time></trkpt><trkpt lat="45.836790816620784" lon="7.952794148815262"><ele>1088.0</ele><time>2026-04-06T12:59:45.999Z</time></trkpt><trkpt lat="45.83682109178045" lon="7.952712042758703"><ele>1088.0</ele><time>2026-04-06T12:59:47.999Z</time></trkpt><trkpt lat="45.836852982809695" lon="7.952629408711185"><ele>1087.9999999999998</ele><time>2026-04-06T12:59:49.999Z</time></trkpt><trkpt lat="45.83690179531294" lon="7.952513793372575"><ele>1088.0</ele><time>2026-04-06T12:59:53Z</time></trkpt><trkpt lat="45.83693869734931" lon="7.952438638477284"><ele>1088.8571428571427</ele><time>2026-04-06T12:59:55Z</time></trkpt><trkpt lat="45.836984014057585" lon="7.952371991160173"><ele>1089.7142857142858</ele><time>2026-04-06T12:59:57Z</time></trkpt><trkpt lat="45.83705667642114" lon="7.952281945333953"><ele>1090.5714285714284</ele><time>2026-04-06T13:00:00Z</time></trkpt><trkpt lat="45.83711273700085" lon="7.952202531442813"><ele>1091.4285714285713</ele><time>2026-04-06T13:00:03Z</time></trkpt><trkpt lat="45.837156143476655" lon="7.9521303295491"><ele>1092.2857142857142</ele><time>2026-04-06T13:00:05Z</time></trkpt><trkpt lat="45.83719853972443" lon="7.952063503948319"><ele>1093.142857142857</ele><time>2026-04-06T13:00:07Z</time></trkpt><trkpt lat="45.8372499068231" lon="7.952000580988537"><ele>1094.0</ele><time>2026-04-06T13:00:09Z</time></trkpt><trkpt lat="45.83730893198632" lon="7.9519501728396085"><ele>1094.0</ele><time>2026-04-06T13:00:11Z</time></trkpt><trkpt lat="45.837388343008506" lon="7.951883832910432"><ele>1094.0</ele><time>2026-04-06T13:00:14Z</time></trkpt><trkpt lat="45.8374384619848" lon="7.951824891420459"><ele>1094.0</ele><time>2026-04-06T13:00:16Z</time></trkpt><trkpt lat="45.83751466548805" lon="7.9517441515311145"><ele>1094.0</ele><time>2026-04-06T13:00:19Z</time></trkpt><trkpt lat="45.83756813432663" lon="7.951683530662059"><ele>1094.0</ele><time>2026-04-06T13:00:21Z</time></trkpt><trkpt lat="45.83762144395451" lon="7.951623916877671"><ele>1094.0</ele><time>2026-04-06T13:00:23Z</time></trkpt><trkpt lat="45.83767545114664" lon="7.951566787756607"><ele>1093.857142857143</ele><time>2026-04-06T13:00:25Z</time></trkpt><trkpt lat="45.83772878141564" lon="7.95150711617791"><ele>1093.7142857142856</ele><time>2026-04-06T13:00:27Z</time></trkpt><trkpt lat="45.83779341627875" lon="7.951457617944192"><ele>1093.5714285714284</ele><time>2026-04-06T13:00:29Z</time></trkpt><trkpt lat="45.83785361567685" lon="7.951418730605335"><ele>1093.4285714285713</ele><time>2026-04-06T13:00:31Z</time></trkpt><trkpt lat="45.83791996759287" lon="7.951409489252867"><ele>1093.2857142857142</ele><time>2026-04-06T13:00:33Z</time></trkpt><trkpt lat="45.83798418377402" lon="7.951376002223782"><ele>1093.142857142857</ele><time>2026-04-06T13:00:35Z</time></trkpt><trkpt lat="45.83805280140244" lon="7.951346522669251"><ele>1093.0</ele><time>2026-04-06T13:00:37Z</time></trkpt><trkpt lat="45.83812277640007" lon="7.9513285390722555"><ele>1093.0</ele><time>2026-04-06T13:00:39Z</time></trkpt><trkpt lat="45.83818978097898" lon="7.951311678016326"><ele>1093.0</ele><time>2026-04-06T13:00:41Z</time></trkpt><trkpt lat="45.83826426484789" lon="7.951289877512717"><ele>1093.0</ele><time>2026-04-06T13:00:43Z</time></trkpt><trkpt lat="45.83833424838228" lon="7.95127538273415"><ele>1093.0</ele><time>2026-04-06T13:00:45Z</time></trkpt><trkpt lat="45.83840172057166" lon="7.951276487836062"><ele>1093.0</ele><time>2026-04-06T13:00:47Z</time></trkpt><trkpt lat="45.838463573718535" lon="7.95124057631183"><ele>1093.0</ele><time>2026-04-06T13:00:49Z</time></trkpt><trkpt lat="45.838539215595226" lon="7.951183908513373"><ele>1093.0</ele><time>2026-04-06T13:00:51.999Z</time></trkpt><trkpt lat="45.83861007966816" lon="7.951123757300213"><ele>1094.3333333333333</ele><time>2026-04-06T13:00:54.999Z</time></trkpt><trkpt lat="45.83866938839085" lon="7.951078509019773"><ele>1095.6666666666665</ele><time>2026-04-06T13:00:58.999Z</time></trkpt><trkpt lat="45.8387273088513" lon="7.951036343054551"><ele>1097.0</ele><time>2026-04-06T13:01:01.999Z</time></trkpt><trkpt lat="45.838800730443914" lon="7.950982674287471"><ele>1098.3333333333333</ele><time>2026-04-06T13:01:04.999Z</time></trkpt><trkpt lat="45.83888586285602" lon="7.950939538083784"><ele>1099.6666666666667</ele><time>2026-04-06T13:01:07.999Z</time></trkpt><trkpt lat="45.838973061732005" lon="7.950895558695304"><ele>1101.0</ele><time>2026-04-06T13:01:10.999Z</time></trkpt><trkpt lat="45.83903233014633" lon="7.950856393316799"><ele>1101.0</ele><time>2026-04-06T13:01:12.999Z</time></trkpt><trkpt lat="45.83908756167563" lon="7.950808384799747"><ele>1101.0</ele><time>2026-04-06T13:01:14.999Z</time></trkpt><trkpt lat="45.83914399862568" lon="7.950757185736946"><ele>1101.0</ele><time>2026-04-06T13:01:16.999Z</time></trkpt><trkpt lat="45.83919693022674" lon="7.950704086292035"><ele>1101.0</ele><time>2026-04-06T13:01:18.999Z</time></trkpt><trkpt lat="45.83927745590108" lon="7.950640035503348"><ele>1101.0</ele><time>2026-04-06T13:01:21.999Z</time></trkpt><trkpt lat="45.83934255216712" lon="7.950622729462911"><ele>1101.0</ele><time>2026-04-06T13:01:23.999Z</time></trkpt><trkpt lat="45.83942187660679" lon="7.95055666160904"><ele>1101.0</ele><time>2026-04-06T13:01:26.999Z</time></trkpt><trkpt lat="45.83944958937597" lon="7.950473601858757"><ele>1101.7142857142858</ele><time>2026-04-06T13:01:28.999Z</time></trkpt><trkpt lat="45.83948733852682" lon="7.950395979073338"><ele>1102.4285714285713</ele><time>2026-04-06T13:01:30.999Z</time></trkpt><trkpt lat="45.83953618039418" lon="7.950325936064681"><ele>1103.142857142857</ele><time>2026-04-06T13:01:32.999Z</time></trkpt><trkpt lat="45.83958272590388" lon="7.950253649218292"><ele>1103.857142857143</ele><time>2026-04-06T13:01:34.999Z</time></trkpt><trkpt lat="45.839626332817424" lon="7.950175555729756"><ele>1104.5714285714284</ele><time>2026-04-06T13:01:36.999Z</time></trkpt><trkpt lat="45.83968438808505" lon="7.950122730069271"><ele>1105.2857142857142</ele><time>2026-04-06T13:01:38.999Z</time></trkpt><trkpt lat="45.83974384644353" lon="7.950064327407697"><ele>1106.0</ele><time>2026-04-06T13:01:40.999Z</time></trkpt><trkpt lat="45.839810558553886" lon="7.950008910613113"><ele>1106.0</ele><time>2026-04-06T13:01:42.999Z</time></trkpt><trkpt lat="45.839871710141686" lon="7.949943642975991"><ele>1106.0</ele><time>2026-04-06T13:01:45Z</time></trkpt><trkpt lat="45.83992900251105" lon="7.949870289610492"><ele>1106.0</ele><time>2026-04-06T13:01:47Z</time></trkpt><trkpt lat="45.83997430922622" lon="7.949790316934852"><ele>1106.0</ele><time>2026-04-06T13:01:49Z</time></trkpt><trkpt lat="45.84001848852573" lon="7.949704866175626"><ele>1106.0</ele><time>2026-04-06T13:01:51Z</time></trkpt><trkpt lat="45.840056590997584" lon="7.94962230433693"><ele>1106.0</ele><time>2026-04-06T13:01:53Z</time></trkpt><trkpt lat="45.840081476157856" lon="7.949528443696153"><ele>1106.0</ele><time>2026-04-06T13:01:55Z</time></trkpt><trkpt lat="45.84011701586998" lon="7.9494362321770184"><ele>1106.5714285714287</ele><time>2026-04-06T13:01:57Z</time></trkpt><trkpt lat="45.84015103086543" lon="7.94935018451976"><ele>1107.142857142857</ele><time>2026-04-06T13:01:59Z</time></trkpt><trkpt lat="45.8401843570473" lon="7.949270011269943"><ele>1107.7142857142858</ele><time>2026-04-06T13:02:01Z</time></trkpt><trkpt lat="45.84022337844832" lon="7.949197641071427"><ele>1108.2857142857142</ele><time>2026-04-06T13:02:03Z</time></trkpt><trkpt lat="45.84026048573656" lon="7.949123196242914"><ele>1108.857142857143</ele><time>2026-04-06T13:02:05Z</time></trkpt><trkpt lat="45.84030663947574" lon="7.94902733650574"><ele>1109.4285714285716</ele><time>2026-04-06T13:02:08Z</time></trkpt><trkpt lat="45.8403487727493" lon="7.948942888125838"><ele>1110.0</ele><time>2026-04-06T13:02:11Z</time></trkpt><trkpt lat="45.840404044031075" lon="7.948837143893076"><ele>1110.0000000000002</ele><time>2026-04-06T13:02:14Z</time></trkpt><trkpt lat="45.840458316865835" lon="7.948765696707196"><ele>1110.0</ele><time>2026-04-06T13:02:16Z</time></trkpt><trkpt lat="45.84050813094651" lon="7.948703357078101"><ele>1110.0</ele><time>2026-04-06T13:02:18Z</time></trkpt><trkpt lat="45.84054660220701" lon="7.948627954932464"><ele>1110.0</ele><time>2026-04-06T13:02:20Z</time></trkpt><trkpt lat="45.8405984547798" lon="7.9485628760652745"><ele>1110.0</ele><time>2026-04-06T13:02:22Z</time></trkpt><trkpt lat="45.840616018318485" lon="7.948467273019863"><ele>1110.0000000000002</ele><time>2026-04-06T13:02:24Z</time></trkpt><trkpt lat="45.84063413077385" lon="7.948378055889922"><ele>1110.0</ele><time>2026-04-06T13:02:26Z</time></trkpt><trkpt lat="45.840649125444294" lon="7.94828891680099"><ele>1109.5714285714287</ele><time>2026-04-06T13:02:28Z</time></trkpt><trkpt lat="45.84066649799392" lon="7.948192178515386"><ele>1109.142857142857</ele><time>2026-04-06T13:02:30Z</time></trkpt><trkpt lat="45.84068895410129" lon="7.948105057035935"><ele>1108.7142857142858</ele><time>2026-04-06T13:02:32Z</time></trkpt><trkpt lat="45.84070812850712" lon="7.94800204970326"><ele>1108.2857142857142</ele><time>2026-04-06T13:02:34Z</time></trkpt><trkpt lat="45.84072848357646" lon="7.94791365827391"><ele>1107.857142857143</ele><time>2026-04-06T13:02:36Z</time></trkpt><trkpt lat="45.8407534283179" lon="7.947824315537157"><ele>1107.4285714285716</ele><time>2026-04-06T13:02:38Z</time></trkpt><trkpt lat="45.84077887437" lon="7.947741055435612"><ele>1107.0</ele><time>2026-04-06T13:02:40Z</time></trkpt><trkpt lat="45.84082310122313" lon="7.947665183391235"><ele>1107.0</ele><time>2026-04-06T13:02:42Z</time></trkpt><trkpt lat="45.84087412645231" lon="7.947599775505655"><ele>1107.0</ele><time>2026-04-06T13:02:44Z</time></trkpt><trkpt lat="45.840905707137054" lon="7.947518176417815"><ele>1107.0</ele><time>2026-04-06T13:02:46Z</time></trkpt><trkpt lat="45.84093952986648" lon="7.947430784680696"><ele>1107.0</ele><time>2026-04-06T13:02:48Z</time></trkpt><trkpt lat="45.84097264993174" lon="7.9473452090512815"><ele>1107.0</ele><time>2026-04-06T13:02:50Z</time></trkpt><trkpt lat="45.84100817671305" lon="7.947253414849024"><ele>1107.0</ele><time>2026-04-06T13:02:52Z</time></trkpt><trkpt lat="45.841045405708655" lon="7.947157222514254"><ele>1107.0</ele><time>2026-04-06T13:02:54Z</time></trkpt><trkpt lat="45.841048521514345" lon="7.947039193046277"><ele>1108.5</ele><time>2026-04-06T13:02:56Z</time></trkpt><trkpt lat="45.84109707657251" lon="7.946951567948618"><ele>1110.0</ele><time>2026-04-06T13:02:58Z</time></trkpt><trkpt lat="45.841158834701254" lon="7.946870844440946"><ele>1111.5</ele><time>2026-04-06T13:03:00Z</time></trkpt><trkpt lat="45.841212926303314" lon="7.946793159924643"><ele>1113.0</ele><time>2026-04-06T13:03:02Z</time></trkpt><trkpt lat="45.84127115875019" lon="7.94672191351354"><ele>1114.5</ele><time>2026-04-06T13:03:04Z</time></trkpt><trkpt lat="45.841335487732" lon="7.946667779645518"><ele>1116.0</ele><time>2026-04-06T13:03:06Z</time></trkpt><trkpt lat="45.84140627739549" lon="7.946619233904258"><ele>1115.9999999999998</ele><time>2026-04-06T13:03:08Z</time></trkpt><trkpt lat="45.84147645283618" lon="7.9465818023712265"><ele>1116.0</ele><time>2026-04-06T13:03:10Z</time></trkpt><trkpt lat="45.841548217250484" lon="7.94654254353161"><ele>1116.0</ele><time>2026-04-06T13:03:12Z</time></trkpt><trkpt lat="45.84161795855872" lon="7.946514582993078"><ele>1116.0</ele><time>2026-04-06T13:03:14Z</time></trkpt><trkpt lat="45.84169213762784" lon="7.946501809121085"><ele>1116.0</ele><time>2026-04-06T13:03:16Z</time></trkpt><trkpt lat="45.84176772226069" lon="7.946491824857634"><ele>1115.9999999999998</ele><time>2026-04-06T13:03:18Z</time></trkpt><trkpt lat="45.84183870746193" lon="7.946490465543329"><ele>1116.0</ele><time>2026-04-06T13:03:20Z</time></trkpt><trkpt lat="45.84190897192648" lon="7.946479134263742"><ele>1117.0</ele><time>2026-04-06T13:03:22Z</time></trkpt><trkpt lat="45.841973107791475" lon="7.94647479766725"><ele>1118.0</ele><time>2026-04-06T13:03:24Z</time></trkpt><trkpt lat="45.84206555877149" lon="7.94646798658832"><ele>1119.0</ele><time>2026-04-06T13:03:27Z</time></trkpt><trkpt lat="45.842159410851075" lon="7.946453414823135"><ele>1120.0</ele><time>2026-04-06T13:03:29Z</time></trkpt><trkpt lat="45.84224153906579" lon="7.946402192552659"><ele>1121.0</ele><time>2026-04-06T13:03:31Z</time></trkpt><trkpt lat="45.84230997286036" lon="7.946357022182515"><ele>1122.0</ele><time>2026-04-06T13:03:32.999Z</time></trkpt><trkpt lat="45.842375699618785" lon="7.9463162018713485"><ele>1122.0</ele><time>2026-04-06T13:03:34.999Z</time></trkpt><trkpt lat="45.84244355835776" lon="7.9462898600683065"><ele>1122.0</ele><time>2026-04-06T13:03:36.999Z</time></trkpt><trkpt lat="45.8425128576868" lon="7.946271103874401"><ele>1122.0</ele><time>2026-04-06T13:03:38.999Z</time></trkpt><trkpt lat="45.8425785911701" lon="7.94624284277603"><ele>1122.0</ele><time>2026-04-06T13:03:40.999Z</time></trkpt><trkpt lat="45.84264018669577" lon="7.946197550387657"><ele>1122.0</ele><time>2026-04-06T13:03:42.999Z</time></trkpt><trkpt lat="45.84269722309522" lon="7.946151297579207"><ele>1122.0</ele><time>2026-04-06T13:03:45Z</time></trkpt><trkpt lat="45.84275318034999" lon="7.946096918902576"><ele>1122.0</ele><time>2026-04-06T13:03:47Z</time></trkpt><trkpt lat="45.842809053909974" lon="7.946040779226694"><ele>1122.7142857142858</ele><time>2026-04-06T13:03:49Z</time></trkpt><trkpt lat="45.84286341094579" lon="7.9459802691839885"><ele>1123.4285714285713</ele><time>2026-04-06T13:03:51Z</time></trkpt><trkpt lat="45.842912446556326" lon="7.945912093832199"><ele>1124.142857142857</ele><time>2026-04-06T13:03:53Z</time></trkpt><trkpt lat="45.84297085972999" lon="7.945865318137819"><ele>1124.857142857143</ele><time>2026-04-06T13:03:55Z</time></trkpt><trkpt lat="45.843023742424705" lon="7.945804241789043"><ele>1125.5714285714284</ele><time>2026-04-06T13:03:57Z</time></trkpt><trkpt lat="45.843083490850006" lon="7.945751720641355"><ele>1126.2857142857142</ele><time>2026-04-06T13:03:59Z</time></trkpt><trkpt lat="45.84314286329024" lon="7.945701014037016"><ele>1127.0</ele><time>2026-04-06T13:04:01Z</time></trkpt><trkpt lat="45.84320752302085" lon="7.945645553608781"><ele>1127.0</ele><time>2026-04-06T13:04:03Z</time></trkpt><trkpt lat="45.843289684456764" lon="7.945580853653708"><ele>1127.0</ele><time>2026-04-06T13:04:06Z</time></trkpt><trkpt lat="45.84334890414708" lon="7.945533397678712"><ele>1127.0</ele><time>2026-04-06T13:04:08Z</time></trkpt><trkpt lat="45.843410843981516" lon="7.945480996020777"><ele>1127.0</ele><time>2026-04-06T13:04:10Z</time></trkpt><trkpt lat="45.84347549829281" lon="7.94543930732719"><ele>1127.0</ele><time>2026-04-06T13:04:12Z</time></trkpt><trkpt lat="45.843538366314554" lon="7.945391648986997"><ele>1127.0</ele><time>2026-04-06T13:04:14Z</time></trkpt><trkpt lat="45.843597082159455" lon="7.945341335970858"><ele>1127.0</ele><time>2026-04-06T13:04:16Z</time></trkpt><trkpt lat="45.8436765195587" lon="7.9452666243122545"><ele>1127.5</ele><time>2026-04-06T13:04:19Z</time></trkpt><trkpt lat="45.843726703611146" lon="7.945202262472064"><ele>1128.0</ele><time>2026-04-06T13:04:21Z</time></trkpt><trkpt lat="45.84377276921968" lon="7.945134774229868"><ele>1128.5</ele><time>2026-04-06T13:04:23Z</time></trkpt><trkpt lat="45.843853658166005" lon="7.945063825610516"><ele>1129.0</ele><time>2026-04-06T13:04:26Z</time></trkpt><trkpt lat="45.84393559312839" lon="7.944998671910686"><ele>1129.5</ele><time>2026-04-06T13:04:29Z</time></trkpt><trkpt lat="45.843996333472006" lon="7.944964763562142"><ele>1130.0</ele><time>2026-04-06T13:04:31Z</time></trkpt><trkpt lat="45.84408535820825" lon="7.94492271972579"><ele>1130.0</ele><time>2026-04-06T13:04:34Z</time></trkpt><trkpt lat="45.84416075852014" lon="7.944870375432905"><ele>1130.0</ele><time>2026-04-06T13:04:36Z</time></trkpt><trkpt lat="45.84421532118224" lon="7.944785674107065"><ele>1130.0</ele><time>2026-04-06T13:04:38Z</time></trkpt><trkpt lat="45.84430051931716" lon="7.944741273806653"><ele>1130.0</ele><time>2026-04-06T13:04:40Z</time></trkpt><trkpt lat="45.844377222866264" lon="7.944718672816185"><ele>1130.0</ele><time>2026-04-06T13:04:42Z</time></trkpt><trkpt lat="45.844462587034684" lon="7.944698436079244"><ele>1130.0</ele><time>2026-04-06T13:04:44Z</time></trkpt><trkpt lat="45.84454687798325" lon="7.944700569635949"><ele>1131.5</ele><time>2026-04-06T13:04:46Z</time></trkpt><trkpt lat="45.84463871398505" lon="7.944683619426326"><ele>1133.0</ele><time>2026-04-06T13:04:48Z</time></trkpt><trkpt lat="45.8447196016565" lon="7.944635755664541"><ele>1134.5</ele><time>2026-04-06T13:04:50Z</time></trkpt><trkpt lat="45.844795539081" lon="7.944579858848709"><ele>1136.0</ele><time>2026-04-06T13:04:52Z</time></trkpt><trkpt lat="45.84486901773829" lon="7.9445264576771875"><ele>1137.5</ele><time>2026-04-06T13:04:54Z</time></trkpt><trkpt lat="45.844948077020355" lon="7.944484646693932"><ele>1139.0</ele><time>2026-04-06T13:04:56Z</time></trkpt><trkpt lat="45.84502197606408" lon="7.944427655840471"><ele>1139.0</ele><time>2026-04-06T13:04:58Z</time></trkpt><trkpt lat="45.84510280719293" lon="7.94437551565942"><ele>1139.0</ele><time>2026-04-06T13:05:00Z</time></trkpt><trkpt lat="45.8451831354556" lon="7.944344894283628"><ele>1139.0</ele><time>2026-04-06T13:05:02Z</time></trkpt><trkpt lat="45.84526772589136" lon="7.944298774414825"><ele>1139.0</ele><time>2026-04-06T13:05:04Z</time></trkpt><trkpt lat="45.84534385566597" lon="7.944247620193782"><ele>1139.0</ele><time>2026-04-06T13:05:06Z</time></trkpt><trkpt lat="45.8454163277245" lon="7.944200908760715"><ele>1139.0</ele><time>2026-04-06T13:05:08Z</time></trkpt><trkpt lat="45.845486457913886" lon="7.94414529651209"><ele>1139.2857142857142</ele><time>2026-04-06T13:05:10Z</time></trkpt><trkpt lat="45.845541459907395" lon="7.944083262918845"><ele>1139.5714285714287</ele><time>2026-04-06T13:05:12Z</time></trkpt><trkpt lat="45.845597110773895" lon="7.944026439677846"><ele>1139.857142857143</ele><time>2026-04-06T13:05:14Z</time></trkpt><trkpt lat="45.84565462364586" lon="7.943966219340318"><ele>1140.142857142857</ele><time>2026-04-06T13:05:16Z</time></trkpt><trkpt lat="45.84571313157862" lon="7.943916158423107"><ele>1140.4285714285716</ele><time>2026-04-06T13:05:18Z</time></trkpt><trkpt lat="45.84577774946087" lon="7.94387439932083"><ele>1140.7142857142858</ele><time>2026-04-06T13:05:20Z</time></trkpt><trkpt lat="45.84583683951809" lon="7.943833251275994"><ele>1141.0</ele><time>2026-04-06T13:05:22Z</time></trkpt><trkpt lat="45.845911940299914" lon="7.9438084768703074"><ele>1141.8333333333333</ele><time>2026-04-06T13:05:24Z</time></trkpt><trkpt lat="45.84597529838635" lon="7.9437433151426555"><ele>1142.6666666666665</ele><time>2026-04-06T13:05:26Z</time></trkpt><trkpt lat="45.84601346262539" lon="7.943643894776081"><ele>1143.5</ele><time>2026-04-06T13:05:28Z</time></trkpt><trkpt lat="45.846047955720394" lon="7.943536285497331"><ele>1144.3333333333333</ele><time>2026-04-06T13:05:30Z</time></trkpt><trkpt lat="45.846106085650135" lon="7.943470612599459"><ele>1145.1666666666667</ele><time>2026-04-06T13:05:32Z</time></trkpt><trkpt lat="45.84615503705763" lon="7.943405616494689"><ele>1146.0</ele><time>2026-04-06T13:05:34Z</time></trkpt><trkpt lat="45.84621562948738" lon="7.9433482476164565"><ele>1146.0</ele><time>2026-04-06T13:05:36Z</time></trkpt><trkpt lat="45.84627889716262" lon="7.943287158209559"><ele>1146.0</ele><time>2026-04-06T13:05:38Z</time></trkpt><trkpt lat="45.84630963528413" lon="7.9431909074561275"><ele>1146.0</ele><time>2026-04-06T13:05:40Z</time></trkpt><trkpt lat="45.84633751962497" lon="7.943092026401636"><ele>1146.0</ele><time>2026-04-06T13:05:42Z</time></trkpt><trkpt lat="45.84638968137365" lon="7.943021877325576"><ele>1146.0</ele><time>2026-04-06T13:05:44Z</time></trkpt><trkpt lat="45.84642981020187" lon="7.942950178974167"><ele>1146.0</ele><time>2026-04-06T13:05:46Z</time></trkpt><trkpt lat="45.84648549841471" lon="7.942874627100126"><ele>1146.0</ele><time>2026-04-06T13:05:49Z</time></trkpt><trkpt lat="45.84655337190458" lon="7.942794177574466"><ele>1146.0</ele><time>2026-04-06T13:05:52Z</time></trkpt><trkpt lat="45.846610808142124" lon="7.942703642969774"><ele>1146.0</ele><time>2026-04-06T13:05:55Z</time></trkpt><trkpt lat="45.84667813290839" lon="7.942607790742085"><ele>1146.0</ele><time>2026-04-06T13:05:58Z</time></trkpt><trkpt lat="45.846731415430014" lon="7.942514735993327"><ele>1146.0</ele><time>2026-04-06T13:06:01Z</time></trkpt><trkpt lat="45.84678380922918" lon="7.942428841816665"><ele>1146.0</ele><time>2026-04-06T13:06:04Z</time></trkpt><trkpt lat="45.8468399927745" lon="7.94235221312929"><ele>1146.0</ele><time>2026-04-06T13:06:07Z</time></trkpt><trkpt lat="45.84689536809896" lon="7.942286682176613"><ele>1146.142857142857</ele><time>2026-04-06T13:06:10Z</time></trkpt><trkpt lat="45.846954178716324" lon="7.942239258823847"><ele>1146.2857142857144</ele><time>2026-04-06T13:06:13Z</time></trkpt><trkpt lat="45.84703207363249" lon="7.942205490107147"><ele>1146.4285714285716</ele><time>2026-04-06T13:06:16Z</time></trkpt><trkpt lat="45.84712438795932" lon="7.942187267465697"><ele>1146.5714285714287</ele><time>2026-04-06T13:06:20Z</time></trkpt><trkpt lat="45.84719886695524" lon="7.9421951334418655"><ele>1146.7142857142858</ele><time>2026-04-06T13:06:23Z</time></trkpt><trkpt lat="45.847262231283516" lon="7.94219691476141"><ele>1146.857142857143</ele><time>2026-04-06T13:06:26Z</time></trkpt><trkpt lat="45.84732433658395" lon="7.942237187865315"><ele>1147.0</ele><time>2026-04-06T13:06:29Z</time></trkpt><trkpt lat="45.84737998346193" lon="7.942281757250361"><ele>1147.0</ele><time>2026-04-06T13:06:32Z</time></trkpt><trkpt lat="45.84745352825582" lon="7.942338434453109"><ele>1147.0</ele><time>2026-04-06T13:06:36Z</time></trkpt><trkpt lat="45.84753421487666" lon="7.942371491915534"><ele>1147.0</ele><time>2026-04-06T13:06:39Z</time></trkpt><trkpt lat="45.84762447248712" lon="7.942376369904139"><ele>1147.0</ele><time>2026-04-06T13:06:42Z</time></trkpt><trkpt lat="45.84769574889197" lon="7.942334375732659"><ele>1147.0</ele><time>2026-04-06T13:06:44Z</time></trkpt><trkpt lat="45.847763667058906" lon="7.942302218572916"><ele>1147.0</ele><time>2026-04-06T13:06:46Z</time></trkpt><trkpt lat="45.84784505825201" lon="7.9422665449732"><ele>1147.5714285714284</ele><time>2026-04-06T13:06:49Z</time></trkpt><trkpt lat="45.84790584904472" lon="7.942239990980607"><ele>1148.142857142857</ele><time>2026-04-06T13:06:51Z</time></trkpt><trkpt lat="45.84799778339374" lon="7.942209436085365"><ele>1148.7142857142858</ele><time>2026-04-06T13:06:54Z</time></trkpt><trkpt lat="45.848065023936904" lon="7.94219055336391"><ele>1149.2857142857142</ele><time>2026-04-06T13:06:56Z</time></trkpt><trkpt lat="45.84813268953565" lon="7.9421864365177015"><ele>1149.857142857143</ele><time>2026-04-06T13:06:58Z</time></trkpt><trkpt lat="45.84820162471881" lon="7.942170673599404"><ele>1150.4285714285713</ele><time>2026-04-06T13:07:00Z</time></trkpt><trkpt lat="45.84826792485451" lon="7.942155950752354"><ele>1151.0</ele><time>2026-04-06T13:07:02Z</time></trkpt><trkpt lat="45.84833291790403" lon="7.942132132836098"><ele>1150.9999999999998</ele><time>2026-04-06T13:07:04Z</time></trkpt><trkpt lat="45.84839185890188" lon="7.94209800257848"><ele>1151.0</ele><time>2026-04-06T13:07:06Z</time></trkpt><trkpt lat="45.848479970624474" lon="7.942060269137582"><ele>1151.0</ele><time>2026-04-06T13:07:09Z</time></trkpt><trkpt lat="45.84854850616806" lon="7.942033057442119"><ele>1151.0</ele><time>2026-04-06T13:07:11Z</time></trkpt><trkpt lat="45.84860908815401" lon="7.941992754926589"><ele>1151.0</ele><time>2026-04-06T13:07:13Z</time></trkpt><trkpt lat="45.848674459374585" lon="7.941945850659801"><ele>1150.9999999999998</ele><time>2026-04-06T13:07:15Z</time></trkpt><trkpt lat="45.848728435134205" lon="7.941882952498013"><ele>1151.0</ele><time>2026-04-06T13:07:17Z</time></trkpt><trkpt lat="45.84880023146281" lon="7.94183581746299"><ele>1151.6666666666667</ele><time>2026-04-06T13:07:19Z</time></trkpt><trkpt lat="45.848869198282465" lon="7.941779912710932"><ele>1152.3333333333335</ele><time>2026-04-06T13:07:21Z</time></trkpt><trkpt lat="45.848941721819976" lon="7.9417242621653905"><ele>1153.0</ele><time>2026-04-06T13:07:23Z</time></trkpt><trkpt lat="45.849007146981656" lon="7.9416749871974455"><ele>1153.6666666666667</ele><time>2026-04-06T13:07:25Z</time></trkpt><trkpt lat="45.849071497844605" lon="7.941624887780926"><ele>1154.3333333333333</ele><time>2026-04-06T13:07:27Z</time></trkpt><trkpt lat="45.84915073246013" lon="7.94159498835656"><ele>1155.0</ele><time>2026-04-06T13:07:29Z</time></trkpt><trkpt lat="45.84922607762573" lon="7.941564142973334"><ele>1159.5</ele><time>2026-04-06T13:07:31Z</time></trkpt><trkpt lat="45.849300446531394" lon="7.941531320774429"><ele>1164.0</ele><time>2026-04-06T13:07:33Z</time></trkpt><trkpt lat="45.849370376179195" lon="7.941490376695231"><ele>1168.5</ele><time>2026-04-06T13:07:35Z</time></trkpt><trkpt lat="45.849453434697516" lon="7.941469987778787"><ele>1173.0</ele><time>2026-04-06T13:07:37Z</time></trkpt><trkpt lat="45.84953183841824" lon="7.941452244114702"><ele>1177.5</ele><time>2026-04-06T13:07:39Z</time></trkpt><trkpt lat="45.84962253371535" lon="7.941443827301646"><ele>1182.0</ele><time>2026-04-06T13:07:42Z</time></trkpt><trkpt lat="45.849718919208655" lon="7.941443382213045"><ele>1182.0</ele><time>2026-04-06T13:07:45Z</time></trkpt><trkpt lat="45.84979872351465" lon="7.941431392351983"><ele>1182.0</ele><time>2026-04-06T13:07:48Z</time></trkpt><trkpt lat="45.849862268222616" lon="7.941361821943382"><ele>1182.0</ele><time>2026-04-06T13:07:51Z</time></trkpt><trkpt lat="45.84985852853745" lon="7.941248220007228"><ele>1182.0</ele><time>2026-04-06T13:07:55Z</time></trkpt><trkpt lat="45.84983889193127" lon="7.94115100237696"><ele>1182.0</ele><time>2026-04-06T13:07:59Z</time></trkpt><trkpt lat="45.849819088247756" lon="7.941049521862085"><ele>1182.0</ele><time>2026-04-06T13:08:03Z</time></trkpt><trkpt lat="45.849799721024894" lon="7.940951226122392"><ele>1182.0</ele><time>2026-04-06T13:08:07Z</time></trkpt><trkpt lat="45.84975447415045" lon="7.940885322265444"><ele>1182.0</ele><time>2026-04-06T13:08:16Z</time></trkpt><trkpt lat="45.84967746740622" lon="7.940891744060609"><ele>1182.0</ele><time>2026-04-06T13:08:19Z</time></trkpt><trkpt lat="45.84973614317927" lon="7.940833431153444"><ele>1182.0</ele><time>2026-04-06T13:08:27Z</time></trkpt><trkpt lat="45.849817433229596" lon="7.940862268731238"><ele>1182.0</ele><time>2026-04-06T13:08:30Z</time></trkpt><trkpt lat="45.84989261317944" lon="7.940856366103381"><ele>1182.0</ele><time>2026-04-06T13:08:33Z</time></trkpt><trkpt lat="45.84996667867628" lon="7.94084395300341"><ele>1182.0</ele><time>2026-04-06T13:08:36Z</time></trkpt><trkpt lat="45.85003496392991" lon="7.940821079746984"><ele>1177.5</ele><time>2026-04-06T13:08:40Z</time></trkpt><trkpt lat="45.85009561356117" lon="7.940792764469101"><ele>1173.0</ele><time>2026-04-06T13:08:43Z</time></trkpt><trkpt lat="45.85003739808423" lon="7.940674071341997"><ele>1168.5</ele><time>2026-04-06T13:08:47Z</time></trkpt><trkpt lat="45.84999343616456" lon="7.940591233484376"><ele>1164.0</ele><time>2026-04-06T13:08:49Z</time></trkpt><trkpt lat="45.85002345587725" lon="7.940464486849396"><ele>1159.5</ele><time>2026-04-06T13:08:51Z</time></trkpt><trkpt lat="45.850020880456746" lon="7.940345731754974"><ele>1155.0</ele><time>2026-04-06T13:08:53Z</time></trkpt><trkpt lat="45.849996522566855" lon="7.940226111748086"><ele>1155.0</ele><time>2026-04-06T13:08:55Z</time></trkpt><trkpt lat="45.84995365929734" lon="7.940144468989825"><ele>1155.0</ele><time>2026-04-06T13:08:57Z</time></trkpt><trkpt lat="45.849939132318525" lon="7.940003101096324"><ele>1155.0</ele><time>2026-04-06T13:09:00Z</time></trkpt><trkpt lat="45.8499380570708" lon="7.939893452902522"><ele>1155.0</ele><time>2026-04-06T13:09:02Z</time></trkpt><trkpt lat="45.849922054655515" lon="7.939782728923656"><ele>1155.0</ele><time>2026-04-06T13:09:04Z</time></trkpt><trkpt lat="45.84992110270406" lon="7.939680397734115"><ele>1155.0</ele><time>2026-04-06T13:09:06Z</time></trkpt><trkpt lat="45.849925214486625" lon="7.939582187656518"><ele>1155.5</ele><time>2026-04-06T13:09:08Z</time></trkpt><trkpt lat="45.84993369747424" lon="7.9394771087720315"><ele>1156.0</ele><time>2026-04-06T13:09:10Z</time></trkpt><trkpt lat="45.849928888207515" lon="7.93938202489807"><ele>1156.5</ele><time>2026-04-06T13:09:12Z</time></trkpt><trkpt lat="45.849917652929626" lon="7.9392569701064"><ele>1157.0</ele><time>2026-04-06T13:09:15Z</time></trkpt><trkpt lat="45.84989736144213" lon="7.939151598516575"><ele>1157.5</ele><time>2026-04-06T13:09:17Z</time></trkpt><trkpt lat="45.84986993344591" lon="7.939060498833395"><ele>1158.0</ele><time>2026-04-06T13:09:19Z</time></trkpt><trkpt lat="45.84983155770262" lon="7.938957869045923"><ele>1158.0</ele><time>2026-04-06T13:09:21Z</time></trkpt><trkpt lat="45.8497937417196" lon="7.938863638141941"><ele>1158.0</ele><time>2026-04-06T13:09:23Z</time></trkpt><trkpt lat="45.84993755907909" lon="7.938647969073312"><ele>1158.0</ele><time>2026-04-06T13:09:37Z</time></trkpt><trkpt lat="45.84998592062952" lon="7.9385778597362915"><ele>1158.0</ele><time>2026-04-06T13:09:40Z</time></trkpt><trkpt lat="45.850035853499236" lon="7.938509565187022"><ele>1158.0</ele><time>2026-04-06T13:09:44Z</time></trkpt><trkpt lat="45.85010344382935" lon="7.938488718002575"><ele>1158.5714285714284</ele><time>2026-04-06T13:09:52Z</time></trkpt><trkpt lat="45.85017412819563" lon="7.9384572648086955"><ele>1159.142857142857</ele><time>2026-04-06T13:09:56Z</time></trkpt><trkpt lat="45.850244775618556" lon="7.938431040356266"><ele>1159.7142857142858</ele><time>2026-04-06T13:10:01Z</time></trkpt><trkpt lat="45.85030836832459" lon="7.938370522150019"><ele>1160.2857142857142</ele><time>2026-04-06T13:10:06.001Z</time></trkpt><trkpt lat="45.850359558424586" lon="7.93831601379579"><ele>1160.857142857143</ele><time>2026-04-06T13:10:19.001Z</time></trkpt><trkpt lat="45.85041355336652" lon="7.938263076945214"><ele>1161.4285714285713</ele><time>2026-04-06T13:10:27Z</time></trkpt><trkpt lat="45.85046228170169" lon="7.938205384593433"><ele>1162.0</ele><time>2026-04-06T13:10:35Z</time></trkpt><trkpt lat="45.850519973200065" lon="7.9381451912103405"><ele>1162.0</ele><time>2026-04-06T13:10:47Z</time></trkpt><trkpt lat="45.85057629845469" lon="7.938083190781823"><ele>1162.0</ele><time>2026-04-06T13:10:55Z</time></trkpt><trkpt lat="45.85063609541557" lon="7.938022608732481"><ele>1162.0</ele><time>2026-04-06T13:11:03Z</time></trkpt><trkpt lat="45.85068599647538" lon="7.937964983673581"><ele>1162.0</ele><time>2026-04-06T13:11:10Z</time></trkpt><trkpt lat="45.85074051824176" lon="7.9379102489490485"><ele>1162.0</ele><time>2026-04-06T13:11:26Z</time></trkpt><trkpt lat="45.85079423407108" lon="7.9378420426240694"><ele>1162.0</ele><time>2026-04-06T13:11:33Z</time></trkpt><trkpt lat="45.85084839508532" lon="7.937777655947008"><ele>1162.0</ele><time>2026-04-06T13:11:40Z</time></trkpt><trkpt lat="45.850905731664035" lon="7.937715165337918"><ele>1162.7142857142858</ele><time>2026-04-06T13:11:47Z</time></trkpt><trkpt lat="45.85096844134455" lon="7.937683437056366"><ele>1163.4285714285716</ele><time>2026-04-06T13:11:54Z</time></trkpt><trkpt lat="45.85103232443067" lon="7.9376498521577785"><ele>1164.142857142857</ele><time>2026-04-06T13:12:02Z</time></trkpt><trkpt lat="45.85109821669759" lon="7.937625571107826"><ele>1164.857142857143</ele><time>2026-04-06T13:12:14.001Z</time></trkpt><trkpt lat="45.85116947854898" lon="7.937623554808666"><ele>1165.5714285714287</ele><time>2026-04-06T13:12:20.001Z</time></trkpt><trkpt lat="45.85123474776937" lon="7.937608499433908"><ele>1166.2857142857142</ele><time>2026-04-06T13:12:26Z</time></trkpt><trkpt lat="45.85129926941394" lon="7.937629797726695"><ele>1167.0</ele><time>2026-04-06T13:12:34Z</time></trkpt><trkpt lat="45.851367617206556" lon="7.9376161300795145"><ele>1167.0</ele><time>2026-04-06T13:12:42Z</time></trkpt><trkpt lat="45.85143107182435" lon="7.937608007315128"><ele>1167.0</ele><time>2026-04-06T13:12:49Z</time></trkpt><trkpt lat="45.85149915946037" lon="7.9376089609489515"><ele>1167.0</ele><time>2026-04-06T13:12:57Z</time></trkpt><trkpt lat="45.85157172940009" lon="7.937612249259605"><ele>1167.0</ele><time>2026-04-06T13:13:04Z</time></trkpt><trkpt lat="45.851641130575224" lon="7.9375998194145305"><ele>1167.0</ele><time>2026-04-06T13:13:11Z</time></trkpt><trkpt lat="45.851713416274485" lon="7.93759590350772"><ele>1167.0</ele><time>2026-04-06T13:13:18Z</time></trkpt><trkpt lat="45.851800965112055" lon="7.937606674300028"><ele>1167.0</ele><time>2026-04-06T13:14:03Z</time></trkpt><trkpt lat="45.851863893021545" lon="7.937597984979017"><ele>1167.7142857142858</ele><time>2026-04-06T13:14:09.999Z</time></trkpt><trkpt lat="45.85192860684636" lon="7.937590221022691"><ele>1168.4285714285716</ele><time>2026-04-06T13:14:17Z</time></trkpt><trkpt lat="45.85199687513177" lon="7.937559264300902"><ele>1169.142857142857</ele><time>2026-04-06T13:14:24Z</time></trkpt><trkpt lat="45.85204816953134" lon="7.937501207860811"><ele>1169.857142857143</ele><time>2026-04-06T13:14:31Z</time></trkpt><trkpt lat="45.851985033372394" lon="7.937523209822556"><ele>1170.5714285714284</ele><time>2026-04-06T13:15:16Z</time></trkpt><trkpt lat="45.85204774825214" lon="7.937552134212612"><ele>1171.2857142857142</ele><time>2026-04-06T13:24:11.999Z</time></trkpt><trkpt lat="45.85211212754059" lon="7.937551891749514"><ele>1172.0</ele><time>2026-04-06T13:24:16.999Z</time></trkpt><trkpt lat="45.85218206142861" lon="7.937533902169476"><ele>1172.8571428571427</ele><time>2026-04-06T13:24:22.999Z</time></trkpt><trkpt lat="45.85224672459925" lon="7.937542529184962"><ele>1173.7142857142858</ele><time>2026-04-06T13:24:47Z</time></trkpt><trkpt lat="45.85231533558716" lon="7.93754980417993"><ele>1174.5714285714284</ele><time>2026-04-06T13:24:54Z</time></trkpt><trkpt lat="45.85238547260231" lon="7.937538187644379"><ele>1175.4285714285713</ele><time>2026-04-06T13:25:01Z</time></trkpt><trkpt lat="45.85245643155665" lon="7.937531007431901"><ele>1176.2857142857142</ele><time>2026-04-06T13:25:11Z</time></trkpt><trkpt lat="45.852523468309556" lon="7.937516523232695"><ele>1177.142857142857</ele><time>2026-04-06T13:25:18Z</time></trkpt><trkpt lat="45.85258853849784" lon="7.937521669759065"><ele>1178.0</ele><time>2026-04-06T13:25:34Z</time></trkpt><trkpt lat="45.85265616835796" lon="7.93751873544416"><ele>1178.2857142857142</ele><time>2026-04-06T13:25:41Z</time></trkpt><trkpt lat="45.852725694522746" lon="7.93751510186666"><ele>1178.5714285714284</ele><time>2026-04-06T13:25:48Z</time></trkpt><trkpt lat="45.85279034695592" lon="7.937506840951484"><ele>1178.857142857143</ele><time>2026-04-06T13:25:54.999Z</time></trkpt><trkpt lat="45.85285483725264" lon="7.9374984103820285"><ele>1179.142857142857</ele><time>2026-04-06T13:26:01.999Z</time></trkpt><trkpt lat="45.852919810789075" lon="7.9374945249393845"><ele>1179.4285714285716</ele><time>2026-04-06T13:26:08.999Z</time></trkpt><trkpt lat="45.852984681507444" lon="7.937491464298171"><ele>1179.7142857142858</ele><time>2026-04-06T13:26:15.999Z</time></trkpt><trkpt lat="45.85305172076665" lon="7.937489592195919"><ele>1180.0</ele><time>2026-04-06T13:26:23.999Z</time></trkpt><trkpt lat="45.85311825003634" lon="7.937484172195675"><ele>1180.0000000000002</ele><time>2026-04-06T13:26:31.999Z</time></trkpt><trkpt lat="45.85318807544056" lon="7.937489197164758"><ele>1180.0</ele><time>2026-04-06T13:26:39.999Z</time></trkpt><trkpt lat="45.85325683153169" lon="7.937480861117761"><ele>1180.0</ele><time>2026-04-06T13:26:47.999Z</time></trkpt><trkpt lat="45.85332405918595" lon="7.937480638710634"><ele>1180.0</ele><time>2026-04-06T13:26:56Z</time></trkpt><trkpt lat="45.85339314811897" lon="7.937473791855184"><ele>1180.0</ele><time>2026-04-06T13:27:03Z</time></trkpt><trkpt lat="45.85345416156232" lon="7.937446805324107"><ele>1180.0000000000002</ele><time>2026-04-06T13:27:09Z</time></trkpt><trkpt lat="45.853524958744735" lon="7.937454878743919"><ele>1180.0</ele><time>2026-04-06T13:27:16Z</time></trkpt><trkpt lat="45.853595311116514" lon="7.937453592850656"><ele>1180.7142857142858</ele><time>2026-04-06T13:27:24Z</time></trkpt><trkpt lat="45.853663350114786" lon="7.9374322493956395"><ele>1181.4285714285716</ele><time>2026-04-06T13:27:31Z</time></trkpt><trkpt lat="45.85372700264525" lon="7.937422188850726"><ele>1182.142857142857</ele><time>2026-04-06T13:27:37Z</time></trkpt><trkpt lat="45.85379022503392" lon="7.937416145384305"><ele>1182.857142857143</ele><time>2026-04-06T13:27:43Z</time></trkpt><trkpt lat="45.853860872062036" lon="7.937408221501311"><ele>1183.5714285714284</ele><time>2026-04-06T13:27:49.999Z</time></trkpt><trkpt lat="45.85391865790114" lon="7.937368391745032"><ele>1184.2857142857142</ele><time>2026-04-06T13:27:56.999Z</time></trkpt><trkpt lat="45.853861632877205" lon="7.93732905893972"><ele>1185.0</ele><time>2026-04-06T13:28:05.999Z</time></trkpt><trkpt lat="45.85379825334041" lon="7.9373067914902515"><ele>1185.0</ele><time>2026-04-06T13:28:11.999Z</time></trkpt><trkpt lat="45.85374120714984" lon="7.937267161819465"><ele>1185.0</ele><time>2026-04-06T13:28:17.999Z</time></trkpt><trkpt lat="45.85368687417991" lon="7.937214709986345"><ele>1185.0</ele><time>2026-04-06T13:28:23.999Z</time></trkpt><trkpt lat="45.85374718919666" lon="7.937268569918126"><ele>1185.0</ele><time>2026-04-06T13:31:29Z</time></trkpt><trkpt lat="45.85382740632122" lon="7.937291881548738"><ele>1185.0</ele><time>2026-04-06T13:31:32Z</time></trkpt><trkpt lat="45.853900487695405" lon="7.937300025009081"><ele>1185.0</ele><time>2026-04-06T13:31:35Z</time></trkpt><trkpt lat="45.85391016092946" lon="7.93739316003221"><ele>1185.0</ele><time>2026-04-06T13:31:39Z</time></trkpt><trkpt lat="45.8538380606333" lon="7.937391817336804"><ele>1185.0</ele><time>2026-04-06T13:31:42Z</time></trkpt><trkpt lat="45.85376195052502" lon="7.937415769300841"><ele>1185.0</ele><time>2026-04-06T13:31:46Z</time></trkpt><trkpt lat="45.853696217273146" lon="7.9374276938749775"><ele>1185.0</ele><time>2026-04-06T13:31:50Z</time></trkpt><trkpt lat="45.853628184436445" lon="7.937429612569757"><ele>1185.0</ele><time>2026-04-06T13:31:54Z</time></trkpt><trkpt lat="45.853562959507904" lon="7.937426468249391"><ele>1185.0</ele><time>2026-04-06T13:31:56.999Z</time></trkpt><trkpt lat="45.85348578403679" lon="7.9374502418937105"><ele>1185.0</ele><time>2026-04-06T13:31:59.999Z</time></trkpt><trkpt lat="45.853397942117326" lon="7.937455852319232"><ele>1185.0</ele><time>2026-04-06T13:32:02.999Z</time></trkpt><trkpt lat="45.85329838499989" lon="7.937472672353551"><ele>1184.1666666666667</ele><time>2026-04-06T13:32:05.999Z</time></trkpt><trkpt lat="45.85323546642058" lon="7.937481642136989"><ele>1183.3333333333333</ele><time>2026-04-06T13:32:07.999Z</time></trkpt><trkpt lat="45.85315222327097" lon="7.9375033800993515"><ele>1182.5</ele><time>2026-04-06T13:32:10.999Z</time></trkpt><trkpt lat="45.853087954918" lon="7.9374994813402795"><ele>1181.6666666666665</ele><time>2026-04-06T13:32:12.999Z</time></trkpt><trkpt lat="45.853011263624516" lon="7.937499302535244"><ele>1180.8333333333333</ele><time>2026-04-06T13:32:15.999Z</time></trkpt><trkpt lat="45.85291903436239" lon="7.937515819170116"><ele>1180.0</ele><time>2026-04-06T13:32:18.999Z</time></trkpt><trkpt lat="45.852844334210694" lon="7.937511819868935"><ele>1180.0000000000002</ele><time>2026-04-06T13:32:21.999Z</time></trkpt><trkpt lat="45.85277119810988" lon="7.937511255778049"><ele>1180.0</ele><time>2026-04-06T13:32:24.999Z</time></trkpt><trkpt lat="45.85269519786433" lon="7.937530191444483"><ele>1180.0</ele><time>2026-04-06T13:32:27.999Z</time></trkpt><trkpt lat="45.85261649937284" lon="7.937529277190523"><ele>1180.0</ele><time>2026-04-06T13:32:30.999Z</time></trkpt><trkpt lat="45.85254353613205" lon="7.937534551656884"><ele>1180.0</ele><time>2026-04-06T13:32:33.999Z</time></trkpt><trkpt lat="45.85247818023348" lon="7.937540047623555"><ele>1180.0000000000002</ele><time>2026-04-06T13:32:36.999Z</time></trkpt><trkpt lat="45.852413357406846" lon="7.937539412162499"><ele>1180.0</ele><time>2026-04-06T13:32:39.999Z</time></trkpt><trkpt lat="45.85234735186882" lon="7.9375427251977335"><ele>1179.6666666666665</ele><time>2026-04-06T13:32:42.999Z</time></trkpt><trkpt lat="45.852265621233244" lon="7.937523449198218"><ele>1179.3333333333333</ele><time>2026-04-06T13:32:46.999Z</time></trkpt><trkpt lat="45.85218564423832" lon="7.937543313474885"><ele>1179.0</ele><time>2026-04-06T13:32:49.999Z</time></trkpt><trkpt lat="45.8520970065708" lon="7.937555694806296"><ele>1178.6666666666667</ele><time>2026-04-06T13:32:52.999Z</time></trkpt><trkpt lat="45.85201507785547" lon="7.937558857356114"><ele>1178.3333333333335</ele><time>2026-04-06T13:32:55.999Z</time></trkpt><trkpt lat="45.85192475652318" lon="7.937572138219654"><ele>1178.0</ele><time>2026-04-06T13:32:58.999Z</time></trkpt><trkpt lat="45.85186158975758" lon="7.9375801365755425"><ele>1177.142857142857</ele><time>2026-04-06T13:33:00.999Z</time></trkpt><trkpt lat="45.851797252099026" lon="7.937579644284766"><ele>1176.2857142857142</ele><time>2026-04-06T13:33:02.999Z</time></trkpt><trkpt lat="45.851732442034134" lon="7.9375835110045045"><ele>1175.4285714285713</ele><time>2026-04-06T13:33:04.999Z</time></trkpt><trkpt lat="45.851635946874644" lon="7.937591405746759"><ele>1174.5714285714284</ele><time>2026-04-06T13:33:07.999Z</time></trkpt><trkpt lat="45.85157085282545" lon="7.937599110376443"><ele>1173.7142857142858</ele><time>2026-04-06T13:33:10Z</time></trkpt><trkpt lat="45.85148719633695" lon="7.937601940004366"><ele>1172.8571428571427</ele><time>2026-04-06T13:33:13Z</time></trkpt><trkpt lat="45.85142257053542" lon="7.937612549185071"><ele>1172.0</ele><time>2026-04-06T13:33:15Z</time></trkpt><trkpt lat="45.85135450882568" lon="7.937630476242844"><ele>1171.1666666666667</ele><time>2026-04-06T13:33:17Z</time></trkpt><trkpt lat="45.851268269121135" lon="7.937635076004844"><ele>1170.3333333333335</ele><time>2026-04-06T13:33:20Z</time></trkpt><trkpt lat="45.85119447025369" lon="7.937635402698968"><ele>1169.5</ele><time>2026-04-06T13:33:23Z</time></trkpt><trkpt lat="45.85112011700568" lon="7.9376393981415605"><ele>1168.6666666666667</ele><time>2026-04-06T13:33:26Z</time></trkpt><trkpt lat="45.85104283354622" lon="7.937646181800208"><ele>1167.8333333333333</ele><time>2026-04-06T13:33:31Z</time></trkpt><trkpt lat="45.850975118727845" lon="7.937680694925353"><ele>1167.0</ele><time>2026-04-06T13:33:34Z</time></trkpt><trkpt lat="45.8508917543259" lon="7.937750994817572"><ele>1166.1666666666667</ele><time>2026-04-06T13:33:37Z</time></trkpt><trkpt lat="45.850822233154304" lon="7.937805737087121"><ele>1165.3333333333333</ele><time>2026-04-06T13:33:39Z</time></trkpt><trkpt lat="45.85076004520716" lon="7.937885241782502"><ele>1164.5</ele><time>2026-04-06T13:33:41Z</time></trkpt><trkpt lat="45.85069343661155" lon="7.937951595848861"><ele>1163.6666666666665</ele><time>2026-04-06T13:33:43Z</time></trkpt><trkpt lat="45.85063411214753" lon="7.938016838865134"><ele>1162.8333333333333</ele><time>2026-04-06T13:33:45Z</time></trkpt><trkpt lat="45.85057628601772" lon="7.938080429213493"><ele>1162.0</ele><time>2026-04-06T13:33:47Z</time></trkpt><trkpt lat="45.850553097138445" lon="7.938203586767456"><ele>1162.0</ele><time>2026-04-06T13:33:49Z</time></trkpt><trkpt lat="45.850602858621805" lon="7.9383368515017585"><ele>1162.0</ele><time>2026-04-06T13:33:50.999Z</time></trkpt><trkpt lat="45.850647339525096" lon="7.938472333097269"><ele>1162.0</ele><time>2026-04-06T13:33:52.999Z</time></trkpt><trkpt lat="45.85066645560522" lon="7.938625589488403"><ele>1162.0</ele><time>2026-04-06T13:33:54.999Z</time></trkpt><trkpt lat="45.850711861999514" lon="7.938756712747156"><ele>1162.0</ele><time>2026-04-06T13:33:56.999Z</time></trkpt><trkpt lat="45.850731315989535" lon="7.938896777001892"><ele>1162.1666666666665</ele><time>2026-04-06T13:33:58.999Z</time></trkpt><trkpt lat="45.850753196677246" lon="7.9390347363975415"><ele>1162.3333333333333</ele><time>2026-04-06T13:34:00.999Z</time></trkpt><trkpt lat="45.85077121751911" lon="7.939161256886289"><ele>1162.5</ele><time>2026-04-06T13:34:02.999Z</time></trkpt><trkpt lat="45.8507913175381" lon="7.9392782220444955"><ele>1162.6666666666667</ele><time>2026-04-06T13:34:04.999Z</time></trkpt><trkpt lat="45.850806549841664" lon="7.939400591582076"><ele>1162.8333333333335</ele><time>2026-04-06T13:34:06.999Z</time></trkpt><trkpt lat="45.850826423064994" lon="7.939513040151156"><ele>1163.0</ele><time>2026-04-06T13:34:08.999Z</time></trkpt><trkpt lat="45.85085348703126" lon="7.939618841194527"><ele>1162.6666666666667</ele><time>2026-04-06T13:34:10.999Z</time></trkpt><trkpt lat="45.850857979388124" lon="7.939731259650085"><ele>1162.3333333333335</ele><time>2026-04-06T13:34:12.999Z</time></trkpt><trkpt lat="45.85087358091463" lon="7.939830843341267"><ele>1162.0</ele><time>2026-04-06T13:34:17.999Z</time></trkpt><trkpt lat="45.850902702258765" lon="7.939930826376822"><ele>1161.6666666666667</ele><time>2026-04-06T13:34:21.999Z</time></trkpt><trkpt lat="45.85090594360344" lon="7.940058620546409"><ele>1161.3333333333333</ele><time>2026-04-06T13:34:24.999Z</time></trkpt><trkpt lat="45.85081829009306" lon="7.940183507786714"><ele>1161.0</ele><time>2026-04-06T13:34:28.999Z</time></trkpt><trkpt lat="45.85074578551532" lon="7.940233160976219"><ele>1162.8</ele><time>2026-04-06T13:34:30.999Z</time></trkpt><trkpt lat="45.85067449083271" lon="7.940290145517635"><ele>1164.6</ele><time>2026-04-06T13:34:32.999Z</time></trkpt><trkpt lat="45.85058815601358" lon="7.940354199520008"><ele>1166.4</ele><time>2026-04-06T13:34:34.999Z</time></trkpt><trkpt lat="45.85048780183788" lon="7.940422240075714"><ele>1168.2</ele><time>2026-04-06T13:34:36.999Z</time></trkpt><trkpt lat="45.8503980377753" lon="7.940501675363327"><ele>1170.0</ele><time>2026-04-06T13:34:38.999Z</time></trkpt><trkpt lat="45.85030805324936" lon="7.940552778517968"><ele>1170.0</ele><time>2026-04-06T13:34:40.999Z</time></trkpt><trkpt lat="45.85021398955756" lon="7.940620387233849"><ele>1170.0</ele><time>2026-04-06T13:34:42.999Z</time></trkpt><trkpt lat="45.85011243085878" lon="7.9406805592792535"><ele>1170.0</ele><time>2026-04-06T13:34:44.999Z</time></trkpt><trkpt lat="45.85002018450206" lon="7.940727575115268"><ele>1170.0</ele><time>2026-04-06T13:34:46.999Z</time></trkpt><trkpt lat="45.84994874879273" lon="7.94075706065746"><ele>1170.0</ele><time>2026-04-06T13:34:48.999Z</time></trkpt><trkpt lat="45.84988501061782" lon="7.940765741336408"><ele>1172.0</ele><time>2026-04-06T13:34:50.999Z</time></trkpt><trkpt lat="45.849814353730494" lon="7.9407734473177465"><ele>1174.0</ele><time>2026-04-06T13:34:52.999Z</time></trkpt><trkpt lat="45.84974613383247" lon="7.940777228972289"><ele>1176.0</ele><time>2026-04-06T13:34:54.999Z</time></trkpt><trkpt lat="45.849655951934395" lon="7.940778446829728"><ele>1178.0</ele><time>2026-04-06T13:34:57.999Z</time></trkpt><trkpt lat="45.84967912784886" lon="7.940938694847322"><ele>1180.0</ele><time>2026-04-06T13:35:04.999Z</time></trkpt><trkpt lat="45.84975225953248" lon="7.940892079236746"><ele>1182.0</ele><time>2026-04-06T13:35:06.999Z</time></trkpt><trkpt lat="45.84982144097976" lon="7.940959335460414"><ele>1182.0</ele><time>2026-04-06T13:35:09.999Z</time></trkpt><trkpt lat="45.84983918555405" lon="7.9410734905558975"><ele>1182.0</ele><time>2026-04-06T13:35:11.999Z</time></trkpt><trkpt lat="45.84984988638014" lon="7.941166831332938"><ele>1182.0</ele><time>2026-04-06T13:35:13.999Z</time></trkpt><trkpt lat="45.849877787443944" lon="7.941292733664292"><ele>1182.0</ele><time>2026-04-06T13:35:17Z</time></trkpt><trkpt lat="45.84986359268725" lon="7.941385735485587"><ele>1182.0</ele><time>2026-04-06T13:35:19Z</time></trkpt><trkpt lat="45.84981198701552" lon="7.941452631093544"><ele>1182.0</ele><time>2026-04-06T13:35:21Z</time></trkpt><trkpt lat="45.849728357131106" lon="7.941458920949753"><ele>1182.0</ele><time>2026-04-06T13:35:23Z</time></trkpt><trkpt lat="45.849617340456135" lon="7.941453055807408"><ele>1182.0</ele><time>2026-04-06T13:35:25Z</time></trkpt><trkpt lat="45.84950208652222" lon="7.941477570648672"><ele>1182.0</ele><time>2026-04-06T13:35:27Z</time></trkpt><trkpt lat="45.84943535596687" lon="7.941499761776379"><ele>1182.0</ele><time>2026-04-06T13:35:28Z</time></trkpt><trkpt lat="45.84936959849753" lon="7.94152244449631"><ele>1182.0</ele><time>2026-04-06T13:35:29Z</time></trkpt><trkpt lat="45.84926103404745" lon="7.941571550370369"><ele>1182.75</ele><time>2026-04-06T13:35:31Z</time></trkpt><trkpt lat="45.849147159891636" lon="7.9416094369716985"><ele>1183.5</ele><time>2026-04-06T13:35:33Z</time></trkpt><trkpt lat="45.8490518395139" lon="7.941705791071197"><ele>1184.25</ele><time>2026-04-06T13:35:35Z</time></trkpt><trkpt lat="45.848940044654505" lon="7.9417637839808615"><ele>1185.0</ele><time>2026-04-06T13:35:37Z</time></trkpt><trkpt lat="45.84884014531936" lon="7.941846977384227"><ele>1185.0</ele><time>2026-04-06T13:35:39Z</time></trkpt><trkpt lat="45.84874571690614" lon="7.941920806035292"><ele>1185.0</ele><time>2026-04-06T13:35:41Z</time></trkpt><trkpt lat="45.84865447620639" lon="7.941993194357699"><ele>1185.0</ele><time>2026-04-06T13:35:43Z</time></trkpt><trkpt lat="45.848558867629535" lon="7.942064547831001"><ele>1185.0</ele><time>2026-04-06T13:35:45Z</time></trkpt><trkpt lat="45.848456864715494" lon="7.9421179196585125"><ele>1185.0</ele><time>2026-04-06T13:35:47Z</time></trkpt><trkpt lat="45.84834923553464" lon="7.942174711150742"><ele>1178.2</ele><time>2026-04-06T13:35:49Z</time></trkpt><trkpt lat="45.84825939037068" lon="7.942209583037944"><ele>1171.4</ele><time>2026-04-06T13:35:51Z</time></trkpt><trkpt lat="45.848146386032894" lon="7.942229614481996"><ele>1164.6</ele><time>2026-04-06T13:35:53Z</time></trkpt><trkpt lat="45.84802869095342" lon="7.942247096278643"><ele>1157.8</ele><time>2026-04-06T13:35:55Z</time></trkpt><trkpt lat="45.847927581228845" lon="7.942284019936119"><ele>1151.0</ele><time>2026-04-06T13:35:57Z</time></trkpt><trkpt lat="45.84782471306593" lon="7.942331189465727"><ele>1151.0</ele><time>2026-04-06T13:35:59Z</time></trkpt><trkpt lat="45.847745472132985" lon="7.942401989625845"><ele>1151.0</ele><time>2026-04-06T13:36:01Z</time></trkpt><trkpt lat="45.84773834337531" lon="7.94250100653146"><ele>1151.0</ele><time>2026-04-06T13:36:04Z</time></trkpt><trkpt lat="45.847670303112146" lon="7.942414116679259"><ele>1151.0</ele><time>2026-04-06T13:36:11.999Z</time></trkpt><trkpt lat="45.84759885424781" lon="7.94238673705678"><ele>1151.0</ele><time>2026-04-06T13:36:13.999Z</time></trkpt><trkpt lat="45.847517921020966" lon="7.942388844450093"><ele>1151.0</ele><time>2026-04-06T13:36:15.999Z</time></trkpt><trkpt lat="45.847443370327824" lon="7.942345909924364"><ele>1150.3333333333335</ele><time>2026-04-06T13:36:18.999Z</time></trkpt><trkpt lat="45.84735558943762" lon="7.942252238904754"><ele>1149.6666666666667</ele><time>2026-04-06T13:36:21.999Z</time></trkpt><trkpt lat="45.84723978688701" lon="7.9422209488953985"><ele>1149.0</ele><time>2026-04-06T13:36:23.999Z</time></trkpt><trkpt lat="45.84716985709737" lon="7.942213629527299"><ele>1148.3333333333333</ele><time>2026-04-06T13:36:24.999Z</time></trkpt><trkpt lat="45.847099860650474" lon="7.942194260837244"><ele>1147.6666666666665</ele><time>2026-04-06T13:36:25.999Z</time></trkpt><trkpt lat="45.84702634256095" lon="7.94220646980503"><ele>1147.0</ele><time>2026-04-06T13:36:26.999Z</time></trkpt><trkpt lat="45.84696434392375" lon="7.94227233226682"><ele>1147.0</ele><time>2026-04-06T13:36:27.999Z</time></trkpt><trkpt lat="45.84689961915695" lon="7.94232507632681"><ele>1147.0</ele><time>2026-04-06T13:36:28.999Z</time></trkpt><trkpt lat="45.84684300288619" lon="7.942369309170316"><ele>1147.0</ele><time>2026-04-06T13:36:29.999Z</time></trkpt><trkpt lat="45.84679538391204" lon="7.942449738353606"><ele>1147.0</ele><time>2026-04-06T13:36:31.999Z</time></trkpt><trkpt lat="45.846753697885" lon="7.942550299805235"><ele>1147.0</ele><time>2026-04-06T13:36:35.999Z</time></trkpt><trkpt lat="45.846693048131826" lon="7.942623080714493"><ele>1147.0</ele><time>2026-04-06T13:36:51.999Z</time></trkpt><trkpt lat="45.846630121994124" lon="7.942726477974337"><ele>1146.8333333333333</ele><time>2026-04-06T13:36:53.999Z</time></trkpt><trkpt lat="45.84656699835343" lon="7.942811119608772"><ele>1146.6666666666665</ele><time>2026-04-06T13:36:55.999Z</time></trkpt><trkpt lat="45.84651002775951" lon="7.942888597525778"><ele>1146.5</ele><time>2026-04-06T13:36:57.999Z</time></trkpt><trkpt lat="45.846447667910276" lon="7.942971309460532"><ele>1146.3333333333333</ele><time>2026-04-06T13:37:00.999Z</time></trkpt><trkpt lat="45.8463891193881" lon="7.943070845348491"><ele>1146.1666666666667</ele><time>2026-04-06T13:37:02.999Z</time></trkpt><trkpt lat="45.8463177289512" lon="7.943172964416238"><ele>1146.0</ele><time>2026-04-06T13:37:04.999Z</time></trkpt><trkpt lat="45.84624534639224" lon="7.943287504364038"><ele>1145.0</ele><time>2026-04-06T13:37:06.999Z</time></trkpt><trkpt lat="45.846164914758575" lon="7.943398100551455"><ele>1144.0</ele><time>2026-04-06T13:37:08.999Z</time></trkpt><trkpt lat="45.846095272836834" lon="7.943514736650325"><ele>1143.0</ele><time>2026-04-06T13:37:10.999Z</time></trkpt><trkpt lat="45.84602150515395" lon="7.943633478042108"><ele>1142.0</ele><time>2026-04-06T13:37:12.999Z</time></trkpt><trkpt lat="45.84595301481269" lon="7.9436920759034555"><ele>1141.0</ele><time>2026-04-06T13:37:14.999Z</time></trkpt><trkpt lat="45.8459030150529" lon="7.9437687986873025"><ele>1141.0</ele><time>2026-04-06T13:37:16.999Z</time></trkpt><trkpt lat="45.845839501090325" lon="7.943823020229802"><ele>1141.0</ele><time>2026-04-06T13:37:18.999Z</time></trkpt><trkpt lat="45.84576197286243" lon="7.943836068783816"><ele>1141.0</ele><time>2026-04-06T13:37:21Z</time></trkpt><trkpt lat="45.84570049389703" lon="7.9439085104764375"><ele>1141.0</ele><time>2026-04-06T13:37:23Z</time></trkpt><trkpt lat="45.84565231599" lon="7.944017227643994"><ele>1141.0</ele><time>2026-04-06T13:37:25Z</time></trkpt><trkpt lat="45.84556949670987" lon="7.944093599893491"><ele>1141.0</ele><time>2026-04-06T13:37:27Z</time></trkpt><trkpt lat="45.84548197697728" lon="7.944167160095213"><ele>1140.6</ele><time>2026-04-06T13:37:29Z</time></trkpt><trkpt lat="45.84537936509949" lon="7.944238815310468"><ele>1140.1999999999998</ele><time>2026-04-06T13:37:31Z</time></trkpt><trkpt lat="45.845291447083504" lon="7.944322931791086"><ele>1139.8000000000002</ele><time>2026-04-06T13:37:33Z</time></trkpt><trkpt lat="45.84518938829555" lon="7.944368704802238"><ele>1139.4</ele><time>2026-04-06T13:37:35Z</time></trkpt><trkpt lat="45.84509013791365" lon="7.944437889856202"><ele>1139.0</ele><time>2026-04-06T13:37:37Z</time></trkpt><trkpt lat="45.84497978170009" lon="7.944491090024075"><ele>1139.0</ele><time>2026-04-06T13:37:39Z</time></trkpt><trkpt lat="45.844874142488045" lon="7.944559653609478"><ele>1139.0</ele><time>2026-04-06T13:37:41Z</time></trkpt><trkpt lat="45.844781115541174" lon="7.944636675094683"><ele>1139.0</ele><time>2026-04-06T13:37:43Z</time></trkpt><trkpt lat="45.844685397495304" lon="7.944703389526245"><ele>1139.0</ele><time>2026-04-06T13:37:45Z</time></trkpt><trkpt lat="45.84456847870078" lon="7.944761912156194"><ele>1139.0</ele><time>2026-04-06T13:37:47Z</time></trkpt><trkpt lat="45.844501360044845" lon="7.944759046595696"><ele>1139.0</ele><time>2026-04-06T13:37:48Z</time></trkpt><trkpt lat="45.844436756496854" lon="7.944760511065889"><ele>1139.0</ele><time>2026-04-06T13:37:49Z</time></trkpt><trkpt lat="45.844365854592645" lon="7.944771195951203"><ele>1139.0</ele><time>2026-04-06T13:37:50Z</time></trkpt><trkpt lat="45.844296797347276" lon="7.944793263864841"><ele>1139.0</ele><time>2026-04-06T13:37:51Z</time></trkpt><trkpt lat="45.844231365186" lon="7.944828508814261"><ele>1139.0</ele><time>2026-04-06T13:37:52Z</time></trkpt><trkpt lat="45.844170505004215" lon="7.944872322047347"><ele>1139.0</ele><time>2026-04-06T13:37:53Z</time></trkpt><trkpt lat="45.844111435837554" lon="7.944910845177775"><ele>1139.4</ele><time>2026-04-06T13:37:54Z</time></trkpt><trkpt lat="45.8440469347352" lon="7.94494914812233"><ele>1139.8000000000002</ele><time>2026-04-06T13:37:55Z</time></trkpt><trkpt lat="45.84398630402233" lon="7.944985162202243"><ele>1140.1999999999998</ele><time>2026-04-06T13:37:56Z</time></trkpt><trkpt lat="45.843881101055956" lon="7.945059749961164"><ele>1140.6</ele><time>2026-04-06T13:37:58Z</time></trkpt><trkpt lat="45.84378929601067" lon="7.945145493816388"><ele>1141.0</ele><time>2026-04-06T13:38:00Z</time></trkpt><trkpt lat="45.84370735993815" lon="7.945228209954148"><ele>1141.0</ele><time>2026-04-06T13:38:02Z</time></trkpt><trkpt lat="45.84362510151918" lon="7.945323175422667"><ele>1141.0</ele><time>2026-04-06T13:38:04Z</time></trkpt><trkpt lat="45.843540248125564" lon="7.945410876803067"><ele>1141.0</ele><time>2026-04-06T13:38:06Z</time></trkpt><trkpt lat="45.843458184897365" lon="7.945502138986067"><ele>1141.0</ele><time>2026-04-06T13:38:08Z</time></trkpt><trkpt lat="45.843360913293196" lon="7.9455684231305765"><ele>1141.0</ele><time>2026-04-06T13:38:09.999Z</time></trkpt><trkpt lat="45.843263975414025" lon="7.945632497958432"><ele>1140.3999999999999</ele><time>2026-04-06T13:38:11.999Z</time></trkpt><trkpt lat="45.843165512491275" lon="7.945709609986417"><ele>1139.8</ele><time>2026-04-06T13:38:13.999Z</time></trkpt><trkpt lat="45.8430613485654" lon="7.945799860853696"><ele>1139.1999999999998</ele><time>2026-04-06T13:38:15.999Z</time></trkpt><trkpt lat="45.84296342439364" lon="7.945875534293768"><ele>1138.6</ele><time>2026-04-06T13:38:17.999Z</time></trkpt><trkpt lat="45.84290232507114" lon="7.945900934186143"><ele>1138.0</ele><time>2026-04-06T13:38:18.999Z</time></trkpt><trkpt lat="45.842842534404426" lon="7.945938880468682"><ele>1138.0</ele><time>2026-04-06T13:38:19.999Z</time></trkpt><trkpt lat="45.84278590654457" lon="7.945981383377852"><ele>1138.0</ele><time>2026-04-06T13:38:20.999Z</time></trkpt><trkpt lat="45.84269141631905" lon="7.946074574988887"><ele>1138.0</ele><time>2026-04-06T13:38:22.999Z</time></trkpt><trkpt lat="45.842619040341155" lon="7.94616814572991"><ele>1138.0</ele><time>2026-04-06T13:38:24.999Z</time></trkpt><trkpt lat="45.84254406332408" lon="7.946238079428729"><ele>1138.0</ele><time>2026-04-06T13:38:26.999Z</time></trkpt><trkpt lat="45.84245764831479" lon="7.9462796697519815"><ele>1134.8</ele><time>2026-04-06T13:38:28.999Z</time></trkpt><trkpt lat="45.84236873581973" lon="7.946302898395209"><ele>1131.6</ele><time>2026-04-06T13:38:30.999Z</time></trkpt><trkpt lat="45.84226018393285" lon="7.946318151727954"><ele>1128.4</ele><time>2026-04-06T13:38:32.999Z</time></trkpt><trkpt lat="45.8421996865842" lon="7.946367874659516"><ele>1125.2</ele><time>2026-04-06T13:38:33.999Z</time></trkpt><trkpt lat="45.84210545079821" lon="7.946475356609073"><ele>1122.0</ele><time>2026-04-06T13:38:35.999Z</time></trkpt><trkpt lat="45.84202272972745" lon="7.946509596841285"><ele>1122.0</ele><time>2026-04-06T13:38:37.999Z</time></trkpt><trkpt lat="45.84194310040273" lon="7.946501016157681"><ele>1122.0</ele><time>2026-04-06T13:38:40.999Z</time></trkpt><trkpt lat="45.841850096533896" lon="7.946511961076942"><ele>1122.0</ele><time>2026-04-06T13:38:43.999Z</time></trkpt><trkpt lat="45.84177361820598" lon="7.946527632130992"><ele>1122.0</ele><time>2026-04-06T13:38:46.999Z</time></trkpt><trkpt lat="45.84170552298108" lon="7.946526998065658"><ele>1122.0</ele><time>2026-04-06T13:38:48.999Z</time></trkpt><trkpt lat="45.841628179513066" lon="7.9465434998205495"><ele>1122.0</ele><time>2026-04-06T13:38:50.999Z</time></trkpt><trkpt lat="45.841543486764905" lon="7.946580779144313"><ele>1122.0</ele><time>2026-04-06T13:38:52.999Z</time></trkpt><trkpt lat="45.84145182700454" lon="7.9466221168120175"><ele>1122.0</ele><time>2026-04-06T13:38:54.999Z</time></trkpt><trkpt lat="45.84135854300858" lon="7.946688032454427"><ele>1122.0</ele><time>2026-04-06T13:38:56.999Z</time></trkpt><trkpt lat="45.84126970438194" lon="7.946764174263137"><ele>1122.0</ele><time>2026-04-06T13:38:58.999Z</time></trkpt><trkpt lat="45.841185738867864" lon="7.946855879880828"><ele>1122.0</ele><time>2026-04-06T13:39:00.999Z</time></trkpt><trkpt lat="45.84110595116069" lon="7.946967062785266"><ele>1122.0</ele><time>2026-04-06T13:39:02.999Z</time></trkpt><trkpt lat="45.841028226782825" lon="7.9470736399865"><ele>1122.0</ele><time>2026-04-06T13:39:04.999Z</time></trkpt><trkpt lat="45.84097905297948" lon="7.947191790514627"><ele>1122.0</ele><time>2026-04-06T13:39:06.999Z</time></trkpt><trkpt lat="45.84092701753213" lon="7.947320168895466"><ele>1122.0</ele><time>2026-04-06T13:39:08.999Z</time></trkpt><trkpt lat="45.840875517544085" lon="7.94745970131906"><ele>1122.0</ele><time>2026-04-06T13:39:10.999Z</time></trkpt><trkpt lat="45.84082667152213" lon="7.947603676880605"><ele>1119.0</ele><time>2026-04-06T13:39:12.999Z</time></trkpt><trkpt lat="45.84079053212369" lon="7.947760113586387"><ele>1116.0</ele><time>2026-04-06T13:39:14.999Z</time></trkpt><trkpt lat="45.84072965619007" lon="7.947812244667981"><ele>1113.0</ele><time>2026-04-06T13:39:15.999Z</time></trkpt><trkpt lat="45.84068978366057" lon="7.947961655641811"><ele>1110.0</ele><time>2026-04-06T13:39:17.999Z</time></trkpt><trkpt lat="45.840655030002566" lon="7.94810593060685"><ele>1107.0</ele><time>2026-04-06T13:39:19.999Z</time></trkpt><trkpt lat="45.8406337773516" lon="7.9482631169125595"><ele>1107.6</ele><time>2026-04-06T13:39:21.999Z</time></trkpt><trkpt lat="45.84059173089072" lon="7.948415758720994"><ele>1108.2</ele><time>2026-04-06T13:39:23.999Z</time></trkpt><trkpt lat="45.8405754122625" lon="7.948581393350638"><ele>1108.8</ele><time>2026-04-06T13:39:25.999Z</time></trkpt><trkpt lat="45.8405167750357" lon="7.9486275063893554"><ele>1109.4</ele><time>2026-04-06T13:39:27Z</time></trkpt><trkpt lat="45.84043111243726" lon="7.94875029497135"><ele>1110.0</ele><time>2026-04-06T13:39:29Z</time></trkpt><trkpt lat="45.84038713021844" lon="7.948815746214413"><ele>1110.0</ele><time>2026-04-06T13:39:30Z</time></trkpt><trkpt lat="45.84034531898004" lon="7.948883816180487"><ele>1110.0</ele><time>2026-04-06T13:39:31Z</time></trkpt><trkpt lat="45.840305461248754" lon="7.948955210148525"><ele>1110.0</ele><time>2026-04-06T13:39:32Z</time></trkpt><trkpt lat="45.840240835468244" lon="7.9490853259079355"><ele>1110.0</ele><time>2026-04-06T13:39:34Z</time></trkpt><trkpt lat="45.84017991583027" lon="7.949216680341224"><ele>1110.0</ele><time>2026-04-06T13:39:36Z</time></trkpt><trkpt lat="45.84012918250456" lon="7.9493523765694905"><ele>1109.2</ele><time>2026-04-06T13:39:38Z</time></trkpt><trkpt lat="45.840076335534256" lon="7.949495504119429"><ele>1108.4</ele><time>2026-04-06T13:39:40Z</time></trkpt><trkpt lat="45.84002599301909" lon="7.949631807330526"><ele>1107.6</ele><time>2026-04-06T13:39:42Z</time></trkpt><trkpt lat="45.83998276417269" lon="7.949730254768075"><ele>1106.8</ele><time>2026-04-06T13:39:44Z</time></trkpt><trkpt lat="45.839922686315816" lon="7.94983012823022"><ele>1106.0</ele><time>2026-04-06T13:39:46Z</time></trkpt><trkpt lat="45.83984343107301" lon="7.949909289334007"><ele>1106.0</ele><time>2026-04-06T13:39:48Z</time></trkpt><trkpt lat="45.83978335743251" lon="7.949979829939813"><ele>1106.0</ele><time>2026-04-06T13:39:50Z</time></trkpt><trkpt lat="45.83970104817101" lon="7.95006120776569"><ele>1106.0</ele><time>2026-04-06T13:39:52Z</time></trkpt><trkpt lat="45.83961466340419" lon="7.950146980001205"><ele>1106.0</ele><time>2026-04-06T13:39:54Z</time></trkpt><trkpt lat="45.83954788146471" lon="7.9502678429689295"><ele>1106.0</ele><time>2026-04-06T13:39:56Z</time></trkpt><trkpt lat="45.83948478031925" lon="7.950374140618135"><ele>1105.0</ele><time>2026-04-06T13:39:58Z</time></trkpt><trkpt lat="45.839421167510075" lon="7.95048276409238"><ele>1104.0</ele><time>2026-04-06T13:40:00Z</time></trkpt><trkpt lat="45.839356585453515" lon="7.950568171959385"><ele>1103.0</ele><time>2026-04-06T13:40:02Z</time></trkpt><trkpt lat="45.83927226114832" lon="7.95060807907495"><ele>1102.0</ele><time>2026-04-06T13:40:04Z</time></trkpt><trkpt lat="45.83918508868138" lon="7.950694894088746"><ele>1101.0</ele><time>2026-04-06T13:40:06Z</time></trkpt><trkpt lat="45.83909103333902" lon="7.950762879151333"><ele>1101.0</ele><time>2026-04-06T13:40:08Z</time></trkpt><trkpt lat="45.838999999143226" lon="7.950819255954389"><ele>1101.0</ele><time>2026-04-06T13:40:10Z</time></trkpt><trkpt lat="45.83890673763181" lon="7.950859046834161"><ele>1101.0</ele><time>2026-04-06T13:40:12Z</time></trkpt><trkpt lat="45.83881158076556" lon="7.9509055140139875"><ele>1101.0</ele><time>2026-04-06T13:40:14Z</time></trkpt><trkpt lat="45.838716642534564" lon="7.9509649858694385"><ele>1101.0</ele><time>2026-04-06T13:40:16Z</time></trkpt><trkpt lat="45.83862201877476" lon="7.951034097888599"><ele>1102.0</ele><time>2026-04-06T13:40:18Z</time></trkpt><trkpt lat="45.83853072567281" lon="7.951115389493004"><ele>1103.0</ele><time>2026-04-06T13:40:20Z</time></trkpt><trkpt lat="45.838445416563744" lon="7.9512074562158315"><ele>1104.0</ele><time>2026-04-06T13:40:22Z</time></trkpt><trkpt lat="45.8383649329314" lon="7.951301802006419"><ele>1105.0</ele><time>2026-04-06T13:40:24Z</time></trkpt><trkpt lat="45.83829660728239" lon="7.95140790205717"><ele>1106.0</ele><time>2026-04-06T13:40:26Z</time></trkpt><trkpt lat="45.838227189405" lon="7.951493058822812"><ele>1105.4285714285713</ele><time>2026-04-06T13:40:28Z</time></trkpt><trkpt lat="45.838155472369316" lon="7.951559591830374"><ele>1104.857142857143</ele><time>2026-04-06T13:40:30Z</time></trkpt><trkpt lat="45.83810070809823" lon="7.951625813100791"><ele>1104.2857142857142</ele><time>2026-04-06T13:40:32Z</time></trkpt><trkpt lat="45.83802521931092" lon="7.951673773538264"><ele>1103.7142857142858</ele><time>2026-04-06T13:40:35Z</time></trkpt><trkpt lat="45.83796584995956" lon="7.951734594222674"><ele>1103.142857142857</ele><time>2026-04-06T13:40:40Z</time></trkpt><trkpt lat="45.838025572802536" lon="7.951673425135923"><ele>1102.5714285714284</ele><time>2026-04-06T13:40:47.999Z</time></trkpt><trkpt lat="45.83807761129522" lon="7.95162213479631"><ele>1102.0</ele><time>2026-04-06T13:40:50.999Z</time></trkpt><trkpt lat="45.838142084425975" lon="7.951558037795182"><ele>1100.5</ele><time>2026-04-06T13:40:53.999Z</time></trkpt><trkpt lat="45.83820830242651" lon="7.951488295632114"><ele>1099.0</ele><time>2026-04-06T13:40:56.999Z</time></trkpt><trkpt lat="45.83827087449216" lon="7.951416840301514"><ele>1097.5</ele><time>2026-04-06T13:40:59.999Z</time></trkpt><trkpt lat="45.83832768538564" lon="7.951363112015101"><ele>1096.0</ele><time>2026-04-06T13:41:02.999Z</time></trkpt><trkpt lat="45.8382505125677" lon="7.95141052008327"><ele>1094.5</ele><time>2026-04-06T13:41:09.999Z</time></trkpt><trkpt lat="45.83818151613362" lon="7.951488523540146"><ele>1093.0</ele><time>2026-04-06T13:41:12.999Z</time></trkpt><trkpt lat="45.83812335346514" lon="7.951548137197742"><ele>1093.0</ele><time>2026-04-06T13:41:14.999Z</time></trkpt><trkpt lat="45.83806279595917" lon="7.951607824095889"><ele>1093.0</ele><time>2026-04-06T13:41:16.999Z</time></trkpt><trkpt lat="45.83800030246553" lon="7.951669419113254"><ele>1093.0</ele><time>2026-04-06T13:41:18.999Z</time></trkpt><trkpt lat="45.83792277167978" lon="7.951750316618284"><ele>1093.0</ele><time>2026-04-06T13:41:21.999Z</time></trkpt><trkpt lat="45.83786400168491" lon="7.951812067912069"><ele>1093.0</ele><time>2026-04-06T13:41:23.999Z</time></trkpt><trkpt lat="45.83780983151827" lon="7.951868986043251"><ele>1093.0</ele><time>2026-04-06T13:41:25.999Z</time></trkpt><trkpt lat="45.83752047785425" lon="7.951762360090353"><ele>1093.25</ele><time>2026-04-06T13:41:27.999Z</time></trkpt><trkpt lat="45.837450006497235" lon="7.9517358379966"><ele>1093.5</ele><time>2026-04-06T13:41:31.999Z</time></trkpt><trkpt lat="45.837358694835935" lon="7.951725704015474"><ele>1093.75</ele><time>2026-04-06T13:41:35Z</time></trkpt><trkpt lat="45.837240528527566" lon="7.95197688328576"><ele>1094.0</ele><time>2026-04-06T13:41:39Z</time></trkpt><trkpt lat="45.83718119792834" lon="7.952050497570023"><ele>1094.0</ele><time>2026-04-06T13:41:41Z</time></trkpt><trkpt lat="45.83712738836764" lon="7.95212749378934"><ele>1094.0</ele><time>2026-04-06T13:41:43Z</time></trkpt><trkpt lat="45.83708337533457" lon="7.9522055275101735"><ele>1094.0</ele><time>2026-04-06T13:41:45Z</time></trkpt><trkpt lat="45.83703464297012" lon="7.952281880405775"><ele>1094.0</ele><time>2026-04-06T13:41:47Z</time></trkpt><trkpt lat="45.83698310226943" lon="7.952359534216358"><ele>1094.0</ele><time>2026-04-06T13:41:49Z</time></trkpt><trkpt lat="45.83693437780936" lon="7.952456129184641"><ele>1094.0</ele><time>2026-04-06T13:41:51Z</time></trkpt><trkpt lat="45.836890096332404" lon="7.952549508033178"><ele>1094.6666666666667</ele><time>2026-04-06T13:41:53Z</time></trkpt><trkpt lat="45.836847968571504" lon="7.952652627324881"><ele>1095.3333333333335</ele><time>2026-04-06T13:41:55Z</time></trkpt><trkpt lat="45.83680642878517" lon="7.952754832740138"><ele>1096.0</ele><time>2026-04-06T13:41:57Z</time></trkpt><trkpt lat="45.83675915160205" lon="7.952856618154639"><ele>1096.6666666666667</ele><time>2026-04-06T13:41:59Z</time></trkpt><trkpt lat="45.83672296457612" lon="7.95296576617511"><ele>1097.3333333333333</ele><time>2026-04-06T13:42:01Z</time></trkpt><trkpt lat="45.83666885637635" lon="7.953061179133688"><ele>1098.0</ele><time>2026-04-06T13:42:03Z</time></trkpt><trkpt lat="45.836617732516416" lon="7.953146248660779"><ele>1096.3333333333333</ele><time>2026-04-06T13:42:05Z</time></trkpt><trkpt lat="45.83656956210727" lon="7.953237829847067"><ele>1094.6666666666667</ele><time>2026-04-06T13:42:07Z</time></trkpt><trkpt lat="45.83652310353941" lon="7.953337608092694"><ele>1093.0</ele><time>2026-04-06T13:42:09Z</time></trkpt><trkpt lat="45.836477212553774" lon="7.953438746308564"><ele>1091.3333333333335</ele><time>2026-04-06T13:42:11Z</time></trkpt><trkpt lat="45.836431995639735" lon="7.953536592270774"><ele>1089.6666666666667</ele><time>2026-04-06T13:42:13Z</time></trkpt><trkpt lat="45.836389320288426" lon="7.9536326972386675"><ele>1088.0</ele><time>2026-04-06T13:42:15Z</time></trkpt><trkpt lat="45.836351883023916" lon="7.953724400550556"><ele>1088.0</ele><time>2026-04-06T13:42:17Z</time></trkpt><trkpt lat="45.836316566427456" lon="7.9538127120287125"><ele>1088.0</ele><time>2026-04-06T13:42:19Z</time></trkpt><trkpt lat="45.83628359658053" lon="7.953896336933861"><ele>1088.0</ele><time>2026-04-06T13:42:21Z</time></trkpt><trkpt lat="45.83624128697779" lon="7.954016716808494"><ele>1088.0</ele><time>2026-04-06T13:42:24Z</time></trkpt><trkpt lat="45.83624531861083" lon="7.9541207286248214"><ele>1088.0</ele><time>2026-04-06T13:42:26Z</time></trkpt><trkpt lat="45.83623575991472" lon="7.954225579473207"><ele>1088.0</ele><time>2026-04-06T13:42:28Z</time></trkpt><trkpt lat="45.83618583362995" lon="7.954320078148048"><ele>1088.6</ele><time>2026-04-06T13:42:30Z</time></trkpt><trkpt lat="45.83612884841316" lon="7.954436702829603"><ele>1089.1999999999998</ele><time>2026-04-06T13:42:32Z</time></trkpt><trkpt lat="45.83606546153958" lon="7.9545376010942626"><ele>1089.8</ele><time>2026-04-06T13:42:34Z</time></trkpt><trkpt lat="45.83601290537732" lon="7.954644849721521"><ele>1090.3999999999999</ele><time>2026-04-06T13:42:36Z</time></trkpt><trkpt lat="45.83597490652291" lon="7.954771745622993"><ele>1091.0</ele><time>2026-04-06T13:42:38Z</time></trkpt><trkpt lat="45.83592374613771" lon="7.954886599175195"><ele>1090.0</ele><time>2026-04-06T13:42:40Z</time></trkpt><trkpt lat="45.835869015513566" lon="7.954990913337292"><ele>1089.0</ele><time>2026-04-06T13:42:42Z</time></trkpt><trkpt lat="45.83582527710658" lon="7.955115799701783"><ele>1088.0</ele><time>2026-04-06T13:42:44Z</time></trkpt><trkpt lat="45.83577676655613" lon="7.9552319971906345"><ele>1087.0</ele><time>2026-04-06T13:42:46Z</time></trkpt><trkpt lat="45.83575792919364" lon="7.955341036771628"><ele>1086.0</ele><time>2026-04-06T13:42:48Z</time></trkpt><trkpt lat="45.83573648524305" lon="7.955451538479306"><ele>1085.0</ele><time>2026-04-06T13:42:50Z</time></trkpt><trkpt lat="45.83570433145245" lon="7.955531429029606"><ele>1085.0</ele><time>2026-04-06T13:42:52Z</time></trkpt><trkpt lat="45.83567484797476" lon="7.955611900858562"><ele>1085.0</ele><time>2026-04-06T13:42:53.999Z</time></trkpt><trkpt lat="45.83564065001585" lon="7.955696415036724"><ele>1085.0</ele><time>2026-04-06T13:42:55.999Z</time></trkpt><trkpt lat="45.83560645489661" lon="7.955781450905271"><ele>1085.0</ele><time>2026-04-06T13:42:57.999Z</time></trkpt><trkpt lat="45.8355773611334" lon="7.9558649905878775"><ele>1085.0</ele><time>2026-04-06T13:42:59.999Z</time></trkpt><trkpt lat="45.83553451995098" lon="7.955972501478799"><ele>1085.0</ele><time>2026-04-06T13:43:02.999Z</time></trkpt><trkpt lat="45.83547135131845" lon="7.9560626751913475"><ele>1085.0</ele><time>2026-04-06T13:43:05.999Z</time></trkpt><trkpt lat="45.83541628459452" lon="7.956146130780107"><ele>1087.4</ele><time>2026-04-06T13:43:07.999Z</time></trkpt><trkpt lat="45.83535570633896" lon="7.956250528838058"><ele>1089.8</ele><time>2026-04-06T13:43:09.999Z</time></trkpt><trkpt lat="45.83530577518644" lon="7.95637449190696"><ele>1092.2</ele><time>2026-04-06T13:43:11.999Z</time></trkpt><trkpt lat="45.83524349726683" lon="7.956528801495243"><ele>1094.6</ele><time>2026-04-06T13:43:13.999Z</time></trkpt><trkpt lat="45.83518701042388" lon="7.956685833859483"><ele>1097.0</ele><time>2026-04-06T13:43:15.999Z</time></trkpt><trkpt lat="45.8351398618331" lon="7.956846982772653"><ele>1095.0</ele><time>2026-04-06T13:43:17.999Z</time></trkpt><trkpt lat="45.835069239549675" lon="7.9569914431297795"><ele>1093.0</ele><time>2026-04-06T13:43:19.999Z</time></trkpt><trkpt lat="45.83501303877607" lon="7.957119626294969"><ele>1091.0</ele><time>2026-04-06T13:43:21.999Z</time></trkpt><trkpt lat="45.8349857341681" lon="7.9572631770666185"><ele>1089.0</ele><time>2026-04-06T13:43:23.999Z</time></trkpt><trkpt lat="45.83495255918913" lon="7.957388928279099"><ele>1087.0</ele><time>2026-04-06T13:43:25.999Z</time></trkpt><trkpt lat="45.83490493406511" lon="7.957507564182173"><ele>1090.0</ele><time>2026-04-06T13:43:27.999Z</time></trkpt><trkpt lat="45.834862301430974" lon="7.957618138155904"><ele>1093.0</ele><time>2026-04-06T13:43:29.999Z</time></trkpt><trkpt lat="45.83482214119011" lon="7.957723063469758"><ele>1096.0</ele><time>2026-04-06T13:43:31.999Z</time></trkpt><trkpt lat="45.83477742481481" lon="7.957819408198032"><ele>1099.0</ele><time>2026-04-06T13:43:33.999Z</time></trkpt><trkpt lat="45.834729392010644" lon="7.957924785403104"><ele>1102.0</ele><time>2026-04-06T13:43:35.999Z</time></trkpt><trkpt lat="45.83468391219209" lon="7.9580376143857405"><ele>1105.0</ele><time>2026-04-06T13:43:37.999Z</time></trkpt><trkpt lat="45.83462343510958" lon="7.958150540736775"><ele>1105.0</ele><time>2026-04-06T13:43:40Z</time></trkpt><trkpt lat="45.834568685862756" lon="7.958265795106071"><ele>1105.0</ele><time>2026-04-06T13:43:42Z</time></trkpt><trkpt lat="45.834510466716615" lon="7.958375122970758"><ele>1105.0</ele><time>2026-04-06T13:43:44Z</time></trkpt><trkpt lat="45.83445800318191" lon="7.958475245188589"><ele>1105.0</ele><time>2026-04-06T13:43:46Z</time></trkpt><trkpt lat="45.83440507259381" lon="7.958574284462741"><ele>1105.0</ele><time>2026-04-06T13:43:48Z</time></trkpt><trkpt lat="45.83435744527583" lon="7.958680076818488"><ele>1103.5</ele><time>2026-04-06T13:43:50Z</time></trkpt><trkpt lat="45.834303479156574" lon="7.958782766987874"><ele>1102.0</ele><time>2026-04-06T13:43:52Z</time></trkpt><trkpt lat="45.83425983059615" lon="7.9588794271852805"><ele>1100.5</ele><time>2026-04-06T13:43:54Z</time></trkpt><trkpt lat="45.834204972753845" lon="7.958978309627195"><ele>1099.0</ele><time>2026-04-06T13:43:56Z</time></trkpt><trkpt lat="45.83415679823129" lon="7.959080261378765"><ele>1097.5</ele><time>2026-04-06T13:43:58Z</time></trkpt><trkpt lat="45.8341044766442" lon="7.959185605692217"><ele>1096.0</ele><time>2026-04-06T13:44:00Z</time></trkpt><trkpt lat="45.83406071112039" lon="7.95927760833756"><ele>1096.0</ele><time>2026-04-06T13:44:02Z</time></trkpt><trkpt lat="45.83402720460236" lon="7.959362711301231"><ele>1096.0</ele><time>2026-04-06T13:44:04Z</time></trkpt><trkpt lat="45.83399609316441" lon="7.959448456983752"><ele>1096.0</ele><time>2026-04-06T13:44:06Z</time></trkpt><trkpt lat="45.83397686766239" lon="7.959579111899385"><ele>1096.0</ele><time>2026-04-06T13:44:09Z</time></trkpt><trkpt lat="45.8339451944072" lon="7.95966181758615"><ele>1096.0</ele><time>2026-04-06T13:44:11Z</time></trkpt><trkpt lat="45.833903028372404" lon="7.95977559282964"><ele>1096.0</ele><time>2026-04-06T13:44:14Z</time></trkpt><trkpt lat="45.833853280175596" lon="7.959860355483004"><ele>1096.0</ele><time>2026-04-06T13:44:17Z</time></trkpt><trkpt lat="45.83379560929695" lon="7.959942380577245"><ele>1096.0</ele><time>2026-04-06T13:44:19Z</time></trkpt><trkpt lat="45.83373199431791" lon="7.959999560953127"><ele>1096.0</ele><time>2026-04-06T13:44:21Z</time></trkpt><trkpt lat="45.8336670139631" lon="7.960055668870884"><ele>1096.0</ele><time>2026-04-06T13:44:24Z</time></trkpt><trkpt lat="45.83359874002569" lon="7.960137214297021"><ele>1096.0</ele><time>2026-04-06T13:44:27Z</time></trkpt><trkpt lat="45.83354991068085" lon="7.960203501513639"><ele>1096.0</ele><time>2026-04-06T13:44:29Z</time></trkpt><trkpt lat="45.83351586402091" lon="7.960302334113245"><ele>1097.0</ele><time>2026-04-06T13:44:32Z</time></trkpt><trkpt lat="45.833482389356895" lon="7.960420303975149"><ele>1098.0</ele><time>2026-04-06T13:44:34Z</time></trkpt><trkpt lat="45.83343872428727" lon="7.960548266761455"><ele>1099.0</ele><time>2026-04-06T13:44:36Z</time></trkpt><trkpt lat="45.83341101462499" lon="7.960655279777628"><ele>1100.0</ele><time>2026-04-06T13:44:38Z</time></trkpt><trkpt lat="45.83337592762931" lon="7.960767300843411"><ele>1101.0</ele><time>2026-04-06T13:44:41Z</time></trkpt><trkpt lat="45.833338640889785" lon="7.960857929177975"><ele>1102.0</ele><time>2026-04-06T13:44:45Z</time></trkpt><trkpt lat="45.83330832659681" lon="7.960944598028959"><ele>1099.142857142857</ele><time>2026-04-06T13:44:48Z</time></trkpt><trkpt lat="45.83326409842813" lon="7.961032833005549"><ele>1096.2857142857142</ele><time>2026-04-06T13:44:50Z</time></trkpt><trkpt lat="45.833214788686476" lon="7.961096148464786"><ele>1093.4285714285716</ele><time>2026-04-06T13:44:52Z</time></trkpt><trkpt lat="45.833164802791295" lon="7.961164501691941"><ele>1090.5714285714284</ele><time>2026-04-06T13:44:55.999Z</time></trkpt><trkpt lat="45.8331157693918" lon="7.961243587890439"><ele>1087.7142857142858</ele><time>2026-04-06T13:44:59.999Z</time></trkpt><trkpt lat="45.83306100355278" lon="7.961322127273204"><ele>1084.857142857143</ele><time>2026-04-06T13:45:03.999Z</time></trkpt><trkpt lat="45.83300278626088" lon="7.961415204477763"><ele>1082.0</ele><time>2026-04-06T13:45:07.999Z</time></trkpt><trkpt lat="45.83294243130435" lon="7.961515793098539"><ele>1082.0</ele><time>2026-04-06T13:45:10.999Z</time></trkpt><trkpt lat="45.83288689456258" lon="7.9615885184868285"><ele>1082.0</ele><time>2026-04-06T13:45:12.999Z</time></trkpt><trkpt lat="45.832830591704706" lon="7.9616479334879875"><ele>1082.0</ele><time>2026-04-06T13:45:14.999Z</time></trkpt><trkpt lat="45.83278439534621" lon="7.961734335795731"><ele>1082.0</ele><time>2026-04-06T13:45:16.999Z</time></trkpt><trkpt lat="45.83272766252622" lon="7.961843552309062"><ele>1082.0</ele><time>2026-04-06T13:45:18.999Z</time></trkpt><trkpt lat="45.83267606601616" lon="7.961942500511198"><ele>1082.0</ele><time>2026-04-06T13:45:20.999Z</time></trkpt><trkpt lat="45.83260827611325" lon="7.962027563902077"><ele>1080.3333333333335</ele><time>2026-04-06T13:45:22.999Z</time></trkpt><trkpt lat="45.8325355871215" lon="7.962063977112809"><ele>1078.6666666666667</ele><time>2026-04-06T13:45:24.999Z</time></trkpt><trkpt lat="45.83245515033283" lon="7.96210010319133"><ele>1077.0</ele><time>2026-04-06T13:45:26.999Z</time></trkpt><trkpt lat="45.832359173496755" lon="7.962085937003229"><ele>1075.3333333333333</ele><time>2026-04-06T13:45:28.999Z</time></trkpt><trkpt lat="45.832302073172606" lon="7.962033156172988"><ele>1073.6666666666665</ele><time>2026-04-06T13:45:30.999Z</time></trkpt><trkpt lat="45.83223295662626" lon="7.962010897812499"><ele>1072.0</ele><time>2026-04-06T13:45:33.999Z</time></trkpt><trkpt lat="45.832175468603204" lon="7.961972088249328"><ele>1072.0</ele><time>2026-04-06T13:45:38.999Z</time></trkpt><trkpt lat="45.83211323210064" lon="7.962015716197566"><ele>1072.0</ele><time>2026-04-06T13:45:41.999Z</time></trkpt><trkpt lat="45.8320434986499" lon="7.9620047390868685"><ele>1072.0</ele><time>2026-04-06T13:45:46Z</time></trkpt><trkpt lat="45.83196686244403" lon="7.962037971167861"><ele>1072.0</ele><time>2026-04-06T13:45:50Z</time></trkpt><trkpt lat="45.83194345453192" lon="7.962124458810118"><ele>1072.0</ele><time>2026-04-06T13:45:53Z</time></trkpt><trkpt lat="45.831897942727494" lon="7.962233337546584"><ele>1072.0</ele><time>2026-04-06T13:45:56Z</time></trkpt><trkpt lat="45.83184172565113" lon="7.962293395291931"><ele>1072.0</ele><time>2026-04-06T13:45:58Z</time></trkpt><trkpt lat="45.83179650780995" lon="7.962394908872561"><ele>1071.5</ele><time>2026-04-06T13:46:00Z</time></trkpt><trkpt lat="45.83175007504779" lon="7.962488107927354"><ele>1071.0</ele><time>2026-04-06T13:46:02Z</time></trkpt><trkpt lat="45.831705545781816" lon="7.962595818475233"><ele>1070.5</ele><time>2026-04-06T13:46:04Z</time></trkpt><trkpt lat="45.83167305514624" lon="7.962708430983204"><ele>1070.0</ele><time>2026-04-06T13:46:06Z</time></trkpt><trkpt lat="45.831632797649235" lon="7.962783865996884"><ele>1069.5</ele><time>2026-04-06T13:46:08Z</time></trkpt><trkpt lat="45.83160348633845" lon="7.9628828098149205"><ele>1069.0</ele><time>2026-04-06T13:46:10Z</time></trkpt><trkpt lat="45.831556546925086" lon="7.962978448521278"><ele>1069.0</ele><time>2026-04-06T13:46:12Z</time></trkpt><trkpt lat="45.83152013243063" lon="7.963071361650567"><ele>1069.0</ele><time>2026-04-06T13:46:14Z</time></trkpt><trkpt lat="45.831460948737266" lon="7.9631889569437115"><ele>1069.0</ele><time>2026-04-06T13:46:17Z</time></trkpt><trkpt lat="45.83141132229122" lon="7.963316581784059"><ele>1069.0</ele><time>2026-04-06T13:46:20Z</time></trkpt><trkpt lat="45.8313527264727" lon="7.963400289804684"><ele>1069.0</ele><time>2026-04-06T13:46:22Z</time></trkpt><trkpt lat="45.8313055812836" lon="7.9635020250680535"><ele>1069.0</ele><time>2026-04-06T13:46:24Z</time></trkpt><trkpt lat="45.83124547106575" lon="7.963584545382708"><ele>1070.3333333333333</ele><time>2026-04-06T13:46:26Z</time></trkpt><trkpt lat="45.83118470158348" lon="7.963664942180905"><ele>1071.6666666666665</ele><time>2026-04-06T13:46:28Z</time></trkpt><trkpt lat="45.831147100317516" lon="7.963753105893491"><ele>1073.0</ele><time>2026-04-06T13:46:30Z</time></trkpt><trkpt lat="45.83112661712682" lon="7.963889614082887"><ele>1074.3333333333333</ele><time>2026-04-06T13:46:32Z</time></trkpt><trkpt lat="45.831076745291504" lon="7.963979136283386"><ele>1075.6666666666667</ele><time>2026-04-06T13:46:34Z</time></trkpt><trkpt lat="45.831068771243714" lon="7.9640693277564045"><ele>1077.0</ele><time>2026-04-06T13:46:36Z</time></trkpt><trkpt lat="45.83102914816918" lon="7.9641786345012555"><ele>1075.4285714285713</ele><time>2026-04-06T13:46:39Z</time></trkpt><trkpt lat="45.8309831150326" lon="7.9642914200691175"><ele>1073.857142857143</ele><time>2026-04-06T13:46:42Z</time></trkpt><trkpt lat="45.830955173187924" lon="7.96438991839501"><ele>1072.2857142857142</ele><time>2026-04-06T13:46:44Z</time></trkpt><trkpt lat="45.83093846022302" lon="7.964503973423767"><ele>1070.7142857142858</ele><time>2026-04-06T13:46:46Z</time></trkpt><trkpt lat="45.83093919073707" lon="7.964604118194944"><ele>1069.142857142857</ele><time>2026-04-06T13:46:48Z</time></trkpt><trkpt lat="45.83093482493173" lon="7.964699115472013"><ele>1067.5714285714284</ele><time>2026-04-06T13:46:50Z</time></trkpt><trkpt lat="45.83094485139392" lon="7.964791262799156"><ele>1066.0</ele><time>2026-04-06T13:46:52Z</time></trkpt><trkpt lat="45.830914878031926" lon="7.964875855930733"><ele>1066.0</ele><time>2026-04-06T13:46:54Z</time></trkpt><trkpt lat="45.83086921794068" lon="7.964953376130257"><ele>1066.0</ele><time>2026-04-06T13:46:55.999Z</time></trkpt><trkpt lat="45.83082435462567" lon="7.965025179895562"><ele>1066.0</ele><time>2026-04-06T13:46:57.999Z</time></trkpt><trkpt lat="45.8307780181093" lon="7.9650869079074775"><ele>1066.0</ele><time>2026-04-06T13:46:59.999Z</time></trkpt><trkpt lat="45.83074151087445" lon="7.965162455879207"><ele>1066.0</ele><time>2026-04-06T13:47:01.999Z</time></trkpt><trkpt lat="45.83068916164787" lon="7.965254594192693"><ele>1066.0</ele><time>2026-04-06T13:47:03.999Z</time></trkpt><trkpt lat="45.83064590132892" lon="7.965326321066134"><ele>1066.0</ele><time>2026-04-06T13:47:05.999Z</time></trkpt><trkpt lat="45.830594490396656" lon="7.965392408094864"><ele>1068.1666666666665</ele><time>2026-04-06T13:47:07.999Z</time></trkpt><trkpt lat="45.83051971409542" lon="7.965450766060248"><ele>1070.3333333333333</ele><time>2026-04-06T13:47:10.999Z</time></trkpt><trkpt lat="45.830446830996415" lon="7.9655280167566875"><ele>1072.5</ele><time>2026-04-06T13:47:13.999Z</time></trkpt><trkpt lat="45.830377147329585" lon="7.965597397739014"><ele>1074.6666666666667</ele><time>2026-04-06T13:47:16.999Z</time></trkpt><trkpt lat="45.83031266279154" lon="7.965695137943641"><ele>1076.8333333333335</ele><time>2026-04-06T13:47:19.999Z</time></trkpt><trkpt lat="45.83029542435425" lon="7.965786601220585"><ele>1079.0</ele><time>2026-04-06T13:47:21.999Z</time></trkpt><trkpt lat="45.83026902956075" lon="7.965884261337176"><ele>1078.0</ele><time>2026-04-06T13:47:24.999Z</time></trkpt><trkpt lat="45.830230223624405" lon="7.9659716435288415"><ele>1077.0</ele><time>2026-04-06T13:47:27.999Z</time></trkpt><trkpt lat="45.83017804657671" lon="7.9660547778913555"><ele>1076.0</ele><time>2026-04-06T13:47:30.999Z</time></trkpt><trkpt lat="45.83011402964866" lon="7.966140041085752"><ele>1075.0</ele><time>2026-04-06T13:47:33.999Z</time></trkpt><trkpt lat="45.830059154421434" lon="7.966188699016303"><ele>1074.0</ele><time>2026-04-06T13:47:35.999Z</time></trkpt><trkpt lat="45.82997882140923" lon="7.966260257925262"><ele>1073.0</ele><time>2026-04-06T13:47:38.999Z</time></trkpt><trkpt lat="45.829907259408714" lon="7.966345772803337"><ele>1073.0</ele><time>2026-04-06T13:47:41.999Z</time></trkpt><trkpt lat="45.82983046158543" lon="7.966437123812647"><ele>1073.0</ele><time>2026-04-06T13:47:44.999Z</time></trkpt><trkpt lat="45.82976903699449" lon="7.966487942949135"><ele>1073.0</ele><time>2026-04-06T13:47:46.999Z</time></trkpt><trkpt lat="45.829687125099255" lon="7.966557226446684"><ele>1073.0</ele><time>2026-04-06T13:47:49.999Z</time></trkpt><trkpt lat="45.82963380486059" lon="7.966637521803291"><ele>1073.0</ele><time>2026-04-06T13:47:53Z</time></trkpt><trkpt lat="45.82958346195684" lon="7.966702859612831"><ele>1073.0</ele><time>2026-04-06T13:47:56Z</time></trkpt><trkpt lat="45.82952713336747" lon="7.9667606889044835"><ele>1071.6666666666667</ele><time>2026-04-06T13:47:59Z</time></trkpt><trkpt lat="45.82946061879637" lon="7.966810250793048"><ele>1070.3333333333335</ele><time>2026-04-06T13:48:02Z</time></trkpt><trkpt lat="45.8293923769531" lon="7.96686056937408"><ele>1069.0</ele><time>2026-04-06T13:48:04Z</time></trkpt><trkpt lat="45.82933006970206" lon="7.966934363489008"><ele>1067.6666666666667</ele><time>2026-04-06T13:48:06Z</time></trkpt><trkpt lat="45.82925557286162" lon="7.967012347178998"><ele>1066.3333333333333</ele><time>2026-04-06T13:48:08Z</time></trkpt><trkpt lat="45.829196079799196" lon="7.9670965287977795"><ele>1065.0</ele><time>2026-04-06T13:48:10Z</time></trkpt><trkpt lat="45.829148589002735" lon="7.9671617276990325"><ele>1065.0</ele><time>2026-04-06T13:48:12Z</time></trkpt><trkpt lat="45.82909269707249" lon="7.967246988133513"><ele>1065.0</ele><time>2026-04-06T13:48:15Z</time></trkpt><trkpt lat="45.82904130848468" lon="7.967342196845655"><ele>1065.0</ele><time>2026-04-06T13:48:18Z</time></trkpt><trkpt lat="45.82899193938708" lon="7.9674134935275935"><ele>1065.0</ele><time>2026-04-06T13:48:20Z</time></trkpt><trkpt lat="45.82894303728458" lon="7.967475750299436"><ele>1065.0</ele><time>2026-04-06T13:48:22Z</time></trkpt><trkpt lat="45.82888136678027" lon="7.967573864965487"><ele>1065.0</ele><time>2026-04-06T13:48:25Z</time></trkpt><trkpt lat="45.82884901409517" lon="7.967700643722109"><ele>1070.0</ele><time>2026-04-06T13:48:28Z</time></trkpt><trkpt lat="45.828778912366296" lon="7.967779981407711"><ele>1075.0</ele><time>2026-04-06T13:48:31Z</time></trkpt><trkpt lat="45.82873250670494" lon="7.967877227755187"><ele>1080.0</ele><time>2026-04-06T13:48:34Z</time></trkpt><trkpt lat="45.82870015194621" lon="7.967971278220944"><ele>1085.0</ele><time>2026-04-06T13:48:38Z</time></trkpt><trkpt lat="45.8286468536961" lon="7.968027261897008"><ele>1090.0</ele><time>2026-04-06T13:48:59.999Z</time></trkpt><trkpt lat="45.82858945515935" lon="7.968084873315094"><ele>1095.0</ele><time>2026-04-06T13:49:11.999Z</time></trkpt><trkpt lat="45.828546832481045" lon="7.96818942473442"><ele>1095.0</ele><time>2026-04-06T13:49:15.999Z</time></trkpt><trkpt lat="45.82851014960765" lon="7.9682633064693045"><ele>1095.0</ele><time>2026-04-06T13:49:17.999Z</time></trkpt><trkpt lat="45.828458764735004" lon="7.968325086230665"><ele>1095.0</ele><time>2026-04-06T13:49:19.999Z</time></trkpt><trkpt lat="45.828386910038326" lon="7.968427692309019"><ele>1095.0</ele><time>2026-04-06T13:49:21.999Z</time></trkpt><trkpt lat="45.82831787359591" lon="7.968543534299367"><ele>1095.0</ele><time>2026-04-06T13:49:23.999Z</time></trkpt><trkpt lat="45.82827554488739" lon="7.968642245165034"><ele>1095.0</ele><time>2026-04-06T13:49:25.999Z</time></trkpt><trkpt lat="45.82822229513993" lon="7.968735010433272"><ele>1095.7142857142856</ele><time>2026-04-06T13:49:29.999Z</time></trkpt><trkpt lat="45.82817384188274" lon="7.96883357715157"><ele>1096.4285714285713</ele><time>2026-04-06T13:49:33.999Z</time></trkpt><trkpt lat="45.82813232888585" lon="7.968909309114572"><ele>1097.142857142857</ele><time>2026-04-06T13:49:36.999Z</time></trkpt><trkpt lat="45.82808421568302" lon="7.968972345037814"><ele>1097.8571428571427</ele><time>2026-04-06T13:49:39.999Z</time></trkpt><trkpt lat="45.828033423278136" lon="7.969066976575313"><ele>1098.5714285714284</ele><time>2026-04-06T13:49:42.999Z</time></trkpt><trkpt lat="45.82798133821354" lon="7.969139230718773"><ele>1099.2857142857142</ele><time>2026-04-06T13:49:44.999Z</time></trkpt><trkpt lat="45.82793832325474" lon="7.969218079168427"><ele>1100.0</ele><time>2026-04-06T13:49:46.999Z</time></trkpt><trkpt lat="45.82789257458715" lon="7.96930118561535"><ele>1100.0</ele><time>2026-04-06T13:49:48.999Z</time></trkpt><trkpt lat="45.82784296032634" lon="7.969367508335376"><ele>1100.0</ele><time>2026-04-06T13:49:50.999Z</time></trkpt><trkpt lat="45.82779864437842" lon="7.9694396129228835"><ele>1100.0</ele><time>2026-04-06T13:49:53.999Z</time></trkpt><trkpt lat="45.827759123247745" lon="7.9695229703221635"><ele>1100.0</ele><time>2026-04-06T13:49:57Z</time></trkpt><trkpt lat="45.82769157029078" lon="7.969600889716544"><ele>1100.0</ele><time>2026-04-06T13:50:00Z</time></trkpt><trkpt lat="45.82767113015383" lon="7.969691548855998"><ele>1100.0</ele><time>2026-04-06T13:50:02Z</time></trkpt><trkpt lat="45.82762162756761" lon="7.969785780537308"><ele>1100.0</ele><time>2026-04-06T13:50:05Z</time></trkpt><trkpt lat="45.8275571561531" lon="7.969871376778183"><ele>1095.5</ele><time>2026-04-06T13:50:08Z</time></trkpt><trkpt lat="45.82750525392092" lon="7.969952867754548"><ele>1091.0</ele><time>2026-04-06T13:50:11Z</time></trkpt><trkpt lat="45.827470975909876" lon="7.9700399180918255"><ele>1086.5</ele><time>2026-04-06T13:50:14Z</time></trkpt><trkpt lat="45.827456113267736" lon="7.970139645884562"><ele>1082.0</ele><time>2026-04-06T13:50:17Z</time></trkpt><trkpt lat="45.82743023579893" lon="7.970229519404036"><ele>1077.5</ele><time>2026-04-06T13:50:20Z</time></trkpt><trkpt lat="45.82739623266417" lon="7.970347315084288"><ele>1073.0</ele><time>2026-04-06T13:50:24Z</time></trkpt><trkpt lat="45.827367047346314" lon="7.970461040459418"><ele>1073.0</ele><time>2026-04-06T13:50:27Z</time></trkpt><trkpt lat="45.82734020490575" lon="7.9705670498747745"><ele>1073.0</ele><time>2026-04-06T13:50:29Z</time></trkpt><trkpt lat="45.82732654985923" lon="7.970663891009376"><ele>1073.0</ele><time>2026-04-06T13:50:31Z</time></trkpt><trkpt lat="45.827318023320636" lon="7.970769066119065"><ele>1073.0</ele><time>2026-04-06T13:50:33Z</time></trkpt><trkpt lat="45.82729753739987" lon="7.970865151619182"><ele>1073.0</ele><time>2026-04-06T13:50:35Z</time></trkpt><trkpt lat="45.82728133362726" lon="7.9709594021001875"><ele>1073.0</ele><time>2026-04-06T13:50:37Z</time></trkpt><trkpt lat="45.82725531594102" lon="7.971061701724071"><ele>1073.0</ele><time>2026-04-06T13:50:39Z</time></trkpt><trkpt lat="45.8272336558806" lon="7.9711574415084225"><ele>1075.142857142857</ele><time>2026-04-06T13:50:41Z</time></trkpt><trkpt lat="45.82720780121474" lon="7.971243598103209"><ele>1077.2857142857142</ele><time>2026-04-06T13:50:43Z</time></trkpt><trkpt lat="45.82717936847563" lon="7.971328710664604"><ele>1079.4285714285713</ele><time>2026-04-06T13:50:45Z</time></trkpt><trkpt lat="45.827156632849956" lon="7.971441741810068"><ele>1081.5714285714284</ele><time>2026-04-06T13:50:48Z</time></trkpt><trkpt lat="45.82712913629657" lon="7.9715334277566425"><ele>1083.7142857142858</ele><time>2026-04-06T13:50:50Z</time></trkpt><trkpt lat="45.827096629597285" lon="7.971623792896309"><ele>1085.8571428571427</ele><time>2026-04-06T13:50:52Z</time></trkpt><trkpt lat="45.82703532115986" lon="7.971676703060156"><ele>1088.0</ele><time>2026-04-06T13:50:54Z</time></trkpt><trkpt lat="45.82695661936901" lon="7.971704382626157"><ele>1091.1666666666667</ele><time>2026-04-06T13:50:55.999Z</time></trkpt><trkpt lat="45.82689120446095" lon="7.971768033312925"><ele>1094.3333333333335</ele><time>2026-04-06T13:50:57.999Z</time></trkpt><trkpt lat="45.826839840976376" lon="7.971857372181393"><ele>1097.5</ele><time>2026-04-06T13:50:59.999Z</time></trkpt><trkpt lat="45.82678998292801" lon="7.971939954842438"><ele>1100.6666666666667</ele><time>2026-04-06T13:51:01.999Z</time></trkpt><trkpt lat="45.826741341637174" lon="7.972022083962117"><ele>1103.8333333333333</ele><time>2026-04-06T13:51:03.999Z</time></trkpt><trkpt lat="45.82669471847891" lon="7.972108135789693"><ele>1107.0</ele><time>2026-04-06T13:51:05.999Z</time></trkpt><trkpt lat="45.82663874763285" lon="7.97218303412214"><ele>1100.0</ele><time>2026-04-06T13:51:07.999Z</time></trkpt><trkpt lat="45.82656368847679" lon="7.972246860552072"><ele>1093.0</ele><time>2026-04-06T13:51:09.999Z</time></trkpt><trkpt lat="45.826481664781014" lon="7.972267296298661"><ele>1086.0</ele><time>2026-04-06T13:51:11.999Z</time></trkpt><trkpt lat="45.82639628652832" lon="7.972181135543412"><ele>1079.0</ele><time>2026-04-06T13:51:13.999Z</time></trkpt><trkpt lat="45.82632665950722" lon="7.972125588359804"><ele>1072.0</ele><time>2026-04-06T13:51:16.999Z</time></trkpt><trkpt lat="45.82625036654643" lon="7.972148553771439"><ele>1065.0</ele><time>2026-04-06T13:51:19.999Z</time></trkpt><trkpt lat="45.82618057947593" lon="7.97224033301885"><ele>1065.0</ele><time>2026-04-06T13:51:22.999Z</time></trkpt><trkpt lat="45.82614321364481" lon="7.972351072108372"><ele>1065.0</ele><time>2026-04-06T13:51:24.999Z</time></trkpt><trkpt lat="45.82613997179188" lon="7.972468455402117"><ele>1065.0</ele><time>2026-04-06T13:51:26.999Z</time></trkpt><trkpt lat="45.82612372052411" lon="7.9725772151038194"><ele>1065.0</ele><time>2026-04-06T13:51:28.999Z</time></trkpt><trkpt lat="45.82609381642358" lon="7.972692666611363"><ele>1065.0</ele><time>2026-04-06T13:51:30.999Z</time></trkpt><trkpt lat="45.82602603189439" lon="7.97276582092344"><ele>1065.0</ele><time>2026-04-06T13:51:32.999Z</time></trkpt><trkpt lat="45.825945755406615" lon="7.972889665894701"><ele>1060.75</ele><time>2026-04-06T13:51:34.999Z</time></trkpt><trkpt lat="45.82585215300934" lon="7.973005185917557"><ele>1056.5</ele><time>2026-04-06T13:51:36.999Z</time></trkpt><trkpt lat="45.825801886561614" lon="7.973167738115074"><ele>1052.25</ele><time>2026-04-06T13:51:38.999Z</time></trkpt><trkpt lat="45.82573512066149" lon="7.9733016941342845"><ele>1048.0</ele><time>2026-04-06T13:51:40.999Z</time></trkpt><trkpt lat="45.82567868645427" lon="7.97342838151686"><ele>1048.0</ele><time>2026-04-06T13:51:42.999Z</time></trkpt><trkpt lat="45.825623041096335" lon="7.973541851213225"><ele>1048.0</ele><time>2026-04-06T13:51:44.999Z</time></trkpt><trkpt lat="45.82556788061629" lon="7.973640764565981"><ele>1048.0</ele><time>2026-04-06T13:51:46.999Z</time></trkpt><trkpt lat="45.82551067498606" lon="7.973724227578065"><ele>1048.0</ele><time>2026-04-06T13:51:48.999Z</time></trkpt><trkpt lat="45.82546228278569" lon="7.973784017931929"><ele>1048.0</ele><time>2026-04-06T13:51:50.999Z</time></trkpt><trkpt lat="45.82540371233879" lon="7.973846351157781"><ele>1048.0</ele><time>2026-04-06T13:51:53.999Z</time></trkpt><trkpt lat="45.825336005649056" lon="7.973901946159049"><ele>1048.0</ele><time>2026-04-06T13:52:11Z</time></trkpt><trkpt lat="45.82526865513741" lon="7.973941097599144"><ele>1048.0</ele><time>2026-04-06T13:52:14Z</time></trkpt><trkpt lat="45.82518555753851" lon="7.97398540155468"><ele>1048.0</ele><time>2026-04-06T13:52:17Z</time></trkpt><trkpt lat="45.82511388066018" lon="7.974065903677902"><ele>1048.0</ele><time>2026-04-06T13:52:19Z</time></trkpt><trkpt lat="45.82503649896912" lon="7.974152488011918"><ele>1048.0</ele><time>2026-04-06T13:52:21Z</time></trkpt><trkpt lat="45.82501705447274" lon="7.974288552368456"><ele>1048.0</ele><time>2026-04-06T13:52:23Z</time></trkpt><trkpt lat="45.8250223940054" lon="7.974407914870766"><ele>1046.857142857143</ele><time>2026-04-06T13:52:25Z</time></trkpt><trkpt lat="45.82502890358799" lon="7.974513906738424"><ele>1045.7142857142858</ele><time>2026-04-06T13:52:27Z</time></trkpt><trkpt lat="45.82503306861491" lon="7.974617601585019"><ele>1044.5714285714287</ele><time>2026-04-06T13:52:29Z</time></trkpt><trkpt lat="45.82502421798902" lon="7.974715733172683"><ele>1043.4285714285716</ele><time>2026-04-06T13:52:31Z</time></trkpt><trkpt lat="45.824995227520006" lon="7.974806410129129"><ele>1042.2857142857142</ele><time>2026-04-06T13:52:33Z</time></trkpt><trkpt lat="45.82495565122366" lon="7.974888014568997"><ele>1041.1428571428573</ele><time>2026-04-06T13:52:36Z</time></trkpt><trkpt lat="45.824934888274775" lon="7.974989878962053"><ele>1040.0</ele><time>2026-04-06T13:52:38Z</time></trkpt><trkpt lat="45.82490341993442" lon="7.975146891997197"><ele>1040.0</ele><time>2026-04-06T13:52:40Z</time></trkpt><trkpt lat="45.824886087029284" lon="7.975244126577503"><ele>1040.0</ele><time>2026-04-06T13:52:41Z</time></trkpt><trkpt lat="45.82486768972568" lon="7.975357273662649"><ele>1040.0</ele><time>2026-04-06T13:52:42Z</time></trkpt><trkpt lat="45.82485027159657" lon="7.975477307027759"><ele>1040.0</ele><time>2026-04-06T13:52:43Z</time></trkpt><trkpt lat="45.82483561116607" lon="7.975600515449517"><ele>1040.0</ele><time>2026-04-06T13:52:44Z</time></trkpt><trkpt lat="45.824822291076096" lon="7.9757156248662575"><ele>1040.0</ele><time>2026-04-06T13:52:45Z</time></trkpt><trkpt lat="45.824809220217396" lon="7.975828580477016"><ele>1041.3333333333335</ele><time>2026-04-06T13:52:46Z</time></trkpt><trkpt lat="45.8248077187777" lon="7.9759415847931265"><ele>1042.6666666666667</ele><time>2026-04-06T13:52:47Z</time></trkpt><trkpt lat="45.82478715531472" lon="7.976047250289928"><ele>1044.0</ele><time>2026-04-06T13:52:48Z</time></trkpt><trkpt lat="45.82475939495916" lon="7.976152647090288"><ele>1045.3333333333333</ele><time>2026-04-06T13:52:49Z</time></trkpt><trkpt lat="45.82475141780403" lon="7.976270134283235"><ele>1046.6666666666665</ele><time>2026-04-06T13:52:50Z</time></trkpt><trkpt lat="45.82473216357953" lon="7.976380224046303"><ele>1048.0</ele><time>2026-04-06T13:52:51Z</time></trkpt><trkpt lat="45.82470041260227" lon="7.976475919716172"><ele>1048.0</ele><time>2026-04-06T13:52:52Z</time></trkpt><trkpt lat="45.824692622976094" lon="7.976582380925204"><ele>1048.0</ele><time>2026-04-06T13:52:53Z</time></trkpt><trkpt lat="45.82466016089509" lon="7.976672956633561"><ele>1048.0</ele><time>2026-04-06T13:52:54Z</time></trkpt><trkpt lat="45.82463912807717" lon="7.976768384178538"><ele>1048.0</ele><time>2026-04-06T13:52:55Z</time></trkpt><trkpt lat="45.8246278278953" lon="7.97686593232688"><ele>1048.0</ele><time>2026-04-06T13:52:56Z</time></trkpt><trkpt lat="45.82460174619724" lon="7.976951917458409"><ele>1048.0</ele><time>2026-04-06T13:52:57Z</time></trkpt><trkpt lat="45.824544281779104" lon="7.977107669062224"><ele>1049.0</ele><time>2026-04-06T13:52:59Z</time></trkpt><trkpt lat="45.824511061014825" lon="7.9772560755732"><ele>1050.0</ele><time>2026-04-06T13:53:01Z</time></trkpt><trkpt lat="45.82446373910186" lon="7.977322222711046"><ele>1051.0</ele><time>2026-04-06T13:53:04Z</time></trkpt><trkpt lat="45.82443494927262" lon="7.977415520740085"><ele>1052.0</ele><time>2026-04-06T13:53:07.999Z</time></trkpt><trkpt lat="45.82433989761284" lon="7.977444155965433"><ele>1053.0</ele><time>2026-04-06T13:53:10.999Z</time></trkpt><trkpt lat="45.82431065736175" lon="7.977531738925145"><ele>1054.0</ele><time>2026-04-06T13:53:11.999Z</time></trkpt><trkpt lat="45.82426872826026" lon="7.977652383344171"><ele>1051.5</ele><time>2026-04-06T13:53:13.999Z</time></trkpt><trkpt lat="45.8242188710924" lon="7.977767059743291"><ele>1049.0</ele><time>2026-04-06T13:53:15.999Z</time></trkpt><trkpt lat="45.824180698241804" lon="7.977907526009484"><ele>1046.5</ele><time>2026-04-06T13:53:17.999Z</time></trkpt><trkpt lat="45.82413750437378" lon="7.9780233255798345"><ele>1044.0</ele><time>2026-04-06T13:53:19.999Z</time></trkpt><trkpt lat="45.824112901593885" lon="7.978113849903398"><ele>1041.5</ele><time>2026-04-06T13:53:21.999Z</time></trkpt><trkpt lat="45.8240931457281" lon="7.978216220972474"><ele>1039.0</ele><time>2026-04-06T13:53:23.999Z</time></trkpt><trkpt lat="45.82406313860466" lon="7.978310112355004"><ele>1042.1666666666665</ele><time>2026-04-06T13:53:25.999Z</time></trkpt><trkpt lat="45.82402195021027" lon="7.978398575345217"><ele>1045.3333333333333</ele><time>2026-04-06T13:53:27.999Z</time></trkpt><trkpt lat="45.82397358680058" lon="7.978504930266247"><ele>1048.5</ele><time>2026-04-06T13:53:29.999Z</time></trkpt><trkpt lat="45.823930404069124" lon="7.978607614695944"><ele>1051.6666666666667</ele><time>2026-04-06T13:53:31.999Z</time></trkpt><trkpt lat="45.82389334871819" lon="7.978724364497092"><ele>1054.8333333333335</ele><time>2026-04-06T13:53:33.999Z</time></trkpt><trkpt lat="45.823866143940535" lon="7.978852317888344"><ele>1058.0</ele><time>2026-04-06T13:53:36.999Z</time></trkpt><trkpt lat="45.823844028761584" lon="7.978965024410962"><ele>1058.0</ele><time>2026-04-06T13:53:38.999Z</time></trkpt><trkpt lat="45.82382195103992" lon="7.979082384001683"><ele>1058.0</ele><time>2026-04-06T13:53:40.999Z</time></trkpt><trkpt lat="45.82378083938805" lon="7.9791725442673"><ele>1058.0</ele><time>2026-04-06T13:53:42.999Z</time></trkpt><trkpt lat="45.8237297441066" lon="7.979319332071558"><ele>1058.0</ele><time>2026-04-06T13:53:45.999Z</time></trkpt><trkpt lat="45.823665028571575" lon="7.979354323068354"><ele>1058.0</ele><time>2026-04-06T13:53:48.999Z</time></trkpt><trkpt lat="45.82360973354332" lon="7.979433568670171"><ele>1058.0</ele><time>2026-04-06T13:53:50.999Z</time></trkpt><trkpt lat="45.823554206326" lon="7.979524389370105"><ele>1056.0</ele><time>2026-04-06T13:53:52.999Z</time></trkpt><trkpt lat="45.823480000922984" lon="7.9796063592132125"><ele>1054.0</ele><time>2026-04-06T13:53:54.999Z</time></trkpt><trkpt lat="45.82341287219069" lon="7.9797071493029215"><ele>1052.0</ele><time>2026-04-06T13:53:56.999Z</time></trkpt><trkpt lat="45.823324692184926" lon="7.979792824054826"><ele>1050.0</ele><time>2026-04-06T13:53:58.999Z</time></trkpt><trkpt lat="45.82322997992887" lon="7.979886185175032"><ele>1048.0</ele><time>2026-04-06T13:54:00.999Z</time></trkpt><trkpt lat="45.82301378887744" lon="7.979860000291869"><ele>1048.0</ele><time>2026-04-06T13:54:02.999Z</time></trkpt><trkpt lat="45.82295275762285" lon="7.979975643697478"><ele>1048.0</ele><time>2026-04-06T13:54:04.999Z</time></trkpt><trkpt lat="45.82289649409048" lon="7.980074207080885"><ele>1048.0</ele><time>2026-04-06T13:54:06.999Z</time></trkpt><trkpt lat="45.82284902178851" lon="7.980153341561377"><ele>1048.0</ele><time>2026-04-06T13:54:16Z</time></trkpt><trkpt lat="45.82279652912476" lon="7.9802325174895925"><ele>1048.0</ele><time>2026-04-06T13:54:20Z</time></trkpt><trkpt lat="45.82274713655736" lon="7.980298421239488"><ele>1048.0</ele><time>2026-04-06T13:54:23Z</time></trkpt><trkpt lat="45.82269214468045" lon="7.980367820403116"><ele>1048.5</ele><time>2026-04-06T13:54:26Z</time></trkpt><trkpt lat="45.82263470125726" lon="7.980421442762514"><ele>1049.0</ele><time>2026-04-06T13:54:29.014Z</time></trkpt><trkpt lat="45.82257583892102" lon="7.980481806534361"><ele>1049.5</ele><time>2026-04-06T13:54:32.015Z</time></trkpt><trkpt lat="45.82243471004946" lon="7.980867251489161"><ele>1050.0</ele><time>2026-04-06T13:54:45.649Z</time></trkpt><trkpt lat="45.821621399837" lon="7.982550864027999"><ele>1046.3333333333333</ele><time>2026-04-06T13:55:06.999Z</time></trkpt><trkpt lat="45.821556686315716" lon="7.9826015965776085"><ele>1042.6666666666667</ele><time>2026-04-06T13:55:08.999Z</time></trkpt><trkpt lat="45.821492916416084" lon="7.982664255731735"><ele>1039.0</ele><time>2026-04-06T13:55:25.999Z</time></trkpt><trkpt lat="45.82142818335953" lon="7.982740633353533"><ele>1035.3333333333335</ele><time>2026-04-06T13:55:28.999Z</time></trkpt><trkpt lat="45.82140761118844" lon="7.98284382461311"><ele>1031.6666666666667</ele><time>2026-04-06T13:55:30.999Z</time></trkpt><trkpt lat="45.82138760829287" lon="7.982962455920315"><ele>1028.0</ele><time>2026-04-06T13:55:32.999Z</time></trkpt><trkpt lat="45.82135988235329" lon="7.983090070673531"><ele>1028.0</ele><time>2026-04-06T13:55:34.999Z</time></trkpt><trkpt lat="45.821329207087594" lon="7.983229538652013"><ele>1028.0</ele><time>2026-04-06T13:55:36.999Z</time></trkpt><trkpt lat="45.82129362298892" lon="7.983353758515814"><ele>1028.0</ele><time>2026-04-06T13:55:38.999Z</time></trkpt><trkpt lat="45.82126343453012" lon="7.983486843639156"><ele>1028.0</ele><time>2026-04-06T13:55:40.999Z</time></trkpt><trkpt lat="45.82123403545603" lon="7.983609198506755"><ele>1028.0</ele><time>2026-04-06T13:55:42.999Z</time></trkpt><trkpt lat="45.82120184197965" lon="7.983750743292252"><ele>1030.0</ele><time>2026-04-06T13:55:44.999Z</time></trkpt><trkpt lat="45.821177135852665" lon="7.983886451477703"><ele>1032.0</ele><time>2026-04-06T13:55:46.999Z</time></trkpt><trkpt lat="45.82114670575531" lon="7.984028023293441"><ele>1034.0</ele><time>2026-04-06T13:55:48.999Z</time></trkpt><trkpt lat="45.82112012202489" lon="7.984180643259856"><ele>1036.0</ele><time>2026-04-06T13:55:50.999Z</time></trkpt><trkpt lat="45.821085901605024" lon="7.984342730021984"><ele>1038.0</ele><time>2026-04-06T13:55:52.999Z</time></trkpt><trkpt lat="45.821058028239804" lon="7.984516322170305"><ele>1038.7142857142858</ele><time>2026-04-06T13:55:54.999Z</time></trkpt><trkpt lat="45.82104236757362" lon="7.9846087579179"><ele>1039.4285714285713</ele><time>2026-04-06T13:55:55.999Z</time></trkpt><trkpt lat="45.8210264788227" lon="7.984698810051938"><ele>1040.142857142857</ele><time>2026-04-06T13:55:56.999Z</time></trkpt><trkpt lat="45.82101397661598" lon="7.984791664138765"><ele>1040.857142857143</ele><time>2026-04-06T13:55:57.999Z</time></trkpt><trkpt lat="45.82100027425268" lon="7.984884591809563"><ele>1041.5714285714284</ele><time>2026-04-06T13:55:58.999Z</time></trkpt><trkpt lat="45.82098595229638" lon="7.984977501408583"><ele>1042.2857142857142</ele><time>2026-04-06T13:55:59.999Z</time></trkpt><trkpt lat="45.8209737648988" lon="7.985074449705389"><ele>1043.0</ele><time>2026-04-06T13:56:00.999Z</time></trkpt><trkpt lat="45.82096016290457" lon="7.985165415266242"><ele>1037.857142857143</ele><time>2026-04-06T13:56:01.999Z</time></trkpt><trkpt lat="45.82094510067457" lon="7.985262371901878"><ele>1032.7142857142858</ele><time>2026-04-06T13:56:02.999Z</time></trkpt><trkpt lat="45.82092982815347" lon="7.985357797727418"><ele>1027.5714285714284</ele><time>2026-04-06T13:56:03.999Z</time></trkpt><trkpt lat="45.820911477026414" lon="7.9854559477740095"><ele>1022.4285714285714</ele><time>2026-04-06T13:56:04.999Z</time></trkpt><trkpt lat="45.82088989042066" lon="7.985553376309483"><ele>1017.2857142857143</ele><time>2026-04-06T13:56:05.999Z</time></trkpt><trkpt lat="45.82086805802212" lon="7.985647911919833"><ele>1012.1428571428571</ele><time>2026-04-06T13:56:06.999Z</time></trkpt><trkpt lat="45.82084340061315" lon="7.985740758716701"><ele>1007.0</ele><time>2026-04-06T13:56:07.999Z</time></trkpt><trkpt lat="45.82081813079557" lon="7.985834993541794"><ele>1007.8333333333334</ele><time>2026-04-06T13:56:08.999Z</time></trkpt><trkpt lat="45.82078764688648" lon="7.9859248923640545"><ele>1008.6666666666667</ele><time>2026-04-06T13:56:09.999Z</time></trkpt><trkpt lat="45.820760187294646" lon="7.986009776757404"><ele>1009.5</ele><time>2026-04-06T13:56:10.999Z</time></trkpt><trkpt lat="45.82072525825485" lon="7.986090852074147"><ele>1010.3333333333333</ele><time>2026-04-06T13:56:11.999Z</time></trkpt><trkpt lat="45.8206898838993" lon="7.986173699670411"><ele>1011.1666666666666</ele><time>2026-04-06T13:56:12.999Z</time></trkpt><trkpt lat="45.820636299667605" lon="7.986322888584873"><ele>1012.0</ele><time>2026-04-06T13:56:15Z</time></trkpt><trkpt lat="45.82057725054986" lon="7.986471416693939"><ele>1012.0</ele><time>2026-04-06T13:56:17Z</time></trkpt><trkpt lat="45.82049835153494" lon="7.98659993406872"><ele>1012.0</ele><time>2026-04-06T13:56:19Z</time></trkpt><trkpt lat="45.820449755737876" lon="7.986747733040602"><ele>1012.0</ele><time>2026-04-06T13:56:21Z</time></trkpt><trkpt lat="45.82041026657077" lon="7.986906869359747"><ele>1012.0</ele><time>2026-04-06T13:56:23Z</time></trkpt><trkpt lat="45.82038281217875" lon="7.986988171159142"><ele>1012.0</ele><time>2026-04-06T13:56:24Z</time></trkpt><trkpt lat="45.82033544805907" lon="7.987155217814815"><ele>1012.4999999999999</ele><time>2026-04-06T13:56:26Z</time></trkpt><trkpt lat="45.820305239520565" lon="7.987330043846494"><ele>1013.0</ele><time>2026-04-06T13:56:28Z</time></trkpt><trkpt lat="45.82029499198407" lon="7.987420833391641"><ele>1013.5</ele><time>2026-04-06T13:56:29Z</time></trkpt><trkpt lat="45.82028606025569" lon="7.987511432347934"><ele>1014.0</ele><time>2026-04-06T13:56:30Z</time></trkpt><trkpt lat="45.820276372373904" lon="7.987602098766099"><ele>1014.4999999999999</ele><time>2026-04-06T13:56:31Z</time></trkpt><trkpt lat="45.82026973639551" lon="7.987695323988763"><ele>1015.0</ele><time>2026-04-06T13:56:32Z</time></trkpt><trkpt lat="45.8202639515306" lon="7.98787507464675"><ele>1015.5</ele><time>2026-04-06T13:56:34Z</time></trkpt><trkpt lat="45.820251771578846" lon="7.988046191655544"><ele>1016.0</ele><time>2026-04-06T13:56:36Z</time></trkpt><trkpt lat="45.82024097157355" lon="7.988211983250766"><ele>1016.5</ele><time>2026-04-06T13:56:38Z</time></trkpt><trkpt lat="45.820232547491656" lon="7.98837848451078"><ele>1017.0</ele><time>2026-04-06T13:56:40Z</time></trkpt><trkpt lat="45.82022104767053" lon="7.988555768832582"><ele>1017.8571428571428</ele><time>2026-04-06T13:56:42Z</time></trkpt><trkpt lat="45.820216699373944" lon="7.988734356345855"><ele>1018.7142857142856</ele><time>2026-04-06T13:56:44Z</time></trkpt><trkpt lat="45.82021351695078" lon="7.9888263522380365"><ele>1019.5714285714286</ele><time>2026-04-06T13:56:45Z</time></trkpt><trkpt lat="45.82020945910121" lon="7.988917840317502"><ele>1020.4285714285713</ele><time>2026-04-06T13:56:46Z</time></trkpt><trkpt lat="45.82020290738151" lon="7.98900827991518"><ele>1021.2857142857142</ele><time>2026-04-06T13:56:47Z</time></trkpt><trkpt lat="45.820198768726755" lon="7.9891026140003065"><ele>1022.1428571428571</ele><time>2026-04-06T13:56:48Z</time></trkpt><trkpt lat="45.82018985555585" lon="7.989198325091756"><ele>1023.0</ele><time>2026-04-06T13:56:49Z</time></trkpt><trkpt lat="45.82017101098019" lon="7.989292337000046"><ele>1019.8571428571429</ele><time>2026-04-06T13:56:50Z</time></trkpt><trkpt lat="45.82014444308478" lon="7.989383586558341"><ele>1016.7142857142857</ele><time>2026-04-06T13:56:51Z</time></trkpt><trkpt lat="45.82011840894895" lon="7.989476338699543"><ele>1013.5714285714286</ele><time>2026-04-06T13:56:52Z</time></trkpt><trkpt lat="45.82008191711721" lon="7.989556163983079"><ele>1010.4285714285714</ele><time>2026-04-06T13:56:53Z</time></trkpt><trkpt lat="45.82003893539826" lon="7.989633030854354"><ele>1007.2857142857142</ele><time>2026-04-06T13:56:54Z</time></trkpt><trkpt lat="45.82000065333388" lon="7.989710613521294"><ele>1004.1428571428571</ele><time>2026-04-06T13:56:55Z</time></trkpt><trkpt lat="45.819962921892696" lon="7.9897876035962865"><ele>1001.0</ele><time>2026-04-06T13:56:56Z</time></trkpt><trkpt lat="45.8199299176285" lon="7.989865755518871"><ele>1001.0</ele><time>2026-04-06T13:56:57Z</time></trkpt><trkpt lat="45.81989432162842" lon="7.989946514233492"><ele>1001.0</ele><time>2026-04-06T13:56:58Z</time></trkpt><trkpt lat="45.81986631707566" lon="7.990027907519526"><ele>1001.0</ele><time>2026-04-06T13:56:59Z</time></trkpt><trkpt lat="45.81984715870657" lon="7.990118224391671"><ele>1001.0</ele><time>2026-04-06T13:57:00Z</time></trkpt><trkpt lat="45.81983331732394" lon="7.990209025021173"><ele>1001.0</ele><time>2026-04-06T13:57:01Z</time></trkpt><trkpt lat="45.819825220955025" lon="7.99029883139234"><ele>1001.0</ele><time>2026-04-06T13:57:02Z</time></trkpt><trkpt lat="45.81981891106672" lon="7.990392803159172"><ele>1001.0</ele><time>2026-04-06T13:57:03Z</time></trkpt><trkpt lat="45.81982700815831" lon="7.990572048729774"><ele>1002.1999999999999</ele><time>2026-04-06T13:57:05Z</time></trkpt><trkpt lat="45.819840595313494" lon="7.990751079683331"><ele>1003.3999999999999</ele><time>2026-04-06T13:57:07Z</time></trkpt><trkpt lat="45.81984093405505" lon="7.990930170719066"><ele>1004.6</ele><time>2026-04-06T13:57:09Z</time></trkpt><trkpt lat="45.8198220985609" lon="7.991107523115638"><ele>1005.8</ele><time>2026-04-06T13:57:11Z</time></trkpt><trkpt lat="45.81979758661074" lon="7.991194638023237"><ele>1007.0</ele><time>2026-04-06T13:57:12Z</time></trkpt><trkpt lat="45.81973639191084" lon="7.991348898204287"><ele>1007.3333333333334</ele><time>2026-04-06T13:57:14Z</time></trkpt><trkpt lat="45.81967837279164" lon="7.991502401779608"><ele>1007.6666666666667</ele><time>2026-04-06T13:57:15.999Z</time></trkpt><trkpt lat="45.81964504889858" lon="7.991669050443465"><ele>1008.0</ele><time>2026-04-06T13:57:17.999Z</time></trkpt><trkpt lat="45.81962579166713" lon="7.991755503193718"><ele>1008.3333333333333</ele><time>2026-04-06T13:57:18.999Z</time></trkpt><trkpt lat="45.81961374885647" lon="7.991847556222963"><ele>1008.6666666666666</ele><time>2026-04-06T13:57:19.999Z</time></trkpt><trkpt lat="45.81960032191917" lon="7.99194246657551"><ele>1009.0</ele><time>2026-04-06T13:57:20.999Z</time></trkpt><trkpt lat="45.81959052049388" lon="7.992037040446381"><ele>1009.4285714285714</ele><time>2026-04-06T13:57:21.999Z</time></trkpt><trkpt lat="45.81958428656961" lon="7.992132165687724"><ele>1009.8571428571429</ele><time>2026-04-06T13:57:22.999Z</time></trkpt><trkpt lat="45.81957405218917" lon="7.992230662610477"><ele>1010.2857142857143</ele><time>2026-04-06T13:57:23.999Z</time></trkpt><trkpt lat="45.81956575245547" lon="7.992329636413918"><ele>1010.7142857142858</ele><time>2026-04-06T13:57:24.999Z</time></trkpt><trkpt lat="45.81955750869956" lon="7.992423768706819"><ele>1011.1428571428571</ele><time>2026-04-06T13:57:25.999Z</time></trkpt><trkpt lat="45.819545176849516" lon="7.992521118475914"><ele>1011.5714285714287</ele><time>2026-04-06T13:57:26.999Z</time></trkpt><trkpt lat="45.81953444568046" lon="7.9926173522324495"><ele>1012.0000000000001</ele><time>2026-04-06T13:57:27.999Z</time></trkpt><trkpt lat="45.81952598325944" lon="7.992715243822555"><ele>1014.1428571428573</ele><time>2026-04-06T13:57:28.999Z</time></trkpt><trkpt lat="45.819519815337515" lon="7.992815103277278"><ele>1016.2857142857143</ele><time>2026-04-06T13:57:29.999Z</time></trkpt><trkpt lat="45.81951984326464" lon="7.9929135112810785"><ele>1018.4285714285716</ele><time>2026-04-06T13:57:30.999Z</time></trkpt><trkpt lat="45.81951592565779" lon="7.9930125423322425"><ele>1020.5714285714287</ele><time>2026-04-06T13:57:31.999Z</time></trkpt><trkpt lat="45.81950486039738" lon="7.993111093907042"><ele>1022.7142857142858</ele><time>2026-04-06T13:57:32.999Z</time></trkpt><trkpt lat="45.81948532001603" lon="7.993205753802155"><ele>1024.857142857143</ele><time>2026-04-06T13:57:33.999Z</time></trkpt><trkpt lat="45.819452327483155" lon="7.993297205010697"><ele>1027.0</ele><time>2026-04-06T13:57:34.999Z</time></trkpt><trkpt lat="45.81941895167731" lon="7.993385879529106"><ele>1028.0</ele><time>2026-04-06T13:57:35.999Z</time></trkpt><trkpt lat="45.819381863128164" lon="7.993471659982511"><ele>1029.0</ele><time>2026-04-06T13:57:36.999Z</time></trkpt><trkpt lat="45.81934348060208" lon="7.993555521694355"><ele>1030.0</ele><time>2026-04-06T13:57:37.999Z</time></trkpt><trkpt lat="45.819306372620034" lon="7.99364113461782"><ele>1031.0</ele><time>2026-04-06T13:57:38.999Z</time></trkpt><trkpt lat="45.819268683710376" lon="7.9937259382487165"><ele>1032.0</ele><time>2026-04-06T13:57:39.999Z</time></trkpt><trkpt lat="45.81923221797473" lon="7.993812812266466"><ele>1033.0</ele><time>2026-04-06T13:57:40.999Z</time></trkpt><trkpt lat="45.81919983583137" lon="7.993899229536555"><ele>1034.0</ele><time>2026-04-06T13:57:41.999Z</time></trkpt><trkpt lat="45.819167399354654" lon="7.993988307993087"><ele>1029.0</ele><time>2026-04-06T13:57:42.999Z</time></trkpt><trkpt lat="45.819144056475636" lon="7.994080028501944"><ele>1024.0</ele><time>2026-04-06T13:57:43.999Z</time></trkpt><trkpt lat="45.819118472857774" lon="7.994170487985657"><ele>1019.0</ele><time>2026-04-06T13:57:44.999Z</time></trkpt><trkpt lat="45.81909498075601" lon="7.9942623141673215"><ele>1014.0</ele><time>2026-04-06T13:57:45.999Z</time></trkpt><trkpt lat="45.81907320688417" lon="7.994356936111672"><ele>1009.0000000000001</ele><time>2026-04-06T13:57:46.999Z</time></trkpt><trkpt lat="45.81905172364594" lon="7.994452296637153"><ele>1004.0</ele><time>2026-04-06T13:57:47.999Z</time></trkpt><trkpt lat="45.81903494857396" lon="7.994546853237275"><ele>999.0</ele><time>2026-04-06T13:57:48.999Z</time></trkpt><trkpt lat="45.81901753002741" lon="7.994642369400716"><ele>999.0</ele><time>2026-04-06T13:57:49.999Z</time></trkpt><trkpt lat="45.81900117971189" lon="7.994735761939567"><ele>999.0000000000001</ele><time>2026-04-06T13:57:50.999Z</time></trkpt><trkpt lat="45.81897956004819" lon="7.994832632059979"><ele>999.0</ele><time>2026-04-06T13:57:51.999Z</time></trkpt><trkpt lat="45.81896130453763" lon="7.994929921437792"><ele>999.0</ele><time>2026-04-06T13:57:52.999Z</time></trkpt><trkpt lat="45.818945661902674" lon="7.995028818738572"><ele>999.0000000000001</ele><time>2026-04-06T13:57:53.999Z</time></trkpt><trkpt lat="45.818929820736344" lon="7.995128199827833"><ele>999.0</ele><time>2026-04-06T13:57:54.999Z</time></trkpt><trkpt lat="45.81891364191201" lon="7.99522794551516"><ele>999.0</ele><time>2026-04-06T13:57:55.999Z</time></trkpt><trkpt lat="45.81889746313027" lon="7.99532634339176"><ele>1000.4285714285714</ele><time>2026-04-06T13:57:56.999Z</time></trkpt><trkpt lat="45.81888226218525" lon="7.995424285832646"><ele>1001.8571428571429</ele><time>2026-04-06T13:57:57.999Z</time></trkpt><trkpt lat="45.81886648081337" lon="7.995524201443753"><ele>1003.2857142857143</ele><time>2026-04-06T13:57:58.999Z</time></trkpt><trkpt lat="45.81884901465522" lon="7.99562460811945"><ele>1004.7142857142858</ele><time>2026-04-06T13:57:59.999Z</time></trkpt><trkpt lat="45.818830900272474" lon="7.995723886254153"><ele>1006.1428571428571</ele><time>2026-04-06T13:58:00.999Z</time></trkpt><trkpt lat="45.81881208558659" lon="7.995819214569753"><ele>1007.5714285714287</ele><time>2026-04-06T13:58:01.999Z</time></trkpt><trkpt lat="45.818789964451746" lon="7.995917081589787"><ele>1009.0</ele><time>2026-04-06T13:58:02.999Z</time></trkpt><trkpt lat="45.81875790185642" lon="7.996014412830556"><ele>1009.9999999999999</ele><time>2026-04-06T13:58:03.999Z</time></trkpt><trkpt lat="45.81872213599958" lon="7.9961094156318175"><ele>1011.0</ele><time>2026-04-06T13:58:04.999Z</time></trkpt><trkpt lat="45.81868023360821" lon="7.996202669259962"><ele>1012.0</ele><time>2026-04-06T13:58:05.999Z</time></trkpt><trkpt lat="45.81863495144656" lon="7.996300494443956"><ele>1013.0</ele><time>2026-04-06T13:58:06.999Z</time></trkpt><trkpt lat="45.81858525047058" lon="7.99639271762234"><ele>1013.9999999999999</ele><time>2026-04-06T13:58:07.999Z</time></trkpt><trkpt lat="45.818537880269595" lon="7.99648273107781"><ele>1015.0</ele><time>2026-04-06T13:58:08.999Z</time></trkpt><trkpt lat="45.818493282943805" lon="7.996579470411645"><ele>1008.8333333333333</ele><time>2026-04-06T13:58:09.999Z</time></trkpt><trkpt lat="45.81846297460242" lon="7.9966836830133134"><ele>1002.6666666666666</ele><time>2026-04-06T13:58:10.999Z</time></trkpt><trkpt lat="45.81844494760696" lon="7.996799943697247"><ele>996.5</ele><time>2026-04-06T13:58:11.999Z</time></trkpt><trkpt lat="45.81844527144132" lon="7.996920612182164"><ele>990.3333333333333</ele><time>2026-04-06T13:58:12.999Z</time></trkpt><trkpt lat="45.81845056562305" lon="7.997048376559775"><ele>984.1666666666666</ele><time>2026-04-06T13:58:13.999Z</time></trkpt><trkpt lat="45.818459893864464" lon="7.997177938036154"><ele>978.0</ele><time>2026-04-06T13:58:14.999Z</time></trkpt><trkpt lat="45.81847021146287" lon="7.997307885332648"><ele>978.0</ele><time>2026-04-06T13:58:15.999Z</time></trkpt><trkpt lat="45.818483773727216" lon="7.9974412158402295"><ele>978.0</ele><time>2026-04-06T13:58:16.999Z</time></trkpt><trkpt lat="45.81850246331773" lon="7.997573914849381"><ele>978.0</ele><time>2026-04-06T13:58:17.999Z</time></trkpt><trkpt lat="45.81852777692143" lon="7.997707919595149"><ele>978.0</ele><time>2026-04-06T13:58:18.999Z</time></trkpt><trkpt lat="45.81855516069059" lon="7.99783463201046"><ele>978.0</ele><time>2026-04-06T13:58:19.999Z</time></trkpt><trkpt lat="45.81858218362332" lon="7.997959333009775"><ele>980.2</ele><time>2026-04-06T13:58:21Z</time></trkpt><trkpt lat="45.81860850383048" lon="7.998082638223607"><ele>982.4</ele><time>2026-04-06T13:58:22Z</time></trkpt><trkpt lat="45.81863521536583" lon="7.998201395145293"><ele>984.6000000000001</ele><time>2026-04-06T13:58:23Z</time></trkpt><trkpt lat="45.81866415257333" lon="7.998321196530293"><ele>986.8000000000001</ele><time>2026-04-06T13:58:24Z</time></trkpt><trkpt lat="45.81869290386412" lon="7.998448548099203"><ele>989.0</ele><time>2026-04-06T13:58:25Z</time></trkpt><trkpt lat="45.81872269343369" lon="7.998574233938364"><ele>989.0</ele><time>2026-04-06T13:58:26Z</time></trkpt><trkpt lat="45.81875286314953" lon="7.99870249384425"><ele>989.0000000000001</ele><time>2026-04-06T13:58:27Z</time></trkpt><trkpt lat="45.81878758004574" lon="7.99882810775992"><ele>989.0000000000001</ele><time>2026-04-06T13:58:28Z</time></trkpt><trkpt lat="45.81882635857641" lon="7.998953993352371"><ele>989.0</ele><time>2026-04-06T13:58:29Z</time></trkpt><trkpt lat="45.81886615187009" lon="7.999076726912969"><ele>989.0</ele><time>2026-04-06T13:58:30Z</time></trkpt><trkpt lat="45.818906193354884" lon="7.999196723090602"><ele>986.2</ele><time>2026-04-06T13:58:31Z</time></trkpt><trkpt lat="45.81895427313842" lon="7.9993152374434775"><ele>983.4000000000001</ele><time>2026-04-06T13:58:32Z</time></trkpt><trkpt lat="45.8190044312504" lon="7.999433495998684"><ele>980.6</ele><time>2026-04-06T13:58:33Z</time></trkpt><trkpt lat="45.81905457720943" lon="7.999555116605298"><ele>977.8</ele><time>2026-04-06T13:58:34Z</time></trkpt><trkpt lat="45.81909702462177" lon="7.999685711705986"><ele>975.0</ele><time>2026-04-06T13:58:35Z</time></trkpt><trkpt lat="45.81913441668565" lon="7.999820546955402"><ele>975.0</ele><time>2026-04-06T13:58:36Z</time></trkpt><trkpt lat="45.81917478602971" lon="7.999953835754023"><ele>975.0</ele><time>2026-04-06T13:58:37Z</time></trkpt><trkpt lat="45.8192121326174" lon="8.000089690227739"><ele>975.0</ele><time>2026-04-06T13:58:38Z</time></trkpt><trkpt lat="45.81924438303087" lon="8.000230610628723"><ele>975.0</ele><time>2026-04-06T13:58:39Z</time></trkpt><trkpt lat="45.81927218545431" lon="8.000375590777997"><ele>975.0</ele><time>2026-04-06T13:58:40Z</time></trkpt><trkpt lat="45.81929836634878" lon="8.000524218356782"><ele>981.4</ele><time>2026-04-06T13:58:41Z</time></trkpt><trkpt lat="45.81932497767501" lon="8.000672054632112"><ele>987.8</ele><time>2026-04-06T13:58:42Z</time></trkpt><trkpt lat="45.81935034497748" lon="8.000817779951308"><ele>994.2</ele><time>2026-04-06T13:58:43Z</time></trkpt><trkpt lat="45.81937426591241" lon="8.000964373510982"><ele>1000.6</ele><time>2026-04-06T13:58:44Z</time></trkpt><trkpt lat="45.81939963517555" lon="8.001112220522934"><ele>1007.0</ele><time>2026-04-06T13:58:45Z</time></trkpt><trkpt lat="45.819423098288816" lon="8.001260945820185"><ele>1007.0</ele><time>2026-04-06T13:58:46Z</time></trkpt><trkpt lat="45.81945128648869" lon="8.00140610580583"><ele>1007.0</ele><time>2026-04-06T13:58:47Z</time></trkpt><trkpt lat="45.81948808730119" lon="8.001546851290344"><ele>1007.0</ele><time>2026-04-06T13:58:48Z</time></trkpt><trkpt lat="45.81953185064037" lon="8.001678859909896"><ele>1007.0</ele><time>2026-04-06T13:58:49Z</time></trkpt><trkpt lat="45.81958870500604" lon="8.001803609363376"><ele>1007.0</ele><time>2026-04-06T13:58:50Z</time></trkpt><trkpt lat="45.81964400260798" lon="8.001935348510917"><ele>1003.6</ele><time>2026-04-06T13:58:51Z</time></trkpt><trkpt lat="45.81969078215967" lon="8.002074065310582"><ele>1000.2</ele><time>2026-04-06T13:58:52Z</time></trkpt><trkpt lat="45.8197341246809" lon="8.002215955334803"><ele>996.8</ele><time>2026-04-06T13:58:53Z</time></trkpt><trkpt lat="45.81977052249455" lon="8.002362158466164"><ele>993.4</ele><time>2026-04-06T13:58:54Z</time></trkpt><trkpt lat="45.8198015779033" lon="8.002510748694494"><ele>990.0</ele><time>2026-04-06T13:58:55Z</time></trkpt><trkpt lat="45.81983063455666" lon="8.002657444785955"><ele>987.6</ele><time>2026-04-06T13:58:56Z</time></trkpt><trkpt lat="45.81986000288633" lon="8.002807616634424"><ele>985.2</ele><time>2026-04-06T13:58:57Z</time></trkpt><trkpt lat="45.81988637735471" lon="8.002953998593368"><ele>982.8</ele><time>2026-04-06T13:58:58Z</time></trkpt><trkpt lat="45.819908108809564" lon="8.003104074123728"><ele>980.4</ele><time>2026-04-06T13:58:59Z</time></trkpt><trkpt lat="45.819928671812455" lon="8.003252449945505"><ele>978.0</ele><time>2026-04-06T13:59:00Z</time></trkpt><trkpt lat="45.819946205931124" lon="8.003405003353002"><ele>976.8</ele><time>2026-04-06T13:59:01Z</time></trkpt><trkpt lat="45.819954519094125" lon="8.003557666308367"><ele>975.5999999999999</ele><time>2026-04-06T13:59:02Z</time></trkpt><trkpt lat="45.81996392508368" lon="8.003708991804622"><ele>974.4000000000001</ele><time>2026-04-06T13:59:03Z</time></trkpt><trkpt lat="45.819975161153835" lon="8.003858379457185"><ele>973.2</ele><time>2026-04-06T13:59:04Z</time></trkpt><trkpt lat="45.819981913942215" lon="8.004008089648096"><ele>972.0</ele><time>2026-04-06T13:59:05Z</time></trkpt><trkpt lat="45.819989000503774" lon="8.004154417027022"><ele>970.0</ele><time>2026-04-06T13:59:06Z</time></trkpt><trkpt lat="45.81999848161329" lon="8.004299419943223"><ele>968.0</ele><time>2026-04-06T13:59:07Z</time></trkpt><trkpt lat="45.820009907704474" lon="8.004440695319333"><ele>966.0</ele><time>2026-04-06T13:59:08Z</time></trkpt><trkpt lat="45.82001876253514" lon="8.004585663849321"><ele>964.0</ele><time>2026-04-06T13:59:09Z</time></trkpt><trkpt lat="45.820034189439255" lon="8.004725794307491"><ele>962.0</ele><time>2026-04-06T13:59:10Z</time></trkpt><trkpt lat="45.820038264772194" lon="8.004864929259412"><ele>961.2</ele><time>2026-04-06T13:59:11Z</time></trkpt><trkpt lat="45.82004174607907" lon="8.005006099158788"><ele>960.4000000000001</ele><time>2026-04-06T13:59:12Z</time></trkpt><trkpt lat="45.820051727790855" lon="8.005147665381543"><ele>959.5999999999999</ele><time>2026-04-06T13:59:13Z</time></trkpt><trkpt lat="45.82006193715947" lon="8.005288215295913"><ele>958.8</ele><time>2026-04-06T13:59:14Z</time></trkpt><trkpt lat="45.820071463328766" lon="8.005432107526449"><ele>958.0</ele><time>2026-04-06T13:59:15Z</time></trkpt><trkpt lat="45.820084113578055" lon="8.00557180546759"><ele>958.0</ele><time>2026-04-06T13:59:16Z</time></trkpt><trkpt lat="45.820095969023626" lon="8.005710886422793"><ele>958.0</ele><time>2026-04-06T13:59:17Z</time></trkpt><trkpt lat="45.82010293164246" lon="8.005850409907106"><ele>958.0</ele><time>2026-04-06T13:59:18Z</time></trkpt><trkpt lat="45.82010730553885" lon="8.005987424331499"><ele>958.0</ele><time>2026-04-06T13:59:19Z</time></trkpt><trkpt lat="45.82011987919903" lon="8.006115371989315"><ele>958.0</ele><time>2026-04-06T13:59:20Z</time></trkpt><trkpt lat="45.82012597993307" lon="8.006246123921889"><ele>956.9999999999999</ele><time>2026-04-06T13:59:21Z</time></trkpt><trkpt lat="45.820135114147845" lon="8.006375917941341"><ele>956.0</ele><time>2026-04-06T13:59:22Z</time></trkpt><trkpt lat="45.82014373241363" lon="8.006502687890142"><ele>955.0</ele><time>2026-04-06T13:59:23Z</time></trkpt><trkpt lat="45.82015170616571" lon="8.006632339042573"><ele>954.0</ele><time>2026-04-06T13:59:24Z</time></trkpt><trkpt lat="45.82015635351254" lon="8.006760579371377"><ele>952.9999999999999</ele><time>2026-04-06T13:59:24.999Z</time></trkpt><trkpt lat="45.82015922303528" lon="8.006885159980975"><ele>952.0</ele><time>2026-04-06T13:59:25.999Z</time></trkpt><trkpt lat="45.82016763857581" lon="8.007007328317528"><ele>956.8333333333333</ele><time>2026-04-06T13:59:26.999Z</time></trkpt><trkpt lat="45.8201755298147" lon="8.007125981949223"><ele>961.6666666666666</ele><time>2026-04-06T13:59:27.999Z</time></trkpt><trkpt lat="45.82018432506382" lon="8.00724261229979"><ele>966.5</ele><time>2026-04-06T13:59:28.999Z</time></trkpt><trkpt lat="45.8201864817254" lon="8.007357714630478"><ele>971.3333333333333</ele><time>2026-04-06T13:59:29.999Z</time></trkpt><trkpt lat="45.8201866484861" lon="8.007475654714755"><ele>976.1666666666666</ele><time>2026-04-06T13:59:30.999Z</time></trkpt><trkpt lat="45.82018638281726" lon="8.00758822706029"><ele>981.0</ele><time>2026-04-06T13:59:31.999Z</time></trkpt><trkpt lat="45.82017993741044" lon="8.007701873830777"><ele>981.0</ele><time>2026-04-06T13:59:32.999Z</time></trkpt><trkpt lat="45.82017767529326" lon="8.007810055146017"><ele>981.0</ele><time>2026-04-06T13:59:33.999Z</time></trkpt><trkpt lat="45.82017587306655" lon="8.007921939190073"><ele>981.0</ele><time>2026-04-06T13:59:34.999Z</time></trkpt><trkpt lat="45.82016988294244" lon="8.008029049737122"><ele>981.0</ele><time>2026-04-06T13:59:35.999Z</time></trkpt><trkpt lat="45.820163630677555" lon="8.008130629042189"><ele>981.0</ele><time>2026-04-06T13:59:36.999Z</time></trkpt><trkpt lat="45.82015793526141" lon="8.008234122629451"><ele>981.0</ele><time>2026-04-06T13:59:37.999Z</time></trkpt><trkpt lat="45.82015069209426" lon="8.008338156244271"><ele>981.0</ele><time>2026-04-06T13:59:38.999Z</time></trkpt><trkpt lat="45.82014735660064" lon="8.008432884263264"><ele>975.6666666666666</ele><time>2026-04-06T13:59:39.999Z</time></trkpt><trkpt lat="45.82014460694379" lon="8.008531109616689"><ele>970.3333333333333</ele><time>2026-04-06T13:59:40.999Z</time></trkpt><trkpt lat="45.82013945448836" lon="8.00863048794684"><ele>965.0</ele><time>2026-04-06T13:59:41.999Z</time></trkpt><trkpt lat="45.82013574641135" lon="8.008729605000784"><ele>959.6666666666666</ele><time>2026-04-06T13:59:42.999Z</time></trkpt><trkpt lat="45.82013052931701" lon="8.00882410011893"><ele>954.3333333333333</ele><time>2026-04-06T13:59:43.999Z</time></trkpt><trkpt lat="45.82012363023932" lon="8.008920289169117"><ele>949.0</ele><time>2026-04-06T13:59:44.999Z</time></trkpt><trkpt lat="45.82011584747111" lon="8.009101137645816"><ele>948.6666666666666</ele><time>2026-04-06T13:59:46.999Z</time></trkpt><trkpt lat="45.82011264144157" lon="8.00919162858979"><ele>948.3333333333333</ele><time>2026-04-06T13:59:47.999Z</time></trkpt><trkpt lat="45.82011057281961" lon="8.009283475230752"><ele>948.0</ele><time>2026-04-06T13:59:48.999Z</time></trkpt><trkpt lat="45.82011592840143" lon="8.009462536918601"><ele>947.6666666666667</ele><time>2026-04-06T13:59:50.999Z</time></trkpt><trkpt lat="45.82012120568034" lon="8.009552823808889"><ele>947.3333333333334</ele><time>2026-04-06T13:59:51.999Z</time></trkpt><trkpt lat="45.82014758728035" lon="8.009729062564222"><ele>947.0</ele><time>2026-04-06T13:59:53.999Z</time></trkpt><trkpt lat="45.82016662965812" lon="8.009817469831257"><ele>950.0</ele><time>2026-04-06T13:59:54.999Z</time></trkpt><trkpt lat="45.82018804964703" lon="8.00990450281282"><ele>952.9999999999999</ele><time>2026-04-06T13:59:55.999Z</time></trkpt><trkpt lat="45.820210779769354" lon="8.009991947616108"><ele>956.0</ele><time>2026-04-06T13:59:56.999Z</time></trkpt><trkpt lat="45.82023447796733" lon="8.010078534766723"><ele>959.0</ele><time>2026-04-06T13:59:57.999Z</time></trkpt><trkpt lat="45.82025606446903" lon="8.010165316450017"><ele>961.9999999999999</ele><time>2026-04-06T13:59:58.999Z</time></trkpt><trkpt lat="45.82027372012606" lon="8.010256447357177"><ele>965.0</ele><time>2026-04-06T13:59:59.999Z</time></trkpt><trkpt lat="45.82028846423364" lon="8.010346601476842"><ele>968.0</ele><time>2026-04-06T14:00:00.999Z</time></trkpt><trkpt lat="45.820292994152695" lon="8.010440459832173"><ele>968.0</ele><time>2026-04-06T14:00:01.999Z</time></trkpt><trkpt lat="45.820299872398024" lon="8.01053444033994"><ele>967.9999999999999</ele><time>2026-04-06T14:00:02.999Z</time></trkpt><trkpt lat="45.82030590927543" lon="8.010627081530153"><ele>968.0</ele><time>2026-04-06T14:00:03.999Z</time></trkpt><trkpt lat="45.82031226720996" lon="8.010719391770833"><ele>968.0</ele><time>2026-04-06T14:00:04.999Z</time></trkpt><trkpt lat="45.82031626906581" lon="8.010814289622665"><ele>967.9999999999999</ele><time>2026-04-06T14:00:05.999Z</time></trkpt><trkpt lat="45.82031617148395" lon="8.010907171528448"><ele>968.0</ele><time>2026-04-06T14:00:06.999Z</time></trkpt><trkpt lat="45.820313997935855" lon="8.010997982629812"><ele>968.0</ele><time>2026-04-06T14:00:07.999Z</time></trkpt><trkpt lat="45.82031279499451" lon="8.011088832101077"><ele>967.8571428571428</ele><time>2026-04-06T14:00:08.999Z</time></trkpt><trkpt lat="45.82030800533494" lon="8.01118038099572"><ele>967.7142857142856</ele><time>2026-04-06T14:00:09.999Z</time></trkpt><trkpt lat="45.820305657602546" lon="8.01127614885436"><ele>967.5714285714286</ele><time>2026-04-06T14:00:10.999Z</time></trkpt><trkpt lat="45.82030656575878" lon="8.011371664186564"><ele>967.4285714285713</ele><time>2026-04-06T14:00:11.999Z</time></trkpt><trkpt lat="45.82030772370565" lon="8.011467294363388"><ele>967.2857142857142</ele><time>2026-04-06T14:00:12.999Z</time></trkpt><trkpt lat="45.82030944430833" lon="8.011567294363626"><ele>967.1428571428571</ele><time>2026-04-06T14:00:13.999Z</time></trkpt><trkpt lat="45.82031134006815" lon="8.011669378035531"><ele>967.0</ele><time>2026-04-06T14:00:14.999Z</time></trkpt><trkpt lat="45.82031500368411" lon="8.011774731104756"><ele>965.9999999999999</ele><time>2026-04-06T14:00:15.999Z</time></trkpt><trkpt lat="45.82032526282595" lon="8.011877424079463"><ele>965.0</ele><time>2026-04-06T14:00:16.999Z</time></trkpt><trkpt lat="45.82033556308133" lon="8.011984432695394"><ele>964.0</ele><time>2026-04-06T14:00:17.999Z</time></trkpt><trkpt lat="45.820345246677846" lon="8.012094837673775"><ele>963.0</ele><time>2026-04-06T14:00:18.999Z</time></trkpt><trkpt lat="45.82035475657055" lon="8.012202980105382"><ele>961.9999999999999</ele><time>2026-04-06T14:00:19.999Z</time></trkpt><trkpt lat="45.82036969472539" lon="8.01231032291212"><ele>961.0</ele><time>2026-04-06T14:00:20.999Z</time></trkpt><trkpt lat="45.82038382251242" lon="8.012415646924858"><ele>959.2857142857142</ele><time>2026-04-06T14:00:21.999Z</time></trkpt><trkpt lat="45.82039848318406" lon="8.012517299262626"><ele>957.5714285714284</ele><time>2026-04-06T14:00:22.999Z</time></trkpt><trkpt lat="45.820412081767394" lon="8.012617063217984"><ele>955.8571428571429</ele><time>2026-04-06T14:00:23.999Z</time></trkpt><trkpt lat="45.82042360025278" lon="8.012721487808173"><ele>954.1428571428571</ele><time>2026-04-06T14:00:24.999Z</time></trkpt><trkpt lat="45.820438336477736" lon="8.012822736557847"><ele>952.4285714285714</ele><time>2026-04-06T14:00:25.999Z</time></trkpt><trkpt lat="45.820450990935626" lon="8.012922734071605"><ele>950.7142857142858</ele><time>2026-04-06T14:00:27Z</time></trkpt><trkpt lat="45.82046227280701" lon="8.013021433987088"><ele>949.0000000000001</ele><time>2026-04-06T14:00:28Z</time></trkpt><trkpt lat="45.82047403985599" lon="8.013119625687347"><ele>949.0000000000001</ele><time>2026-04-06T14:00:29Z</time></trkpt><trkpt lat="45.82048388058907" lon="8.013217544778245"><ele>949.0</ele><time>2026-04-06T14:00:30Z</time></trkpt><trkpt lat="45.82049590419013" lon="8.01331151460093"><ele>949.0000000000001</ele><time>2026-04-06T14:00:31Z</time></trkpt><trkpt lat="45.82050767820081" lon="8.013404617516793"><ele>949.0000000000001</ele><time>2026-04-06T14:00:32Z</time></trkpt><trkpt lat="45.82052133610008" lon="8.013499809669097"><ele>949.0</ele><time>2026-04-06T14:00:33Z</time></trkpt><trkpt lat="45.820535074831845" lon="8.01359493691802"><ele>949.0000000000001</ele><time>2026-04-06T14:00:34Z</time></trkpt><trkpt lat="45.820547567468935" lon="8.013692291137845"><ele>949.0000000000001</ele><time>2026-04-06T14:00:35Z</time></trkpt><trkpt lat="45.820561574797914" lon="8.013791228593542"><ele>950.0000000000001</ele><time>2026-04-06T14:00:36Z</time></trkpt><trkpt lat="45.820578016190865" lon="8.013888382810986"><ele>951.0</ele><time>2026-04-06T14:00:37Z</time></trkpt><trkpt lat="45.82059292644659" lon="8.013982607785465"><ele>952.0000000000001</ele><time>2026-04-06T14:00:38Z</time></trkpt><trkpt lat="45.820605237028985" lon="8.014084234870444"><ele>953.0000000000001</ele><time>2026-04-06T14:00:39Z</time></trkpt><trkpt lat="45.8206205486565" lon="8.014185131651239"><ele>954.0</ele><time>2026-04-06T14:00:40Z</time></trkpt><trkpt lat="45.8206347092975" lon="8.01428986971838"><ele>955.0000000000001</ele><time>2026-04-06T14:00:41Z</time></trkpt><trkpt lat="45.82065020377343" lon="8.01439192779992"><ele>956.0000000000001</ele><time>2026-04-06T14:00:42Z</time></trkpt><trkpt lat="45.82066553725817" lon="8.014494296670806"><ele>956.0000000000001</ele><time>2026-04-06T14:00:43Z</time></trkpt><trkpt lat="45.82068068670562" lon="8.014598634837133"><ele>956.0</ele><time>2026-04-06T14:00:44Z</time></trkpt><trkpt lat="45.82069592973747" lon="8.014700245683308"><ele>956.0000000000001</ele><time>2026-04-06T14:00:45Z</time></trkpt><trkpt lat="45.820712253482206" lon="8.014801476222043"><ele>956.0000000000001</ele><time>2026-04-06T14:00:46Z</time></trkpt><trkpt lat="45.820729055688034" lon="8.014899955372053"><ele>956.0</ele><time>2026-04-06T14:00:47Z</time></trkpt><trkpt lat="45.82075593460817" lon="8.01498873786882"><ele>956.0000000000001</ele><time>2026-04-06T14:00:48Z</time></trkpt><trkpt lat="45.820782964234915" lon="8.015083232000359"><ele>956.0000000000001</ele><time>2026-04-06T14:00:49Z</time></trkpt><trkpt lat="45.82080925907624" lon="8.01517859095289"><ele>954.2857142857144</ele><time>2026-04-06T14:00:50Z</time></trkpt><trkpt lat="45.82082580858966" lon="8.01527543159401"><ele>952.5714285714287</ele><time>2026-04-06T14:00:51Z</time></trkpt><trkpt lat="45.82085488909993" lon="8.0153702202217"><ele>950.8571428571429</ele><time>2026-04-06T14:00:52Z</time></trkpt><trkpt lat="45.82087967899277" lon="8.015464413023594"><ele>949.1428571428572</ele><time>2026-04-06T14:00:53Z</time></trkpt><trkpt lat="45.82090509816354" lon="8.015556717723909"><ele>947.4285714285716</ele><time>2026-04-06T14:00:54Z</time></trkpt><trkpt lat="45.82093142600372" lon="8.015648983821206"><ele>945.7142857142857</ele><time>2026-04-06T14:00:55Z</time></trkpt><trkpt lat="45.82095557403852" lon="8.015738920824287"><ele>944.0</ele><time>2026-04-06T14:00:56Z</time></trkpt><trkpt lat="45.82097678203025" lon="8.015832456185523"><ele>948.7142857142857</ele><time>2026-04-06T14:00:57Z</time></trkpt><trkpt lat="45.820996527883324" lon="8.01592657594622"><ele>953.4285714285716</ele><time>2026-04-06T14:00:58Z</time></trkpt><trkpt lat="45.8210160148288" lon="8.016013993192377"><ele>958.1428571428572</ele><time>2026-04-06T14:00:59Z</time></trkpt><trkpt lat="45.821033606787466" lon="8.016103485738563"><ele>962.8571428571429</ele><time>2026-04-06T14:01:00Z</time></trkpt><trkpt lat="45.82104981367473" lon="8.016196631046398"><ele>967.5714285714287</ele><time>2026-04-06T14:01:01Z</time></trkpt><trkpt lat="45.82106548213798" lon="8.016287451075126"><ele>972.2857142857144</ele><time>2026-04-06T14:01:02Z</time></trkpt><trkpt lat="45.82107895502584" lon="8.016376911287583"><ele>977.0000000000001</ele><time>2026-04-06T14:01:03Z</time></trkpt><trkpt lat="45.82109403930217" lon="8.016465174223109"><ele>977.0000000000001</ele><time>2026-04-06T14:01:04Z</time></trkpt><trkpt lat="45.82110947635717" lon="8.016557474947883"><ele>977.0</ele><time>2026-04-06T14:01:05Z</time></trkpt><trkpt lat="45.82112398932805" lon="8.016647708393366"><ele>977.0000000000001</ele><time>2026-04-06T14:01:06Z</time></trkpt><trkpt lat="45.82113874758236" lon="8.016741723809266"><ele>977.0000000000001</ele><time>2026-04-06T14:01:07Z</time></trkpt><trkpt lat="45.82115351879285" lon="8.016835101538966"><ele>977.0</ele><time>2026-04-06T14:01:08Z</time></trkpt><trkpt lat="45.82117209572346" lon="8.016929693871779"><ele>977.0000000000001</ele><time>2026-04-06T14:01:09Z</time></trkpt><trkpt lat="45.821191109825335" lon="8.017022599780905"><ele>977.0000000000001</ele><time>2026-04-06T14:01:10Z</time></trkpt><trkpt lat="45.8212080616398" lon="8.01711675944952"><ele>974.4285714285716</ele><time>2026-04-06T14:01:11Z</time></trkpt><trkpt lat="45.821224119255355" lon="8.017216165424754"><ele>971.8571428571429</ele><time>2026-04-06T14:01:12Z</time></trkpt><trkpt lat="45.82124305942317" lon="8.017315423241012"><ele>969.2857142857143</ele><time>2026-04-06T14:01:13Z</time></trkpt><trkpt lat="45.821260882852975" lon="8.017418240261213"><ele>966.7142857142858</ele><time>2026-04-06T14:01:14Z</time></trkpt><trkpt lat="45.82128608251114" lon="8.017517187941227"><ele>964.1428571428571</ele><time>2026-04-06T14:01:15Z</time></trkpt><trkpt lat="45.82131336874619" lon="8.01761766162056"><ele>961.5714285714286</ele><time>2026-04-06T14:01:16Z</time></trkpt><trkpt lat="45.821336459747336" lon="8.017718777938335"><ele>959.0</ele><time>2026-04-06T14:01:17Z</time></trkpt><trkpt lat="45.82135819814359" lon="8.017820177388856"><ele>957.6666666666667</ele><time>2026-04-06T14:01:18Z</time></trkpt><trkpt lat="45.82138548862413" lon="8.01792263103435"><ele>956.3333333333334</ele><time>2026-04-06T14:01:19Z</time></trkpt><trkpt lat="45.82141168368912" lon="8.018028249032898"><ele>955.0</ele><time>2026-04-06T14:01:20Z</time></trkpt><trkpt lat="45.82144100107914" lon="8.018131088000965"><ele>953.6666666666667</ele><time>2026-04-06T14:01:21Z</time></trkpt><trkpt lat="45.82146274020301" lon="8.018242758457163"><ele>952.3333333333334</ele><time>2026-04-06T14:01:22Z</time></trkpt><trkpt lat="45.821486612767444" lon="8.018355145718523"><ele>951.0</ele><time>2026-04-06T14:01:23Z</time></trkpt><trkpt lat="45.82150833080728" lon="8.01846659308291"><ele>949.3333333333334</ele><time>2026-04-06T14:01:24Z</time></trkpt><trkpt lat="45.8215295358829" lon="8.01858307528541"><ele>947.6666666666667</ele><time>2026-04-06T14:01:25Z</time></trkpt><trkpt lat="45.82154347181878" lon="8.018688638421054"><ele>946.0</ele><time>2026-04-06T14:01:26Z</time></trkpt><trkpt lat="45.82156170606588" lon="8.018803433727935"><ele>944.3333333333334</ele><time>2026-04-06T14:01:27Z</time></trkpt><trkpt lat="45.82157294351253" lon="8.01892441420757"><ele>942.6666666666667</ele><time>2026-04-06T14:01:28Z</time></trkpt><trkpt lat="45.82158546544078" lon="8.019043298455296"><ele>941.0</ele><time>2026-04-06T14:01:29Z</time></trkpt><trkpt lat="45.821591602660504" lon="8.01916693249082"><ele>939.1666666666667</ele><time>2026-04-06T14:01:30Z</time></trkpt><trkpt lat="45.82160046503919" lon="8.019292383830363"><ele>937.3333333333334</ele><time>2026-04-06T14:01:31Z</time></trkpt><trkpt lat="45.8216060758423" lon="8.019419674877183"><ele>935.5</ele><time>2026-04-06T14:01:32Z</time></trkpt><trkpt lat="45.82161711281555" lon="8.01954708041044"><ele>933.6666666666667</ele><time>2026-04-06T14:01:33Z</time></trkpt><trkpt lat="45.82162017135576" lon="8.019669782928352"><ele>931.8333333333334</ele><time>2026-04-06T14:01:33.999Z</time></trkpt><trkpt lat="45.821622496907544" lon="8.019794481079833"><ele>930.0</ele><time>2026-04-06T14:01:34.999Z</time></trkpt><trkpt lat="45.82162392492849" lon="8.01992135178052"><ele>928.4</ele><time>2026-04-06T14:01:35.999Z</time></trkpt><trkpt lat="45.8216223493537" lon="8.020052367228343"><ele>926.8</ele><time>2026-04-06T14:01:36.999Z</time></trkpt><trkpt lat="45.82161744249109" lon="8.020181347434352"><ele>925.2</ele><time>2026-04-06T14:01:37.999Z</time></trkpt><trkpt lat="45.821612339453864" lon="8.02030950089775"><ele>923.6</ele><time>2026-04-06T14:01:38.999Z</time></trkpt><trkpt lat="45.82160247745383" lon="8.020441899595463"><ele>922.0</ele><time>2026-04-06T14:01:39.999Z</time></trkpt><trkpt lat="45.82159566497011" lon="8.020572598001785"><ele>922.0</ele><time>2026-04-06T14:01:40.999Z</time></trkpt><trkpt lat="45.82158602554038" lon="8.020704897885615"><ele>922.0</ele><time>2026-04-06T14:01:41.999Z</time></trkpt><trkpt lat="45.8215764337648" lon="8.020835150922826"><ele>922.0</ele><time>2026-04-06T14:01:42.999Z</time></trkpt><trkpt lat="45.82156781695718" lon="8.02096513760054"><ele>922.0</ele><time>2026-04-06T14:01:43.999Z</time></trkpt><trkpt lat="45.8215613240573" lon="8.02109678518211"><ele>922.0</ele><time>2026-04-06T14:01:44.999Z</time></trkpt><trkpt lat="45.821562610302884" lon="8.021230653900815"><ele>921.8333333333333</ele><time>2026-04-06T14:01:45.999Z</time></trkpt><trkpt lat="45.82156958354812" lon="8.021359684352914"><ele>921.6666666666666</ele><time>2026-04-06T14:01:46.999Z</time></trkpt><trkpt lat="45.82157785571678" lon="8.021488700007033"><ele>921.5</ele><time>2026-04-06T14:01:47.999Z</time></trkpt><trkpt lat="45.82158668767712" lon="8.021617263089313"><ele>921.3333333333333</ele><time>2026-04-06T14:01:48.999Z</time></trkpt><trkpt lat="45.82159479256567" lon="8.021742067582817"><ele>921.1666666666666</ele><time>2026-04-06T14:01:49.999Z</time></trkpt><trkpt lat="45.82159438845376" lon="8.021870733988377"><ele>921.0</ele><time>2026-04-06T14:01:50.999Z</time></trkpt><trkpt lat="45.821588663968384" lon="8.02200332241758"><ele>921.0</ele><time>2026-04-06T14:01:51.999Z</time></trkpt><trkpt lat="45.82157540988526" lon="8.022139365046288"><ele>920.9999999999999</ele><time>2026-04-06T14:01:52.999Z</time></trkpt><trkpt lat="45.821552176885206" lon="8.02226894806774"><ele>920.9999999999999</ele><time>2026-04-06T14:01:53.999Z</time></trkpt><trkpt lat="45.82152491469401" lon="8.022395050987502"><ele>921.0</ele><time>2026-04-06T14:01:54.999Z</time></trkpt><trkpt lat="45.821494101169975" lon="8.022514334247928"><ele>921.0</ele><time>2026-04-06T14:01:55.999Z</time></trkpt><trkpt lat="45.82145854148112" lon="8.022633940499242"><ele>920.8333333333334</ele><time>2026-04-06T14:01:56.999Z</time></trkpt><trkpt lat="45.82142317120198" lon="8.02275272626568"><ele>920.6666666666667</ele><time>2026-04-06T14:01:57.999Z</time></trkpt><trkpt lat="45.821388369657946" lon="8.022870497230613"><ele>920.5</ele><time>2026-04-06T14:01:58.999Z</time></trkpt><trkpt lat="45.821351454640364" lon="8.022986526856652"><ele>920.3333333333334</ele><time>2026-04-06T14:01:59.999Z</time></trkpt><trkpt lat="45.8213147091408" lon="8.02309996131666"><ele>920.1666666666667</ele><time>2026-04-06T14:02:00.999Z</time></trkpt><trkpt lat="45.821281391316646" lon="8.023208374827462"><ele>920.0</ele><time>2026-04-06T14:02:01.999Z</time></trkpt><trkpt lat="45.82124826762266" lon="8.023317945692837"><ele>920.0000000000001</ele><time>2026-04-06T14:02:02.999Z</time></trkpt><trkpt lat="45.82121421150065" lon="8.023422780372192"><ele>920.0</ele><time>2026-04-06T14:02:03.999Z</time></trkpt><trkpt lat="45.82117777447407" lon="8.023521021886575"><ele>920.0</ele><time>2026-04-06T14:02:04.999Z</time></trkpt><trkpt lat="45.82114573154032" lon="8.023618516246637"><ele>920.0</ele><time>2026-04-06T14:02:05.999Z</time></trkpt><trkpt lat="45.82111111263974" lon="8.023713260149089"><ele>920.0000000000001</ele><time>2026-04-06T14:02:06.999Z</time></trkpt><trkpt lat="45.82107259627809" lon="8.02381133300415"><ele>920.0</ele><time>2026-04-06T14:02:07.999Z</time></trkpt><trkpt lat="45.82102935998606" lon="8.02391069490148"><ele>917.1666666666667</ele><time>2026-04-06T14:02:08.999Z</time></trkpt><trkpt lat="45.82097890276892" lon="8.024008520320045"><ele>914.3333333333334</ele><time>2026-04-06T14:02:09.999Z</time></trkpt><trkpt lat="45.82092100001975" lon="8.024102631759932"><ele>911.5</ele><time>2026-04-06T14:02:10.999Z</time></trkpt><trkpt lat="45.8208603691715" lon="8.024194565261237"><ele>908.6666666666667</ele><time>2026-04-06T14:02:11.999Z</time></trkpt><trkpt lat="45.82079586521458" lon="8.024288617876467"><ele>905.8333333333334</ele><time>2026-04-06T14:02:12.999Z</time></trkpt><trkpt lat="45.82073136879962" lon="8.024377608647148"><ele>903.0</ele><time>2026-04-06T14:02:13.999Z</time></trkpt><trkpt lat="45.82066612398322" lon="8.024463691815615"><ele>902.2</ele><time>2026-04-06T14:02:14.999Z</time></trkpt><trkpt lat="45.820599267849566" lon="8.024551691493103"><ele>901.4</ele><time>2026-04-06T14:02:15.999Z</time></trkpt><trkpt lat="45.82052971361531" lon="8.024637168459918"><ele>900.6000000000001</ele><time>2026-04-06T14:02:16.999Z</time></trkpt><trkpt lat="45.8204654097247" lon="8.024727071545193"><ele>899.8000000000001</ele><time>2026-04-06T14:02:17.999Z</time></trkpt><trkpt lat="45.82040146745385" lon="8.024813139965616"><ele>899.0</ele><time>2026-04-06T14:02:18.999Z</time></trkpt><trkpt lat="45.820333423122875" lon="8.02489891443019"><ele>898.3333333333334</ele><time>2026-04-06T14:02:19.999Z</time></trkpt><trkpt lat="45.82027100152305" lon="8.024989336599214"><ele>897.6666666666667</ele><time>2026-04-06T14:02:20.999Z</time></trkpt><trkpt lat="45.82020893713794" lon="8.025075942050751"><ele>897.0</ele><time>2026-04-06T14:02:21.999Z</time></trkpt><trkpt lat="45.82015055897513" lon="8.02515398955505"><ele>896.3333333333333</ele><time>2026-04-06T14:02:22.999Z</time></trkpt><trkpt lat="45.820093011303" lon="8.02523769545566"><ele>895.6666666666666</ele><time>2026-04-06T14:02:23.999Z</time></trkpt><trkpt lat="45.82003893268665" lon="8.025322123462752"><ele>895.0</ele><time>2026-04-06T14:02:24.999Z</time></trkpt><trkpt lat="45.81998382388223" lon="8.025398682764614"><ele>895.0</ele><time>2026-04-06T14:02:25.999Z</time></trkpt><trkpt lat="45.81993091579291" lon="8.025482051246545"><ele>895.0</ele><time>2026-04-06T14:02:26.999Z</time></trkpt><trkpt lat="45.81987574291537" lon="8.025556914801324"><ele>895.0</ele><time>2026-04-06T14:02:27.999Z</time></trkpt><trkpt lat="45.819780757956835" lon="8.025667354664971"><ele>895.0</ele><time>2026-04-06T14:02:29.999Z</time></trkpt><trkpt lat="45.81973601636396" lon="8.025734924403146"><ele>895.0</ele><time>2026-04-06T14:02:30.999Z</time></trkpt><trkpt lat="45.819655752234134" lon="8.02586109921583"><ele>899.25</ele><time>2026-04-06T14:02:33Z</time></trkpt><trkpt lat="45.81957744835673" lon="8.025980762224743"><ele>903.5</ele><time>2026-04-06T14:02:35Z</time></trkpt><trkpt lat="45.81949208386222" lon="8.026092378627206"><ele>907.75</ele><time>2026-04-06T14:02:37Z</time></trkpt><trkpt lat="45.81941062487291" lon="8.026206691028115"><ele>912.0</ele><time>2026-04-06T14:02:39Z</time></trkpt><trkpt lat="45.819322249399356" lon="8.026324540931059"><ele>910.0</ele><time>2026-04-06T14:02:41Z</time></trkpt><trkpt lat="45.81924044842585" lon="8.02643134010168"><ele>908.0</ele><time>2026-04-06T14:02:43Z</time></trkpt><trkpt lat="45.8191598138406" lon="8.02655504018689"><ele>906.0</ele><time>2026-04-06T14:02:45Z</time></trkpt><trkpt lat="45.819083533736936" lon="8.026679098759745"><ele>904.0</ele><time>2026-04-06T14:02:47Z</time></trkpt><trkpt lat="45.819043071153516" lon="8.0267534646538"><ele>902.0</ele><time>2026-04-06T14:02:48Z</time></trkpt><trkpt lat="45.81900522651033" lon="8.026826674434101"><ele>902.0</ele><time>2026-04-06T14:02:49Z</time></trkpt><trkpt lat="45.81896957635623" lon="8.026907561573044"><ele>902.0</ele><time>2026-04-06T14:02:50Z</time></trkpt><trkpt lat="45.81892998545698" lon="8.026993990690524"><ele>902.0</ele><time>2026-04-06T14:02:51Z</time></trkpt><trkpt lat="45.818889273244174" lon="8.027076679603296"><ele>902.0</ele><time>2026-04-06T14:02:52Z</time></trkpt><trkpt lat="45.818844586196775" lon="8.027163185901323"><ele>902.0</ele><time>2026-04-06T14:02:53Z</time></trkpt><trkpt lat="45.81880226536154" lon="8.027251926017778"><ele>902.0</ele><time>2026-04-06T14:02:54Z</time></trkpt><trkpt lat="45.8187586909109" lon="8.02733994914769"><ele>902.0</ele><time>2026-04-06T14:02:55Z</time></trkpt><trkpt lat="45.81871320477215" lon="8.02743464906873"><ele>903.7142857142857</ele><time>2026-04-06T14:02:56Z</time></trkpt><trkpt lat="45.81867059895222" lon="8.027518428912904"><ele>905.4285714285716</ele><time>2026-04-06T14:02:57Z</time></trkpt><trkpt lat="45.818629687716154" lon="8.027604668920711"><ele>907.1428571428572</ele><time>2026-04-06T14:02:58Z</time></trkpt><trkpt lat="45.8185861449646" lon="8.027694094447545"><ele>908.8571428571429</ele><time>2026-04-06T14:02:59Z</time></trkpt><trkpt lat="45.81854202750539" lon="8.027779059302075"><ele>910.5714285714287</ele><time>2026-04-06T14:03:00Z</time></trkpt><trkpt lat="45.81849446389752" lon="8.02786780617546"><ele>912.2857142857144</ele><time>2026-04-06T14:03:01Z</time></trkpt><trkpt lat="45.8184488078535" lon="8.027953814306498"><ele>914.0000000000001</ele><time>2026-04-06T14:03:02Z</time></trkpt><trkpt lat="45.81840638137185" lon="8.02803881652392"><ele>911.4285714285716</ele><time>2026-04-06T14:03:03Z</time></trkpt><trkpt lat="45.81836466214965" lon="8.02811757845235"><ele>908.8571428571429</ele><time>2026-04-06T14:03:04Z</time></trkpt><trkpt lat="45.81831874813451" lon="8.028193433771055"><ele>906.2857142857143</ele><time>2026-04-06T14:03:05Z</time></trkpt><trkpt lat="45.81827305046217" lon="8.02825749714753"><ele>903.7142857142858</ele><time>2026-04-06T14:03:06Z</time></trkpt><trkpt lat="45.818225977819026" lon="8.0283201645642"><ele>901.1428571428571</ele><time>2026-04-06T14:03:07Z</time></trkpt><trkpt lat="45.818173892110785" lon="8.028381665703698"><ele>898.5714285714286</ele><time>2026-04-06T14:03:08Z</time></trkpt><trkpt lat="45.81811413626475" lon="8.028435644649168"><ele>896.0</ele><time>2026-04-06T14:03:09Z</time></trkpt><trkpt lat="45.818048306377754" lon="8.028484565379772"><ele>896.0000000000001</ele><time>2026-04-06T14:03:10Z</time></trkpt><trkpt lat="45.81797864669047" lon="8.028533698676139"><ele>896.0</ele><time>2026-04-06T14:03:11Z</time></trkpt><trkpt lat="45.81790816608008" lon="8.028587446414958"><ele>896.0</ele><time>2026-04-06T14:03:12Z</time></trkpt><trkpt lat="45.817836513350805" lon="8.028645308160273"><ele>896.0</ele><time>2026-04-06T14:03:13Z</time></trkpt><trkpt lat="45.81776925504153" lon="8.028703328560663"><ele>896.0000000000001</ele><time>2026-04-06T14:03:14Z</time></trkpt><trkpt lat="45.81769787984679" lon="8.028759457700293"><ele>896.0</ele><time>2026-04-06T14:03:15Z</time></trkpt><trkpt lat="45.81762290260228" lon="8.028817654832922"><ele>895.0000000000001</ele><time>2026-04-06T14:03:16Z</time></trkpt><trkpt lat="45.81754990523569" lon="8.028876102550228"><ele>894.0</ele><time>2026-04-06T14:03:17Z</time></trkpt><trkpt lat="45.81748603153737" lon="8.028931640457786"><ele>893.0</ele><time>2026-04-06T14:03:18Z</time></trkpt><trkpt lat="45.817422678057966" lon="8.02899566368991"><ele>892.0</ele><time>2026-04-06T14:03:19Z</time></trkpt><trkpt lat="45.817357232899646" lon="8.029068008392697"><ele>891.0000000000001</ele><time>2026-04-06T14:03:20Z</time></trkpt><trkpt lat="45.817291578635654" lon="8.029127377869255"><ele>890.0</ele><time>2026-04-06T14:03:21Z</time></trkpt><trkpt lat="45.81723718890633" lon="8.029187284066419"><ele>890.0000000000001</ele><time>2026-04-06T14:03:22Z</time></trkpt><trkpt lat="45.81717907861755" lon="8.029253627847174"><ele>890.0</ele><time>2026-04-06T14:03:23Z</time></trkpt><trkpt lat="45.81711990871358" lon="8.029320330030858"><ele>890.0</ele><time>2026-04-06T14:03:24Z</time></trkpt><trkpt lat="45.81706126613863" lon="8.029387719189323"><ele>890.0</ele><time>2026-04-06T14:03:25Z</time></trkpt><trkpt lat="45.81700617634499" lon="8.029462536227742"><ele>890.0000000000001</ele><time>2026-04-06T14:03:26Z</time></trkpt><trkpt lat="45.8169405528109" lon="8.029530981456242"><ele>890.0</ele><time>2026-04-06T14:03:27Z</time></trkpt><trkpt lat="45.81688145878737" lon="8.029600454418649"><ele>889.5000000000001</ele><time>2026-04-06T14:03:28Z</time></trkpt><trkpt lat="45.81681804735779" lon="8.029666942280613"><ele>889.0</ele><time>2026-04-06T14:03:29Z</time></trkpt><trkpt lat="45.81675146656485" lon="8.02974294497482"><ele>888.5</ele><time>2026-04-06T14:03:30Z</time></trkpt><trkpt lat="45.81668366319361" lon="8.029805595444786"><ele>888.0</ele><time>2026-04-06T14:03:31Z</time></trkpt><trkpt lat="45.81661403671173" lon="8.029856571059067"><ele>887.5000000000001</ele><time>2026-04-06T14:03:32Z</time></trkpt><trkpt lat="45.81654854260548" lon="8.029926998727928"><ele>887.0</ele><time>2026-04-06T14:03:33Z</time></trkpt><trkpt lat="45.81647741169779" lon="8.029989387508438"><ele>887.0000000000001</ele><time>2026-04-06T14:03:34Z</time></trkpt><trkpt lat="45.81641137704262" lon="8.030050123799816"><ele>887.0</ele><time>2026-04-06T14:03:35Z</time></trkpt><trkpt lat="45.81634330271489" lon="8.03010225078528"><ele>887.0</ele><time>2026-04-06T14:03:35.999Z</time></trkpt><trkpt lat="45.81627860636761" lon="8.030149244237348"><ele>887.0</ele><time>2026-04-06T14:03:36.999Z</time></trkpt><trkpt lat="45.81621963853908" lon="8.030193361113382"><ele>887.0000000000001</ele><time>2026-04-06T14:03:37.999Z</time></trkpt><trkpt lat="45.81613049251267" lon="8.030271792937006"><ele>887.0</ele><time>2026-04-06T14:03:39.999Z</time></trkpt><trkpt lat="45.8160557868827" lon="8.030333322539718"><ele>885.8333333333334</ele><time>2026-04-06T14:03:41.999Z</time></trkpt><trkpt lat="45.815977072886376" lon="8.030379995642962"><ele>884.6666666666667</ele><time>2026-04-06T14:03:43.999Z</time></trkpt><trkpt lat="45.81590898157268" lon="8.03043315544725"><ele>883.5</ele><time>2026-04-06T14:03:45.999Z</time></trkpt><trkpt lat="45.815830786298235" lon="8.030496743310815"><ele>882.3333333333333</ele><time>2026-04-06T14:03:48.999Z</time></trkpt><trkpt lat="45.815754262530184" lon="8.030528785062565"><ele>881.1666666666666</ele><time>2026-04-06T14:03:50.999Z</time></trkpt><trkpt lat="45.81567078210892" lon="8.030599540337542"><ele>880.0</ele><time>2026-04-06T14:03:52.999Z</time></trkpt><trkpt lat="45.81558306586655" lon="8.03067047972086"><ele>880.0</ele><time>2026-04-06T14:03:54.999Z</time></trkpt><trkpt lat="45.81548599719244" lon="8.030742108499478"><ele>880.0</ele><time>2026-04-06T14:03:56.999Z</time></trkpt><trkpt lat="45.81538357194477" lon="8.03081561700903"><ele>880.0</ele><time>2026-04-06T14:03:58.999Z</time></trkpt><trkpt lat="45.81527747877031" lon="8.030889758746607"><ele>880.0</ele><time>2026-04-06T14:04:00.999Z</time></trkpt><trkpt lat="45.815162940979654" lon="8.030930522818238"><ele>879.6</ele><time>2026-04-06T14:04:02.999Z</time></trkpt><trkpt lat="45.81505055549319" lon="8.031016823725643"><ele>879.2</ele><time>2026-04-06T14:04:04.999Z</time></trkpt><trkpt lat="45.81498834036998" lon="8.031045001394801"><ele>878.8</ele><time>2026-04-06T14:04:05.999Z</time></trkpt><trkpt lat="45.81488683396377" lon="8.031134154745764"><ele>878.4</ele><time>2026-04-06T14:04:07.999Z</time></trkpt><trkpt lat="45.81479187657855" lon="8.031218002796118"><ele>878.0</ele><time>2026-04-06T14:04:09.999Z</time></trkpt><trkpt lat="45.81469796289071" lon="8.031291419495115"><ele>878.0</ele><time>2026-04-06T14:04:11.999Z</time></trkpt><trkpt lat="45.81460191807643" lon="8.031363107440551"><ele>878.0</ele><time>2026-04-06T14:04:13.999Z</time></trkpt><trkpt lat="45.81451264305802" lon="8.031425017548786"><ele>878.0</ele><time>2026-04-06T14:04:15.999Z</time></trkpt><trkpt lat="45.81442390687666" lon="8.031477351892839"><ele>878.0</ele><time>2026-04-06T14:04:17.999Z</time></trkpt><trkpt lat="45.81433912462648" lon="8.031517432439536"><ele>878.0</ele><time>2026-04-06T14:04:19.999Z</time></trkpt><trkpt lat="45.814263380434" lon="8.031576883132976"><ele>877.4</ele><time>2026-04-06T14:04:21.999Z</time></trkpt><trkpt lat="45.814191590232944" lon="8.031634847677253"><ele>876.8</ele><time>2026-04-06T14:04:23.999Z</time></trkpt><trkpt lat="45.81411604422115" lon="8.031686797649138"><ele>876.2</ele><time>2026-04-06T14:04:25.999Z</time></trkpt><trkpt lat="45.81403043630418" lon="8.031748270708295"><ele>875.6</ele><time>2026-04-06T14:04:27.999Z</time></trkpt><trkpt lat="45.81393541430167" lon="8.031815067950292"><ele>875.0</ele><time>2026-04-06T14:04:29.999Z</time></trkpt><trkpt lat="45.81383124850055" lon="8.031886105002455"><ele>875.0</ele><time>2026-04-06T14:04:31.999Z</time></trkpt><trkpt lat="45.81371493136145" lon="8.031963481574863"><ele>875.0</ele><time>2026-04-06T14:04:33.999Z</time></trkpt><trkpt lat="45.813603228784146" lon="8.032042612634541"><ele>875.0</ele><time>2026-04-06T14:04:35.999Z</time></trkpt><trkpt lat="45.81354274432624" lon="8.032075892133497"><ele>875.0</ele><time>2026-04-06T14:04:36.999Z</time></trkpt><trkpt lat="45.81348111016408" lon="8.032105730339529"><ele>875.0</ele><time>2026-04-06T14:04:37.999Z</time></trkpt><trkpt lat="45.81341288400128" lon="8.03212391218162"><ele>874.5714285714286</ele><time>2026-04-06T14:04:39Z</time></trkpt><trkpt lat="45.813338690494696" lon="8.032120486788008"><ele>874.1428571428571</ele><time>2026-04-06T14:04:40Z</time></trkpt><trkpt lat="45.81327079749828" lon="8.032087054899252"><ele>873.7142857142858</ele><time>2026-04-06T14:04:41Z</time></trkpt><trkpt lat="45.813205387627974" lon="8.032034499220634"><ele>873.2857142857142</ele><time>2026-04-06T14:04:42Z</time></trkpt><trkpt lat="45.813144827684056" lon="8.031975117090434"><ele>872.8571428571429</ele><time>2026-04-06T14:04:43Z</time></trkpt><trkpt lat="45.81308630197962" lon="8.031927037189384"><ele>872.4285714285714</ele><time>2026-04-06T14:04:44Z</time></trkpt><trkpt lat="45.81302864053257" lon="8.0318860086254"><ele>872.0</ele><time>2026-04-06T14:04:45Z</time></trkpt><trkpt lat="45.81296993646422" lon="8.031845130276501"><ele>872.0</ele><time>2026-04-06T14:04:46Z</time></trkpt><trkpt lat="45.812904406662284" lon="8.031821811101857"><ele>872.0</ele><time>2026-04-06T14:04:47Z</time></trkpt><trkpt lat="45.8128381023769" lon="8.031814877411732"><ele>872.0</ele><time>2026-04-06T14:04:48Z</time></trkpt><trkpt lat="45.81277081260304" lon="8.031826332445252"><ele>872.0</ele><time>2026-04-06T14:04:49Z</time></trkpt><trkpt lat="45.81270433262313" lon="8.031841210869128"><ele>872.0</ele><time>2026-04-06T14:04:50Z</time></trkpt><trkpt lat="45.81264230107695" lon="8.031858598926073"><ele>872.0</ele><time>2026-04-06T14:04:51Z</time></trkpt><trkpt lat="45.81258144374524" lon="8.031884446971588"><ele>872.0</ele><time>2026-04-06T14:04:52Z</time></trkpt><trkpt lat="45.81246256138484" lon="8.031951951669482"><ele>872.4285714285714</ele><time>2026-04-06T14:04:54Z</time></trkpt><trkpt lat="45.812402940731154" lon="8.031984525174005"><ele>872.8571428571429</ele><time>2026-04-06T14:04:55Z</time></trkpt><trkpt lat="45.81233641714229" lon="8.032002214629163"><ele>873.2857142857142</ele><time>2026-04-06T14:04:56Z</time></trkpt><trkpt lat="45.81227332959396" lon="8.03200566439477"><ele>873.7142857142858</ele><time>2026-04-06T14:04:57Z</time></trkpt><trkpt lat="45.81220631580798" lon="8.03199944089547"><ele>874.1428571428571</ele><time>2026-04-06T14:04:58Z</time></trkpt><trkpt lat="45.81214169690371" lon="8.031994376348361"><ele>874.5714285714286</ele><time>2026-04-06T14:04:59Z</time></trkpt><trkpt lat="45.81202043485157" lon="8.031983413563365"><ele>875.0</ele><time>2026-04-06T14:05:01Z</time></trkpt><trkpt lat="45.81190453131749" lon="8.03202240941137"><ele>875.75</ele><time>2026-04-06T14:05:03Z</time></trkpt><trkpt lat="45.811798175470045" lon="8.032072359136269"><ele>876.5</ele><time>2026-04-06T14:05:05Z</time></trkpt><trkpt lat="45.811694789873236" lon="8.032139268508086"><ele>877.25</ele><time>2026-04-06T14:05:07Z</time></trkpt><trkpt lat="45.81158704006913" lon="8.032213307612572"><ele>878.0</ele><time>2026-04-06T14:05:09Z</time></trkpt><trkpt lat="45.8114854361548" lon="8.03230902670594"><ele>878.0</ele><time>2026-04-06T14:05:11Z</time></trkpt><trkpt lat="45.81143248941284" lon="8.032361528845849"><ele>878.0</ele><time>2026-04-06T14:05:12Z</time></trkpt><trkpt lat="45.81137986446897" lon="8.032415089903967"><ele>878.0</ele><time>2026-04-06T14:05:13Z</time></trkpt><trkpt lat="45.81132261924835" lon="8.032457580292032"><ele>878.0</ele><time>2026-04-06T14:05:14Z</time></trkpt><trkpt lat="45.8112574063881" lon="8.032490808341398"><ele>878.0</ele><time>2026-04-06T14:05:15Z</time></trkpt><trkpt lat="45.81119152642236" lon="8.032509761439316"><ele>878.0</ele><time>2026-04-06T14:05:16Z</time></trkpt><trkpt lat="45.81112414593197" lon="8.032527892928146"><ele>878.0</ele><time>2026-04-06T14:05:17Z</time></trkpt><trkpt lat="45.81106142631323" lon="8.03254536268532"><ele>879.2</ele><time>2026-04-06T14:05:18Z</time></trkpt><trkpt lat="45.81099694331496" lon="8.032563941547188"><ele>880.4</ele><time>2026-04-06T14:05:19Z</time></trkpt><trkpt lat="45.81093053757089" lon="8.032581970550037"><ele>881.6000000000001</ele><time>2026-04-06T14:05:20Z</time></trkpt><trkpt lat="45.8108133225507" lon="8.032612356010699"><ele>882.8000000000001</ele><time>2026-04-06T14:05:22Z</time></trkpt><trkpt lat="45.81070414827245" lon="8.032673136428784"><ele>884.0</ele><time>2026-04-06T14:05:24Z</time></trkpt><trkpt lat="45.810604169758314" lon="8.032756130357848"><ele>881.3333333333334</ele><time>2026-04-06T14:05:26Z</time></trkpt><trkpt lat="45.81050042474619" lon="8.03284556531629"><ele>878.6666666666667</ele><time>2026-04-06T14:05:28Z</time></trkpt><trkpt lat="45.81039524673643" lon="8.03294451423383"><ele>876.0</ele><time>2026-04-06T14:05:30Z</time></trkpt><trkpt lat="45.81034404127989" lon="8.033001090626929"><ele>873.3333333333333</ele><time>2026-04-06T14:05:31Z</time></trkpt><trkpt lat="45.81029442841564" lon="8.033062482263945"><ele>870.6666666666666</ele><time>2026-04-06T14:05:32Z</time></trkpt><trkpt lat="45.810244260821065" lon="8.03312815096867"><ele>868.0</ele><time>2026-04-06T14:05:33Z</time></trkpt><trkpt lat="45.810188628260434" lon="8.033188951279902"><ele>866.6666666666666</ele><time>2026-04-06T14:05:34Z</time></trkpt><trkpt lat="45.81012340157387" lon="8.033231898830822"><ele>865.3333333333333</ele><time>2026-04-06T14:05:35Z</time></trkpt><trkpt lat="45.810054430022085" lon="8.0332772168837"><ele>864.0</ele><time>2026-04-06T14:05:36Z</time></trkpt><trkpt lat="45.80998192801312" lon="8.033306759125876"><ele>862.6666666666667</ele><time>2026-04-06T14:05:36.999Z</time></trkpt><trkpt lat="45.80990981293469" lon="8.033330258674086"><ele>861.3333333333334</ele><time>2026-04-06T14:05:37.999Z</time></trkpt><trkpt lat="45.809835791661826" lon="8.033353817335955"><ele>860.0</ele><time>2026-04-06T14:05:38.999Z</time></trkpt><trkpt lat="45.809758538787506" lon="8.033378568187784"><ele>860.0000000000001</ele><time>2026-04-06T14:05:39.999Z</time></trkpt><trkpt lat="45.809677959811154" lon="8.033404457875381"><ele>860.0</ele><time>2026-04-06T14:05:40.999Z</time></trkpt><trkpt lat="45.80959909458878" lon="8.033427817644709"><ele>860.0</ele><time>2026-04-06T14:05:41.999Z</time></trkpt><trkpt lat="45.80951787458553" lon="8.033454458623902"><ele>860.0</ele><time>2026-04-06T14:05:42.999Z</time></trkpt><trkpt lat="45.80943564789483" lon="8.033502308677111"><ele>860.0000000000001</ele><time>2026-04-06T14:05:43.999Z</time></trkpt><trkpt lat="45.80935692719471" lon="8.033561420818652"><ele>860.0</ele><time>2026-04-06T14:05:44.999Z</time></trkpt><trkpt lat="45.8092768004586" lon="8.033626488642282"><ele>858.0</ele><time>2026-04-06T14:05:45.999Z</time></trkpt><trkpt lat="45.80919875543527" lon="8.033692579986635"><ele>856.0</ele><time>2026-04-06T14:05:46.999Z</time></trkpt><trkpt lat="45.80911747732827" lon="8.033753243267043"><ele>854.0</ele><time>2026-04-06T14:05:47.999Z</time></trkpt><trkpt lat="45.80903674083974" lon="8.033808484629596"><ele>852.0</ele><time>2026-04-06T14:05:48.999Z</time></trkpt><trkpt lat="45.80895060552173" lon="8.033850791034705"><ele>850.0</ele><time>2026-04-06T14:05:49.999Z</time></trkpt><trkpt lat="45.80886451790114" lon="8.033878702433134"><ele>850.0</ele><time>2026-04-06T14:05:50.999Z</time></trkpt><trkpt lat="45.80877337528587" lon="8.033898701972701"><ele>850.0</ele><time>2026-04-06T14:05:51.999Z</time></trkpt><trkpt lat="45.80868514543094" lon="8.033915501386817"><ele>850.0</ele><time>2026-04-06T14:05:52.999Z</time></trkpt><trkpt lat="45.808595128613376" lon="8.033926564636797"><ele>850.0</ele><time>2026-04-06T14:05:53.999Z</time></trkpt><trkpt lat="45.808505202891" lon="8.033936414122264"><ele>850.0</ele><time>2026-04-06T14:05:54.999Z</time></trkpt><trkpt lat="45.80840878806788" lon="8.03392880905341"><ele>849.2</ele><time>2026-04-06T14:05:55.999Z</time></trkpt><trkpt lat="45.80831648127033" lon="8.033909366416449"><ele>848.4</ele><time>2026-04-06T14:05:56.999Z</time></trkpt><trkpt lat="45.808231306168764" lon="8.033884127787402"><ele>847.5999999999999</ele><time>2026-04-06T14:05:57.999Z</time></trkpt><trkpt lat="45.80814344229209" lon="8.033846161696262"><ele>846.8</ele><time>2026-04-06T14:05:58.999Z</time></trkpt><trkpt lat="45.80805781856681" lon="8.033808942876053"><ele>846.0</ele><time>2026-04-06T14:05:59.999Z</time></trkpt><trkpt lat="45.80797257815822" lon="8.033775682487533"><ele>846.0</ele><time>2026-04-06T14:06:00.999Z</time></trkpt><trkpt lat="45.807882895195526" lon="8.033751630814237"><ele>846.0</ele><time>2026-04-06T14:06:01.999Z</time></trkpt><trkpt lat="45.80779659449544" lon="8.033726389903498"><ele>846.0</ele><time>2026-04-06T14:06:02.999Z</time></trkpt><trkpt lat="45.80771033144972" lon="8.03371377082139"><ele>846.0</ele><time>2026-04-06T14:06:03.999Z</time></trkpt><trkpt lat="45.807623390548294" lon="8.033704100012837"><ele>846.0</ele><time>2026-04-06T14:06:04.999Z</time></trkpt><trkpt lat="45.807536147966836" lon="8.033695749506458"><ele>846.0</ele><time>2026-04-06T14:06:05.999Z</time></trkpt><trkpt lat="45.80745254130645" lon="8.033687283212362"><ele>845.5</ele><time>2026-04-06T14:06:06.999Z</time></trkpt><trkpt lat="45.80736822615381" lon="8.033676986282995"><ele>845.0</ele><time>2026-04-06T14:06:07.999Z</time></trkpt><trkpt lat="45.80728393549173" lon="8.033666699812493"><ele>844.5</ele><time>2026-04-06T14:06:08.999Z</time></trkpt><trkpt lat="45.80720292564221" lon="8.033654867169437"><ele>844.0</ele><time>2026-04-06T14:06:09.999Z</time></trkpt><trkpt lat="45.80712123490107" lon="8.033643922394594"><ele>843.5</ele><time>2026-04-06T14:06:10.999Z</time></trkpt><trkpt lat="45.80704212180994" lon="8.033631359699445"><ele>843.0</ele><time>2026-04-06T14:06:11.999Z</time></trkpt><trkpt lat="45.80696225545247" lon="8.03362238565309"><ele>843.0</ele><time>2026-04-06T14:06:12.999Z</time></trkpt><trkpt lat="45.80688519065367" lon="8.033611309429936"><ele>843.0</ele><time>2026-04-06T14:06:13.999Z</time></trkpt><trkpt lat="45.80681176770782" lon="8.033601833221452"><ele>843.0</ele><time>2026-04-06T14:06:14.999Z</time></trkpt><trkpt lat="45.806739327787994" lon="8.03358972687906"><ele>843.0</ele><time>2026-04-06T14:06:15.999Z</time></trkpt><trkpt lat="45.80667128708581" lon="8.033578011235598"><ele>843.0</ele><time>2026-04-06T14:06:16.999Z</time></trkpt><trkpt lat="45.80660140792255" lon="8.03356536905561"><ele>843.0</ele><time>2026-04-06T14:06:17.999Z</time></trkpt><trkpt lat="45.80653485258525" lon="8.033550589483829"><ele>843.0</ele><time>2026-04-06T14:06:18.999Z</time></trkpt><trkpt lat="45.80647048899678" lon="8.033534322800866"><ele>842.75</ele><time>2026-04-06T14:06:19.999Z</time></trkpt><trkpt lat="45.80635246752636" lon="8.033492102853964"><ele>842.5</ele><time>2026-04-06T14:06:21.999Z</time></trkpt><trkpt lat="45.80623352197489" lon="8.033448033140228"><ele>842.25</ele><time>2026-04-06T14:06:23.999Z</time></trkpt><trkpt lat="45.806118162944564" lon="8.033403213227528"><ele>842.0</ele><time>2026-04-06T14:06:25.999Z</time></trkpt><trkpt lat="45.80600776655172" lon="8.033361850138736"><ele>841.6</ele><time>2026-04-06T14:06:27.999Z</time></trkpt><trkpt lat="45.80589760567229" lon="8.03332319103597"><ele>841.2</ele><time>2026-04-06T14:06:29.999Z</time></trkpt><trkpt lat="45.80579128460777" lon="8.033283590598527"><ele>840.8</ele><time>2026-04-06T14:06:31.999Z</time></trkpt><trkpt lat="45.805683994760955" lon="8.033247274576235"><ele>840.4</ele><time>2026-04-06T14:06:33.999Z</time></trkpt><trkpt lat="45.80557152462276" lon="8.033222110416549"><ele>840.0</ele><time>2026-04-06T14:06:35.999Z</time></trkpt><trkpt lat="45.80545438552242" lon="8.033203513816895"><ele>838.75</ele><time>2026-04-06T14:06:37.999Z</time></trkpt><trkpt lat="45.80533914122507" lon="8.033180942748743"><ele>837.5</ele><time>2026-04-06T14:06:39.999Z</time></trkpt><trkpt lat="45.80521879941978" lon="8.033151377038028"><ele>836.25</ele><time>2026-04-06T14:06:41.999Z</time></trkpt><trkpt lat="45.80509911599632" lon="8.033131248124736"><ele>835.0</ele><time>2026-04-06T14:06:43.999Z</time></trkpt><trkpt lat="45.804978422414784" lon="8.033110679699723"><ele>835.0</ele><time>2026-04-06T14:06:46Z</time></trkpt><trkpt lat="45.804854305951466" lon="8.033092969051589"><ele>835.0</ele><time>2026-04-06T14:06:48Z</time></trkpt><trkpt lat="45.80472970760326" lon="8.033085904941611"><ele>835.0</ele><time>2026-04-06T14:06:50Z</time></trkpt><trkpt lat="45.80466661435632" lon="8.033088120010424"><ele>835.0</ele><time>2026-04-06T14:06:51Z</time></trkpt><trkpt lat="45.80454254951997" lon="8.033097914954183"><ele>835.0</ele><time>2026-04-06T14:06:53Z</time></trkpt><trkpt lat="45.80441715947817" lon="8.033112564658966"><ele>834.1666666666666</ele><time>2026-04-06T14:06:55Z</time></trkpt><trkpt lat="45.8042936290473" lon="8.033145814872329"><ele>833.3333333333333</ele><time>2026-04-06T14:06:57Z</time></trkpt><trkpt lat="45.804231466149574" lon="8.033168704139031"><ele>832.5</ele><time>2026-04-06T14:06:58Z</time></trkpt><trkpt lat="45.8041685630309" lon="8.03319330109034"><ele>831.6666666666667</ele><time>2026-04-06T14:06:59Z</time></trkpt><trkpt lat="45.80410387272599" lon="8.033214821788661"><ele>830.8333333333334</ele><time>2026-04-06T14:07:00Z</time></trkpt><trkpt lat="45.80403747515874" lon="8.033237399102147"><ele>830.0</ele><time>2026-04-06T14:07:01Z</time></trkpt><trkpt lat="45.80397032370176" lon="8.033262085925394"><ele>830.0</ele><time>2026-04-06T14:07:02Z</time></trkpt><trkpt lat="45.803903749804455" lon="8.033287240629459"><ele>830.0</ele><time>2026-04-06T14:07:03Z</time></trkpt><trkpt lat="45.80383642357479" lon="8.033312787172175"><ele>830.0</ele><time>2026-04-06T14:07:04Z</time></trkpt><trkpt lat="45.80376731730037" lon="8.033334332521216"><ele>830.0</ele><time>2026-04-06T14:07:05Z</time></trkpt><trkpt lat="45.80369820121662" lon="8.033360299311234"><ele>830.0</ele><time>2026-04-06T14:07:06Z</time></trkpt><trkpt lat="45.80362816572304" lon="8.033387751177333"><ele>830.0</ele><time>2026-04-06T14:07:07Z</time></trkpt><trkpt lat="45.803554988291346" lon="8.03341619771964"><ele>830.0</ele><time>2026-04-06T14:07:08Z</time></trkpt><trkpt lat="45.803479664337196" lon="8.033439919806874"><ele>831.1666666666667</ele><time>2026-04-06T14:07:09Z</time></trkpt><trkpt lat="45.803401143554304" lon="8.03345497396487"><ele>832.3333333333334</ele><time>2026-04-06T14:07:10Z</time></trkpt><trkpt lat="45.80332173484152" lon="8.033463927448492"><ele>833.5</ele><time>2026-04-06T14:07:11Z</time></trkpt><trkpt lat="45.80324215992411" lon="8.033459694558468"><ele>834.6666666666667</ele><time>2026-04-06T14:07:12Z</time></trkpt><trkpt lat="45.803162730916135" lon="8.03345540871841"><ele>835.8333333333334</ele><time>2026-04-06T14:07:13Z</time></trkpt><trkpt lat="45.80308305067609" lon="8.033440867066336"><ele>837.0</ele><time>2026-04-06T14:07:14Z</time></trkpt><trkpt lat="45.80300490740767" lon="8.033414857350879"><ele>837.0</ele><time>2026-04-06T14:07:15Z</time></trkpt><trkpt lat="45.80292828577749" lon="8.033391559867429"><ele>837.0</ele><time>2026-04-06T14:07:16Z</time></trkpt><trkpt lat="45.80285322035008" lon="8.033366991510864"><ele>837.0</ele><time>2026-04-06T14:07:17Z</time></trkpt><trkpt lat="45.802775332141515" lon="8.033336328114036"><ele>837.0</ele><time>2026-04-06T14:07:18Z</time></trkpt><trkpt lat="45.80269901813545" lon="8.033307046407186"><ele>837.0</ele><time>2026-04-06T14:07:19Z</time></trkpt><trkpt lat="45.802623780799024" lon="8.033279845579443"><ele>837.0</ele><time>2026-04-06T14:07:20Z</time></trkpt><trkpt lat="45.802549627916754" lon="8.033256673158476"><ele>836.2857142857143</ele><time>2026-04-06T14:07:21Z</time></trkpt><trkpt lat="45.80247788387781" lon="8.033222580620928"><ele>835.5714285714287</ele><time>2026-04-06T14:07:22Z</time></trkpt><trkpt lat="45.80240862359906" lon="8.033193655181416"><ele>834.8571428571429</ele><time>2026-04-06T14:07:23Z</time></trkpt><trkpt lat="45.80233628320806" lon="8.033169260099292"><ele>834.1428571428571</ele><time>2026-04-06T14:07:24Z</time></trkpt><trkpt lat="45.802265904305145" lon="8.033144960213855"><ele>833.4285714285714</ele><time>2026-04-06T14:07:25Z</time></trkpt><trkpt lat="45.80219670650738" lon="8.03312286370546"><ele>832.7142857142857</ele><time>2026-04-06T14:07:26Z</time></trkpt><trkpt lat="45.802130117651345" lon="8.033100091167398"><ele>832.0</ele><time>2026-04-06T14:07:27Z</time></trkpt><trkpt lat="45.80206525207366" lon="8.033076510599626"><ele>832.0</ele><time>2026-04-06T14:07:28Z</time></trkpt><trkpt lat="45.802000861050814" lon="8.033055601734809"><ele>832.0</ele><time>2026-04-06T14:07:29Z</time></trkpt><trkpt lat="45.801936573951934" lon="8.033032023623301"><ele>832.0</ele><time>2026-04-06T14:07:30Z</time></trkpt><trkpt lat="45.801871494223654" lon="8.03301017359041"><ele>832.0</ele><time>2026-04-06T14:07:31Z</time></trkpt><trkpt lat="45.80180633145673" lon="8.032985727258922"><ele>832.0</ele><time>2026-04-06T14:07:32Z</time></trkpt><trkpt lat="45.801738371561335" lon="8.032962412601256"><ele>832.0</ele><time>2026-04-06T14:07:33Z</time></trkpt><trkpt lat="45.801671699397936" lon="8.032937292687903"><ele>832.0</ele><time>2026-04-06T14:07:34Z</time></trkpt><trkpt lat="45.80160188241748" lon="8.032914560353415"><ele>831.5714285714286</ele><time>2026-04-06T14:07:35Z</time></trkpt><trkpt lat="45.801534498188886" lon="8.03289543591756"><ele>831.1428571428572</ele><time>2026-04-06T14:07:36Z</time></trkpt><trkpt lat="45.801465825652045" lon="8.032872902519545"><ele>830.7142857142858</ele><time>2026-04-06T14:07:37Z</time></trkpt><trkpt lat="45.80139668367325" lon="8.032840059390072"><ele>830.2857142857142</ele><time>2026-04-06T14:07:38Z</time></trkpt><trkpt lat="45.801331886152155" lon="8.032803493505074"><ele>829.8571428571429</ele><time>2026-04-06T14:07:39Z</time></trkpt><trkpt lat="45.801271178045575" lon="8.032750773130127"><ele>829.4285714285714</ele><time>2026-04-06T14:07:40Z</time></trkpt><trkpt lat="45.80121071769432" lon="8.032692102042544"><ele>829.0</ele><time>2026-04-06T14:07:40.999Z</time></trkpt><trkpt lat="45.801148831670204" lon="8.032638603236256"><ele>829.0</ele><time>2026-04-06T14:07:41.999Z</time></trkpt><trkpt lat="45.801089006582096" lon="8.032592875453965"><ele>829.0</ele><time>2026-04-06T14:07:42.999Z</time></trkpt><trkpt lat="45.80102859739028" lon="8.032544351563244"><ele>829.0</ele><time>2026-04-06T14:07:43.999Z</time></trkpt><trkpt lat="45.800968376387715" lon="8.032497405986119"><ele>829.0</ele><time>2026-04-06T14:07:44.999Z</time></trkpt><trkpt lat="45.800911640587884" lon="8.032450039814794"><ele>829.0</ele><time>2026-04-06T14:07:45.999Z</time></trkpt><trkpt lat="45.800851941787315" lon="8.032405973285872"><ele>829.0</ele><time>2026-04-06T14:07:46.999Z</time></trkpt><trkpt lat="45.80079037316074" lon="8.0323565217346"><ele>829.0</ele><time>2026-04-06T14:07:47.999Z</time></trkpt><trkpt lat="45.80072897562924" lon="8.032305892622459"><ele>827.8571428571429</ele><time>2026-04-06T14:07:48.999Z</time></trkpt><trkpt lat="45.80066790959455" lon="8.03225915247652"><ele>826.7142857142857</ele><time>2026-04-06T14:07:49.999Z</time></trkpt><trkpt lat="45.80060374995194" lon="8.032214433444489"><ele>825.5714285714287</ele><time>2026-04-06T14:07:50.999Z</time></trkpt><trkpt lat="45.80054133606788" lon="8.032161461994072"><ele>824.4285714285714</ele><time>2026-04-06T14:07:51.999Z</time></trkpt><trkpt lat="45.80047963604323" lon="8.032115602542818"><ele>823.2857142857143</ele><time>2026-04-06T14:07:52.999Z</time></trkpt><trkpt lat="45.80041622384105" lon="8.032064343882437"><ele>822.1428571428572</ele><time>2026-04-06T14:07:53.999Z</time></trkpt><trkpt lat="45.80035400342659" lon="8.032016953021849"><ele>821.0</ele><time>2026-04-06T14:07:54.999Z</time></trkpt><trkpt lat="45.80029030551942" lon="8.031969134530284"><ele>821.0000000000001</ele><time>2026-04-06T14:07:55.999Z</time></trkpt><trkpt lat="45.800223007724625" lon="8.031920820849427"><ele>821.0</ele><time>2026-04-06T14:07:56.999Z</time></trkpt><trkpt lat="45.80016233364992" lon="8.03187394989548"><ele>821.0</ele><time>2026-04-06T14:07:57.999Z</time></trkpt><trkpt lat="45.80010277720349" lon="8.03183450141106"><ele>821.0</ele><time>2026-04-06T14:07:58.999Z</time></trkpt><trkpt lat="45.80004176662255" lon="8.031785512437628"><ele>821.0</ele><time>2026-04-06T14:07:59.999Z</time></trkpt><trkpt lat="45.79997877444011" lon="8.031750422213632"><ele>821.0000000000001</ele><time>2026-04-06T14:08:00.999Z</time></trkpt><trkpt lat="45.799913508832034" lon="8.031733803489631"><ele>821.0</ele><time>2026-04-06T14:08:01.999Z</time></trkpt><trkpt lat="45.799847870480804" lon="8.03171860858879"><ele>820.5</ele><time>2026-04-06T14:08:02.999Z</time></trkpt><trkpt lat="45.79972358717548" lon="8.031718785783752"><ele>820.0</ele><time>2026-04-06T14:08:04.999Z</time></trkpt><trkpt lat="45.79960709460978" lon="8.031748577993186"><ele>819.5</ele><time>2026-04-06T14:08:06.999Z</time></trkpt><trkpt lat="45.799495228916726" lon="8.031793619211435"><ele>819.0</ele><time>2026-04-06T14:08:08.999Z</time></trkpt><trkpt lat="45.79938423888108" lon="8.031836473596401"><ele>819.1666666666666</ele><time>2026-04-06T14:08:10.999Z</time></trkpt><trkpt lat="45.79927740852178" lon="8.031881154229106"><ele>819.3333333333333</ele><time>2026-04-06T14:08:12.999Z</time></trkpt><trkpt lat="45.79917775710987" lon="8.031919044102573"><ele>819.5</ele><time>2026-04-06T14:08:14.999Z</time></trkpt><trkpt lat="45.79908256444874" lon="8.031948453090061"><ele>819.6666666666666</ele><time>2026-04-06T14:08:16.999Z</time></trkpt><trkpt lat="45.79901560009515" lon="8.03196091595054"><ele>819.8333333333333</ele><time>2026-04-06T14:08:18.999Z</time></trkpt><trkpt lat="45.79894789184506" lon="8.031969277969303"><ele>820.0</ele><time>2026-04-06T14:08:21.999Z</time></trkpt><trkpt lat="45.79888939084487" lon="8.032004958047148"><ele>820.0</ele><time>2026-04-06T14:09:10Z</time></trkpt><trkpt lat="45.79882321179215" lon="8.032040868400015"><ele>820.0</ele><time>2026-04-06T14:09:13Z</time></trkpt><trkpt lat="45.798747975859115" lon="8.032066932287977"><ele>820.0</ele><time>2026-04-06T14:09:17Z</time></trkpt><trkpt lat="45.79867915629135" lon="8.032072198360753"><ele>820.0</ele><time>2026-04-06T14:09:20Z</time></trkpt><trkpt lat="45.79860805324807" lon="8.032064289414562"><ele>820.0</ele><time>2026-04-06T14:09:23Z</time></trkpt><trkpt lat="45.798544887082286" lon="8.032104493998053"><ele>820.0</ele><time>2026-04-06T14:09:26Z</time></trkpt><trkpt lat="45.79847469901444" lon="8.032158297301928"><ele>820.0</ele><time>2026-04-06T14:09:29Z</time></trkpt><trkpt lat="45.798393726862486" lon="8.032212926953958"><ele>820.2</ele><time>2026-04-06T14:09:32Z</time></trkpt><trkpt lat="45.798327298118636" lon="8.032248532179322"><ele>820.4</ele><time>2026-04-06T14:09:34Z</time></trkpt><trkpt lat="45.79824023631855" lon="8.03232454375598"><ele>820.5999999999999</ele><time>2026-04-06T14:09:36Z</time></trkpt><trkpt lat="45.79814946982965" lon="8.03241929497109"><ele>820.8</ele><time>2026-04-06T14:09:38Z</time></trkpt><trkpt lat="45.79805625083819" lon="8.03250728002781"><ele>821.0</ele><time>2026-04-06T14:09:40Z</time></trkpt><trkpt lat="45.7979813521096" lon="8.032599563299955"><ele>821.75</ele><time>2026-04-06T14:09:42Z</time></trkpt><trkpt lat="45.797868644130425" lon="8.032681725808896"><ele>822.5</ele><time>2026-04-06T14:09:44Z</time></trkpt><trkpt lat="45.79777827762608" lon="8.032769328402836"><ele>823.25</ele><time>2026-04-06T14:09:46Z</time></trkpt><trkpt lat="45.79768794662524" lon="8.032842913111587"><ele>824.0</ele><time>2026-04-06T14:09:48Z</time></trkpt><trkpt lat="45.79759590002332" lon="8.032930985063228"><ele>823.75</ele><time>2026-04-06T14:09:50Z</time></trkpt><trkpt lat="45.797513638962705" lon="8.033031674552273"><ele>823.5</ele><time>2026-04-06T14:09:51.999Z</time></trkpt><trkpt lat="45.79741817520325" lon="8.03312317398713"><ele>823.25</ele><time>2026-04-06T14:09:53.999Z</time></trkpt><trkpt lat="45.79732469055778" lon="8.033221127798111"><ele>823.0</ele><time>2026-04-06T14:09:55.999Z</time></trkpt><trkpt lat="45.797222874720454" lon="8.033317315384407"><ele>823.0</ele><time>2026-04-06T14:09:57.999Z</time></trkpt><trkpt lat="45.79713716608504" lon="8.033412885763516"><ele>823.0</ele><time>2026-04-06T14:09:59.999Z</time></trkpt><trkpt lat="45.79704512232243" lon="8.033498601271543"><ele>823.0</ele><time>2026-04-06T14:10:01.999Z</time></trkpt><trkpt lat="45.79694568709943" lon="8.033579194723448"><ele>823.0</ele><time>2026-04-06T14:10:03.999Z</time></trkpt><trkpt lat="45.796846784400365" lon="8.033658620003559"><ele>823.0</ele><time>2026-04-06T14:10:05.999Z</time></trkpt><trkpt lat="45.79673802186816" lon="8.033703079544399"><ele>819.5</ele><time>2026-04-06T14:10:07.999Z</time></trkpt><trkpt lat="45.796626687125936" lon="8.03375371779464"><ele>816.0</ele><time>2026-04-06T14:10:09.999Z</time></trkpt><trkpt lat="45.79651844788148" lon="8.033799578823697"><ele>812.5</ele><time>2026-04-06T14:10:11.999Z</time></trkpt><trkpt lat="45.79640935573362" lon="8.033828739094027"><ele>809.0</ele><time>2026-04-06T14:10:13.999Z</time></trkpt><trkpt lat="45.79629031661405" lon="8.033816480313638"><ele>809.0</ele><time>2026-04-06T14:10:15.999Z</time></trkpt><trkpt lat="45.79617467333601" lon="8.03377971729739"><ele>809.0</ele><time>2026-04-06T14:10:17.999Z</time></trkpt><trkpt lat="45.796066088335536" lon="8.033725061666848"><ele>809.0</ele><time>2026-04-06T14:10:19.999Z</time></trkpt><trkpt lat="45.7959562545887" lon="8.033686783841988"><ele>809.0</ele><time>2026-04-06T14:10:21.999Z</time></trkpt><trkpt lat="45.795853723491305" lon="8.033662754343485"><ele>809.75</ele><time>2026-04-06T14:10:23.999Z</time></trkpt><trkpt lat="45.79574483113651" lon="8.033663732950956"><ele>810.5</ele><time>2026-04-06T14:10:25.999Z</time></trkpt><trkpt lat="45.79562864716965" lon="8.033663048398108"><ele>811.25</ele><time>2026-04-06T14:10:27.999Z</time></trkpt><trkpt lat="45.795505293749805" lon="8.033664984484979"><ele>812.0</ele><time>2026-04-06T14:10:29.999Z</time></trkpt><trkpt lat="45.79539050305925" lon="8.03365786667831"><ele>812.0</ele><time>2026-04-06T14:10:31.999Z</time></trkpt><trkpt lat="45.79527506487022" lon="8.0336655658382"><ele>812.0</ele><time>2026-04-06T14:10:33.999Z</time></trkpt><trkpt lat="45.7951650947543" lon="8.033698342165167"><ele>812.0</ele><time>2026-04-06T14:10:35.999Z</time></trkpt><trkpt lat="45.7950602927188" lon="8.033730636848675"><ele>812.0</ele><time>2026-04-06T14:10:37.999Z</time></trkpt><trkpt lat="45.79495643693504" lon="8.033777925559363"><ele>812.0</ele><time>2026-04-06T14:10:39.999Z</time></trkpt><trkpt lat="45.794851274327854" lon="8.033840145580603"><ele>812.0</ele><time>2026-04-06T14:10:41.999Z</time></trkpt><trkpt lat="45.79474981972981" lon="8.033918581288978"><ele>812.0</ele><time>2026-04-06T14:10:43.999Z</time></trkpt><trkpt lat="45.79465461384229" lon="8.034020712086479"><ele>812.0</ele><time>2026-04-06T14:10:45.999Z</time></trkpt><trkpt lat="45.79456419313828" lon="8.034132207727465"><ele>812.0</ele><time>2026-04-06T14:10:47.999Z</time></trkpt><trkpt lat="45.79447454821834" lon="8.034247209400467"><ele>812.0</ele><time>2026-04-06T14:10:49.999Z</time></trkpt><trkpt lat="45.79439020043417" lon="8.034373065424933"><ele>812.0</ele><time>2026-04-06T14:10:51.999Z</time></trkpt><trkpt lat="45.79430658890489" lon="8.034469751956456"><ele>812.0</ele><time>2026-04-06T14:10:53.999Z</time></trkpt><trkpt lat="45.794235624890185" lon="8.034557155488525"><ele>812.0</ele><time>2026-04-06T14:10:55.999Z</time></trkpt><trkpt lat="45.79415947601" lon="8.034668593782209"><ele>812.0</ele><time>2026-04-06T14:10:58Z</time></trkpt><trkpt lat="45.79408336522858" lon="8.034797859939912"><ele>812.0</ele><time>2026-04-06T14:11:00Z</time></trkpt><trkpt lat="45.79400432689889" lon="8.034919662165958"><ele>812.0</ele><time>2026-04-06T14:11:02Z</time></trkpt><trkpt lat="45.793930644519236" lon="8.03505671525856"><ele>812.0</ele><time>2026-04-06T14:11:04Z</time></trkpt><trkpt lat="45.79385174619603" lon="8.035194455354029"><ele>812.0</ele><time>2026-04-06T14:11:06Z</time></trkpt><trkpt lat="45.79377632160362" lon="8.035327863556269"><ele>812.5</ele><time>2026-04-06T14:11:08Z</time></trkpt><trkpt lat="45.79369791873359" lon="8.035456335428469"><ele>813.0</ele><time>2026-04-06T14:11:10Z</time></trkpt><trkpt lat="45.793619797831944" lon="8.035589941430779"><ele>813.5</ele><time>2026-04-06T14:11:12Z</time></trkpt><trkpt lat="45.7935395743082" lon="8.035722032318438"><ele>814.0</ele><time>2026-04-06T14:11:14Z</time></trkpt><trkpt lat="45.79346694372999" lon="8.035859920077373"><ele>814.0</ele><time>2026-04-06T14:11:16Z</time></trkpt><trkpt lat="45.79339283122769" lon="8.035994055162513"><ele>814.0</ele><time>2026-04-06T14:11:18Z</time></trkpt><trkpt lat="45.793315808729794" lon="8.03611999925376"><ele>814.0</ele><time>2026-04-06T14:11:20Z</time></trkpt><trkpt lat="45.79323827511851" lon="8.036251006913897"><ele>814.0</ele><time>2026-04-06T14:11:22Z</time></trkpt><trkpt lat="45.79316349445124" lon="8.036382149041572"><ele>814.0</ele><time>2026-04-06T14:11:24Z</time></trkpt><trkpt lat="45.79307959892422" lon="8.036501035441827"><ele>814.0</ele><time>2026-04-06T14:11:26Z</time></trkpt><trkpt lat="45.79299081993836" lon="8.036613687314969"><ele>814.0</ele><time>2026-04-06T14:11:28Z</time></trkpt><trkpt lat="45.792893504072836" lon="8.036707427528007"><ele>814.0</ele><time>2026-04-06T14:11:30Z</time></trkpt><trkpt lat="45.79283690086903" lon="8.036748264076595"><ele>814.0</ele><time>2026-04-06T14:11:31Z</time></trkpt><trkpt lat="45.7927301320725" lon="8.036827275105338"><ele>812.6</ele><time>2026-04-06T14:11:33Z</time></trkpt><trkpt lat="45.79262088473028" lon="8.036914459425098"><ele>811.2</ele><time>2026-04-06T14:11:35Z</time></trkpt><trkpt lat="45.792511742127914" lon="8.037007610722181"><ele>809.8000000000001</ele><time>2026-04-06T14:11:37Z</time></trkpt><trkpt lat="45.79239773345294" lon="8.037094344777783"><ele>808.4000000000001</ele><time>2026-04-06T14:11:39Z</time></trkpt><trkpt lat="45.79234197185137" lon="8.037137715314357"><ele>807.0</ele><time>2026-04-06T14:11:40Z</time></trkpt><trkpt lat="45.792231442175975" lon="8.037214276011595"><ele>807.0</ele><time>2026-04-06T14:11:42Z</time></trkpt><trkpt lat="45.79211771738162" lon="8.037278997455727"><ele>807.0</ele><time>2026-04-06T14:11:44Z</time></trkpt><trkpt lat="45.79200685735488" lon="8.03733822746231"><ele>807.0</ele><time>2026-04-06T14:11:46Z</time></trkpt><trkpt lat="45.79189699485504" lon="8.037392181229913"><ele>807.0</ele><time>2026-04-06T14:11:48Z</time></trkpt><trkpt lat="45.79178659146777" lon="8.037456193065612"><ele>807.8333333333334</ele><time>2026-04-06T14:11:50Z</time></trkpt><trkpt lat="45.79167755108975" lon="8.037525093494603"><ele>808.6666666666667</ele><time>2026-04-06T14:11:51.999Z</time></trkpt><trkpt lat="45.79157549552057" lon="8.037614950985708"><ele>809.5</ele><time>2026-04-06T14:11:53.999Z</time></trkpt><trkpt lat="45.791520837580265" lon="8.037665346749193"><ele>810.3333333333334</ele><time>2026-04-06T14:11:54.999Z</time></trkpt><trkpt lat="45.79146636724868" lon="8.037716230339434"><ele>811.1666666666667</ele><time>2026-04-06T14:11:55.999Z</time></trkpt><trkpt lat="45.79141103101099" lon="8.037765572593212"><ele>812.0</ele><time>2026-04-06T14:11:56.999Z</time></trkpt><trkpt lat="45.791355898052885" lon="8.037813854824053"><ele>812.0</ele><time>2026-04-06T14:11:57.999Z</time></trkpt><trkpt lat="45.79130061112694" lon="8.037862554362741"><ele>812.0</ele><time>2026-04-06T14:11:58.999Z</time></trkpt><trkpt lat="45.79124203200934" lon="8.037905844889215"><ele>812.0</ele><time>2026-04-06T14:11:59.999Z</time></trkpt><trkpt lat="45.791183630477114" lon="8.037953242577876"><ele>812.0</ele><time>2026-04-06T14:12:00.999Z</time></trkpt><trkpt lat="45.791124402287274" lon="8.038001560964839"><ele>812.0</ele><time>2026-04-06T14:12:01.999Z</time></trkpt><trkpt lat="45.79106663996781" lon="8.038055337110388"><ele>812.0</ele><time>2026-04-06T14:12:02.999Z</time></trkpt><trkpt lat="45.79100703933277" lon="8.038109093275361"><ele>812.0</ele><time>2026-04-06T14:12:03.999Z</time></trkpt><trkpt lat="45.79094447399494" lon="8.038157395953206"><ele>812.4285714285714</ele><time>2026-04-06T14:12:04.999Z</time></trkpt><trkpt lat="45.79088026015053" lon="8.038202883107292"><ele>812.8571428571429</ele><time>2026-04-06T14:12:05.999Z</time></trkpt><trkpt lat="45.790814279467604" lon="8.038250529890417"><ele>813.2857142857142</ele><time>2026-04-06T14:12:06.999Z</time></trkpt><trkpt lat="45.79074688865738" lon="8.038293007021768"><ele>813.7142857142858</ele><time>2026-04-06T14:12:07.999Z</time></trkpt><trkpt lat="45.790678919043664" lon="8.038337901734822"><ele>814.1428571428571</ele><time>2026-04-06T14:12:08.999Z</time></trkpt><trkpt lat="45.79060877223633" lon="8.038385122467762"><ele>814.5714285714286</ele><time>2026-04-06T14:12:09.999Z</time></trkpt><trkpt lat="45.79053915425597" lon="8.038431551027616"><ele>815.0</ele><time>2026-04-06T14:12:10.999Z</time></trkpt><trkpt lat="45.790469334906" lon="8.038475708904901"><ele>815.0000000000001</ele><time>2026-04-06T14:12:11.999Z</time></trkpt><trkpt lat="45.79040960797414" lon="8.038527693084054"><ele>815.0</ele><time>2026-04-06T14:12:12.999Z</time></trkpt><trkpt lat="45.79034164996976" lon="8.038573535350912"><ele>815.0</ele><time>2026-04-06T14:12:13.999Z</time></trkpt><trkpt lat="45.79027208869115" lon="8.038620770513004"><ele>815.0</ele><time>2026-04-06T14:12:14.999Z</time></trkpt><trkpt lat="45.79020134605253" lon="8.038666655434534"><ele>815.0000000000001</ele><time>2026-04-06T14:12:15.999Z</time></trkpt><trkpt lat="45.790128397213365" lon="8.038710712090886"><ele>815.0</ele><time>2026-04-06T14:12:16.999Z</time></trkpt><trkpt lat="45.79005653638276" lon="8.038755853703323"><ele>811.0000000000001</ele><time>2026-04-06T14:12:17.999Z</time></trkpt><trkpt lat="45.789984482815726" lon="8.038803498103498"><ele>807.0</ele><time>2026-04-06T14:12:18.999Z</time></trkpt><trkpt lat="45.78991088604262" lon="8.038852820089973"><ele>803.0</ele><time>2026-04-06T14:12:19.999Z</time></trkpt><trkpt lat="45.78983469400534" lon="8.038901644678043"><ele>799.0</ele><time>2026-04-06T14:12:20.999Z</time></trkpt><trkpt lat="45.78975966657203" lon="8.03894773909345"><ele>795.0000000000001</ele><time>2026-04-06T14:12:21.999Z</time></trkpt><trkpt lat="45.78968392501137" lon="8.038994756167627"><ele>791.0</ele><time>2026-04-06T14:12:22.999Z</time></trkpt><trkpt lat="45.789606989227075" lon="8.039039090590807"><ele>791.0000000000001</ele><time>2026-04-06T14:12:23.999Z</time></trkpt><trkpt lat="45.78953292792569" lon="8.039088691438435"><ele>791.0</ele><time>2026-04-06T14:12:24.999Z</time></trkpt><trkpt lat="45.789456672758696" lon="8.039137589365659"><ele>791.0</ele><time>2026-04-06T14:12:25.999Z</time></trkpt><trkpt lat="45.789379427440274" lon="8.039184506177984"><ele>791.0</ele><time>2026-04-06T14:12:26.999Z</time></trkpt><trkpt lat="45.78930040108725" lon="8.039228477026434"><ele>791.0000000000001</ele><time>2026-04-06T14:12:27.999Z</time></trkpt><trkpt lat="45.78922091813088" lon="8.03926975960655"><ele>791.0</ele><time>2026-04-06T14:12:28.999Z</time></trkpt><trkpt lat="45.78914031553888" lon="8.039309307130619"><ele>791.3333333333334</ele><time>2026-04-06T14:12:29.999Z</time></trkpt><trkpt lat="45.78905956975767" lon="8.039348049648142"><ele>791.6666666666667</ele><time>2026-04-06T14:12:30.999Z</time></trkpt><trkpt lat="45.78898071977975" lon="8.039386002875743"><ele>792.0</ele><time>2026-04-06T14:12:31.999Z</time></trkpt><trkpt lat="45.788901150410126" lon="8.039424043598922"><ele>792.3333333333333</ele><time>2026-04-06T14:12:32.999Z</time></trkpt><trkpt lat="45.78882112721312" lon="8.039463928393857"><ele>792.6666666666666</ele><time>2026-04-06T14:12:33.999Z</time></trkpt><trkpt lat="45.78873896024105" lon="8.039501214854948"><ele>793.0</ele><time>2026-04-06T14:12:34.999Z</time></trkpt><trkpt lat="45.78865368567776" lon="8.039542027779696"><ele>792.9999999999999</ele><time>2026-04-06T14:12:35.999Z</time></trkpt><trkpt lat="45.788567506067196" lon="8.039570001070514"><ele>793.0</ele><time>2026-04-06T14:12:36.999Z</time></trkpt><trkpt lat="45.78847910233797" lon="8.03958193377421"><ele>793.0</ele><time>2026-04-06T14:12:37.999Z</time></trkpt><trkpt lat="45.788393793073354" lon="8.039589383985257"><ele>793.0</ele><time>2026-04-06T14:12:38.999Z</time></trkpt><trkpt lat="45.78830946106447" lon="8.039598240330262"><ele>792.9999999999999</ele><time>2026-04-06T14:12:39.999Z</time></trkpt><trkpt lat="45.78822378632841" lon="8.03960940916454"><ele>793.0</ele><time>2026-04-06T14:12:40.999Z</time></trkpt><trkpt lat="45.78813756103955" lon="8.0396220215886"><ele>791.2</ele><time>2026-04-06T14:12:41.999Z</time></trkpt><trkpt lat="45.788050987955" lon="8.039643481425085"><ele>789.4</ele><time>2026-04-06T14:12:42.999Z</time></trkpt><trkpt lat="45.78796274362693" lon="8.03967032055519"><ele>787.6</ele><time>2026-04-06T14:12:43.999Z</time></trkpt><trkpt lat="45.78787609701802" lon="8.039709457678645"><ele>785.8000000000001</ele><time>2026-04-06T14:12:44.999Z</time></trkpt><trkpt lat="45.7877884666592" lon="8.039747834848834"><ele>784.0</ele><time>2026-04-06T14:12:45.999Z</time></trkpt><trkpt lat="45.787701931732215" lon="8.039785378360044"><ele>784.9999999999999</ele><time>2026-04-06T14:12:46.999Z</time></trkpt><trkpt lat="45.78762086673717" lon="8.03983630941079"><ele>786.0</ele><time>2026-04-06T14:12:47.999Z</time></trkpt><trkpt lat="45.78754232156197" lon="8.03989447589016"><ele>787.0</ele><time>2026-04-06T14:12:48.999Z</time></trkpt><trkpt lat="45.78746922276975" lon="8.039965492023448"><ele>788.0</ele><time>2026-04-06T14:12:49.999Z</time></trkpt><trkpt lat="45.787397503569224" lon="8.04003940329074"><ele>788.9999999999999</ele><time>2026-04-06T14:12:50.999Z</time></trkpt><trkpt lat="45.78732904423016" lon="8.040109796859126"><ele>790.0</ele><time>2026-04-06T14:12:51.999Z</time></trkpt><trkpt lat="45.78725749926944" lon="8.040177653029277"><ele>789.9999999999999</ele><time>2026-04-06T14:12:52.999Z</time></trkpt><trkpt lat="45.787185875662374" lon="8.04023900308151"><ele>790.0</ele><time>2026-04-06T14:12:53.999Z</time></trkpt><trkpt lat="45.78711113437724" lon="8.040294403008062"><ele>790.0</ele><time>2026-04-06T14:12:54.999Z</time></trkpt><trkpt lat="45.787035874351346" lon="8.04034322307715"><ele>790.0</ele><time>2026-04-06T14:12:55.999Z</time></trkpt><trkpt lat="45.7869618713693" lon="8.040386078004857"><ele>789.9999999999999</ele><time>2026-04-06T14:12:56.999Z</time></trkpt><trkpt lat="45.786887093294645" lon="8.040431164313645"><ele>790.0</ele><time>2026-04-06T14:12:57.999Z</time></trkpt><trkpt lat="45.7868139821309" lon="8.040473356645276"><ele>787.9999999999999</ele><time>2026-04-06T14:12:58.999Z</time></trkpt><trkpt lat="45.7867406094768" lon="8.040516749870672"><ele>786.0</ele><time>2026-04-06T14:12:59.999Z</time></trkpt><trkpt lat="45.78666691685378" lon="8.040562017948005"><ele>784.0</ele><time>2026-04-06T14:13:00.999Z</time></trkpt><trkpt lat="45.78659824526674" lon="8.0406134126572"><ele>782.0</ele><time>2026-04-06T14:13:01.999Z</time></trkpt><trkpt lat="45.786529110890555" lon="8.040662815482918"><ele>779.9999999999999</ele><time>2026-04-06T14:13:03Z</time></trkpt><trkpt lat="45.786462784188565" lon="8.040711835948905"><ele>778.0</ele><time>2026-04-06T14:13:04Z</time></trkpt><trkpt lat="45.78639688312703" lon="8.040761042746686"><ele>778.5714285714286</ele><time>2026-04-06T14:13:05Z</time></trkpt><trkpt lat="45.78633233834968" lon="8.040808399846533"><ele>779.1428571428571</ele><time>2026-04-06T14:13:06Z</time></trkpt><trkpt lat="45.786266073525205" lon="8.040852494542799"><ele>779.7142857142857</ele><time>2026-04-06T14:13:07Z</time></trkpt><trkpt lat="45.78620229570611" lon="8.040898573891852"><ele>780.2857142857142</ele><time>2026-04-06T14:13:08Z</time></trkpt><trkpt lat="45.78613569164354" lon="8.040940192509185"><ele>780.8571428571429</ele><time>2026-04-06T14:13:09Z</time></trkpt><trkpt lat="45.786069574190435" lon="8.040985519722275"><ele>781.4285714285713</ele><time>2026-04-06T14:13:10Z</time></trkpt><trkpt lat="45.78600237256404" lon="8.041029367981471"><ele>782.0</ele><time>2026-04-06T14:13:11Z</time></trkpt><trkpt lat="45.78593494613479" lon="8.041074985807938"><ele>781.9999999999999</ele><time>2026-04-06T14:13:12Z</time></trkpt><trkpt lat="45.78586592994296" lon="8.04111380973278"><ele>782.0</ele><time>2026-04-06T14:13:13Z</time></trkpt><trkpt lat="45.785797760282705" lon="8.04115027315351"><ele>782.0</ele><time>2026-04-06T14:13:14Z</time></trkpt><trkpt lat="45.785729812750475" lon="8.041183526707512"><ele>782.0</ele><time>2026-04-06T14:13:15Z</time></trkpt><trkpt lat="45.7856603451521" lon="8.041215429487078"><ele>782.0</ele><time>2026-04-06T14:13:16Z</time></trkpt><trkpt lat="45.78559055857519" lon="8.041244528568846"><ele>781.9999999999999</ele><time>2026-04-06T14:13:17Z</time></trkpt><trkpt lat="45.78551808312213" lon="8.041266291135024"><ele>782.0</ele><time>2026-04-06T14:13:18Z</time></trkpt><trkpt lat="45.78544324313875" lon="8.041286865959899"><ele>782.0000000000001</ele><time>2026-04-06T14:13:19Z</time></trkpt><trkpt lat="45.78536703588998" lon="8.041302798527413"><ele>782.0</ele><time>2026-04-06T14:13:20Z</time></trkpt><trkpt lat="45.785290345106134" lon="8.041315933225796"><ele>782.0</ele><time>2026-04-06T14:13:21Z</time></trkpt><trkpt lat="45.785215770584614" lon="8.04132885983372"><ele>782.0</ele><time>2026-04-06T14:13:22Z</time></trkpt><trkpt lat="45.78513605848046" lon="8.041337812016481"><ele>782.0000000000001</ele><time>2026-04-06T14:13:23Z</time></trkpt><trkpt lat="45.78505306471058" lon="8.041348514620438"><ele>782.0</ele><time>2026-04-06T14:13:24.022Z</time></trkpt><trkpt lat="45.7849730031143" lon="8.041357095389019"><ele>782.2</ele><time>2026-04-06T14:13:25.022Z</time></trkpt><trkpt lat="45.7848916886171" lon="8.041366202024536"><ele>782.4000000000001</ele><time>2026-04-06T14:13:26.016Z</time></trkpt><trkpt lat="45.78481094994264" lon="8.041375111678867"><ele>782.5999999999999</ele><time>2026-04-06T14:13:27.015Z</time></trkpt><trkpt lat="45.7847315133963" lon="8.04138144332807"><ele>782.8</ele><time>2026-04-06T14:13:28.014Z</time></trkpt><trkpt lat="45.784652171359504" lon="8.041385969331012"><ele>783.0</ele><time>2026-04-06T14:13:29.015Z</time></trkpt><trkpt lat="45.78427569479289" lon="8.041486842565277"><ele>782.4285714285714</ele><time>2026-04-06T14:13:34Z</time></trkpt><trkpt lat="45.78419614926571" lon="8.0414973364432"><ele>781.8571428571429</ele><time>2026-04-06T14:13:35Z</time></trkpt><trkpt lat="45.78412222061711" lon="8.041508597116074"><ele>781.2857142857143</ele><time>2026-04-06T14:13:36Z</time></trkpt><trkpt lat="45.78404704711147" lon="8.041499854814228"><ele>780.7142857142858</ele><time>2026-04-06T14:13:37Z</time></trkpt><trkpt lat="45.78398197306365" lon="8.041529967672574"><ele>780.1428571428571</ele><time>2026-04-06T14:13:38Z</time></trkpt><trkpt lat="45.78391392502508" lon="8.04152964610883"><ele>779.5714285714287</ele><time>2026-04-06T14:13:39Z</time></trkpt><trkpt lat="45.783832445692475" lon="8.041516303153355"><ele>779.0</ele><time>2026-04-06T14:13:40Z</time></trkpt><trkpt lat="45.783769222315165" lon="8.04152478639614"><ele>779.0</ele><time>2026-04-06T14:13:41Z</time></trkpt><trkpt lat="45.783654005112496" lon="8.041562192535151"><ele>779.0</ele><time>2026-04-06T14:13:43Z</time></trkpt><trkpt lat="45.78353868555397" lon="8.041607003760733"><ele>779.0</ele><time>2026-04-06T14:13:45Z</time></trkpt><trkpt lat="45.783432342265854" lon="8.041675757363961"><ele>779.0</ele><time>2026-04-06T14:13:47Z</time></trkpt><trkpt lat="45.7833358896942" lon="8.041772548365334"><ele>779.1428571428572</ele><time>2026-04-06T14:13:49Z</time></trkpt><trkpt lat="45.78324141496411" lon="8.041882604876497"><ele>779.2857142857143</ele><time>2026-04-06T14:13:51Z</time></trkpt><trkpt lat="45.78319160933104" lon="8.041938476803777"><ele>779.4285714285714</ele><time>2026-04-06T14:13:52Z</time></trkpt><trkpt lat="45.78314373559472" lon="8.041998539171924"><ele>779.5714285714287</ele><time>2026-04-06T14:13:53Z</time></trkpt><trkpt lat="45.78309401220425" lon="8.042059147340886"><ele>779.7142857142857</ele><time>2026-04-06T14:13:54Z</time></trkpt><trkpt lat="45.783045368049" lon="8.042121460387198"><ele>779.8571428571429</ele><time>2026-04-06T14:13:55Z</time></trkpt><trkpt lat="45.782995791359454" lon="8.042184709580136"><ele>780.0</ele><time>2026-04-06T14:13:56Z</time></trkpt><trkpt lat="45.78294807853303" lon="8.042251900117254"><ele>780.0</ele><time>2026-04-06T14:13:57Z</time></trkpt><trkpt lat="45.78290019122315" lon="8.042322413373213"><ele>780.0</ele><time>2026-04-06T14:13:57.999Z</time></trkpt><trkpt lat="45.78284820122571" lon="8.042394336091581"><ele>780.0</ele><time>2026-04-06T14:13:58.999Z</time></trkpt><trkpt lat="45.78279670410927" lon="8.042469103008274"><ele>780.0</ele><time>2026-04-06T14:13:59.999Z</time></trkpt><trkpt lat="45.78274519231301" lon="8.04254674870407"><ele>780.0</ele><time>2026-04-06T14:14:00.999Z</time></trkpt><trkpt lat="45.78269246479682" lon="8.042621841157915"><ele>780.0</ele><time>2026-04-06T14:14:01.999Z</time></trkpt><trkpt lat="45.782639820705796" lon="8.04269909052936"><ele>780.0</ele><time>2026-04-06T14:14:02.999Z</time></trkpt><trkpt lat="45.782587168267305" lon="8.042778129687782"><ele>778.3333333333334</ele><time>2026-04-06T14:14:03.999Z</time></trkpt><trkpt lat="45.782535751913024" lon="8.042862143905436"><ele>776.6666666666667</ele><time>2026-04-06T14:14:04.999Z</time></trkpt><trkpt lat="45.78248604555761" lon="8.042947187531853"><ele>775.0</ele><time>2026-04-06T14:14:05.999Z</time></trkpt><trkpt lat="45.782434691113835" lon="8.043033920252032"><ele>773.3333333333334</ele><time>2026-04-06T14:14:06.999Z</time></trkpt><trkpt lat="45.782380602055376" lon="8.043121771338644"><ele>771.6666666666667</ele><time>2026-04-06T14:14:07.999Z</time></trkpt><trkpt lat="45.78232634693273" lon="8.043207158073121"><ele>770.0</ele><time>2026-04-06T14:14:08.999Z</time></trkpt><trkpt lat="45.782265987737055" lon="8.04328939764859"><ele>772.8333333333334</ele><time>2026-04-06T14:14:09.999Z</time></trkpt><trkpt lat="45.782204044809966" lon="8.0433731273936"><ele>775.6666666666667</ele><time>2026-04-06T14:14:10.999Z</time></trkpt><trkpt lat="45.782139567641586" lon="8.04345350324766"><ele>778.5</ele><time>2026-04-06T14:14:11.999Z</time></trkpt><trkpt lat="45.78207118938667" lon="8.043529793711965"><ele>781.3333333333333</ele><time>2026-04-06T14:14:12.999Z</time></trkpt><trkpt lat="45.782001599098244" lon="8.043599641867695"><ele>784.1666666666666</ele><time>2026-04-06T14:14:13.999Z</time></trkpt><trkpt lat="45.78192787466708" lon="8.043662471694162"><ele>787.0</ele><time>2026-04-06T14:14:14.999Z</time></trkpt><trkpt lat="45.7818507728005" lon="8.043718300809246"><ele>782.3333333333333</ele><time>2026-04-06T14:14:15.999Z</time></trkpt><trkpt lat="45.781771329397166" lon="8.043775869080418"><ele>777.6666666666666</ele><time>2026-04-06T14:14:16.999Z</time></trkpt><trkpt lat="45.78169334129429" lon="8.043824962094922"><ele>773.0</ele><time>2026-04-06T14:14:17.999Z</time></trkpt><trkpt lat="45.78161111413392" lon="8.043869784120078"><ele>768.3333333333333</ele><time>2026-04-06T14:14:18.999Z</time></trkpt><trkpt lat="45.78152966264351" lon="8.043913075520598"><ele>763.6666666666666</ele><time>2026-04-06T14:14:19.999Z</time></trkpt><trkpt lat="45.78144840343897" lon="8.043955106296247"><ele>759.0</ele><time>2026-04-06T14:14:20.999Z</time></trkpt><trkpt lat="45.78136810891923" lon="8.043997443585608"><ele>759.0</ele><time>2026-04-06T14:14:21.999Z</time></trkpt><trkpt lat="45.781290458443785" lon="8.044039368435081"><ele>759.0</ele><time>2026-04-06T14:14:22.999Z</time></trkpt><trkpt lat="45.78121005578101" lon="8.044080914564256"><ele>759.0</ele><time>2026-04-06T14:14:23.999Z</time></trkpt><trkpt lat="45.78113331097704" lon="8.044133374687728"><ele>759.0</ele><time>2026-04-06T14:14:24.999Z</time></trkpt><trkpt lat="45.78106078701995" lon="8.044194643663818"><ele>759.0</ele><time>2026-04-06T14:14:25.999Z</time></trkpt><trkpt lat="45.78098599008706" lon="8.044255788507197"><ele>759.0</ele><time>2026-04-06T14:14:26.999Z</time></trkpt><trkpt lat="45.780908305294055" lon="8.044314376198201"><ele>759.3333333333334</ele><time>2026-04-06T14:14:27.999Z</time></trkpt><trkpt lat="45.780835093752586" lon="8.044378639858778"><ele>759.6666666666666</ele><time>2026-04-06T14:14:28.999Z</time></trkpt><trkpt lat="45.78076638494373" lon="8.044447506116974"><ele>760.0</ele><time>2026-04-06T14:14:29.999Z</time></trkpt><trkpt lat="45.78069683770198" lon="8.044515020255533"><ele>760.3333333333333</ele><time>2026-04-06T14:14:30.999Z</time></trkpt><trkpt lat="45.780629041005305" lon="8.044586537792787"><ele>760.6666666666666</ele><time>2026-04-06T14:14:31.999Z</time></trkpt><trkpt lat="45.78056215426704" lon="8.044659568136689"><ele>761.0</ele><time>2026-04-06T14:14:32.999Z</time></trkpt><trkpt lat="45.78050148787622" lon="8.044737068592852"><ele>761.0</ele><time>2026-04-06T14:14:33.999Z</time></trkpt><trkpt lat="45.78044709735027" lon="8.044828813986138"><ele>761.0</ele><time>2026-04-06T14:14:34.999Z</time></trkpt><trkpt lat="45.78039786458235" lon="8.044917626297341"><ele>761.0</ele><time>2026-04-06T14:14:35.999Z</time></trkpt><trkpt lat="45.780349002975115" lon="8.045005217092802"><ele>761.0</ele><time>2026-04-06T14:14:36.999Z</time></trkpt><trkpt lat="45.78029938985592" lon="8.045094991167579"><ele>761.0</ele><time>2026-04-06T14:14:37.999Z</time></trkpt><trkpt lat="45.78025652201919" lon="8.045183932323589"><ele>761.0</ele><time>2026-04-06T14:14:38.999Z</time></trkpt><trkpt lat="45.78020370285979" lon="8.04527297158675"><ele>760.8571428571428</ele><time>2026-04-06T14:14:39.999Z</time></trkpt><trkpt lat="45.78015161776289" lon="8.04535422955685"><ele>760.7142857142857</ele><time>2026-04-06T14:14:40.999Z</time></trkpt><trkpt lat="45.780104510398345" lon="8.045433766255993"><ele>760.5714285714286</ele><time>2026-04-06T14:14:41.999Z</time></trkpt><trkpt lat="45.78005244718188" lon="8.045515882416526"><ele>760.4285714285713</ele><time>2026-04-06T14:14:42.999Z</time></trkpt><trkpt lat="45.780001544486126" lon="8.045580157201089"><ele>760.2857142857143</ele><time>2026-04-06T14:14:43.999Z</time></trkpt><trkpt lat="45.77994635813171" lon="8.045641436462986"><ele>760.1428571428571</ele><time>2026-04-06T14:14:44.999Z</time></trkpt><trkpt lat="45.77989365522311" lon="8.045708286040663"><ele>760.0</ele><time>2026-04-06T14:14:45.999Z</time></trkpt><trkpt lat="45.779838751977394" lon="8.045775786160172"><ele>762.7142857142858</ele><time>2026-04-06T14:14:46.999Z</time></trkpt><trkpt lat="45.77978008465073" lon="8.04583541509405"><ele>765.4285714285714</ele><time>2026-04-06T14:14:47.999Z</time></trkpt><trkpt lat="45.77972243839432" lon="8.045897090193163"><ele>768.1428571428571</ele><time>2026-04-06T14:14:48.999Z</time></trkpt><trkpt lat="45.7796573019976" lon="8.045946593067091"><ele>770.8571428571429</ele><time>2026-04-06T14:14:49.999Z</time></trkpt><trkpt lat="45.77959472089909" lon="8.045996070026147"><ele>773.5714285714286</ele><time>2026-04-06T14:14:50.999Z</time></trkpt><trkpt lat="45.779524019244185" lon="8.046037534027457"><ele>776.2857142857143</ele><time>2026-04-06T14:14:51.999Z</time></trkpt><trkpt lat="45.77945346403229" lon="8.0460731963481"><ele>779.0</ele><time>2026-04-06T14:14:52.999Z</time></trkpt><trkpt lat="45.779383137820865" lon="8.046113178431582"><ele>775.5000000000001</ele><time>2026-04-06T14:14:53.999Z</time></trkpt><trkpt lat="45.77931356893366" lon="8.046153637636408"><ele>772.0</ele><time>2026-04-06T14:14:54.999Z</time></trkpt><trkpt lat="45.77923901413957" lon="8.046193487495788"><ele>768.5</ele><time>2026-04-06T14:14:55.999Z</time></trkpt><trkpt lat="45.77916676827335" lon="8.046235956448331"><ele>765.0</ele><time>2026-04-06T14:14:56.999Z</time></trkpt><trkpt lat="45.77909210576107" lon="8.046279495717878"><ele>761.5</ele><time>2026-04-06T14:14:57.999Z</time></trkpt><trkpt lat="45.77901592874595" lon="8.046318093046489"><ele>758.0</ele><time>2026-04-06T14:14:58.999Z</time></trkpt><trkpt lat="45.77894066520555" lon="8.046360508213048"><ele>758.0</ele><time>2026-04-06T14:14:59.999Z</time></trkpt><trkpt lat="45.77886422643146" lon="8.046404918060116"><ele>758.0</ele><time>2026-04-06T14:15:00.999Z</time></trkpt><trkpt lat="45.778790662761295" lon="8.046448732516557"><ele>758.0</ele><time>2026-04-06T14:15:01.999Z</time></trkpt><trkpt lat="45.77871969973194" lon="8.046496018834992"><ele>758.0</ele><time>2026-04-06T14:15:02.999Z</time></trkpt><trkpt lat="45.778646838863146" lon="8.046553128311869"><ele>758.0</ele><time>2026-04-06T14:15:03.999Z</time></trkpt><trkpt lat="45.77857471106362" lon="8.04661068528589"><ele>758.0</ele><time>2026-04-06T14:15:04.999Z</time></trkpt><trkpt lat="45.778505421622185" lon="8.046674644533324"><ele>758.0</ele><time>2026-04-06T14:15:05.999Z</time></trkpt><trkpt lat="45.7784323918199" lon="8.04673584446181"><ele>758.0</ele><time>2026-04-06T14:15:06.999Z</time></trkpt><trkpt lat="45.77836507764059" lon="8.046793782979924"><ele>758.0</ele><time>2026-04-06T14:15:07.999Z</time></trkpt><trkpt lat="45.77829152002714" lon="8.046844042754564"><ele>758.0</ele><time>2026-04-06T14:15:09Z</time></trkpt><trkpt lat="45.77821473330082" lon="8.046887891478326"><ele>758.0</ele><time>2026-04-06T14:15:10Z</time></trkpt><trkpt lat="45.778135923595755" lon="8.046924520018232"><ele>758.0</ele><time>2026-04-06T14:15:11Z</time></trkpt><trkpt lat="45.77805902585792" lon="8.046958199112575"><ele>758.0</ele><time>2026-04-06T14:15:12Z</time></trkpt><trkpt lat="45.777984037352915" lon="8.046993096233486"><ele>758.0</ele><time>2026-04-06T14:15:13Z</time></trkpt><trkpt lat="45.777907117980206" lon="8.04703098616227"><ele>758.0</ele><time>2026-04-06T14:15:14Z</time></trkpt><trkpt lat="45.77783371071561" lon="8.047070049836993"><ele>758.0</ele><time>2026-04-06T14:15:15Z</time></trkpt><trkpt lat="45.777762802226555" lon="8.047115858569711"><ele>758.0</ele><time>2026-04-06T14:15:16Z</time></trkpt><trkpt lat="45.77769226015279" lon="8.047170997446052"><ele>758.0</ele><time>2026-04-06T14:15:17Z</time></trkpt><trkpt lat="45.777618637003584" lon="8.047224413843347"><ele>758.5</ele><time>2026-04-06T14:15:18Z</time></trkpt><trkpt lat="45.77754261222449" lon="8.04727819485833"><ele>759.0</ele><time>2026-04-06T14:15:19Z</time></trkpt><trkpt lat="45.77746555973847" lon="8.047331667178172"><ele>759.5</ele><time>2026-04-06T14:15:20Z</time></trkpt><trkpt lat="45.77738819536448" lon="8.047386149509961"><ele>760.0</ele><time>2026-04-06T14:15:21Z</time></trkpt><trkpt lat="45.777311419760984" lon="8.047433457627543"><ele>760.5</ele><time>2026-04-06T14:15:22Z</time></trkpt><trkpt lat="45.77723205699703" lon="8.047482325453855"><ele>761.0</ele><time>2026-04-06T14:15:23Z</time></trkpt><trkpt lat="45.77715390919159" lon="8.047529672744913"><ele>761.0</ele><time>2026-04-06T14:15:24Z</time></trkpt><trkpt lat="45.77707544693301" lon="8.04757692094337"><ele>761.0</ele><time>2026-04-06T14:15:25Z</time></trkpt><trkpt lat="45.77699726506754" lon="8.047627359685011"><ele>761.0</ele><time>2026-04-06T14:15:26Z</time></trkpt><trkpt lat="45.776920855691685" lon="8.047682163945828"><ele>761.0</ele><time>2026-04-06T14:15:27Z</time></trkpt><trkpt lat="45.77684811633844" lon="8.047740777165213"><ele>761.0</ele><time>2026-04-06T14:15:28Z</time></trkpt><trkpt lat="45.77677706504516" lon="8.04780374279608"><ele>761.0</ele><time>2026-04-06T14:15:29Z</time></trkpt><trkpt lat="45.77670546743906" lon="8.047857536866559"><ele>758.6666666666666</ele><time>2026-04-06T14:15:30Z</time></trkpt><trkpt lat="45.77663329979787" lon="8.047919539530245"><ele>756.3333333333333</ele><time>2026-04-06T14:15:31Z</time></trkpt><trkpt lat="45.776561207044814" lon="8.047983090223978"><ele>754.0</ele><time>2026-04-06T14:15:32Z</time></trkpt><trkpt lat="45.77648384272769" lon="8.048040401705986"><ele>751.6666666666666</ele><time>2026-04-06T14:15:33Z</time></trkpt><trkpt lat="45.77641813722378" lon="8.048099317314284"><ele>749.3333333333334</ele><time>2026-04-06T14:15:34Z</time></trkpt><trkpt lat="45.77635107538598" lon="8.048158880403788"><ele>747.0</ele><time>2026-04-06T14:15:35Z</time></trkpt><trkpt lat="45.77628464123552" lon="8.04821880833093"><ele>746.9999999999999</ele><time>2026-04-06T14:15:36Z</time></trkpt><trkpt lat="45.7762192108297" lon="8.048275700946206"><ele>747.0</ele><time>2026-04-06T14:15:37Z</time></trkpt><trkpt lat="45.776156858575355" lon="8.048336933010855"><ele>747.0</ele><time>2026-04-06T14:15:38Z</time></trkpt><trkpt lat="45.77608940118736" lon="8.048387830969864"><ele>747.0</ele><time>2026-04-06T14:15:39Z</time></trkpt><trkpt lat="45.77602814279492" lon="8.048448025648792"><ele>747.0</ele><time>2026-04-06T14:15:40Z</time></trkpt><trkpt lat="45.77596322083095" lon="8.04849529224541"><ele>746.9999999999999</ele><time>2026-04-06T14:15:41Z</time></trkpt><trkpt lat="45.77589604234924" lon="8.048540136135227"><ele>747.0</ele><time>2026-04-06T14:15:42Z</time></trkpt><trkpt lat="45.77582983705669" lon="8.048588518340736"><ele>747.7142857142857</ele><time>2026-04-06T14:15:43Z</time></trkpt><trkpt lat="45.77576197724064" lon="8.048627560231278"><ele>748.4285714285714</ele><time>2026-04-06T14:15:44Z</time></trkpt><trkpt lat="45.77569087834175" lon="8.048657218481464"><ele>749.1428571428571</ele><time>2026-04-06T14:15:45Z</time></trkpt><trkpt lat="45.775620243223024" lon="8.048681500675107"><ele>749.8571428571429</ele><time>2026-04-06T14:15:46Z</time></trkpt><trkpt lat="45.77555176748923" lon="8.04870371783745"><ele>750.5714285714286</ele><time>2026-04-06T14:15:47Z</time></trkpt><trkpt lat="45.77548530607248" lon="8.048727979606639"><ele>751.2857142857142</ele><time>2026-04-06T14:15:48Z</time></trkpt><trkpt lat="45.77541938440963" lon="8.048750546744346"><ele>752.0</ele><time>2026-04-06T14:15:49Z</time></trkpt><trkpt lat="45.77535315001799" lon="8.048775928202913"><ele>752.0</ele><time>2026-04-06T14:15:50Z</time></trkpt><trkpt lat="45.775287289856195" lon="8.048803969888645"><ele>752.0</ele><time>2026-04-06T14:15:51Z</time></trkpt><trkpt lat="45.775221085640695" lon="8.04883250228394"><ele>752.0</ele><time>2026-04-06T14:15:52Z</time></trkpt><trkpt lat="45.77515777973912" lon="8.048859841240603"><ele>752.0</ele><time>2026-04-06T14:15:53Z</time></trkpt><trkpt lat="45.77509617164949" lon="8.048892798818406"><ele>752.0</ele><time>2026-04-06T14:15:54Z</time></trkpt><trkpt lat="45.77503508114568" lon="8.04892901538573"><ele>752.0</ele><time>2026-04-06T14:15:55Z</time></trkpt><trkpt lat="45.77497492872787" lon="8.048965878471094"><ele>752.0</ele><time>2026-04-06T14:15:55.999Z</time></trkpt><trkpt lat="45.77491359162196" lon="8.049010789471527"><ele>751.2857142857142</ele><time>2026-04-06T14:15:56.999Z</time></trkpt><trkpt lat="45.77485775433557" lon="8.049055499614147"><ele>750.5714285714286</ele><time>2026-04-06T14:15:57.999Z</time></trkpt><trkpt lat="45.77479968570278" lon="8.049098679379796"><ele>749.8571428571429</ele><time>2026-04-06T14:15:58.999Z</time></trkpt><trkpt lat="45.774744409432465" lon="8.049146463141316"><ele>749.1428571428571</ele><time>2026-04-06T14:15:59.999Z</time></trkpt><trkpt lat="45.774686679267546" lon="8.049192749810643"><ele>748.4285714285714</ele><time>2026-04-06T14:16:00.999Z</time></trkpt><trkpt lat="45.77463169475191" lon="8.049245239536479"><ele>747.7142857142857</ele><time>2026-04-06T14:16:01.999Z</time></trkpt><trkpt lat="45.77457597341768" lon="8.049298092209744"><ele>747.0</ele><time>2026-04-06T14:16:02.999Z</time></trkpt><trkpt lat="45.77451916174535" lon="8.049345646141992"><ele>746.9999999999999</ele><time>2026-04-06T14:16:03.999Z</time></trkpt><trkpt lat="45.774458495249995" lon="8.049388250943979"><ele>747.0</ele><time>2026-04-06T14:16:04.999Z</time></trkpt><trkpt lat="45.77439908840564" lon="8.049434806156832"><ele>747.0</ele><time>2026-04-06T14:16:05.999Z</time></trkpt><trkpt lat="45.77434035600417" lon="8.049481814218268"><ele>747.0</ele><time>2026-04-06T14:16:06.999Z</time></trkpt><trkpt lat="45.77427973077524" lon="8.049525312830692"><ele>747.0</ele><time>2026-04-06T14:16:07.999Z</time></trkpt><trkpt lat="45.77421658522247" lon="8.049562405891542"><ele>746.9999999999999</ele><time>2026-04-06T14:16:08.999Z</time></trkpt><trkpt lat="45.77415343545301" lon="8.049602398683298"><ele>747.0</ele><time>2026-04-06T14:16:09.999Z</time></trkpt><trkpt lat="45.77409025904976" lon="8.049638103464018"><ele>745.8571428571428</ele><time>2026-04-06T14:16:10.999Z</time></trkpt><trkpt lat="45.77402644438523" lon="8.049666671915508"><ele>744.7142857142857</ele><time>2026-04-06T14:16:11.999Z</time></trkpt><trkpt lat="45.77396228306316" lon="8.049705220458227"><ele>743.5714285714286</ele><time>2026-04-06T14:16:12.999Z</time></trkpt><trkpt lat="45.77390295982671" lon="8.049743837965393"><ele>742.4285714285713</ele><time>2026-04-06T14:16:13.999Z</time></trkpt><trkpt lat="45.773842790354855" lon="8.04977822041375"><ele>741.2857142857143</ele><time>2026-04-06T14:16:14.999Z</time></trkpt><trkpt lat="45.773781884873365" lon="8.049816542582189"><ele>740.1428571428571</ele><time>2026-04-06T14:16:15.999Z</time></trkpt><trkpt lat="45.773722354757126" lon="8.04985596882679"><ele>739.0</ele><time>2026-04-06T14:16:16.999Z</time></trkpt><trkpt lat="45.77366157241464" lon="8.049896433147117"><ele>739.0</ele><time>2026-04-06T14:16:17.999Z</time></trkpt><trkpt lat="45.773601103519766" lon="8.049940515654367"><ele>739.0</ele><time>2026-04-06T14:16:18.999Z</time></trkpt><trkpt lat="45.773540562791496" lon="8.04998446210831"><ele>739.0</ele><time>2026-04-06T14:16:19.999Z</time></trkpt><trkpt lat="45.773479428339265" lon="8.050024494601312"><ele>739.0</ele><time>2026-04-06T14:16:20.999Z</time></trkpt><trkpt lat="45.77341756414228" lon="8.050070456060151"><ele>739.0</ele><time>2026-04-06T14:16:21.999Z</time></trkpt><trkpt lat="45.77335751818748" lon="8.050116981450978"><ele>739.0</ele><time>2026-04-06T14:16:22.999Z</time></trkpt><trkpt lat="45.773298065929616" lon="8.050162611526588"><ele>739.0</ele><time>2026-04-06T14:16:23.999Z</time></trkpt><trkpt lat="45.773237993716464" lon="8.050203031113885"><ele>739.1428571428571</ele><time>2026-04-06T14:16:24.999Z</time></trkpt><trkpt lat="45.77317663046018" lon="8.050244186009204"><ele>739.2857142857143</ele><time>2026-04-06T14:16:25.999Z</time></trkpt><trkpt lat="45.77311848673871" lon="8.050289774138935"><ele>739.4285714285713</ele><time>2026-04-06T14:16:26.999Z</time></trkpt><trkpt lat="45.77306079172943" lon="8.050335251444075"><ele>739.5714285714286</ele><time>2026-04-06T14:16:27.999Z</time></trkpt><trkpt lat="45.773000204344164" lon="8.050375945309218"><ele>739.7142857142857</ele><time>2026-04-06T14:16:28.999Z</time></trkpt><trkpt lat="45.772938610748675" lon="8.050402901819528"><ele>739.8571428571428</ele><time>2026-04-06T14:16:29.999Z</time></trkpt><trkpt lat="45.772872819178644" lon="8.050427350903199"><ele>740.0</ele><time>2026-04-06T14:16:30.999Z</time></trkpt><trkpt lat="45.77280865383484" lon="8.050449906393538"><ele>740.0</ele><time>2026-04-06T14:16:31.999Z</time></trkpt><trkpt lat="45.77274471050945" lon="8.050471757617062"><ele>740.0</ele><time>2026-04-06T14:16:32.999Z</time></trkpt><trkpt lat="45.77268260104312" lon="8.050497126188665"><ele>740.0</ele><time>2026-04-06T14:16:33.999Z</time></trkpt><trkpt lat="45.772622617740105" lon="8.05052844421002"><ele>740.0</ele><time>2026-04-06T14:16:34.999Z</time></trkpt><trkpt lat="45.77250348595469" lon="8.050574699192628"><ele>740.0</ele><time>2026-04-06T14:16:36.999Z</time></trkpt><trkpt lat="45.772386195778125" lon="8.050624916683399"><ele>740.0</ele><time>2026-04-06T14:16:38.999Z</time></trkpt><trkpt lat="45.772270944508215" lon="8.050673561223661"><ele>740.0</ele><time>2026-04-06T14:16:40.999Z</time></trkpt><trkpt lat="45.77215875591667" lon="8.050722751537874"><ele>740.0</ele><time>2026-04-06T14:16:42.999Z</time></trkpt><trkpt lat="45.77204297607415" lon="8.050760874351587"><ele>740.0</ele><time>2026-04-06T14:16:44.999Z</time></trkpt><trkpt lat="45.77192634503843" lon="8.050794523261839"><ele>740.0</ele><time>2026-04-06T14:16:46.999Z</time></trkpt><trkpt lat="45.771807196295505" lon="8.05080702370684"><ele>739.0</ele><time>2026-04-06T14:16:48.999Z</time></trkpt><trkpt lat="45.77169085149478" lon="8.050811375806589"><ele>738.0</ele><time>2026-04-06T14:16:50.999Z</time></trkpt><trkpt lat="45.771576971970305" lon="8.050811573930728"><ele>737.0</ele><time>2026-04-06T14:16:52.999Z</time></trkpt><trkpt lat="45.7714656369956" lon="8.050817439266831"><ele>736.0</ele><time>2026-04-06T14:16:54.999Z</time></trkpt><trkpt lat="45.77135694014401" lon="8.050820434512103"><ele>736.0</ele><time>2026-04-06T14:16:56.999Z</time></trkpt><trkpt lat="45.77124761463043" lon="8.050830453910436"><ele>736.0</ele><time>2026-04-06T14:16:58.999Z</time></trkpt><trkpt lat="45.77114574114824" lon="8.05086731395607"><ele>736.0</ele><time>2026-04-06T14:17:00.999Z</time></trkpt><trkpt lat="45.77106049913113" lon="8.050922273749038"><ele>736.0</ele><time>2026-04-06T14:17:02.999Z</time></trkpt><trkpt lat="45.77097317137387" lon="8.050992651022735"><ele>736.0</ele><time>2026-04-06T14:17:04.999Z</time></trkpt><trkpt lat="45.77089602648269" lon="8.051093021366857"><ele>734.5</ele><time>2026-04-06T14:17:06.999Z</time></trkpt><trkpt lat="45.7708072296151" lon="8.051177442577377"><ele>733.0</ele><time>2026-04-06T14:17:08.999Z</time></trkpt><trkpt lat="45.77071005534203" lon="8.051258384039489"><ele>731.5</ele><time>2026-04-06T14:17:10.999Z</time></trkpt><trkpt lat="45.77061099325342" lon="8.051342657505334"><ele>730.0</ele><time>2026-04-06T14:17:12.999Z</time></trkpt><trkpt lat="45.770507334483895" lon="8.05142296407684"><ele>730.0</ele><time>2026-04-06T14:17:15Z</time></trkpt><trkpt lat="45.77039684334263" lon="8.05150797270428"><ele>730.0</ele><time>2026-04-06T14:17:17Z</time></trkpt><trkpt lat="45.77030961531716" lon="8.05160161355631"><ele>730.0</ele><time>2026-04-06T14:17:19Z</time></trkpt><trkpt lat="45.770228633085836" lon="8.051721254135646"><ele>730.0</ele><time>2026-04-06T14:17:21Z</time></trkpt><trkpt lat="45.770150134265286" lon="8.051838091229877"><ele>729.75</ele><time>2026-04-06T14:17:23Z</time></trkpt><trkpt lat="45.77007047182508" lon="8.051958928240175"><ele>729.5</ele><time>2026-04-06T14:17:25Z</time></trkpt><trkpt lat="45.76999225576282" lon="8.052081855340775"><ele>729.25</ele><time>2026-04-06T14:17:27Z</time></trkpt><trkpt lat="45.76991381529658" lon="8.052205368643538"><ele>729.0</ele><time>2026-04-06T14:17:29Z</time></trkpt><trkpt lat="45.7698364750664" lon="8.052330546371744"><ele>729.0</ele><time>2026-04-06T14:17:31Z</time></trkpt><trkpt lat="45.76976005932183" lon="8.0524542494942"><ele>729.0</ele><time>2026-04-06T14:17:33Z</time></trkpt><trkpt lat="45.76969086464884" lon="8.0525861799914"><ele>729.0</ele><time>2026-04-06T14:17:35Z</time></trkpt><trkpt lat="45.76963076717398" lon="8.0527296189897"><ele>729.0</ele><time>2026-04-06T14:17:37Z</time></trkpt><trkpt lat="45.76958768987712" lon="8.052894753836128"><ele>732.25</ele><time>2026-04-06T14:17:39Z</time></trkpt><trkpt lat="45.769553230750375" lon="8.053063370534256"><ele>735.5</ele><time>2026-04-06T14:17:41Z</time></trkpt><trkpt lat="45.76952707337037" lon="8.053237218332681"><ele>738.75</ele><time>2026-04-06T14:17:43Z</time></trkpt><trkpt lat="45.76950688515859" lon="8.053411958936872"><ele>742.0</ele><time>2026-04-06T14:17:45Z</time></trkpt><trkpt lat="45.769492107387286" lon="8.053589701614785"><ele>744.25</ele><time>2026-04-06T14:17:47Z</time></trkpt><trkpt lat="45.76947416368001" lon="8.053765786855386"><ele>746.5</ele><time>2026-04-06T14:17:49Z</time></trkpt><trkpt lat="45.76945451835823" lon="8.053935075570955"><ele>748.75</ele><time>2026-04-06T14:17:51Z</time></trkpt><trkpt lat="45.76943999914725" lon="8.054102531800433"><ele>751.0</ele><time>2026-04-06T14:17:53Z</time></trkpt><trkpt lat="45.769424496619344" lon="8.054267503619425"><ele>751.5999999999999</ele><time>2026-04-06T14:17:55Z</time></trkpt><trkpt lat="45.769411030073854" lon="8.054442343843675"><ele>752.2</ele><time>2026-04-06T14:17:57Z</time></trkpt><trkpt lat="45.76940577845082" lon="8.05453334244502"><ele>752.8</ele><time>2026-04-06T14:17:58Z</time></trkpt><trkpt lat="45.76939572212366" lon="8.054711709827197"><ele>753.4000000000001</ele><time>2026-04-06T14:18:00Z</time></trkpt><trkpt lat="45.7693868607078" lon="8.054801882849356"><ele>754.0</ele><time>2026-04-06T14:18:01Z</time></trkpt><trkpt lat="45.76937412867433" lon="8.054979290272213"><ele>754.0</ele><time>2026-04-06T14:18:03Z</time></trkpt><trkpt lat="45.769368412086074" lon="8.055072196914082"><ele>754.0</ele><time>2026-04-06T14:18:04Z</time></trkpt><trkpt lat="45.76935252967703" lon="8.055236933055463"><ele>754.0</ele><time>2026-04-06T14:18:06Z</time></trkpt><trkpt lat="45.769340292123616" lon="8.055398406102611"><ele>754.0</ele><time>2026-04-06T14:18:07.999Z</time></trkpt><trkpt lat="45.76932424120238" lon="8.05555953792844"><ele>754.0</ele><time>2026-04-06T14:18:09.999Z</time></trkpt><trkpt lat="45.76930198186828" lon="8.055716375052693"><ele>748.4000000000001</ele><time>2026-04-06T14:18:11.999Z</time></trkpt><trkpt lat="45.76929061977659" lon="8.055886853551637"><ele>742.8</ele><time>2026-04-06T14:18:13.999Z</time></trkpt><trkpt lat="45.769277076865855" lon="8.056064409015084"><ele>737.2</ele><time>2026-04-06T14:18:15.999Z</time></trkpt><trkpt lat="45.769274058227424" lon="8.056154816848874"><ele>731.5999999999999</ele><time>2026-04-06T14:18:16.999Z</time></trkpt><trkpt lat="45.769262371895756" lon="8.05633471474123"><ele>726.0</ele><time>2026-04-06T14:18:18.999Z</time></trkpt><trkpt lat="45.76925690881704" lon="8.056425047905108"><ele>726.0</ele><time>2026-04-06T14:18:19.999Z</time></trkpt><trkpt lat="45.76925262605032" lon="8.05660188529291"><ele>726.0</ele><time>2026-04-06T14:18:21.999Z</time></trkpt><trkpt lat="45.76925757792418" lon="8.0567775802536"><ele>726.0</ele><time>2026-04-06T14:18:23.999Z</time></trkpt><trkpt lat="45.76926381857579" lon="8.056869580926218"><ele>726.0</ele><time>2026-04-06T14:18:24.999Z</time></trkpt><trkpt lat="45.769270342768664" lon="8.056959798490906"><ele>726.0</ele><time>2026-04-06T14:18:25.999Z</time></trkpt><trkpt lat="45.76928053406277" lon="8.057053672288994"><ele>726.0</ele><time>2026-04-06T14:18:26.999Z</time></trkpt><trkpt lat="45.76928743914198" lon="8.057147768848374"><ele>726.1428571428571</ele><time>2026-04-06T14:18:27.999Z</time></trkpt><trkpt lat="45.76929863373311" lon="8.057239533370446"><ele>726.2857142857142</ele><time>2026-04-06T14:18:28.999Z</time></trkpt><trkpt lat="45.76930241633843" lon="8.05733416240942"><ele>726.4285714285713</ele><time>2026-04-06T14:18:29.999Z</time></trkpt><trkpt lat="45.7693115821083" lon="8.0574263404438"><ele>726.5714285714286</ele><time>2026-04-06T14:18:30.999Z</time></trkpt><trkpt lat="45.769318043686184" lon="8.057516193833276"><ele>726.7142857142858</ele><time>2026-04-06T14:18:31.999Z</time></trkpt><trkpt lat="45.769327970706776" lon="8.057610408775538"><ele>726.8571428571428</ele><time>2026-04-06T14:18:32.999Z</time></trkpt><trkpt lat="45.769336820655006" lon="8.057704446222173"><ele>727.0</ele><time>2026-04-06T14:18:33.999Z</time></trkpt><trkpt lat="45.7693440659035" lon="8.057801320510181"><ele>726.5714285714286</ele><time>2026-04-06T14:18:34.999Z</time></trkpt><trkpt lat="45.76935270880937" lon="8.05789902209347"><ele>726.1428571428572</ele><time>2026-04-06T14:18:35.999Z</time></trkpt><trkpt lat="45.76935944217873" lon="8.05799440371868"><ele>725.7142857142858</ele><time>2026-04-06T14:18:36.999Z</time></trkpt><trkpt lat="45.769368839098895" lon="8.058092957933496"><ele>725.2857142857142</ele><time>2026-04-06T14:18:37.999Z</time></trkpt><trkpt lat="45.76937878584743" lon="8.058189883095674"><ele>724.8571428571429</ele><time>2026-04-06T14:18:38.999Z</time></trkpt><trkpt lat="45.76938809541196" lon="8.058289049420972"><ele>724.4285714285714</ele><time>2026-04-06T14:18:39.999Z</time></trkpt><trkpt lat="45.76939324872426" lon="8.058392150014143"><ele>724.0</ele><time>2026-04-06T14:18:40.999Z</time></trkpt><trkpt lat="45.76940198095197" lon="8.058492847372628"><ele>725.2857142857142</ele><time>2026-04-06T14:18:41.999Z</time></trkpt><trkpt lat="45.76941528983072" lon="8.058593257309985"><ele>726.5714285714286</ele><time>2026-04-06T14:18:42.999Z</time></trkpt><trkpt lat="45.76942819537159" lon="8.058691604806992"><ele>727.8571428571429</ele><time>2026-04-06T14:18:43.999Z</time></trkpt><trkpt lat="45.76944077114637" lon="8.058788801032565"><ele>729.1428571428571</ele><time>2026-04-06T14:18:44.999Z</time></trkpt><trkpt lat="45.76945381124949" lon="8.05888725501107"><ele>730.4285714285714</ele><time>2026-04-06T14:18:45.999Z</time></trkpt><trkpt lat="45.76946685925896" lon="8.05898430971506"><ele>731.7142857142857</ele><time>2026-04-06T14:18:46.999Z</time></trkpt><trkpt lat="45.769485735106436" lon="8.059080887425038"><ele>733.0</ele><time>2026-04-06T14:18:47.999Z</time></trkpt><trkpt lat="45.76950747247508" lon="8.059176691543124"><ele>732.9999999999999</ele><time>2026-04-06T14:18:48.999Z</time></trkpt><trkpt lat="45.76953346801706" lon="8.059273754155996"><ele>733.0</ele><time>2026-04-06T14:18:49.999Z</time></trkpt><trkpt lat="45.76956085395838" lon="8.059368862555043"><ele>733.0</ele><time>2026-04-06T14:18:50.999Z</time></trkpt><trkpt lat="45.76958370863393" lon="8.059470461725416"><ele>733.0</ele><time>2026-04-06T14:18:51.999Z</time></trkpt><trkpt lat="45.76960435628235" lon="8.059568185507944"><ele>733.0</ele><time>2026-04-06T14:18:52.999Z</time></trkpt><trkpt lat="45.76962900663493" lon="8.059664677169565"><ele>732.9999999999999</ele><time>2026-04-06T14:18:53.999Z</time></trkpt><trkpt lat="45.76965439569133" lon="8.059765999848983"><ele>733.0</ele><time>2026-04-06T14:18:54.999Z</time></trkpt><trkpt lat="45.76968052647746" lon="8.059867458346869"><ele>732.2857142857142</ele><time>2026-04-06T14:18:55.999Z</time></trkpt><trkpt lat="45.76970910026499" lon="8.059966739539595"><ele>731.5714285714286</ele><time>2026-04-06T14:18:56.999Z</time></trkpt><trkpt lat="45.76973232768891" lon="8.0600665033997"><ele>730.8571428571429</ele><time>2026-04-06T14:18:57.999Z</time></trkpt><trkpt lat="45.76975667314897" lon="8.06016684207962"><ele>730.1428571428571</ele><time>2026-04-06T14:18:58.999Z</time></trkpt><trkpt lat="45.76977568892492" lon="8.060270609513355"><ele>729.4285714285714</ele><time>2026-04-06T14:18:59.999Z</time></trkpt><trkpt lat="45.76978820249271" lon="8.060376805969835"><ele>728.7142857142857</ele><time>2026-04-06T14:19:00.999Z</time></trkpt><trkpt lat="45.76979587189283" lon="8.06048637812718"><ele>728.0</ele><time>2026-04-06T14:19:01.999Z</time></trkpt><trkpt lat="45.76979730629276" lon="8.06059512825192"><ele>728.0</ele><time>2026-04-06T14:19:02.999Z</time></trkpt><trkpt lat="45.76979057178787" lon="8.060705303983717"><ele>728.0</ele><time>2026-04-06T14:19:03.999Z</time></trkpt><trkpt lat="45.76978774298704" lon="8.060810673328707"><ele>728.0</ele><time>2026-04-06T14:19:04.999Z</time></trkpt><trkpt lat="45.769774787049585" lon="8.060917242921967"><ele>728.0</ele><time>2026-04-06T14:19:05.999Z</time></trkpt><trkpt lat="45.76975968631541" lon="8.061018313126509"><ele>728.0</ele><time>2026-04-06T14:19:06.999Z</time></trkpt><trkpt lat="45.76974582498965" lon="8.061122153999834"><ele>728.0</ele><time>2026-04-06T14:19:07.999Z</time></trkpt><trkpt lat="45.769730324685405" lon="8.0612225644167"><ele>728.0</ele><time>2026-04-06T14:19:08.999Z</time></trkpt><trkpt lat="45.769720811402465" lon="8.061324475588465"><ele>728.1428571428571</ele><time>2026-04-06T14:19:09.999Z</time></trkpt><trkpt lat="45.7697112156208" lon="8.06142861847333"><ele>728.2857142857142</ele><time>2026-04-06T14:19:10.999Z</time></trkpt><trkpt lat="45.76969521413999" lon="8.061528381704907"><ele>728.4285714285714</ele><time>2026-04-06T14:19:11.999Z</time></trkpt><trkpt lat="45.769683347592945" lon="8.061629021673644"><ele>728.5714285714286</ele><time>2026-04-06T14:19:12.999Z</time></trkpt><trkpt lat="45.7696738537311" lon="8.061732746663441"><ele>728.7142857142857</ele><time>2026-04-06T14:19:13.999Z</time></trkpt><trkpt lat="45.76966334695509" lon="8.061831829683225"><ele>728.8571428571429</ele><time>2026-04-06T14:19:14.999Z</time></trkpt><trkpt lat="45.769651257789455" lon="8.061932394028956"><ele>729.0</ele><time>2026-04-06T14:19:15.999Z</time></trkpt><trkpt lat="45.76963781956284" lon="8.062032828362135"><ele>729.4285714285714</ele><time>2026-04-06T14:19:16.999Z</time></trkpt><trkpt lat="45.7696243287238" lon="8.062132981776143"><ele>729.8571428571428</ele><time>2026-04-06T14:19:17.999Z</time></trkpt><trkpt lat="45.769612297268594" lon="8.062232457383923"><ele>730.2857142857142</ele><time>2026-04-06T14:19:18.999Z</time></trkpt><trkpt lat="45.769600366060125" lon="8.062329264290456"><ele>730.7142857142858</ele><time>2026-04-06T14:19:19.999Z</time></trkpt><trkpt lat="45.769588852555366" lon="8.062426389271526"><ele>731.1428571428571</ele><time>2026-04-06T14:19:21Z</time></trkpt><trkpt lat="45.769577614921076" lon="8.06252236283595"><ele>731.5714285714286</ele><time>2026-04-06T14:19:22Z</time></trkpt><trkpt lat="45.769565811645286" lon="8.062617994534651"><ele>732.0</ele><time>2026-04-06T14:19:23Z</time></trkpt><trkpt lat="45.76955238367071" lon="8.0627126848378"><ele>733.25</ele><time>2026-04-06T14:19:24Z</time></trkpt><trkpt lat="45.769541853950685" lon="8.062805222782664"><ele>734.5</ele><time>2026-04-06T14:19:25Z</time></trkpt><trkpt lat="45.76952890149222" lon="8.062897174839273"><ele>735.75</ele><time>2026-04-06T14:19:26Z</time></trkpt><trkpt lat="45.7695165507737" lon="8.062987240873866"><ele>737.0</ele><time>2026-04-06T14:19:27Z</time></trkpt><trkpt lat="45.76950671130639" lon="8.063077934959074"><ele>738.25</ele><time>2026-04-06T14:19:28Z</time></trkpt><trkpt lat="45.76949644396169" lon="8.063167158321527"><ele>739.5</ele><time>2026-04-06T14:19:29Z</time></trkpt><trkpt lat="45.76948604535284" lon="8.063257687878647"><ele>740.75</ele><time>2026-04-06T14:19:30Z</time></trkpt><trkpt lat="45.769477948113085" lon="8.06334787003631"><ele>742.0</ele><time>2026-04-06T14:19:31Z</time></trkpt><trkpt lat="45.76946839504085" lon="8.063437329509616"><ele>742.25</ele><time>2026-04-06T14:19:32Z</time></trkpt><trkpt lat="45.769444898214296" lon="8.063612553881715"><ele>742.5</ele><time>2026-04-06T14:19:34Z</time></trkpt><trkpt lat="45.769429218300665" lon="8.063788401591776"><ele>742.75</ele><time>2026-04-06T14:19:36Z</time></trkpt><trkpt lat="45.76940863063422" lon="8.063958340644154"><ele>743.0</ele><time>2026-04-06T14:19:38Z</time></trkpt><trkpt lat="45.76940826897499" lon="8.064129633849754"><ele>741.1666666666666</ele><time>2026-04-06T14:19:40Z</time></trkpt><trkpt lat="45.76941326643991" lon="8.06430144920612"><ele>739.3333333333333</ele><time>2026-04-06T14:19:42Z</time></trkpt><trkpt lat="45.76942590079115" lon="8.06447704348914"><ele>737.5</ele><time>2026-04-06T14:19:44Z</time></trkpt><trkpt lat="45.76944301140963" lon="8.064565411971737"><ele>735.6666666666666</ele><time>2026-04-06T14:19:45Z</time></trkpt><trkpt lat="45.769457015962494" lon="8.064657077721904"><ele>733.8333333333334</ele><time>2026-04-06T14:19:46Z</time></trkpt><trkpt lat="45.76947397967646" lon="8.064745520227513"><ele>732.0</ele><time>2026-04-06T14:19:47Z</time></trkpt><trkpt lat="45.769482238669134" lon="8.06483922649331"><ele>732.0</ele><time>2026-04-06T14:19:48Z</time></trkpt><trkpt lat="45.76949435256429" lon="8.064930463165663"><ele>732.0</ele><time>2026-04-06T14:19:49Z</time></trkpt><trkpt lat="45.76950583207872" lon="8.065023487582344"><ele>732.0</ele><time>2026-04-06T14:19:50Z</time></trkpt><trkpt lat="45.76951702151746" lon="8.065115330600507"><ele>732.0</ele><time>2026-04-06T14:19:51Z</time></trkpt><trkpt lat="45.769525502470515" lon="8.065208622821636"><ele>732.0</ele><time>2026-04-06T14:19:52Z</time></trkpt><trkpt lat="45.76953227337136" lon="8.065298820211643"><ele>732.0</ele><time>2026-04-06T14:19:53Z</time></trkpt><trkpt lat="45.76953788343301" lon="8.065391065279671"><ele>732.0</ele><time>2026-04-06T14:19:54Z</time></trkpt><trkpt lat="45.76954184619769" lon="8.065481276018714"><ele>731.25</ele><time>2026-04-06T14:19:55Z</time></trkpt><trkpt lat="45.769538441856064" lon="8.065660616804687"><ele>730.5</ele><time>2026-04-06T14:19:57Z</time></trkpt><trkpt lat="45.76950837714992" lon="8.065831756819561"><ele>729.75</ele><time>2026-04-06T14:19:59Z</time></trkpt><trkpt lat="45.769479077635175" lon="8.066004356480292"><ele>729.0</ele><time>2026-04-06T14:20:01Z</time></trkpt><trkpt lat="45.76946724322763" lon="8.066182944048895"><ele>728.8333333333334</ele><time>2026-04-06T14:20:03Z</time></trkpt><trkpt lat="45.76944462794052" lon="8.066359823107051"><ele>728.6666666666666</ele><time>2026-04-06T14:20:05Z</time></trkpt><trkpt lat="45.76943187622713" lon="8.06653869731375"><ele>728.5</ele><time>2026-04-06T14:20:07Z</time></trkpt><trkpt lat="45.769423909629595" lon="8.066628337848192"><ele>728.3333333333333</ele><time>2026-04-06T14:20:08Z</time></trkpt><trkpt lat="45.76941660922791" lon="8.066719533353941"><ele>728.1666666666666</ele><time>2026-04-06T14:20:09Z</time></trkpt><trkpt lat="45.76940886361304" lon="8.066810248076312"><ele>728.0</ele><time>2026-04-06T14:20:10Z</time></trkpt><trkpt lat="45.76940545716178" lon="8.06690039906517"><ele>728.0</ele><time>2026-04-06T14:20:11Z</time></trkpt><trkpt lat="45.76940405665101" lon="8.067077958702765"><ele>728.0</ele><time>2026-04-06T14:20:13Z</time></trkpt><trkpt lat="45.76941147212478" lon="8.067167832179594"><ele>728.0</ele><time>2026-04-06T14:20:14Z</time></trkpt><trkpt lat="45.76943154182969" lon="8.067342813088272"><ele>728.0</ele><time>2026-04-06T14:20:16Z</time></trkpt><trkpt lat="45.76945095656112" lon="8.067519818817699"><ele>728.0</ele><time>2026-04-06T14:20:18Z</time></trkpt><trkpt lat="45.76946180934725" lon="8.06760890581219"><ele>727.2857142857143</ele><time>2026-04-06T14:20:19Z</time></trkpt><trkpt lat="45.769476065217404" lon="8.067698379648272"><ele>726.5714285714286</ele><time>2026-04-06T14:20:20Z</time></trkpt><trkpt lat="45.7694908408533" lon="8.067787141777739"><ele>725.8571428571429</ele><time>2026-04-06T14:20:21Z</time></trkpt><trkpt lat="45.769505592156534" lon="8.06787545449624"><ele>725.1428571428571</ele><time>2026-04-06T14:20:22Z</time></trkpt><trkpt lat="45.769522409162775" lon="8.06796309060343"><ele>724.4285714285714</ele><time>2026-04-06T14:20:22.999Z</time></trkpt><trkpt lat="45.76953806294522" lon="8.068051414034953"><ele>723.7142857142858</ele><time>2026-04-06T14:20:23.999Z</time></trkpt><trkpt lat="45.7695507873947" lon="8.068141144883906"><ele>723.0</ele><time>2026-04-06T14:20:24.999Z</time></trkpt><trkpt lat="45.76958871566083" lon="8.06830826669859"><ele>721.5</ele><time>2026-04-06T14:20:26.999Z</time></trkpt><trkpt lat="45.76962736020181" lon="8.068477871536201"><ele>720.0</ele><time>2026-04-06T14:20:28.999Z</time></trkpt><trkpt lat="45.76966915033948" lon="8.068642570102408"><ele>718.5</ele><time>2026-04-06T14:20:30.999Z</time></trkpt><trkpt lat="45.7697149097667" lon="8.068805013642729"><ele>717.0</ele><time>2026-04-06T14:20:32.999Z</time></trkpt><trkpt lat="45.76976629929228" lon="8.068969587038222"><ele>717.0</ele><time>2026-04-06T14:20:34.999Z</time></trkpt><trkpt lat="45.769790460756795" lon="8.069053235990145"><ele>717.0</ele><time>2026-04-06T14:20:35.999Z</time></trkpt><trkpt lat="45.76983974702356" lon="8.069218105621713"><ele>717.0</ele><time>2026-04-06T14:20:37.999Z</time></trkpt><trkpt lat="45.76988891079206" lon="8.069384655574888"><ele>717.0</ele><time>2026-04-06T14:20:39.999Z</time></trkpt><trkpt lat="45.7699383730282" lon="8.069547226127385"><ele>717.0</ele><time>2026-04-06T14:20:41.999Z</time></trkpt><trkpt lat="45.76996314002546" lon="8.069630507663764"><ele>716.8333333333334</ele><time>2026-04-06T14:20:42.999Z</time></trkpt><trkpt lat="45.770010662983935" lon="8.069797882649416"><ele>716.6666666666666</ele><time>2026-04-06T14:20:44.999Z</time></trkpt><trkpt lat="45.77003693849597" lon="8.069882694196364"><ele>716.5</ele><time>2026-04-06T14:20:45.999Z</time></trkpt><trkpt lat="45.77006258017271" lon="8.069965446035491"><ele>716.3333333333333</ele><time>2026-04-06T14:20:46.999Z</time></trkpt><trkpt lat="45.770089527367" lon="8.070050110387191"><ele>716.1666666666666</ele><time>2026-04-06T14:20:47.999Z</time></trkpt><trkpt lat="45.77013747542397" lon="8.070216817167026"><ele>716.0</ele><time>2026-04-06T14:20:49.999Z</time></trkpt><trkpt lat="45.770162257315675" lon="8.070300717548307"><ele>717.1999999999999</ele><time>2026-04-06T14:20:50.999Z</time></trkpt><trkpt lat="45.77018656960651" lon="8.07038539491867"><ele>718.4</ele><time>2026-04-06T14:20:51.999Z</time></trkpt><trkpt lat="45.770235306351076" lon="8.070552470831664"><ele>719.6</ele><time>2026-04-06T14:20:53.999Z</time></trkpt><trkpt lat="45.77028353742355" lon="8.070714282937207"><ele>720.8</ele><time>2026-04-06T14:20:55.999Z</time></trkpt><trkpt lat="45.77033296818317" lon="8.070880534714657"><ele>722.0</ele><time>2026-04-06T14:20:57.999Z</time></trkpt><trkpt lat="45.7703803384378" lon="8.071043566867866"><ele>722.0</ele><time>2026-04-06T14:20:59.999Z</time></trkpt><trkpt lat="45.77042353553039" lon="8.071209860947633"><ele>722.0</ele><time>2026-04-06T14:21:01.999Z</time></trkpt><trkpt lat="45.770470724511256" lon="8.071374762124565"><ele>722.0</ele><time>2026-04-06T14:21:03.999Z</time></trkpt><trkpt lat="45.77052327020105" lon="8.071534105221517"><ele>722.0</ele><time>2026-04-06T14:21:05.999Z</time></trkpt><trkpt lat="45.77058407615974" lon="8.07169028033791"><ele>721.0</ele><time>2026-04-06T14:21:07.999Z</time></trkpt><trkpt lat="45.770631954411535" lon="8.071859090461375"><ele>720.0</ele><time>2026-04-06T14:21:09.999Z</time></trkpt><trkpt lat="45.77065505870517" lon="8.071944784794143"><ele>719.0</ele><time>2026-04-06T14:21:10.999Z</time></trkpt><trkpt lat="45.77067491702412" lon="8.07203300172935"><ele>718.0</ele><time>2026-04-06T14:21:11.999Z</time></trkpt><trkpt lat="45.77072098707331" lon="8.072201822352506"><ele>717.0</ele><time>2026-04-06T14:21:13.999Z</time></trkpt><trkpt lat="45.77074408732787" lon="8.072289986723197"><ele>716.0</ele><time>2026-04-06T14:21:14.999Z</time></trkpt><trkpt lat="45.770771199506875" lon="8.072462155350491"><ele>715.4</ele><time>2026-04-06T14:21:16.999Z</time></trkpt><trkpt lat="45.77077884568081" lon="8.072630248384574"><ele>714.8</ele><time>2026-04-06T14:21:18.999Z</time></trkpt><trkpt lat="45.77075365021272" lon="8.072788689323968"><ele>714.1999999999999</ele><time>2026-04-06T14:21:20.999Z</time></trkpt><trkpt lat="45.77075552582642" lon="8.072943813734957"><ele>713.5999999999999</ele><time>2026-04-06T14:21:22.999Z</time></trkpt><trkpt lat="45.770756500313695" lon="8.073095344732922"><ele>713.0</ele><time>2026-04-06T14:21:24.999Z</time></trkpt><trkpt lat="45.77073864284968" lon="8.073244170917974"><ele>712.8</ele><time>2026-04-06T14:21:27Z</time></trkpt><trkpt lat="45.77072697445807" lon="8.07339743027044"><ele>712.5999999999999</ele><time>2026-04-06T14:21:29Z</time></trkpt><trkpt lat="45.770715273851685" lon="8.07353760856627"><ele>712.4000000000001</ele><time>2026-04-06T14:21:31Z</time></trkpt><trkpt lat="45.77069875980976" lon="8.073695284751492"><ele>712.2</ele><time>2026-04-06T14:21:33Z</time></trkpt><trkpt lat="45.77067752838919" lon="8.07384851158879"><ele>712.0</ele><time>2026-04-06T14:21:35Z</time></trkpt><trkpt lat="45.770650716764905" lon="8.074000729132099"><ele>712.5</ele><time>2026-04-06T14:21:37Z</time></trkpt><trkpt lat="45.770610792925936" lon="8.074149501566387"><ele>713.0</ele><time>2026-04-06T14:21:39Z</time></trkpt><trkpt lat="45.77057217079536" lon="8.07430287599877"><ele>713.5</ele><time>2026-04-06T14:21:41Z</time></trkpt><trkpt lat="45.770522244140835" lon="8.074455614576669"><ele>714.0</ele><time>2026-04-06T14:21:43Z</time></trkpt><trkpt lat="45.77047477053257" lon="8.07460594450024"><ele>714.0</ele><time>2026-04-06T14:21:45Z</time></trkpt><trkpt lat="45.7704394265167" lon="8.074751203292157"><ele>714.0</ele><time>2026-04-06T14:21:47Z</time></trkpt><trkpt lat="45.770393298041384" lon="8.074887637643378"><ele>714.0</ele><time>2026-04-06T14:21:49Z</time></trkpt><trkpt lat="45.77034807847508" lon="8.075009649587031"><ele>714.0</ele><time>2026-04-06T14:21:51Z</time></trkpt><trkpt lat="45.770290045353455" lon="8.075115678938465"><ele>714.0</ele><time>2026-04-06T14:21:53Z</time></trkpt><trkpt lat="45.77024322375261" lon="8.075178968787256"><ele>715.0</ele><time>2026-04-06T14:21:55Z</time></trkpt><trkpt lat="45.770190745985275" lon="8.075233546754765"><ele>716.0</ele><time>2026-04-06T14:22:02Z</time></trkpt><trkpt lat="45.77021759188694" lon="8.075320691606425"><ele>717.0</ele><time>2026-04-06T14:24:44.999Z</time></trkpt><trkpt lat="45.77019318106033" lon="8.075405033671677"><ele>718.0</ele><time>2026-04-06T14:24:46.999Z</time></trkpt><trkpt lat="45.77000290115635" lon="8.075352079470543"><ele>719.0</ele><time>2026-04-06T14:24:47.999Z</time></trkpt><trkpt lat="45.76992018453547" lon="8.075439830778317"><ele>717.0</ele><time>2026-04-06T14:24:49.999Z</time></trkpt><trkpt lat="45.76985414918099" lon="8.075570274925685"><ele>715.0</ele><time>2026-04-06T14:24:51.999Z</time></trkpt><trkpt lat="45.769828869406766" lon="8.075744034055756"><ele>713.0</ele><time>2026-04-06T14:24:53.999Z</time></trkpt><trkpt lat="45.769817030888674" lon="8.075832842300727"><ele>711.0</ele><time>2026-04-06T14:24:54.999Z</time></trkpt><trkpt lat="45.769813337554545" lon="8.075925073816542"><ele>709.0</ele><time>2026-04-06T14:24:55.999Z</time></trkpt><trkpt lat="45.769811577559395" lon="8.07602163348281"><ele>707.0</ele><time>2026-04-06T14:24:56.999Z</time></trkpt><trkpt lat="45.76980368208187" lon="8.076122177504534"><ele>707.0</ele><time>2026-04-06T14:24:57.999Z</time></trkpt><trkpt lat="45.76979532430024" lon="8.076224222373352"><ele>707.0</ele><time>2026-04-06T14:24:58.999Z</time></trkpt><trkpt lat="45.76978624045271" lon="8.076330657298616"><ele>707.0</ele><time>2026-04-06T14:24:59.999Z</time></trkpt><trkpt lat="45.76977729124293" lon="8.076444042713138"><ele>707.0</ele><time>2026-04-06T14:25:00.999Z</time></trkpt><trkpt lat="45.769772352874426" lon="8.076561262141048"><ele>707.0</ele><time>2026-04-06T14:25:01.999Z</time></trkpt><trkpt lat="45.76976593758617" lon="8.076684409288323"><ele>707.0</ele><time>2026-04-06T14:25:02.999Z</time></trkpt><trkpt lat="45.769760658172885" lon="8.07681572405975"><ele>707.0</ele><time>2026-04-06T14:25:03.999Z</time></trkpt><trkpt lat="45.76975640039751" lon="8.076951098000094"><ele>707.0</ele><time>2026-04-06T14:25:04.999Z</time></trkpt><trkpt lat="45.7697493575486" lon="8.077087910556001"><ele>707.0</ele><time>2026-04-06T14:25:05.999Z</time></trkpt><trkpt lat="45.7697386656822" lon="8.077204973544513"><ele>707.0</ele><time>2026-04-06T14:25:06.999Z</time></trkpt><trkpt lat="45.76972218939493" lon="8.07730012792233"><ele>707.0</ele><time>2026-04-06T14:25:07.999Z</time></trkpt><trkpt lat="45.76970093236955" lon="8.077387636417201"><ele>707.0</ele><time>2026-04-06T14:25:08.999Z</time></trkpt><trkpt lat="45.76966629278664" lon="8.07746338454631"><ele>707.3333333333333</ele><time>2026-04-06T14:25:09.999Z</time></trkpt><trkpt lat="45.7696126705094" lon="8.077528601356626"><ele>707.6666666666666</ele><time>2026-04-06T14:25:10.999Z</time></trkpt><trkpt lat="45.76954403290213" lon="8.07757316955696"><ele>708.0</ele><time>2026-04-06T14:25:11.999Z</time></trkpt><trkpt lat="45.76946573964328" lon="8.07758752422058"><ele>708.3333333333334</ele><time>2026-04-06T14:25:12.999Z</time></trkpt><trkpt lat="45.76938421949452" lon="8.077579847976669"><ele>708.6666666666667</ele><time>2026-04-06T14:25:13.999Z</time></trkpt><trkpt lat="45.76930646187353" lon="8.07755362338567"><ele>709.0</ele><time>2026-04-06T14:25:14.999Z</time></trkpt><trkpt lat="45.76923289260493" lon="8.077514614387466"><ele>705.5</ele><time>2026-04-06T14:25:15.999Z</time></trkpt><trkpt lat="45.769163429524035" lon="8.077471144554124"><ele>702.0</ele><time>2026-04-06T14:25:16.999Z</time></trkpt><trkpt lat="45.769096068155775" lon="8.077434653531489"><ele>698.5</ele><time>2026-04-06T14:25:17.999Z</time></trkpt><trkpt lat="45.76903250479339" lon="8.077401704621732"><ele>695.0</ele><time>2026-04-06T14:25:18.999Z</time></trkpt><trkpt lat="45.768972676816375" lon="8.077366462483903"><ele>691.5</ele><time>2026-04-06T14:25:19.999Z</time></trkpt><trkpt lat="45.76886120410791" lon="8.07730253472469"><ele>688.0</ele><time>2026-04-06T14:25:21.999Z</time></trkpt><trkpt lat="45.768756515594745" lon="8.077246924549158"><ele>688.0</ele><time>2026-04-06T14:25:23.999Z</time></trkpt><trkpt lat="45.76865803677337" lon="8.077190617955308"><ele>688.0</ele><time>2026-04-06T14:25:25.999Z</time></trkpt><trkpt lat="45.768563682682014" lon="8.077146192635057"><ele>688.0</ele><time>2026-04-06T14:25:27.999Z</time></trkpt><trkpt lat="45.768474159612545" lon="8.077135524472778"><ele>688.0</ele><time>2026-04-06T14:25:29.999Z</time></trkpt><trkpt lat="45.7683921986691" lon="8.077162568703159"><ele>688.0</ele><time>2026-04-06T14:25:31.999Z</time></trkpt><trkpt lat="45.768333185228656" lon="8.077221980413336"><ele>689.0</ele><time>2026-04-06T14:25:33.999Z</time></trkpt><trkpt lat="45.76827395303743" lon="8.077317410159427"><ele>690.0</ele><time>2026-04-06T14:25:36.999Z</time></trkpt><trkpt lat="45.76822425861228" lon="8.077429038604002"><ele>691.0</ele><time>2026-04-06T14:25:40Z</time></trkpt><trkpt lat="45.768193922655534" lon="8.07751200056288"><ele>692.0</ele><time>2026-04-06T14:25:42Z</time></trkpt><trkpt lat="45.768173075533284" lon="8.077599585678069"><ele>693.0</ele><time>2026-04-06T14:25:44Z</time></trkpt><trkpt lat="45.76815245952664" lon="8.077687460151479"><ele>694.0</ele><time>2026-04-06T14:25:46Z</time></trkpt><trkpt lat="45.768115383849484" lon="8.077785072308224"><ele>694.0</ele><time>2026-04-06T14:25:48Z</time></trkpt><trkpt lat="45.76807491612888" lon="8.077878581732794"><ele>694.0</ele><time>2026-04-06T14:25:50Z</time></trkpt><trkpt lat="45.768040968187634" lon="8.077980934653713"><ele>694.0</ele><time>2026-04-06T14:25:52Z</time></trkpt><trkpt lat="45.76799767455696" lon="8.078090679982655"><ele>694.0</ele><time>2026-04-06T14:25:54Z</time></trkpt><trkpt lat="45.76795916917031" lon="8.078209805239439"><ele>694.0</ele><time>2026-04-06T14:25:56Z</time></trkpt><trkpt lat="45.76791857870066" lon="8.07833418996597"><ele>694.0</ele><time>2026-04-06T14:25:58Z</time></trkpt><trkpt lat="45.76787386341877" lon="8.078467774665913"><ele>694.1666666666667</ele><time>2026-04-06T14:26:00Z</time></trkpt><trkpt lat="45.76782916226992" lon="8.07861472836367"><ele>694.3333333333334</ele><time>2026-04-06T14:26:02Z</time></trkpt><trkpt lat="45.76778298710473" lon="8.078767799325068"><ele>694.5</ele><time>2026-04-06T14:26:04Z</time></trkpt><trkpt lat="45.76775478751043" lon="8.078851843356812"><ele>694.6666666666666</ele><time>2026-04-06T14:26:05Z</time></trkpt><trkpt lat="45.767731330305885" lon="8.078944014208899"><ele>694.8333333333333</ele><time>2026-04-06T14:26:06Z</time></trkpt><trkpt lat="45.76770844001845" lon="8.079043305330776"><ele>695.0</ele><time>2026-04-06T14:26:07Z</time></trkpt><trkpt lat="45.767683651926426" lon="8.07914533436024"><ele>695.0</ele><time>2026-04-06T14:26:08Z</time></trkpt><trkpt lat="45.767655244579416" lon="8.079254318750102"><ele>695.0</ele><time>2026-04-06T14:26:09Z</time></trkpt><trkpt lat="45.76762344067016" lon="8.079368093612798"><ele>695.0</ele><time>2026-04-06T14:26:10Z</time></trkpt><trkpt lat="45.76759517728821" lon="8.079487886493832"><ele>695.0</ele><time>2026-04-06T14:26:11Z</time></trkpt><trkpt lat="45.76756646938555" lon="8.07961428704273"><ele>695.0</ele><time>2026-04-06T14:26:12Z</time></trkpt><trkpt lat="45.76753315971426" lon="8.079747648218914"><ele>695.0</ele><time>2026-04-06T14:26:13Z</time></trkpt><trkpt lat="45.76749576269399" lon="8.079886099647686"><ele>693.6</ele><time>2026-04-06T14:26:14Z</time></trkpt><trkpt lat="45.76745717045768" lon="8.08003088583774"><ele>692.2</ele><time>2026-04-06T14:26:15Z</time></trkpt><trkpt lat="45.7674224373414" lon="8.080183779730978"><ele>690.8</ele><time>2026-04-06T14:26:16Z</time></trkpt><trkpt lat="45.767386482413876" lon="8.08034136878048"><ele>689.4</ele><time>2026-04-06T14:26:17Z</time></trkpt><trkpt lat="45.76736636940533" lon="8.080495064649996"><ele>688.0</ele><time>2026-04-06T14:26:18Z</time></trkpt><trkpt lat="45.767353197749" lon="8.080655889251853"><ele>687.0</ele><time>2026-04-06T14:26:19Z</time></trkpt><trkpt lat="45.7673494560127" lon="8.08081702876151"><ele>686.0</ele><time>2026-04-06T14:26:20Z</time></trkpt><trkpt lat="45.767352153854674" lon="8.08097394920614"><ele>685.0</ele><time>2026-04-06T14:26:21Z</time></trkpt><trkpt lat="45.767356519441435" lon="8.081131959828362"><ele>684.0</ele><time>2026-04-06T14:26:22Z</time></trkpt><trkpt lat="45.76735995568133" lon="8.081280366526965"><ele>683.0</ele><time>2026-04-06T14:26:23Z</time></trkpt><trkpt lat="45.76735266587001" lon="8.081431269701184"><ele>683.0</ele><time>2026-04-06T14:26:24Z</time></trkpt><trkpt lat="45.76735581762029" lon="8.081577706759495"><ele>683.0</ele><time>2026-04-06T14:26:25Z</time></trkpt><trkpt lat="45.767355011507995" lon="8.081719084479666"><ele>683.0</ele><time>2026-04-06T14:26:26Z</time></trkpt><trkpt lat="45.76735269997632" lon="8.081856266394993"><ele>683.0</ele><time>2026-04-06T14:26:27Z</time></trkpt><trkpt lat="45.76735059048171" lon="8.08199120635991"><ele>683.0</ele><time>2026-04-06T14:26:28Z</time></trkpt><trkpt lat="45.7673535400658" lon="8.082122671868657"><ele>682.5</ele><time>2026-04-06T14:26:29Z</time></trkpt><trkpt lat="45.767362266002564" lon="8.082249228110976"><ele>682.0</ele><time>2026-04-06T14:26:30Z</time></trkpt><trkpt lat="45.767375113330914" lon="8.082372256742742"><ele>681.5</ele><time>2026-04-06T14:26:31Z</time></trkpt><trkpt lat="45.7673925874392" lon="8.082492144683826"><ele>681.0</ele><time>2026-04-06T14:26:32Z</time></trkpt><trkpt lat="45.7674231417565" lon="8.082602717672843"><ele>680.5</ele><time>2026-04-06T14:26:33Z</time></trkpt><trkpt lat="45.76745475492522" lon="8.08270950254223"><ele>680.0</ele><time>2026-04-06T14:26:34Z</time></trkpt><trkpt lat="45.76749042559085" lon="8.082812623739956"><ele>679.5</ele><time>2026-04-06T14:26:35Z</time></trkpt><trkpt lat="45.76752779438176" lon="8.08291257792907"><ele>679.0</ele><time>2026-04-06T14:26:36Z</time></trkpt><trkpt lat="45.767567941241275" lon="8.083010261887546"><ele>678.5</ele><time>2026-04-06T14:26:37Z</time></trkpt><trkpt lat="45.76760884083022" lon="8.083104227396868"><ele>678.0</ele><time>2026-04-06T14:26:37.999Z</time></trkpt><trkpt lat="45.76765219112555" lon="8.083196978916897"><ele>677.5</ele><time>2026-04-06T14:26:38.999Z</time></trkpt><trkpt lat="45.76769393603771" lon="8.083287255482164"><ele>677.0</ele><time>2026-04-06T14:26:39.999Z</time></trkpt><trkpt lat="45.767733720606" lon="8.083379197521468"><ele>676.1666666666666</ele><time>2026-04-06T14:26:40.999Z</time></trkpt><trkpt lat="45.76777126607629" lon="8.083470136502562"><ele>675.3333333333333</ele><time>2026-04-06T14:26:41.999Z</time></trkpt><trkpt lat="45.76780665751971" lon="8.08355769275711"><ele>674.5</ele><time>2026-04-06T14:26:42.999Z</time></trkpt><trkpt lat="45.767838394124865" lon="8.083646711868008"><ele>673.6666666666666</ele><time>2026-04-06T14:26:43.999Z</time></trkpt><trkpt lat="45.76786537939407" lon="8.083737698933966"><ele>672.8333333333334</ele><time>2026-04-06T14:26:44.999Z</time></trkpt><trkpt lat="45.76787457165234" lon="8.083829963225572"><ele>672.0</ele><time>2026-04-06T14:26:45.999Z</time></trkpt><trkpt lat="45.7678614713431" lon="8.08397864246466"><ele>672.0</ele><time>2026-04-06T14:26:47.999Z</time></trkpt><trkpt lat="45.76784126594798" lon="8.08407393736423"><ele>672.0</ele><time>2026-04-06T14:26:50.999Z</time></trkpt></trkseg></trk></gpx>